<?xml version="1.0" encoding="UTF-8" standalone="no" ?>
<gpx xmlns="http://www.topografix.com/GPX/1/1" xmlns:xsi="http://www.w3.org/2001/XMLSchema-instance" xsi:schemaLocation="http://www.topografix.com/GPX/1/1 http://www.topografix.com/GPX/1/1/gpx.xsd" version="1.1" creator="VisuGPX - https://www.visugpx.com">
  <metadata>
    <name>Carlit</name>
    <desc><![CDATA[https://subircumbres.wordpress.com/2021/07/25/carlit-2921m/]]></desc>
  </metadata>
  <trk>
    <name><![CDATA[05-JUL-21 15:19:47]]></name>
    <trkseg>
      <trkpt lat="42.55166" lon="1.88043">
        <ele>1733.39</ele>
        <time>2021-07-05T05:54:06Z</time>
      </trkpt>
      <trkpt lat="42.55165" lon="1.88043">
        <ele>1733.39</ele>
        <time>2021-07-05T05:54:07Z</time>
      </trkpt>
      <trkpt lat="42.55164" lon="1.88042">
        <ele>1734.36</ele>
        <time>2021-07-05T05:54:10Z</time>
      </trkpt>
      <trkpt lat="42.55169" lon="1.88039">
        <ele>1733.88</ele>
        <time>2021-07-05T05:54:21Z</time>
      </trkpt>
      <trkpt lat="42.55171" lon="1.88037">
        <ele>1733.39</ele>
        <time>2021-07-05T05:54:30Z</time>
      </trkpt>
      <trkpt lat="42.55171" lon="1.88034">
        <ele>1733.39</ele>
        <time>2021-07-05T05:54:37Z</time>
      </trkpt>
      <trkpt lat="42.55171" lon="1.88031">
        <ele>1733.88</ele>
        <time>2021-07-05T05:54:43Z</time>
      </trkpt>
      <trkpt lat="42.5517" lon="1.8803">
        <ele>1733.39</ele>
        <time>2021-07-05T05:54:44Z</time>
      </trkpt>
      <trkpt lat="42.55159" lon="1.88029">
        <ele>1733.39</ele>
        <time>2021-07-05T05:54:52Z</time>
      </trkpt>
      <trkpt lat="42.55154" lon="1.88029">
        <ele>1733.39</ele>
        <time>2021-07-05T05:54:55Z</time>
      </trkpt>
      <trkpt lat="42.55149" lon="1.88031">
        <ele>1732.91</ele>
        <time>2021-07-05T05:55:02Z</time>
      </trkpt>
      <trkpt lat="42.55148" lon="1.8803">
        <ele>1733.39</ele>
        <time>2021-07-05T05:55:14Z</time>
      </trkpt>
      <trkpt lat="42.5515" lon="1.88031">
        <ele>1732.91</ele>
        <time>2021-07-05T05:55:27Z</time>
      </trkpt>
      <trkpt lat="42.55151" lon="1.88031">
        <ele>1733.39</ele>
        <time>2021-07-05T05:55:31Z</time>
      </trkpt>
      <trkpt lat="42.55146" lon="1.88024">
        <ele>1733.39</ele>
        <time>2021-07-05T05:55:36Z</time>
      </trkpt>
      <trkpt lat="42.55142" lon="1.88028">
        <ele>1732.43</ele>
        <time>2021-07-05T05:55:41Z</time>
      </trkpt>
      <trkpt lat="42.55141" lon="1.88032">
        <ele>1731.47</ele>
        <time>2021-07-05T05:55:43Z</time>
      </trkpt>
      <trkpt lat="42.55138" lon="1.88034">
        <ele>1730.99</ele>
        <time>2021-07-05T05:55:45Z</time>
      </trkpt>
      <trkpt lat="42.5513" lon="1.88036">
        <ele>1730.51</ele>
        <time>2021-07-05T05:55:50Z</time>
      </trkpt>
      <trkpt lat="42.55119" lon="1.88044">
        <ele>1730.51</ele>
        <time>2021-07-05T05:55:58Z</time>
      </trkpt>
      <trkpt lat="42.55116" lon="1.88047">
        <ele>1730.03</ele>
        <time>2021-07-05T05:56:07Z</time>
      </trkpt>
      <trkpt lat="42.55116" lon="1.88047">
        <ele>1730.03</ele>
        <time>2021-07-05T05:56:24Z</time>
      </trkpt>
      <trkpt lat="42.55117" lon="1.88048">
        <ele>1730.03</ele>
        <time>2021-07-05T05:56:28Z</time>
      </trkpt>
      <trkpt lat="42.55115" lon="1.88047">
        <ele>1730.03</ele>
        <time>2021-07-05T05:56:33Z</time>
      </trkpt>
      <trkpt lat="42.5511" lon="1.88046">
        <ele>1730.03</ele>
        <time>2021-07-05T05:56:41Z</time>
      </trkpt>
      <trkpt lat="42.55107" lon="1.88047">
        <ele>1730.03</ele>
        <time>2021-07-05T05:56:50Z</time>
      </trkpt>
      <trkpt lat="42.55105" lon="1.88047">
        <ele>1730.03</ele>
        <time>2021-07-05T05:56:57Z</time>
      </trkpt>
      <trkpt lat="42.55103" lon="1.88049">
        <ele>1730.03</ele>
        <time>2021-07-05T05:57:04Z</time>
      </trkpt>
      <trkpt lat="42.55101" lon="1.8805">
        <ele>1730.03</ele>
        <time>2021-07-05T05:57:13Z</time>
      </trkpt>
      <trkpt lat="42.55095" lon="1.88053">
        <ele>1730.03</ele>
        <time>2021-07-05T05:57:20Z</time>
      </trkpt>
      <trkpt lat="42.55083" lon="1.88055">
        <ele>1730.51</ele>
        <time>2021-07-05T05:57:28Z</time>
      </trkpt>
      <trkpt lat="42.55071" lon="1.88063">
        <ele>1730.99</ele>
        <time>2021-07-05T05:57:37Z</time>
      </trkpt>
      <trkpt lat="42.55066" lon="1.88075">
        <ele>1731.47</ele>
        <time>2021-07-05T05:57:45Z</time>
      </trkpt>
      <trkpt lat="42.55058" lon="1.88091">
        <ele>1731.47</ele>
        <time>2021-07-05T05:57:53Z</time>
      </trkpt>
      <trkpt lat="42.55057" lon="1.88102">
        <ele>1731.47</ele>
        <time>2021-07-05T05:58:00Z</time>
      </trkpt>
      <trkpt lat="42.55056" lon="1.88103">
        <ele>1735.32</ele>
        <time>2021-07-05T05:58:04Z</time>
      </trkpt>
      <trkpt lat="42.55056" lon="1.88102">
        <ele>1731.47</ele>
        <time>2021-07-05T05:58:05Z</time>
      </trkpt>
      <trkpt lat="42.55056" lon="1.88102">
        <ele>1735.8</ele>
        <time>2021-07-05T05:58:07Z</time>
      </trkpt>
      <trkpt lat="42.55056" lon="1.88102">
        <ele>1731.47</ele>
        <time>2021-07-05T05:58:08Z</time>
      </trkpt>
      <trkpt lat="42.55056" lon="1.88101">
        <ele>1727.63</ele>
        <time>2021-07-05T05:58:10Z</time>
      </trkpt>
      <trkpt lat="42.55056" lon="1.88101">
        <ele>1735.8</ele>
        <time>2021-07-05T05:58:11Z</time>
      </trkpt>
      <trkpt lat="42.55056" lon="1.88101">
        <ele>1727.15</ele>
        <time>2021-07-05T05:58:12Z</time>
      </trkpt>
      <trkpt lat="42.55056" lon="1.88101">
        <ele>1735.8</ele>
        <time>2021-07-05T05:58:13Z</time>
      </trkpt>
      <trkpt lat="42.55056" lon="1.88101">
        <ele>1730.03</ele>
        <time>2021-07-05T05:58:14Z</time>
      </trkpt>
      <trkpt lat="42.55056" lon="1.88102">
        <ele>1731.47</ele>
        <time>2021-07-05T05:58:25Z</time>
      </trkpt>
      <trkpt lat="42.55052" lon="1.88109">
        <ele>1730.99</ele>
        <time>2021-07-05T05:58:34Z</time>
      </trkpt>
      <trkpt lat="42.55054" lon="1.88115">
        <ele>1731.95</ele>
        <time>2021-07-05T05:58:40Z</time>
      </trkpt>
      <trkpt lat="42.55054" lon="1.88121">
        <ele>1732.43</ele>
        <time>2021-07-05T05:58:46Z</time>
      </trkpt>
      <trkpt lat="42.55053" lon="1.88123">
        <ele>1731.95</ele>
        <time>2021-07-05T05:58:48Z</time>
      </trkpt>
      <trkpt lat="42.55047" lon="1.8813">
        <ele>1731.95</ele>
        <time>2021-07-05T05:58:56Z</time>
      </trkpt>
      <trkpt lat="42.55046" lon="1.88131">
        <ele>1731.95</ele>
        <time>2021-07-05T05:59:07Z</time>
      </trkpt>
      <trkpt lat="42.55047" lon="1.88134">
        <ele>1732.91</ele>
        <time>2021-07-05T05:59:15Z</time>
      </trkpt>
      <trkpt lat="42.55045" lon="1.88136">
        <ele>1732.43</ele>
        <time>2021-07-05T05:59:17Z</time>
      </trkpt>
      <trkpt lat="42.5504" lon="1.88132">
        <ele>1731.47</ele>
        <time>2021-07-05T05:59:23Z</time>
      </trkpt>
      <trkpt lat="42.5504" lon="1.88133">
        <ele>1731.47</ele>
        <time>2021-07-05T05:59:24Z</time>
      </trkpt>
      <trkpt lat="42.55031" lon="1.88126">
        <ele>1731.47</ele>
        <time>2021-07-05T05:59:32Z</time>
      </trkpt>
      <trkpt lat="42.55027" lon="1.88118">
        <ele>1731.47</ele>
        <time>2021-07-05T05:59:39Z</time>
      </trkpt>
      <trkpt lat="42.55027" lon="1.88115">
        <ele>1730.99</ele>
        <time>2021-07-05T05:59:42Z</time>
      </trkpt>
      <trkpt lat="42.55025" lon="1.88099">
        <ele>1732.43</ele>
        <time>2021-07-05T05:59:50Z</time>
      </trkpt>
      <trkpt lat="42.55024" lon="1.88089">
        <ele>1733.39</ele>
        <time>2021-07-05T05:59:55Z</time>
      </trkpt>
      <trkpt lat="42.55025" lon="1.88084">
        <ele>1734.36</ele>
        <time>2021-07-05T05:59:59Z</time>
      </trkpt>
      <trkpt lat="42.55017" lon="1.88074">
        <ele>1734.84</ele>
        <time>2021-07-05T06:00:06Z</time>
      </trkpt>
      <trkpt lat="42.55015" lon="1.88074">
        <ele>1734.84</ele>
        <time>2021-07-05T06:00:14Z</time>
      </trkpt>
      <trkpt lat="42.55013" lon="1.88074">
        <ele>1734.84</ele>
        <time>2021-07-05T06:00:26Z</time>
      </trkpt>
      <trkpt lat="42.55013" lon="1.88074">
        <ele>1734.84</ele>
        <time>2021-07-05T06:00:37Z</time>
      </trkpt>
      <trkpt lat="42.55014" lon="1.88074">
        <ele>1734.84</ele>
        <time>2021-07-05T06:00:50Z</time>
      </trkpt>
      <trkpt lat="42.55015" lon="1.88074">
        <ele>1734.84</ele>
        <time>2021-07-05T06:01:01Z</time>
      </trkpt>
      <trkpt lat="42.55014" lon="1.88073">
        <ele>1734.84</ele>
        <time>2021-07-05T06:01:10Z</time>
      </trkpt>
      <trkpt lat="42.55014" lon="1.88073">
        <ele>1734.84</ele>
        <time>2021-07-05T06:01:12Z</time>
      </trkpt>
      <trkpt lat="42.55008" lon="1.88078">
        <ele>1736.28</ele>
        <time>2021-07-05T06:01:19Z</time>
      </trkpt>
      <trkpt lat="42.55005" lon="1.88083">
        <ele>1737.72</ele>
        <time>2021-07-05T06:01:25Z</time>
      </trkpt>
      <trkpt lat="42.54999" lon="1.88089">
        <ele>1739.16</ele>
        <time>2021-07-05T06:01:31Z</time>
      </trkpt>
      <trkpt lat="42.54992" lon="1.88102">
        <ele>1741.08</ele>
        <time>2021-07-05T06:01:39Z</time>
      </trkpt>
      <trkpt lat="42.54994" lon="1.88112">
        <ele>1741.57</ele>
        <time>2021-07-05T06:01:45Z</time>
      </trkpt>
      <trkpt lat="42.54998" lon="1.8812">
        <ele>1741.57</ele>
        <time>2021-07-05T06:01:50Z</time>
      </trkpt>
      <trkpt lat="42.54999" lon="1.88125">
        <ele>1742.53</ele>
        <time>2021-07-05T06:01:57Z</time>
      </trkpt>
      <trkpt lat="42.54999" lon="1.88132">
        <ele>1743.01</ele>
        <time>2021-07-05T06:02:05Z</time>
      </trkpt>
      <trkpt lat="42.54997" lon="1.88141">
        <ele>1744.45</ele>
        <time>2021-07-05T06:02:12Z</time>
      </trkpt>
      <trkpt lat="42.54998" lon="1.88146">
        <ele>1745.41</ele>
        <time>2021-07-05T06:02:19Z</time>
      </trkpt>
      <trkpt lat="42.54997" lon="1.88152">
        <ele>1746.37</ele>
        <time>2021-07-05T06:02:27Z</time>
      </trkpt>
      <trkpt lat="42.54995" lon="1.88162">
        <ele>1746.37</ele>
        <time>2021-07-05T06:02:31Z</time>
      </trkpt>
      <trkpt lat="42.54994" lon="1.88173">
        <ele>1746.85</ele>
        <time>2021-07-05T06:02:37Z</time>
      </trkpt>
      <trkpt lat="42.54995" lon="1.88189">
        <ele>1747.81</ele>
        <time>2021-07-05T06:02:44Z</time>
      </trkpt>
      <trkpt lat="42.54995" lon="1.88212">
        <ele>1748.29</ele>
        <time>2021-07-05T06:02:53Z</time>
      </trkpt>
      <trkpt lat="42.54997" lon="1.88216">
        <ele>1747.81</ele>
        <time>2021-07-05T06:02:55Z</time>
      </trkpt>
      <trkpt lat="42.54997" lon="1.8823">
        <ele>1748.29</ele>
        <time>2021-07-05T06:03:03Z</time>
      </trkpt>
      <trkpt lat="42.54996" lon="1.88232">
        <ele>1748.29</ele>
        <time>2021-07-05T06:03:04Z</time>
      </trkpt>
      <trkpt lat="42.54995" lon="1.88237">
        <ele>1748.78</ele>
        <time>2021-07-05T06:03:08Z</time>
      </trkpt>
      <trkpt lat="42.55003" lon="1.88251">
        <ele>1748.29</ele>
        <time>2021-07-05T06:03:16Z</time>
      </trkpt>
      <trkpt lat="42.55006" lon="1.88264">
        <ele>1748.29</ele>
        <time>2021-07-05T06:03:23Z</time>
      </trkpt>
      <trkpt lat="42.55011" lon="1.88278">
        <ele>1749.26</ele>
        <time>2021-07-05T06:03:31Z</time>
      </trkpt>
      <trkpt lat="42.5501" lon="1.88289">
        <ele>1750.7</ele>
        <time>2021-07-05T06:03:37Z</time>
      </trkpt>
      <trkpt lat="42.5501" lon="1.88297">
        <ele>1751.66</ele>
        <time>2021-07-05T06:03:44Z</time>
      </trkpt>
      <trkpt lat="42.5501" lon="1.88304">
        <ele>1753.58</ele>
        <time>2021-07-05T06:03:53Z</time>
      </trkpt>
      <trkpt lat="42.55013" lon="1.88314">
        <ele>1754.54</ele>
        <time>2021-07-05T06:04:00Z</time>
      </trkpt>
      <trkpt lat="42.55014" lon="1.88317">
        <ele>1755.02</ele>
        <time>2021-07-05T06:04:03Z</time>
      </trkpt>
      <trkpt lat="42.55014" lon="1.88326">
        <ele>1757.43</ele>
        <time>2021-07-05T06:04:11Z</time>
      </trkpt>
      <trkpt lat="42.55014" lon="1.88328">
        <ele>1758.87</ele>
        <time>2021-07-05T06:04:13Z</time>
      </trkpt>
      <trkpt lat="42.55015" lon="1.8834">
        <ele>1759.35</ele>
        <time>2021-07-05T06:04:21Z</time>
      </trkpt>
      <trkpt lat="42.55017" lon="1.88347">
        <ele>1761.27</ele>
        <time>2021-07-05T06:04:27Z</time>
      </trkpt>
      <trkpt lat="42.55014" lon="1.88359">
        <ele>1762.23</ele>
        <time>2021-07-05T06:04:34Z</time>
      </trkpt>
      <trkpt lat="42.55013" lon="1.88361">
        <ele>1763.68</ele>
        <time>2021-07-05T06:04:40Z</time>
      </trkpt>
      <trkpt lat="42.5501" lon="1.8836">
        <ele>1765.12</ele>
        <time>2021-07-05T06:04:47Z</time>
      </trkpt>
      <trkpt lat="42.55005" lon="1.88375">
        <ele>1764.16</ele>
        <time>2021-07-05T06:04:55Z</time>
      </trkpt>
      <trkpt lat="42.55008" lon="1.88377">
        <ele>1763.68</ele>
        <time>2021-07-05T06:05:08Z</time>
      </trkpt>
      <trkpt lat="42.55009" lon="1.88378">
        <ele>1763.68</ele>
        <time>2021-07-05T06:05:24Z</time>
      </trkpt>
      <trkpt lat="42.5501" lon="1.88379">
        <ele>1763.68</ele>
        <time>2021-07-05T06:05:43Z</time>
      </trkpt>
      <trkpt lat="42.55012" lon="1.8838">
        <ele>1763.68</ele>
        <time>2021-07-05T06:06:00Z</time>
      </trkpt>
      <trkpt lat="42.55012" lon="1.88381">
        <ele>1763.68</ele>
        <time>2021-07-05T06:06:16Z</time>
      </trkpt>
      <trkpt lat="42.55011" lon="1.88381">
        <ele>1763.68</ele>
        <time>2021-07-05T06:06:37Z</time>
      </trkpt>
      <trkpt lat="42.5501" lon="1.88381">
        <ele>1763.68</ele>
        <time>2021-07-05T06:06:55Z</time>
      </trkpt>
      <trkpt lat="42.55011" lon="1.8838">
        <ele>1763.68</ele>
        <time>2021-07-05T06:07:12Z</time>
      </trkpt>
      <trkpt lat="42.55012" lon="1.88379">
        <ele>1763.68</ele>
        <time>2021-07-05T06:07:31Z</time>
      </trkpt>
      <trkpt lat="42.55012" lon="1.8838">
        <ele>1763.68</ele>
        <time>2021-07-05T06:07:47Z</time>
      </trkpt>
      <trkpt lat="42.55011" lon="1.88381">
        <ele>1763.68</ele>
        <time>2021-07-05T06:08:03Z</time>
      </trkpt>
      <trkpt lat="42.5501" lon="1.88381">
        <ele>1763.68</ele>
        <time>2021-07-05T06:08:17Z</time>
      </trkpt>
      <trkpt lat="42.5501" lon="1.88382">
        <ele>1764.64</ele>
        <time>2021-07-05T06:08:28Z</time>
      </trkpt>
      <trkpt lat="42.55009" lon="1.88383">
        <ele>1764.64</ele>
        <time>2021-07-05T06:08:36Z</time>
      </trkpt>
      <trkpt lat="42.55009" lon="1.88384">
        <ele>1764.64</ele>
        <time>2021-07-05T06:08:44Z</time>
      </trkpt>
      <trkpt lat="42.55008" lon="1.88384">
        <ele>1765.12</ele>
        <time>2021-07-05T06:08:54Z</time>
      </trkpt>
      <trkpt lat="42.55009" lon="1.88393">
        <ele>1764.64</ele>
        <time>2021-07-05T06:09:02Z</time>
      </trkpt>
      <trkpt lat="42.55007" lon="1.88395">
        <ele>1764.64</ele>
        <time>2021-07-05T06:09:05Z</time>
      </trkpt>
      <trkpt lat="42.55003" lon="1.88402">
        <ele>1764.16</ele>
        <time>2021-07-05T06:09:13Z</time>
      </trkpt>
      <trkpt lat="42.54998" lon="1.88409">
        <ele>1765.6</ele>
        <time>2021-07-05T06:09:20Z</time>
      </trkpt>
      <trkpt lat="42.54997" lon="1.88416">
        <ele>1766.56</ele>
        <time>2021-07-05T06:09:26Z</time>
      </trkpt>
      <trkpt lat="42.54996" lon="1.88429">
        <ele>1767.04</ele>
        <time>2021-07-05T06:09:32Z</time>
      </trkpt>
      <trkpt lat="42.54994" lon="1.88442">
        <ele>1768</ele>
        <time>2021-07-05T06:09:39Z</time>
      </trkpt>
      <trkpt lat="42.54993" lon="1.88448">
        <ele>1768.48</ele>
        <time>2021-07-05T06:09:47Z</time>
      </trkpt>
      <trkpt lat="42.54997" lon="1.8846">
        <ele>1768.96</ele>
        <time>2021-07-05T06:09:55Z</time>
      </trkpt>
      <trkpt lat="42.54996" lon="1.88465">
        <ele>1769.44</ele>
        <time>2021-07-05T06:09:57Z</time>
      </trkpt>
      <trkpt lat="42.54998" lon="1.88479">
        <ele>1769.44</ele>
        <time>2021-07-05T06:10:05Z</time>
      </trkpt>
      <trkpt lat="42.54997" lon="1.8849">
        <ele>1769.44</ele>
        <time>2021-07-05T06:10:11Z</time>
      </trkpt>
      <trkpt lat="42.55" lon="1.88499">
        <ele>1768.48</ele>
        <time>2021-07-05T06:10:17Z</time>
      </trkpt>
      <trkpt lat="42.55003" lon="1.88505">
        <ele>1769.92</ele>
        <time>2021-07-05T06:10:24Z</time>
      </trkpt>
      <trkpt lat="42.55009" lon="1.88521">
        <ele>1768.48</ele>
        <time>2021-07-05T06:10:31Z</time>
      </trkpt>
      <trkpt lat="42.55011" lon="1.88532">
        <ele>1768</ele>
        <time>2021-07-05T06:10:37Z</time>
      </trkpt>
      <trkpt lat="42.5501" lon="1.88541">
        <ele>1768.96</ele>
        <time>2021-07-05T06:10:42Z</time>
      </trkpt>
      <trkpt lat="42.55009" lon="1.88547">
        <ele>1769.44</ele>
        <time>2021-07-05T06:10:48Z</time>
      </trkpt>
      <trkpt lat="42.55007" lon="1.88557">
        <ele>1768.48</ele>
        <time>2021-07-05T06:10:55Z</time>
      </trkpt>
      <trkpt lat="42.55008" lon="1.88564">
        <ele>1769.44</ele>
        <time>2021-07-05T06:11:02Z</time>
      </trkpt>
      <trkpt lat="42.55012" lon="1.88572">
        <ele>1769.92</ele>
        <time>2021-07-05T06:11:08Z</time>
      </trkpt>
      <trkpt lat="42.55013" lon="1.88578">
        <ele>1769.44</ele>
        <time>2021-07-05T06:11:12Z</time>
      </trkpt>
      <trkpt lat="42.55017" lon="1.88595">
        <ele>1769.92</ele>
        <time>2021-07-05T06:11:21Z</time>
      </trkpt>
      <trkpt lat="42.55018" lon="1.88604">
        <ele>1769.92</ele>
        <time>2021-07-05T06:11:29Z</time>
      </trkpt>
      <trkpt lat="42.5502" lon="1.88608">
        <ele>1769.92</ele>
        <time>2021-07-05T06:11:32Z</time>
      </trkpt>
      <trkpt lat="42.55018" lon="1.88627">
        <ele>1769.44</ele>
        <time>2021-07-05T06:11:40Z</time>
      </trkpt>
      <trkpt lat="42.55019" lon="1.88633">
        <ele>1769.92</ele>
        <time>2021-07-05T06:11:43Z</time>
      </trkpt>
      <trkpt lat="42.5502" lon="1.88644">
        <ele>1769.92</ele>
        <time>2021-07-05T06:11:49Z</time>
      </trkpt>
      <trkpt lat="42.55019" lon="1.88649">
        <ele>1769.44</ele>
        <time>2021-07-05T06:11:54Z</time>
      </trkpt>
      <trkpt lat="42.55017" lon="1.88666">
        <ele>1768.96</ele>
        <time>2021-07-05T06:12:02Z</time>
      </trkpt>
      <trkpt lat="42.55018" lon="1.8867">
        <ele>1768.96</ele>
        <time>2021-07-05T06:12:04Z</time>
      </trkpt>
      <trkpt lat="42.55014" lon="1.88686">
        <ele>1768.96</ele>
        <time>2021-07-05T06:12:11Z</time>
      </trkpt>
      <trkpt lat="42.55013" lon="1.88688">
        <ele>1769.44</ele>
        <time>2021-07-05T06:12:13Z</time>
      </trkpt>
      <trkpt lat="42.55008" lon="1.88703">
        <ele>1769.44</ele>
        <time>2021-07-05T06:12:21Z</time>
      </trkpt>
      <trkpt lat="42.55003" lon="1.8871">
        <ele>1769.92</ele>
        <time>2021-07-05T06:12:27Z</time>
      </trkpt>
      <trkpt lat="42.54996" lon="1.88716">
        <ele>1769.44</ele>
        <time>2021-07-05T06:12:33Z</time>
      </trkpt>
      <trkpt lat="42.54987" lon="1.88722">
        <ele>1769.92</ele>
        <time>2021-07-05T06:12:39Z</time>
      </trkpt>
      <trkpt lat="42.54984" lon="1.88724">
        <ele>1774.25</ele>
        <time>2021-07-05T06:12:44Z</time>
      </trkpt>
      <trkpt lat="42.54984" lon="1.88723">
        <ele>1772.33</ele>
        <time>2021-07-05T06:12:45Z</time>
      </trkpt>
      <trkpt lat="42.54984" lon="1.88723">
        <ele>1770.89</ele>
        <time>2021-07-05T06:12:47Z</time>
      </trkpt>
      <trkpt lat="42.54977" lon="1.88725">
        <ele>1771.85</ele>
        <time>2021-07-05T06:12:53Z</time>
      </trkpt>
      <trkpt lat="42.54969" lon="1.88726">
        <ele>1772.81</ele>
        <time>2021-07-05T06:13:01Z</time>
      </trkpt>
      <trkpt lat="42.54964" lon="1.88726">
        <ele>1774.25</ele>
        <time>2021-07-05T06:13:08Z</time>
      </trkpt>
      <trkpt lat="42.54961" lon="1.8873">
        <ele>1774.73</ele>
        <time>2021-07-05T06:13:16Z</time>
      </trkpt>
      <trkpt lat="42.54961" lon="1.88734">
        <ele>1774.73</ele>
        <time>2021-07-05T06:13:22Z</time>
      </trkpt>
      <trkpt lat="42.54961" lon="1.88737">
        <ele>1774.73</ele>
        <time>2021-07-05T06:13:32Z</time>
      </trkpt>
      <trkpt lat="42.54963" lon="1.88733">
        <ele>1774.73</ele>
        <time>2021-07-05T06:13:39Z</time>
      </trkpt>
      <trkpt lat="42.54965" lon="1.8873">
        <ele>1774.73</ele>
        <time>2021-07-05T06:13:43Z</time>
      </trkpt>
      <trkpt lat="42.54969" lon="1.88725">
        <ele>1773.77</ele>
        <time>2021-07-05T06:13:50Z</time>
      </trkpt>
      <trkpt lat="42.54969" lon="1.88724">
        <ele>1773.29</ele>
        <time>2021-07-05T06:13:51Z</time>
      </trkpt>
      <trkpt lat="42.54977" lon="1.88724">
        <ele>1772.81</ele>
        <time>2021-07-05T06:13:55Z</time>
      </trkpt>
      <trkpt lat="42.54979" lon="1.88726">
        <ele>1772.33</ele>
        <time>2021-07-05T06:13:58Z</time>
      </trkpt>
      <trkpt lat="42.54986" lon="1.88736">
        <ele>1770.89</ele>
        <time>2021-07-05T06:14:05Z</time>
      </trkpt>
      <trkpt lat="42.54989" lon="1.88745">
        <ele>1770.41</ele>
        <time>2021-07-05T06:14:12Z</time>
      </trkpt>
      <trkpt lat="42.54988" lon="1.88756">
        <ele>1769.92</ele>
        <time>2021-07-05T06:14:20Z</time>
      </trkpt>
      <trkpt lat="42.54986" lon="1.8876">
        <ele>1770.41</ele>
        <time>2021-07-05T06:14:26Z</time>
      </trkpt>
      <trkpt lat="42.54985" lon="1.88764">
        <ele>1769.92</ele>
        <time>2021-07-05T06:14:33Z</time>
      </trkpt>
      <trkpt lat="42.54983" lon="1.88772">
        <ele>1769.44</ele>
        <time>2021-07-05T06:14:36Z</time>
      </trkpt>
      <trkpt lat="42.54981" lon="1.88783">
        <ele>1769.92</ele>
        <time>2021-07-05T06:14:43Z</time>
      </trkpt>
      <trkpt lat="42.54982" lon="1.88797">
        <ele>1770.41</ele>
        <time>2021-07-05T06:14:51Z</time>
      </trkpt>
      <trkpt lat="42.54982" lon="1.88798">
        <ele>1770.41</ele>
        <time>2021-07-05T06:14:52Z</time>
      </trkpt>
      <trkpt lat="42.54983" lon="1.8881">
        <ele>1770.41</ele>
        <time>2021-07-05T06:14:59Z</time>
      </trkpt>
      <trkpt lat="42.54985" lon="1.88814">
        <ele>1770.41</ele>
        <time>2021-07-05T06:15:02Z</time>
      </trkpt>
      <trkpt lat="42.54999" lon="1.88827">
        <ele>1768.96</ele>
        <time>2021-07-05T06:15:10Z</time>
      </trkpt>
      <trkpt lat="42.55001" lon="1.8884">
        <ele>1769.44</ele>
        <time>2021-07-05T06:15:16Z</time>
      </trkpt>
      <trkpt lat="42.55007" lon="1.88857">
        <ele>1770.41</ele>
        <time>2021-07-05T06:15:25Z</time>
      </trkpt>
      <trkpt lat="42.55013" lon="1.88871">
        <ele>1770.89</ele>
        <time>2021-07-05T06:15:32Z</time>
      </trkpt>
      <trkpt lat="42.55015" lon="1.8888">
        <ele>1771.85</ele>
        <time>2021-07-05T06:15:39Z</time>
      </trkpt>
      <trkpt lat="42.5502" lon="1.88891">
        <ele>1771.85</ele>
        <time>2021-07-05T06:15:46Z</time>
      </trkpt>
      <trkpt lat="42.5502" lon="1.88892">
        <ele>1771.85</ele>
        <time>2021-07-05T06:15:47Z</time>
      </trkpt>
      <trkpt lat="42.5502" lon="1.88903">
        <ele>1770.41</ele>
        <time>2021-07-05T06:15:55Z</time>
      </trkpt>
      <trkpt lat="42.55021" lon="1.8891">
        <ele>1770.89</ele>
        <time>2021-07-05T06:16:00Z</time>
      </trkpt>
      <trkpt lat="42.55021" lon="1.88921">
        <ele>1771.37</ele>
        <time>2021-07-05T06:16:08Z</time>
      </trkpt>
      <trkpt lat="42.55027" lon="1.88933">
        <ele>1772.33</ele>
        <time>2021-07-05T06:16:14Z</time>
      </trkpt>
      <trkpt lat="42.55032" lon="1.88941">
        <ele>1772.33</ele>
        <time>2021-07-05T06:16:21Z</time>
      </trkpt>
      <trkpt lat="42.55035" lon="1.88959">
        <ele>1771.85</ele>
        <time>2021-07-05T06:16:28Z</time>
      </trkpt>
      <trkpt lat="42.55042" lon="1.88971">
        <ele>1773.29</ele>
        <time>2021-07-05T06:16:36Z</time>
      </trkpt>
      <trkpt lat="42.55046" lon="1.88981">
        <ele>1772.81</ele>
        <time>2021-07-05T06:16:43Z</time>
      </trkpt>
      <trkpt lat="42.55049" lon="1.88986">
        <ele>1773.77</ele>
        <time>2021-07-05T06:16:49Z</time>
      </trkpt>
      <trkpt lat="42.55054" lon="1.88995">
        <ele>1773.77</ele>
        <time>2021-07-05T06:16:55Z</time>
      </trkpt>
      <trkpt lat="42.55059" lon="1.89003">
        <ele>1774.25</ele>
        <time>2021-07-05T06:17:02Z</time>
      </trkpt>
      <trkpt lat="42.55061" lon="1.89007">
        <ele>1775.21</ele>
        <time>2021-07-05T06:17:06Z</time>
      </trkpt>
      <trkpt lat="42.55069" lon="1.89021">
        <ele>1777.13</ele>
        <time>2021-07-05T06:17:14Z</time>
      </trkpt>
      <trkpt lat="42.55074" lon="1.89033">
        <ele>1779.06</ele>
        <time>2021-07-05T06:17:22Z</time>
      </trkpt>
      <trkpt lat="42.55072" lon="1.89045">
        <ele>1780.5</ele>
        <time>2021-07-05T06:17:30Z</time>
      </trkpt>
      <trkpt lat="42.55073" lon="1.89048">
        <ele>1780.98</ele>
        <time>2021-07-05T06:17:32Z</time>
      </trkpt>
      <trkpt lat="42.55072" lon="1.89057">
        <ele>1781.46</ele>
        <time>2021-07-05T06:17:39Z</time>
      </trkpt>
      <trkpt lat="42.55069" lon="1.89066">
        <ele>1782.9</ele>
        <time>2021-07-05T06:17:46Z</time>
      </trkpt>
      <trkpt lat="42.55068" lon="1.89071">
        <ele>1784.34</ele>
        <time>2021-07-05T06:17:53Z</time>
      </trkpt>
      <trkpt lat="42.55068" lon="1.8908">
        <ele>1784.82</ele>
        <time>2021-07-05T06:18:00Z</time>
      </trkpt>
      <trkpt lat="42.55069" lon="1.89081">
        <ele>1784.82</ele>
        <time>2021-07-05T06:18:01Z</time>
      </trkpt>
      <trkpt lat="42.55073" lon="1.89092">
        <ele>1785.79</ele>
        <time>2021-07-05T06:18:08Z</time>
      </trkpt>
      <trkpt lat="42.55077" lon="1.89103">
        <ele>1785.79</ele>
        <time>2021-07-05T06:18:15Z</time>
      </trkpt>
      <trkpt lat="42.55078" lon="1.89111">
        <ele>1786.75</ele>
        <time>2021-07-05T06:18:23Z</time>
      </trkpt>
      <trkpt lat="42.55079" lon="1.89121">
        <ele>1787.23</ele>
        <time>2021-07-05T06:18:30Z</time>
      </trkpt>
      <trkpt lat="42.5508" lon="1.89132">
        <ele>1788.67</ele>
        <time>2021-07-05T06:18:37Z</time>
      </trkpt>
      <trkpt lat="42.55085" lon="1.8914">
        <ele>1789.63</ele>
        <time>2021-07-05T06:18:45Z</time>
      </trkpt>
      <trkpt lat="42.55087" lon="1.89148">
        <ele>1790.59</ele>
        <time>2021-07-05T06:18:52Z</time>
      </trkpt>
      <trkpt lat="42.55086" lon="1.89152">
        <ele>1790.59</ele>
        <time>2021-07-05T06:18:54Z</time>
      </trkpt>
      <trkpt lat="42.55089" lon="1.89158">
        <ele>1791.07</ele>
        <time>2021-07-05T06:19:01Z</time>
      </trkpt>
      <trkpt lat="42.55095" lon="1.89161">
        <ele>1792.03</ele>
        <time>2021-07-05T06:19:08Z</time>
      </trkpt>
      <trkpt lat="42.55104" lon="1.89164">
        <ele>1793</ele>
        <time>2021-07-05T06:19:14Z</time>
      </trkpt>
      <trkpt lat="42.5511" lon="1.89174">
        <ele>1793.48</ele>
        <time>2021-07-05T06:19:22Z</time>
      </trkpt>
      <trkpt lat="42.55111" lon="1.89174">
        <ele>1785.79</ele>
        <time>2021-07-05T06:19:28Z</time>
      </trkpt>
      <trkpt lat="42.55111" lon="1.89174">
        <ele>1799.73</ele>
        <time>2021-07-05T06:19:29Z</time>
      </trkpt>
      <trkpt lat="42.55111" lon="1.89174">
        <ele>1793</ele>
        <time>2021-07-05T06:19:30Z</time>
      </trkpt>
      <trkpt lat="42.55111" lon="1.89174">
        <ele>1788.19</ele>
        <time>2021-07-05T06:19:31Z</time>
      </trkpt>
      <trkpt lat="42.55111" lon="1.89174">
        <ele>1798.76</ele>
        <time>2021-07-05T06:19:32Z</time>
      </trkpt>
      <trkpt lat="42.55111" lon="1.89174">
        <ele>1792.52</ele>
        <time>2021-07-05T06:19:33Z</time>
      </trkpt>
      <trkpt lat="42.55111" lon="1.89174">
        <ele>1787.23</ele>
        <time>2021-07-05T06:19:37Z</time>
      </trkpt>
      <trkpt lat="42.55112" lon="1.89174">
        <ele>1798.76</ele>
        <time>2021-07-05T06:19:38Z</time>
      </trkpt>
      <trkpt lat="42.55112" lon="1.89174">
        <ele>1793.96</ele>
        <time>2021-07-05T06:19:39Z</time>
      </trkpt>
      <trkpt lat="42.55115" lon="1.89177">
        <ele>1793.96</ele>
        <time>2021-07-05T06:19:48Z</time>
      </trkpt>
      <trkpt lat="42.55126" lon="1.89185">
        <ele>1793.96</ele>
        <time>2021-07-05T06:19:54Z</time>
      </trkpt>
      <trkpt lat="42.55129" lon="1.89195">
        <ele>1795.4</ele>
        <time>2021-07-05T06:20:01Z</time>
      </trkpt>
      <trkpt lat="42.55134" lon="1.89199">
        <ele>1795.88</ele>
        <time>2021-07-05T06:20:07Z</time>
      </trkpt>
      <trkpt lat="42.55143" lon="1.89208">
        <ele>1798.28</ele>
        <time>2021-07-05T06:20:14Z</time>
      </trkpt>
      <trkpt lat="42.5515" lon="1.89212">
        <ele>1798.28</ele>
        <time>2021-07-05T06:20:20Z</time>
      </trkpt>
      <trkpt lat="42.55155" lon="1.8922">
        <ele>1799.24</ele>
        <time>2021-07-05T06:20:28Z</time>
      </trkpt>
      <trkpt lat="42.55162" lon="1.89226">
        <ele>1800.69</ele>
        <time>2021-07-05T06:20:35Z</time>
      </trkpt>
      <trkpt lat="42.55165" lon="1.8923">
        <ele>1801.65</ele>
        <time>2021-07-05T06:20:42Z</time>
      </trkpt>
      <trkpt lat="42.55167" lon="1.89236">
        <ele>1803.57</ele>
        <time>2021-07-05T06:20:49Z</time>
      </trkpt>
      <trkpt lat="42.55173" lon="1.89237">
        <ele>1803.57</ele>
        <time>2021-07-05T06:20:55Z</time>
      </trkpt>
      <trkpt lat="42.55181" lon="1.89236">
        <ele>1803.09</ele>
        <time>2021-07-05T06:21:02Z</time>
      </trkpt>
      <trkpt lat="42.55187" lon="1.89238">
        <ele>1801.65</ele>
        <time>2021-07-05T06:21:08Z</time>
      </trkpt>
      <trkpt lat="42.55191" lon="1.89241">
        <ele>1800.69</ele>
        <time>2021-07-05T06:21:11Z</time>
      </trkpt>
      <trkpt lat="42.55194" lon="1.89244">
        <ele>1800.69</ele>
        <time>2021-07-05T06:21:14Z</time>
      </trkpt>
      <trkpt lat="42.55199" lon="1.89251">
        <ele>1799.73</ele>
        <time>2021-07-05T06:21:20Z</time>
      </trkpt>
      <trkpt lat="42.55202" lon="1.89255">
        <ele>1800.69</ele>
        <time>2021-07-05T06:21:28Z</time>
      </trkpt>
      <trkpt lat="42.55205" lon="1.89261">
        <ele>1802.61</ele>
        <time>2021-07-05T06:21:35Z</time>
      </trkpt>
      <trkpt lat="42.55211" lon="1.89269">
        <ele>1804.53</ele>
        <time>2021-07-05T06:21:42Z</time>
      </trkpt>
      <trkpt lat="42.55213" lon="1.89271">
        <ele>1805.01</ele>
        <time>2021-07-05T06:21:51Z</time>
      </trkpt>
      <trkpt lat="42.55212" lon="1.89272">
        <ele>1805.01</ele>
        <time>2021-07-05T06:22:04Z</time>
      </trkpt>
      <trkpt lat="42.55213" lon="1.89272">
        <ele>1804.53</ele>
        <time>2021-07-05T06:22:20Z</time>
      </trkpt>
      <trkpt lat="42.55213" lon="1.89273">
        <ele>1804.53</ele>
        <time>2021-07-05T06:22:36Z</time>
      </trkpt>
      <trkpt lat="42.55213" lon="1.89274">
        <ele>1805.01</ele>
        <time>2021-07-05T06:22:55Z</time>
      </trkpt>
      <trkpt lat="42.55212" lon="1.89273">
        <ele>1805.01</ele>
        <time>2021-07-05T06:23:16Z</time>
      </trkpt>
      <trkpt lat="42.55211" lon="1.89274">
        <ele>1805.01</ele>
        <time>2021-07-05T06:23:39Z</time>
      </trkpt>
      <trkpt lat="42.55211" lon="1.89274">
        <ele>1805.01</ele>
        <time>2021-07-05T06:24:01Z</time>
      </trkpt>
      <trkpt lat="42.55211" lon="1.89275">
        <ele>1805.01</ele>
        <time>2021-07-05T06:24:24Z</time>
      </trkpt>
      <trkpt lat="42.55211" lon="1.89275">
        <ele>1805.01</ele>
        <time>2021-07-05T06:24:41Z</time>
      </trkpt>
      <trkpt lat="42.55212" lon="1.89275">
        <ele>1805.49</ele>
        <time>2021-07-05T06:24:57Z</time>
      </trkpt>
      <trkpt lat="42.55214" lon="1.89277">
        <ele>1807.42</ele>
        <time>2021-07-05T06:25:04Z</time>
      </trkpt>
      <trkpt lat="42.5522" lon="1.89279">
        <ele>1808.38</ele>
        <time>2021-07-05T06:25:11Z</time>
      </trkpt>
      <trkpt lat="42.55228" lon="1.89282">
        <ele>1810.3</ele>
        <time>2021-07-05T06:25:19Z</time>
      </trkpt>
      <trkpt lat="42.55233" lon="1.89286">
        <ele>1810.3</ele>
        <time>2021-07-05T06:25:25Z</time>
      </trkpt>
      <trkpt lat="42.55237" lon="1.89288">
        <ele>1810.3</ele>
        <time>2021-07-05T06:25:28Z</time>
      </trkpt>
      <trkpt lat="42.55241" lon="1.89297">
        <ele>1811.26</ele>
        <time>2021-07-05T06:25:34Z</time>
      </trkpt>
      <trkpt lat="42.55246" lon="1.89305">
        <ele>1812.22</ele>
        <time>2021-07-05T06:25:42Z</time>
      </trkpt>
      <trkpt lat="42.55251" lon="1.89309">
        <ele>1812.7</ele>
        <time>2021-07-05T06:25:48Z</time>
      </trkpt>
      <trkpt lat="42.55256" lon="1.89316">
        <ele>1814.15</ele>
        <time>2021-07-05T06:25:55Z</time>
      </trkpt>
      <trkpt lat="42.55258" lon="1.89327">
        <ele>1814.63</ele>
        <time>2021-07-05T06:26:02Z</time>
      </trkpt>
      <trkpt lat="42.55258" lon="1.89336">
        <ele>1816.07</ele>
        <time>2021-07-05T06:26:09Z</time>
      </trkpt>
      <trkpt lat="42.55259" lon="1.89347">
        <ele>1817.03</ele>
        <time>2021-07-05T06:26:16Z</time>
      </trkpt>
      <trkpt lat="42.55261" lon="1.89358">
        <ele>1817.99</ele>
        <time>2021-07-05T06:26:23Z</time>
      </trkpt>
      <trkpt lat="42.55265" lon="1.89361">
        <ele>1817.99</ele>
        <time>2021-07-05T06:26:24Z</time>
      </trkpt>
      <trkpt lat="42.55271" lon="1.89369">
        <ele>1818.95</ele>
        <time>2021-07-05T06:26:28Z</time>
      </trkpt>
      <trkpt lat="42.55275" lon="1.89376">
        <ele>1818.95</ele>
        <time>2021-07-05T06:26:34Z</time>
      </trkpt>
      <trkpt lat="42.55278" lon="1.89384">
        <ele>1820.39</ele>
        <time>2021-07-05T06:26:40Z</time>
      </trkpt>
      <trkpt lat="42.55281" lon="1.89389">
        <ele>1819.91</ele>
        <time>2021-07-05T06:26:46Z</time>
      </trkpt>
      <trkpt lat="42.55284" lon="1.89393">
        <ele>1819.43</ele>
        <time>2021-07-05T06:26:52Z</time>
      </trkpt>
      <trkpt lat="42.55287" lon="1.89393">
        <ele>1819.43</ele>
        <time>2021-07-05T06:26:55Z</time>
      </trkpt>
      <trkpt lat="42.5529" lon="1.89397">
        <ele>1818.95</ele>
        <time>2021-07-05T06:27:01Z</time>
      </trkpt>
      <trkpt lat="42.55294" lon="1.89398">
        <ele>1818.95</ele>
        <time>2021-07-05T06:27:04Z</time>
      </trkpt>
      <trkpt lat="42.55297" lon="1.89397">
        <ele>1818.47</ele>
        <time>2021-07-05T06:27:06Z</time>
      </trkpt>
      <trkpt lat="42.55308" lon="1.89399">
        <ele>1816.55</ele>
        <time>2021-07-05T06:27:12Z</time>
      </trkpt>
      <trkpt lat="42.55308" lon="1.89401">
        <ele>1817.03</ele>
        <time>2021-07-05T06:27:13Z</time>
      </trkpt>
      <trkpt lat="42.5531" lon="1.89404">
        <ele>1818.47</ele>
        <time>2021-07-05T06:27:20Z</time>
      </trkpt>
      <trkpt lat="42.55314" lon="1.89403">
        <ele>1817.99</ele>
        <time>2021-07-05T06:27:24Z</time>
      </trkpt>
      <trkpt lat="42.55321" lon="1.89401">
        <ele>1816.55</ele>
        <time>2021-07-05T06:27:31Z</time>
      </trkpt>
      <trkpt lat="42.55323" lon="1.89402">
        <ele>1817.51</ele>
        <time>2021-07-05T06:27:34Z</time>
      </trkpt>
      <trkpt lat="42.55328" lon="1.89404">
        <ele>1818.47</ele>
        <time>2021-07-05T06:27:41Z</time>
      </trkpt>
      <trkpt lat="42.55339" lon="1.89407">
        <ele>1818.47</ele>
        <time>2021-07-05T06:27:46Z</time>
      </trkpt>
      <trkpt lat="42.55339" lon="1.89405">
        <ele>1817.51</ele>
        <time>2021-07-05T06:27:52Z</time>
      </trkpt>
      <trkpt lat="42.5534" lon="1.89401">
        <ele>1816.55</ele>
        <time>2021-07-05T06:27:59Z</time>
      </trkpt>
      <trkpt lat="42.55341" lon="1.89401">
        <ele>1815.59</ele>
        <time>2021-07-05T06:28:06Z</time>
      </trkpt>
      <trkpt lat="42.5534" lon="1.89399">
        <ele>1815.11</ele>
        <time>2021-07-05T06:28:14Z</time>
      </trkpt>
      <trkpt lat="42.55341" lon="1.89399">
        <ele>1814.63</ele>
        <time>2021-07-05T06:28:34Z</time>
      </trkpt>
      <trkpt lat="42.5534" lon="1.89399">
        <ele>1815.59</ele>
        <time>2021-07-05T06:28:50Z</time>
      </trkpt>
      <trkpt lat="42.5534" lon="1.894">
        <ele>1815.59</ele>
        <time>2021-07-05T06:29:07Z</time>
      </trkpt>
      <trkpt lat="42.5534" lon="1.89399">
        <ele>1815.59</ele>
        <time>2021-07-05T06:29:20Z</time>
      </trkpt>
      <trkpt lat="42.5534" lon="1.894">
        <ele>1815.59</ele>
        <time>2021-07-05T06:29:33Z</time>
      </trkpt>
      <trkpt lat="42.55342" lon="1.89399">
        <ele>1815.59</ele>
        <time>2021-07-05T06:29:45Z</time>
      </trkpt>
      <trkpt lat="42.55343" lon="1.89399">
        <ele>1816.55</ele>
        <time>2021-07-05T06:29:59Z</time>
      </trkpt>
      <trkpt lat="42.55344" lon="1.89401">
        <ele>1817.99</ele>
        <time>2021-07-05T06:30:06Z</time>
      </trkpt>
      <trkpt lat="42.55345" lon="1.89403">
        <ele>1818.95</ele>
        <time>2021-07-05T06:30:11Z</time>
      </trkpt>
      <trkpt lat="42.55344" lon="1.89404">
        <ele>1818.95</ele>
        <time>2021-07-05T06:30:14Z</time>
      </trkpt>
      <trkpt lat="42.55349" lon="1.89403">
        <ele>1818.47</ele>
        <time>2021-07-05T06:30:22Z</time>
      </trkpt>
      <trkpt lat="42.55351" lon="1.89404">
        <ele>1819.91</ele>
        <time>2021-07-05T06:30:29Z</time>
      </trkpt>
      <trkpt lat="42.55354" lon="1.89404">
        <ele>1821.35</ele>
        <time>2021-07-05T06:30:35Z</time>
      </trkpt>
      <trkpt lat="42.55357" lon="1.89404">
        <ele>1822.32</ele>
        <time>2021-07-05T06:30:44Z</time>
      </trkpt>
      <trkpt lat="42.55361" lon="1.89405">
        <ele>1823.76</ele>
        <time>2021-07-05T06:30:51Z</time>
      </trkpt>
      <trkpt lat="42.55363" lon="1.89406">
        <ele>1824.72</ele>
        <time>2021-07-05T06:30:56Z</time>
      </trkpt>
      <trkpt lat="42.55365" lon="1.89406">
        <ele>1824.72</ele>
        <time>2021-07-05T06:31:01Z</time>
      </trkpt>
      <trkpt lat="42.55374" lon="1.89405">
        <ele>1824.72</ele>
        <time>2021-07-05T06:31:08Z</time>
      </trkpt>
      <trkpt lat="42.5538" lon="1.89405">
        <ele>1825.68</ele>
        <time>2021-07-05T06:31:15Z</time>
      </trkpt>
      <trkpt lat="42.55384" lon="1.89406">
        <ele>1827.12</ele>
        <time>2021-07-05T06:31:22Z</time>
      </trkpt>
      <trkpt lat="42.55387" lon="1.89409">
        <ele>1828.56</ele>
        <time>2021-07-05T06:31:28Z</time>
      </trkpt>
      <trkpt lat="42.5539" lon="1.89409">
        <ele>1830.01</ele>
        <time>2021-07-05T06:31:34Z</time>
      </trkpt>
      <trkpt lat="42.55392" lon="1.89411">
        <ele>1830.97</ele>
        <time>2021-07-05T06:31:40Z</time>
      </trkpt>
      <trkpt lat="42.55397" lon="1.89412">
        <ele>1830.97</ele>
        <time>2021-07-05T06:31:47Z</time>
      </trkpt>
      <trkpt lat="42.55404" lon="1.89414">
        <ele>1830.49</ele>
        <time>2021-07-05T06:31:59Z</time>
      </trkpt>
      <trkpt lat="42.55407" lon="1.89416">
        <ele>1830.49</ele>
        <time>2021-07-05T06:32:12Z</time>
      </trkpt>
      <trkpt lat="42.55409" lon="1.89417">
        <ele>1830.49</ele>
        <time>2021-07-05T06:32:22Z</time>
      </trkpt>
      <trkpt lat="42.5541" lon="1.89418">
        <ele>1830.49</ele>
        <time>2021-07-05T06:32:35Z</time>
      </trkpt>
      <trkpt lat="42.55412" lon="1.89419">
        <ele>1830.49</ele>
        <time>2021-07-05T06:32:53Z</time>
      </trkpt>
      <trkpt lat="42.55412" lon="1.89421">
        <ele>1830.01</ele>
        <time>2021-07-05T06:33:03Z</time>
      </trkpt>
      <trkpt lat="42.55417" lon="1.89421">
        <ele>1830.01</ele>
        <time>2021-07-05T06:33:21Z</time>
      </trkpt>
      <trkpt lat="42.55419" lon="1.89419">
        <ele>1829.53</ele>
        <time>2021-07-05T06:33:42Z</time>
      </trkpt>
      <trkpt lat="42.5542" lon="1.89419">
        <ele>1830.49</ele>
        <time>2021-07-05T06:33:53Z</time>
      </trkpt>
      <trkpt lat="42.55421" lon="1.89419">
        <ele>1830.97</ele>
        <time>2021-07-05T06:34:02Z</time>
      </trkpt>
      <trkpt lat="42.5542" lon="1.89422">
        <ele>1832.41</ele>
        <time>2021-07-05T06:34:09Z</time>
      </trkpt>
      <trkpt lat="42.55418" lon="1.89424">
        <ele>1832.41</ele>
        <time>2021-07-05T06:34:14Z</time>
      </trkpt>
      <trkpt lat="42.55418" lon="1.89427">
        <ele>1831.93</ele>
        <time>2021-07-05T06:34:20Z</time>
      </trkpt>
      <trkpt lat="42.55416" lon="1.89429">
        <ele>1832.89</ele>
        <time>2021-07-05T06:34:26Z</time>
      </trkpt>
      <trkpt lat="42.55416" lon="1.89432">
        <ele>1834.33</ele>
        <time>2021-07-05T06:34:34Z</time>
      </trkpt>
      <trkpt lat="42.55418" lon="1.89436">
        <ele>1834.81</ele>
        <time>2021-07-05T06:34:41Z</time>
      </trkpt>
      <trkpt lat="42.55419" lon="1.89438">
        <ele>1835.77</ele>
        <time>2021-07-05T06:34:44Z</time>
      </trkpt>
      <trkpt lat="42.55428" lon="1.89449">
        <ele>1837.7</ele>
        <time>2021-07-05T06:34:53Z</time>
      </trkpt>
      <trkpt lat="42.5543" lon="1.89458">
        <ele>1839.62</ele>
        <time>2021-07-05T06:35:01Z</time>
      </trkpt>
      <trkpt lat="42.5543" lon="1.89466">
        <ele>1840.58</ele>
        <time>2021-07-05T06:35:07Z</time>
      </trkpt>
      <trkpt lat="42.55432" lon="1.89471">
        <ele>1841.06</ele>
        <time>2021-07-05T06:35:09Z</time>
      </trkpt>
      <trkpt lat="42.55433" lon="1.89473">
        <ele>1841.54</ele>
        <time>2021-07-05T06:35:11Z</time>
      </trkpt>
      <trkpt lat="42.55429" lon="1.89476">
        <ele>1842.02</ele>
        <time>2021-07-05T06:35:14Z</time>
      </trkpt>
      <trkpt lat="42.55426" lon="1.8948">
        <ele>1842.98</ele>
        <time>2021-07-05T06:35:20Z</time>
      </trkpt>
      <trkpt lat="42.55429" lon="1.89482">
        <ele>1843.47</ele>
        <time>2021-07-05T06:35:25Z</time>
      </trkpt>
      <trkpt lat="42.5543" lon="1.89482">
        <ele>1843.95</ele>
        <time>2021-07-05T06:35:26Z</time>
      </trkpt>
      <trkpt lat="42.55434" lon="1.89489">
        <ele>1844.91</ele>
        <time>2021-07-05T06:35:32Z</time>
      </trkpt>
      <trkpt lat="42.55437" lon="1.8949">
        <ele>1845.87</ele>
        <time>2021-07-05T06:35:36Z</time>
      </trkpt>
      <trkpt lat="42.55442" lon="1.89489">
        <ele>1846.35</ele>
        <time>2021-07-05T06:35:41Z</time>
      </trkpt>
      <trkpt lat="42.55448" lon="1.89491">
        <ele>1847.31</ele>
        <time>2021-07-05T06:35:47Z</time>
      </trkpt>
      <trkpt lat="42.55449" lon="1.8949">
        <ele>1847.31</ele>
        <time>2021-07-05T06:35:49Z</time>
      </trkpt>
      <trkpt lat="42.55457" lon="1.89486">
        <ele>1846.83</ele>
        <time>2021-07-05T06:35:55Z</time>
      </trkpt>
      <trkpt lat="42.55463" lon="1.89485">
        <ele>1846.83</ele>
        <time>2021-07-05T06:36:00Z</time>
      </trkpt>
      <trkpt lat="42.55469" lon="1.89491">
        <ele>1847.79</ele>
        <time>2021-07-05T06:36:05Z</time>
      </trkpt>
      <trkpt lat="42.55476" lon="1.89495">
        <ele>1848.27</ele>
        <time>2021-07-05T06:36:09Z</time>
      </trkpt>
      <trkpt lat="42.55486" lon="1.89504">
        <ele>1849.71</ele>
        <time>2021-07-05T06:36:15Z</time>
      </trkpt>
      <trkpt lat="42.55497" lon="1.89509">
        <ele>1850.19</ele>
        <time>2021-07-05T06:36:19Z</time>
      </trkpt>
      <trkpt lat="42.55517" lon="1.89512">
        <ele>1850.19</ele>
        <time>2021-07-05T06:36:26Z</time>
      </trkpt>
      <trkpt lat="42.55533" lon="1.89514">
        <ele>1849.71</ele>
        <time>2021-07-05T06:36:33Z</time>
      </trkpt>
      <trkpt lat="42.55535" lon="1.89511">
        <ele>1849.71</ele>
        <time>2021-07-05T06:36:42Z</time>
      </trkpt>
      <trkpt lat="42.55538" lon="1.89511">
        <ele>1849.23</ele>
        <time>2021-07-05T06:36:50Z</time>
      </trkpt>
      <trkpt lat="42.55538" lon="1.89508">
        <ele>1849.71</ele>
        <time>2021-07-05T06:36:57Z</time>
      </trkpt>
      <trkpt lat="42.55538" lon="1.89505">
        <ele>1849.23</ele>
        <time>2021-07-05T06:37:05Z</time>
      </trkpt>
      <trkpt lat="42.55538" lon="1.89503">
        <ele>1848.75</ele>
        <time>2021-07-05T06:37:13Z</time>
      </trkpt>
      <trkpt lat="42.55539" lon="1.89501">
        <ele>1848.75</ele>
        <time>2021-07-05T06:37:20Z</time>
      </trkpt>
      <trkpt lat="42.55541" lon="1.89497">
        <ele>1848.27</ele>
        <time>2021-07-05T06:37:26Z</time>
      </trkpt>
      <trkpt lat="42.55543" lon="1.89493">
        <ele>1847.79</ele>
        <time>2021-07-05T06:37:34Z</time>
      </trkpt>
      <trkpt lat="42.55544" lon="1.89491">
        <ele>1847.79</ele>
        <time>2021-07-05T06:37:41Z</time>
      </trkpt>
      <trkpt lat="42.55546" lon="1.89486">
        <ele>1847.31</ele>
        <time>2021-07-05T06:37:49Z</time>
      </trkpt>
      <trkpt lat="42.55547" lon="1.89485">
        <ele>1847.31</ele>
        <time>2021-07-05T06:37:50Z</time>
      </trkpt>
      <trkpt lat="42.5555" lon="1.89482">
        <ele>1846.35</ele>
        <time>2021-07-05T06:37:57Z</time>
      </trkpt>
      <trkpt lat="42.55551" lon="1.8948">
        <ele>1845.87</ele>
        <time>2021-07-05T06:38:06Z</time>
      </trkpt>
      <trkpt lat="42.55549" lon="1.8948">
        <ele>1846.35</ele>
        <time>2021-07-05T06:38:13Z</time>
      </trkpt>
      <trkpt lat="42.55552" lon="1.89479">
        <ele>1846.83</ele>
        <time>2021-07-05T06:38:20Z</time>
      </trkpt>
      <trkpt lat="42.55558" lon="1.89476">
        <ele>1847.31</ele>
        <time>2021-07-05T06:38:26Z</time>
      </trkpt>
      <trkpt lat="42.55561" lon="1.89479">
        <ele>1847.31</ele>
        <time>2021-07-05T06:38:33Z</time>
      </trkpt>
      <trkpt lat="42.55564" lon="1.89483">
        <ele>1847.79</ele>
        <time>2021-07-05T06:38:38Z</time>
      </trkpt>
      <trkpt lat="42.55571" lon="1.89487">
        <ele>1848.75</ele>
        <time>2021-07-05T06:38:45Z</time>
      </trkpt>
      <trkpt lat="42.55573" lon="1.89489">
        <ele>1849.71</ele>
        <time>2021-07-05T06:38:52Z</time>
      </trkpt>
      <trkpt lat="42.55578" lon="1.89489">
        <ele>1850.68</ele>
        <time>2021-07-05T06:38:59Z</time>
      </trkpt>
      <trkpt lat="42.55579" lon="1.8949">
        <ele>1850.68</ele>
        <time>2021-07-05T06:39:04Z</time>
      </trkpt>
      <trkpt lat="42.55581" lon="1.89491">
        <ele>1849.71</ele>
        <time>2021-07-05T06:39:09Z</time>
      </trkpt>
      <trkpt lat="42.55585" lon="1.89492">
        <ele>1849.71</ele>
        <time>2021-07-05T06:39:16Z</time>
      </trkpt>
      <trkpt lat="42.55584" lon="1.89492">
        <ele>1849.71</ele>
        <time>2021-07-05T06:39:19Z</time>
      </trkpt>
      <trkpt lat="42.55583" lon="1.89494">
        <ele>1850.68</ele>
        <time>2021-07-05T06:39:27Z</time>
      </trkpt>
      <trkpt lat="42.55586" lon="1.89495">
        <ele>1851.16</ele>
        <time>2021-07-05T06:39:28Z</time>
      </trkpt>
      <trkpt lat="42.55597" lon="1.89501">
        <ele>1851.64</ele>
        <time>2021-07-05T06:39:35Z</time>
      </trkpt>
      <trkpt lat="42.55609" lon="1.89502">
        <ele>1851.16</ele>
        <time>2021-07-05T06:39:42Z</time>
      </trkpt>
      <trkpt lat="42.55614" lon="1.89501">
        <ele>1850.68</ele>
        <time>2021-07-05T06:39:46Z</time>
      </trkpt>
      <trkpt lat="42.55621" lon="1.89498">
        <ele>1851.16</ele>
        <time>2021-07-05T06:39:52Z</time>
      </trkpt>
      <trkpt lat="42.55623" lon="1.89497">
        <ele>1851.64</ele>
        <time>2021-07-05T06:39:56Z</time>
      </trkpt>
      <trkpt lat="42.55628" lon="1.89494">
        <ele>1851.64</ele>
        <time>2021-07-05T06:40:01Z</time>
      </trkpt>
      <trkpt lat="42.55638" lon="1.89495">
        <ele>1852.12</ele>
        <time>2021-07-05T06:40:08Z</time>
      </trkpt>
      <trkpt lat="42.55641" lon="1.89496">
        <ele>1852.6</ele>
        <time>2021-07-05T06:40:13Z</time>
      </trkpt>
      <trkpt lat="42.55641" lon="1.89496">
        <ele>1853.08</ele>
        <time>2021-07-05T06:40:19Z</time>
      </trkpt>
      <trkpt lat="42.55644" lon="1.89496">
        <ele>1854.04</ele>
        <time>2021-07-05T06:40:22Z</time>
      </trkpt>
      <trkpt lat="42.55654" lon="1.89498">
        <ele>1854.52</ele>
        <time>2021-07-05T06:40:30Z</time>
      </trkpt>
      <trkpt lat="42.55669" lon="1.89496">
        <ele>1855</ele>
        <time>2021-07-05T06:40:36Z</time>
      </trkpt>
      <trkpt lat="42.55681" lon="1.89502">
        <ele>1855.48</ele>
        <time>2021-07-05T06:40:43Z</time>
      </trkpt>
      <trkpt lat="42.55688" lon="1.895">
        <ele>1855.96</ele>
        <time>2021-07-05T06:40:49Z</time>
      </trkpt>
      <trkpt lat="42.55697" lon="1.89498">
        <ele>1855.48</ele>
        <time>2021-07-05T06:40:54Z</time>
      </trkpt>
      <trkpt lat="42.55702" lon="1.8949">
        <ele>1853.08</ele>
        <time>2021-07-05T06:41:02Z</time>
      </trkpt>
      <trkpt lat="42.55701" lon="1.89489">
        <ele>1852.6</ele>
        <time>2021-07-05T06:41:05Z</time>
      </trkpt>
      <trkpt lat="42.55703" lon="1.89485">
        <ele>1853.08</ele>
        <time>2021-07-05T06:41:12Z</time>
      </trkpt>
      <trkpt lat="42.55704" lon="1.89484">
        <ele>1854.04</ele>
        <time>2021-07-05T06:41:26Z</time>
      </trkpt>
      <trkpt lat="42.55705" lon="1.89484">
        <ele>1848.27</ele>
        <time>2021-07-05T06:41:37Z</time>
      </trkpt>
      <trkpt lat="42.55705" lon="1.89484">
        <ele>1858.37</ele>
        <time>2021-07-05T06:41:38Z</time>
      </trkpt>
      <trkpt lat="42.55705" lon="1.89484">
        <ele>1854.04</ele>
        <time>2021-07-05T06:41:40Z</time>
      </trkpt>
      <trkpt lat="42.55703" lon="1.89481">
        <ele>1853.56</ele>
        <time>2021-07-05T06:41:48Z</time>
      </trkpt>
      <trkpt lat="42.55702" lon="1.89481">
        <ele>1853.56</ele>
        <time>2021-07-05T06:41:58Z</time>
      </trkpt>
      <trkpt lat="42.557" lon="1.89483">
        <ele>1854.52</ele>
        <time>2021-07-05T06:42:01Z</time>
      </trkpt>
      <trkpt lat="42.55701" lon="1.8949">
        <ele>1855.48</ele>
        <time>2021-07-05T06:42:07Z</time>
      </trkpt>
      <trkpt lat="42.557" lon="1.89492">
        <ele>1856.92</ele>
        <time>2021-07-05T06:42:15Z</time>
      </trkpt>
      <trkpt lat="42.55701" lon="1.89492">
        <ele>1856.44</ele>
        <time>2021-07-05T06:42:20Z</time>
      </trkpt>
      <trkpt lat="42.5569" lon="1.89493">
        <ele>1855.48</ele>
        <time>2021-07-05T06:42:28Z</time>
      </trkpt>
      <trkpt lat="42.55683" lon="1.89493">
        <ele>1855</ele>
        <time>2021-07-05T06:42:35Z</time>
      </trkpt>
      <trkpt lat="42.55676" lon="1.89491">
        <ele>1854.52</ele>
        <time>2021-07-05T06:42:40Z</time>
      </trkpt>
      <trkpt lat="42.55667" lon="1.89491">
        <ele>1853.56</ele>
        <time>2021-07-05T06:42:45Z</time>
      </trkpt>
      <trkpt lat="42.55657" lon="1.89494">
        <ele>1853.08</ele>
        <time>2021-07-05T06:42:50Z</time>
      </trkpt>
      <trkpt lat="42.55647" lon="1.89495">
        <ele>1853.08</ele>
        <time>2021-07-05T06:42:56Z</time>
      </trkpt>
      <trkpt lat="42.55644" lon="1.89499">
        <ele>1852.12</ele>
        <time>2021-07-05T06:43:04Z</time>
      </trkpt>
      <trkpt lat="42.55637" lon="1.89502">
        <ele>1851.64</ele>
        <time>2021-07-05T06:43:12Z</time>
      </trkpt>
      <trkpt lat="42.55635" lon="1.89504">
        <ele>1852.12</ele>
        <time>2021-07-05T06:43:17Z</time>
      </trkpt>
      <trkpt lat="42.55629" lon="1.89505">
        <ele>1852.12</ele>
        <time>2021-07-05T06:43:24Z</time>
      </trkpt>
      <trkpt lat="42.55624" lon="1.89506">
        <ele>1852.12</ele>
        <time>2021-07-05T06:43:30Z</time>
      </trkpt>
      <trkpt lat="42.55618" lon="1.89505">
        <ele>1851.16</ele>
        <time>2021-07-05T06:43:39Z</time>
      </trkpt>
      <trkpt lat="42.55607" lon="1.89504">
        <ele>1851.16</ele>
        <time>2021-07-05T06:43:48Z</time>
      </trkpt>
      <trkpt lat="42.55595" lon="1.89499">
        <ele>1852.12</ele>
        <time>2021-07-05T06:43:55Z</time>
      </trkpt>
      <trkpt lat="42.55585" lon="1.89493">
        <ele>1852.12</ele>
        <time>2021-07-05T06:44:03Z</time>
      </trkpt>
      <trkpt lat="42.55577" lon="1.89495">
        <ele>1852.6</ele>
        <time>2021-07-05T06:44:13Z</time>
      </trkpt>
      <trkpt lat="42.55575" lon="1.89497">
        <ele>1853.08</ele>
        <time>2021-07-05T06:44:20Z</time>
      </trkpt>
      <trkpt lat="42.55572" lon="1.89501">
        <ele>1853.08</ele>
        <time>2021-07-05T06:44:29Z</time>
      </trkpt>
      <trkpt lat="42.55572" lon="1.89505">
        <ele>1853.56</ele>
        <time>2021-07-05T06:44:35Z</time>
      </trkpt>
      <trkpt lat="42.55571" lon="1.8951">
        <ele>1854.52</ele>
        <time>2021-07-05T06:44:38Z</time>
      </trkpt>
      <trkpt lat="42.55569" lon="1.8952">
        <ele>1855</ele>
        <time>2021-07-05T06:44:45Z</time>
      </trkpt>
      <trkpt lat="42.55566" lon="1.89525">
        <ele>1855</ele>
        <time>2021-07-05T06:44:48Z</time>
      </trkpt>
      <trkpt lat="42.55561" lon="1.89531">
        <ele>1854.52</ele>
        <time>2021-07-05T06:44:53Z</time>
      </trkpt>
      <trkpt lat="42.55554" lon="1.89536">
        <ele>1855.48</ele>
        <time>2021-07-05T06:44:58Z</time>
      </trkpt>
      <trkpt lat="42.5554" lon="1.89539">
        <ele>1855</ele>
        <time>2021-07-05T06:45:06Z</time>
      </trkpt>
      <trkpt lat="42.55539" lon="1.89537">
        <ele>1855</ele>
        <time>2021-07-05T06:45:17Z</time>
      </trkpt>
      <trkpt lat="42.55537" lon="1.89535">
        <ele>1854.04</ele>
        <time>2021-07-05T06:45:24Z</time>
      </trkpt>
      <trkpt lat="42.55535" lon="1.89534">
        <ele>1854.04</ele>
        <time>2021-07-05T06:45:30Z</time>
      </trkpt>
      <trkpt lat="42.55533" lon="1.89533">
        <ele>1854.52</ele>
        <time>2021-07-05T06:45:36Z</time>
      </trkpt>
      <trkpt lat="42.55532" lon="1.89533">
        <ele>1854.52</ele>
        <time>2021-07-05T06:45:41Z</time>
      </trkpt>
      <trkpt lat="42.5553" lon="1.89532">
        <ele>1854.04</ele>
        <time>2021-07-05T06:45:48Z</time>
      </trkpt>
      <trkpt lat="42.55526" lon="1.89529">
        <ele>1853.56</ele>
        <time>2021-07-05T06:45:54Z</time>
      </trkpt>
      <trkpt lat="42.55523" lon="1.8953">
        <ele>1854.52</ele>
        <time>2021-07-05T06:45:58Z</time>
      </trkpt>
      <trkpt lat="42.5552" lon="1.89531">
        <ele>1854.04</ele>
        <time>2021-07-05T06:46:10Z</time>
      </trkpt>
      <trkpt lat="42.55518" lon="1.89538">
        <ele>1854.04</ele>
        <time>2021-07-05T06:46:21Z</time>
      </trkpt>
      <trkpt lat="42.55519" lon="1.89539">
        <ele>1854.04</ele>
        <time>2021-07-05T06:46:22Z</time>
      </trkpt>
      <trkpt lat="42.55519" lon="1.89545">
        <ele>1855.96</ele>
        <time>2021-07-05T06:46:29Z</time>
      </trkpt>
      <trkpt lat="42.55518" lon="1.89551">
        <ele>1856.92</ele>
        <time>2021-07-05T06:46:35Z</time>
      </trkpt>
      <trkpt lat="42.55517" lon="1.89554">
        <ele>1857.89</ele>
        <time>2021-07-05T06:46:41Z</time>
      </trkpt>
      <trkpt lat="42.55516" lon="1.8956">
        <ele>1858.85</ele>
        <time>2021-07-05T06:46:46Z</time>
      </trkpt>
      <trkpt lat="42.55514" lon="1.89569">
        <ele>1860.29</ele>
        <time>2021-07-05T06:46:50Z</time>
      </trkpt>
      <trkpt lat="42.5551" lon="1.89573">
        <ele>1860.77</ele>
        <time>2021-07-05T06:46:53Z</time>
      </trkpt>
      <trkpt lat="42.55509" lon="1.89575">
        <ele>1860.77</ele>
        <time>2021-07-05T06:46:54Z</time>
      </trkpt>
      <trkpt lat="42.55503" lon="1.89584">
        <ele>1862.21</ele>
        <time>2021-07-05T06:47:01Z</time>
      </trkpt>
      <trkpt lat="42.55499" lon="1.89586">
        <ele>1863.65</ele>
        <time>2021-07-05T06:47:05Z</time>
      </trkpt>
      <trkpt lat="42.55497" lon="1.89592">
        <ele>1865.09</ele>
        <time>2021-07-05T06:47:11Z</time>
      </trkpt>
      <trkpt lat="42.55497" lon="1.89598">
        <ele>1866.54</ele>
        <time>2021-07-05T06:47:19Z</time>
      </trkpt>
      <trkpt lat="42.55496" lon="1.89602">
        <ele>1867.02</ele>
        <time>2021-07-05T06:47:22Z</time>
      </trkpt>
      <trkpt lat="42.55498" lon="1.89612">
        <ele>1868.94</ele>
        <time>2021-07-05T06:47:30Z</time>
      </trkpt>
      <trkpt lat="42.55505" lon="1.8962">
        <ele>1870.38</ele>
        <time>2021-07-05T06:47:37Z</time>
      </trkpt>
      <trkpt lat="42.55513" lon="1.8963">
        <ele>1871.34</ele>
        <time>2021-07-05T06:47:43Z</time>
      </trkpt>
      <trkpt lat="42.55518" lon="1.89633">
        <ele>1871.82</ele>
        <time>2021-07-05T06:47:44Z</time>
      </trkpt>
      <trkpt lat="42.55527" lon="1.89645">
        <ele>1872.3</ele>
        <time>2021-07-05T06:47:49Z</time>
      </trkpt>
      <trkpt lat="42.55536" lon="1.89654">
        <ele>1874.23</ele>
        <time>2021-07-05T06:47:56Z</time>
      </trkpt>
      <trkpt lat="42.55536" lon="1.89659">
        <ele>1874.71</ele>
        <time>2021-07-05T06:48:03Z</time>
      </trkpt>
      <trkpt lat="42.55534" lon="1.89663">
        <ele>1875.67</ele>
        <time>2021-07-05T06:48:08Z</time>
      </trkpt>
      <trkpt lat="42.55534" lon="1.89669">
        <ele>1877.11</ele>
        <time>2021-07-05T06:48:15Z</time>
      </trkpt>
      <trkpt lat="42.55535" lon="1.89673">
        <ele>1879.03</ele>
        <time>2021-07-05T06:48:18Z</time>
      </trkpt>
      <trkpt lat="42.55541" lon="1.89678">
        <ele>1879.51</ele>
        <time>2021-07-05T06:48:25Z</time>
      </trkpt>
      <trkpt lat="42.5554" lon="1.89682">
        <ele>1880.48</ele>
        <time>2021-07-05T06:48:30Z</time>
      </trkpt>
      <trkpt lat="42.55526" lon="1.89683">
        <ele>1881.44</ele>
        <time>2021-07-05T06:48:37Z</time>
      </trkpt>
      <trkpt lat="42.55525" lon="1.89683">
        <ele>1881.44</ele>
        <time>2021-07-05T06:48:38Z</time>
      </trkpt>
      <trkpt lat="42.55522" lon="1.89683">
        <ele>1881.44</ele>
        <time>2021-07-05T06:48:47Z</time>
      </trkpt>
      <trkpt lat="42.55515" lon="1.89681">
        <ele>1881.44</ele>
        <time>2021-07-05T06:48:57Z</time>
      </trkpt>
      <trkpt lat="42.5551" lon="1.8968">
        <ele>1881.44</ele>
        <time>2021-07-05T06:49:00Z</time>
      </trkpt>
      <trkpt lat="42.55507" lon="1.8968">
        <ele>1881.44</ele>
        <time>2021-07-05T06:49:05Z</time>
      </trkpt>
      <trkpt lat="42.55503" lon="1.89679">
        <ele>1880.96</ele>
        <time>2021-07-05T06:49:10Z</time>
      </trkpt>
      <trkpt lat="42.55499" lon="1.89678">
        <ele>1880.48</ele>
        <time>2021-07-05T06:49:13Z</time>
      </trkpt>
      <trkpt lat="42.55491" lon="1.89675">
        <ele>1880</ele>
        <time>2021-07-05T06:49:23Z</time>
      </trkpt>
      <trkpt lat="42.55489" lon="1.89674">
        <ele>1880</ele>
        <time>2021-07-05T06:49:42Z</time>
      </trkpt>
      <trkpt lat="42.55488" lon="1.89673">
        <ele>1880</ele>
        <time>2021-07-05T06:50:00Z</time>
      </trkpt>
      <trkpt lat="42.55482" lon="1.89672">
        <ele>1880</ele>
        <time>2021-07-05T06:50:17Z</time>
      </trkpt>
      <trkpt lat="42.55481" lon="1.89671">
        <ele>1880.48</ele>
        <time>2021-07-05T06:50:31Z</time>
      </trkpt>
      <trkpt lat="42.5547" lon="1.89669">
        <ele>1880</ele>
        <time>2021-07-05T06:50:36Z</time>
      </trkpt>
      <trkpt lat="42.55468" lon="1.89668">
        <ele>1882.4</ele>
        <time>2021-07-05T06:50:38Z</time>
      </trkpt>
      <trkpt lat="42.55464" lon="1.89669">
        <ele>1880.96</ele>
        <time>2021-07-05T06:50:43Z</time>
      </trkpt>
      <trkpt lat="42.55462" lon="1.89669">
        <ele>1880.96</ele>
        <time>2021-07-05T06:50:50Z</time>
      </trkpt>
      <trkpt lat="42.5546" lon="1.89669">
        <ele>1881.92</ele>
        <time>2021-07-05T06:50:59Z</time>
      </trkpt>
      <trkpt lat="42.55458" lon="1.89669">
        <ele>1881.92</ele>
        <time>2021-07-05T06:51:06Z</time>
      </trkpt>
      <trkpt lat="42.55455" lon="1.89668">
        <ele>1882.4</ele>
        <time>2021-07-05T06:51:16Z</time>
      </trkpt>
      <trkpt lat="42.55455" lon="1.89668">
        <ele>1882.4</ele>
        <time>2021-07-05T06:51:24Z</time>
      </trkpt>
      <trkpt lat="42.55457" lon="1.89669">
        <ele>1882.4</ele>
        <time>2021-07-05T06:51:33Z</time>
      </trkpt>
      <trkpt lat="42.55455" lon="1.89668">
        <ele>1881.92</ele>
        <time>2021-07-05T06:51:43Z</time>
      </trkpt>
      <trkpt lat="42.55456" lon="1.8967">
        <ele>1882.4</ele>
        <time>2021-07-05T06:51:47Z</time>
      </trkpt>
      <trkpt lat="42.55459" lon="1.89672">
        <ele>1882.88</ele>
        <time>2021-07-05T06:51:51Z</time>
      </trkpt>
      <trkpt lat="42.55465" lon="1.89672">
        <ele>1882.88</ele>
        <time>2021-07-05T06:51:59Z</time>
      </trkpt>
      <trkpt lat="42.55462" lon="1.8967">
        <ele>1882.88</ele>
        <time>2021-07-05T06:52:07Z</time>
      </trkpt>
      <trkpt lat="42.55443" lon="1.89662">
        <ele>1882.88</ele>
        <time>2021-07-05T06:52:16Z</time>
      </trkpt>
      <trkpt lat="42.55484" lon="1.89676">
        <ele>1883.36</ele>
        <time>2021-07-05T06:52:30Z</time>
      </trkpt>
      <trkpt lat="42.55499" lon="1.89692">
        <ele>1884.8</ele>
        <time>2021-07-05T06:52:38Z</time>
      </trkpt>
      <trkpt lat="42.55517" lon="1.89698">
        <ele>1886.24</ele>
        <time>2021-07-05T06:52:46Z</time>
      </trkpt>
      <trkpt lat="42.55522" lon="1.897">
        <ele>1886.72</ele>
        <time>2021-07-05T06:52:49Z</time>
      </trkpt>
      <trkpt lat="42.55532" lon="1.8971">
        <ele>1887.69</ele>
        <time>2021-07-05T06:52:57Z</time>
      </trkpt>
      <trkpt lat="42.55533" lon="1.89712">
        <ele>1888.17</ele>
        <time>2021-07-05T06:52:59Z</time>
      </trkpt>
      <trkpt lat="42.55538" lon="1.89721">
        <ele>1889.13</ele>
        <time>2021-07-05T06:53:06Z</time>
      </trkpt>
      <trkpt lat="42.55544" lon="1.89731">
        <ele>1890.09</ele>
        <time>2021-07-05T06:53:13Z</time>
      </trkpt>
      <trkpt lat="42.55549" lon="1.89737">
        <ele>1891.05</ele>
        <time>2021-07-05T06:53:19Z</time>
      </trkpt>
      <trkpt lat="42.55554" lon="1.89744">
        <ele>1892.01</ele>
        <time>2021-07-05T06:53:27Z</time>
      </trkpt>
      <trkpt lat="42.55557" lon="1.89748">
        <ele>1892.49</ele>
        <time>2021-07-05T06:53:30Z</time>
      </trkpt>
      <trkpt lat="42.55568" lon="1.89756">
        <ele>1893.93</ele>
        <time>2021-07-05T06:53:39Z</time>
      </trkpt>
      <trkpt lat="42.55575" lon="1.89762">
        <ele>1895.38</ele>
        <time>2021-07-05T06:53:47Z</time>
      </trkpt>
      <trkpt lat="42.55581" lon="1.89769">
        <ele>1896.82</ele>
        <time>2021-07-05T06:53:55Z</time>
      </trkpt>
      <trkpt lat="42.55586" lon="1.89773">
        <ele>1897.78</ele>
        <time>2021-07-05T06:54:03Z</time>
      </trkpt>
      <trkpt lat="42.55587" lon="1.89775">
        <ele>1897.78</ele>
        <time>2021-07-05T06:54:06Z</time>
      </trkpt>
      <trkpt lat="42.55593" lon="1.89778">
        <ele>1899.22</ele>
        <time>2021-07-05T06:54:13Z</time>
      </trkpt>
      <trkpt lat="42.55595" lon="1.8978">
        <ele>1901.14</ele>
        <time>2021-07-05T06:54:18Z</time>
      </trkpt>
      <trkpt lat="42.55607" lon="1.89784">
        <ele>1901.63</ele>
        <time>2021-07-05T06:54:25Z</time>
      </trkpt>
      <trkpt lat="42.55611" lon="1.89785">
        <ele>1901.63</ele>
        <time>2021-07-05T06:54:27Z</time>
      </trkpt>
      <trkpt lat="42.55607" lon="1.89787">
        <ele>1902.11</ele>
        <time>2021-07-05T06:54:33Z</time>
      </trkpt>
      <trkpt lat="42.55627" lon="1.89795">
        <ele>1903.55</ele>
        <time>2021-07-05T06:54:39Z</time>
      </trkpt>
      <trkpt lat="42.55621" lon="1.89795">
        <ele>1904.99</ele>
        <time>2021-07-05T06:54:46Z</time>
      </trkpt>
      <trkpt lat="42.55619" lon="1.89795">
        <ele>1904.99</ele>
        <time>2021-07-05T06:54:48Z</time>
      </trkpt>
      <trkpt lat="42.55613" lon="1.898">
        <ele>1905.47</ele>
        <time>2021-07-05T06:54:55Z</time>
      </trkpt>
      <trkpt lat="42.55608" lon="1.89804">
        <ele>1906.43</ele>
        <time>2021-07-05T06:55:01Z</time>
      </trkpt>
      <trkpt lat="42.556" lon="1.89807">
        <ele>1907.87</ele>
        <time>2021-07-05T06:55:09Z</time>
      </trkpt>
      <trkpt lat="42.55594" lon="1.89809">
        <ele>1908.83</ele>
        <time>2021-07-05T06:55:16Z</time>
      </trkpt>
      <trkpt lat="42.55588" lon="1.89814">
        <ele>1910.28</ele>
        <time>2021-07-05T06:55:21Z</time>
      </trkpt>
      <trkpt lat="42.55585" lon="1.89815">
        <ele>1910.76</ele>
        <time>2021-07-05T06:55:24Z</time>
      </trkpt>
      <trkpt lat="42.55581" lon="1.89813">
        <ele>1910.76</ele>
        <time>2021-07-05T06:55:28Z</time>
      </trkpt>
      <trkpt lat="42.55571" lon="1.89814">
        <ele>1910.76</ele>
        <time>2021-07-05T06:55:35Z</time>
      </trkpt>
      <trkpt lat="42.55564" lon="1.89813">
        <ele>1911.72</ele>
        <time>2021-07-05T06:55:41Z</time>
      </trkpt>
      <trkpt lat="42.55559" lon="1.89814">
        <ele>1912.68</ele>
        <time>2021-07-05T06:55:47Z</time>
      </trkpt>
      <trkpt lat="42.55548" lon="1.89815">
        <ele>1913.64</ele>
        <time>2021-07-05T06:55:56Z</time>
      </trkpt>
      <trkpt lat="42.55542" lon="1.89817">
        <ele>1915.08</ele>
        <time>2021-07-05T06:56:04Z</time>
      </trkpt>
      <trkpt lat="42.55534" lon="1.8982">
        <ele>1916.53</ele>
        <time>2021-07-05T06:56:11Z</time>
      </trkpt>
      <trkpt lat="42.55528" lon="1.89824">
        <ele>1916.53</ele>
        <time>2021-07-05T06:56:17Z</time>
      </trkpt>
      <trkpt lat="42.5552" lon="1.89822">
        <ele>1917.97</ele>
        <time>2021-07-05T06:56:24Z</time>
      </trkpt>
      <trkpt lat="42.55515" lon="1.89818">
        <ele>1918.45</ele>
        <time>2021-07-05T06:56:30Z</time>
      </trkpt>
      <trkpt lat="42.55508" lon="1.89817">
        <ele>1919.89</ele>
        <time>2021-07-05T06:56:38Z</time>
      </trkpt>
      <trkpt lat="42.55501" lon="1.89822">
        <ele>1921.81</ele>
        <time>2021-07-05T06:56:48Z</time>
      </trkpt>
      <trkpt lat="42.555" lon="1.89827">
        <ele>1923.25</ele>
        <time>2021-07-05T06:56:55Z</time>
      </trkpt>
      <trkpt lat="42.55499" lon="1.89831">
        <ele>1924.22</ele>
        <time>2021-07-05T06:56:59Z</time>
      </trkpt>
      <trkpt lat="42.55503" lon="1.89838">
        <ele>1925.66</ele>
        <time>2021-07-05T06:57:07Z</time>
      </trkpt>
      <trkpt lat="42.55498" lon="1.8985">
        <ele>1926.62</ele>
        <time>2021-07-05T06:57:14Z</time>
      </trkpt>
      <trkpt lat="42.55495" lon="1.89857">
        <ele>1927.58</ele>
        <time>2021-07-05T06:57:21Z</time>
      </trkpt>
      <trkpt lat="42.55493" lon="1.89863">
        <ele>1928.06</ele>
        <time>2021-07-05T06:57:27Z</time>
      </trkpt>
      <trkpt lat="42.55495" lon="1.89866">
        <ele>1929.02</ele>
        <time>2021-07-05T06:57:32Z</time>
      </trkpt>
      <trkpt lat="42.55501" lon="1.89872">
        <ele>1929.5</ele>
        <time>2021-07-05T06:57:36Z</time>
      </trkpt>
      <trkpt lat="42.55505" lon="1.89876">
        <ele>1929.5</ele>
        <time>2021-07-05T06:57:41Z</time>
      </trkpt>
      <trkpt lat="42.5551" lon="1.89881">
        <ele>1929.98</ele>
        <time>2021-07-05T06:57:48Z</time>
      </trkpt>
      <trkpt lat="42.55511" lon="1.89881">
        <ele>1930.95</ele>
        <time>2021-07-05T06:57:55Z</time>
      </trkpt>
      <trkpt lat="42.55512" lon="1.89881">
        <ele>1931.43</ele>
        <time>2021-07-05T06:58:00Z</time>
      </trkpt>
      <trkpt lat="42.55513" lon="1.89883">
        <ele>1932.39</ele>
        <time>2021-07-05T06:58:06Z</time>
      </trkpt>
      <trkpt lat="42.55514" lon="1.89884">
        <ele>1932.87</ele>
        <time>2021-07-05T06:58:11Z</time>
      </trkpt>
      <trkpt lat="42.55525" lon="1.8989">
        <ele>1933.35</ele>
        <time>2021-07-05T06:58:17Z</time>
      </trkpt>
      <trkpt lat="42.55532" lon="1.89894">
        <ele>1933.83</ele>
        <time>2021-07-05T06:58:22Z</time>
      </trkpt>
      <trkpt lat="42.55535" lon="1.89896">
        <ele>1934.79</ele>
        <time>2021-07-05T06:58:25Z</time>
      </trkpt>
      <trkpt lat="42.55543" lon="1.89901">
        <ele>1935.27</ele>
        <time>2021-07-05T06:58:31Z</time>
      </trkpt>
      <trkpt lat="42.55551" lon="1.89903">
        <ele>1936.23</ele>
        <time>2021-07-05T06:58:37Z</time>
      </trkpt>
      <trkpt lat="42.55559" lon="1.89909">
        <ele>1936.71</ele>
        <time>2021-07-05T06:58:42Z</time>
      </trkpt>
      <trkpt lat="42.55567" lon="1.89912">
        <ele>1937.67</ele>
        <time>2021-07-05T06:58:45Z</time>
      </trkpt>
      <trkpt lat="42.55581" lon="1.89921">
        <ele>1938.64</ele>
        <time>2021-07-05T06:58:53Z</time>
      </trkpt>
      <trkpt lat="42.55585" lon="1.89927">
        <ele>1939.12</ele>
        <time>2021-07-05T06:58:59Z</time>
      </trkpt>
      <trkpt lat="42.55591" lon="1.89935">
        <ele>1940.08</ele>
        <time>2021-07-05T06:59:06Z</time>
      </trkpt>
      <trkpt lat="42.55596" lon="1.89939">
        <ele>1941.52</ele>
        <time>2021-07-05T06:59:12Z</time>
      </trkpt>
      <trkpt lat="42.55599" lon="1.89941">
        <ele>1942</ele>
        <time>2021-07-05T06:59:16Z</time>
      </trkpt>
      <trkpt lat="42.55602" lon="1.89943">
        <ele>1941.04</ele>
        <time>2021-07-05T06:59:23Z</time>
      </trkpt>
      <trkpt lat="42.55612" lon="1.89947">
        <ele>1941.04</ele>
        <time>2021-07-05T06:59:29Z</time>
      </trkpt>
      <trkpt lat="42.55616" lon="1.89948">
        <ele>1941.04</ele>
        <time>2021-07-05T06:59:35Z</time>
      </trkpt>
      <trkpt lat="42.55618" lon="1.89949">
        <ele>1942</ele>
        <time>2021-07-05T06:59:43Z</time>
      </trkpt>
      <trkpt lat="42.55626" lon="1.89951">
        <ele>1945.36</ele>
        <time>2021-07-05T06:59:51Z</time>
      </trkpt>
      <trkpt lat="42.55638" lon="1.89954">
        <ele>1943.44</ele>
        <time>2021-07-05T07:00:00Z</time>
      </trkpt>
      <trkpt lat="42.55647" lon="1.89958">
        <ele>1945.36</ele>
        <time>2021-07-05T07:00:08Z</time>
      </trkpt>
      <trkpt lat="42.55656" lon="1.89963">
        <ele>1946.33</ele>
        <time>2021-07-05T07:00:16Z</time>
      </trkpt>
      <trkpt lat="42.55662" lon="1.89967">
        <ele>1948.73</ele>
        <time>2021-07-05T07:00:24Z</time>
      </trkpt>
      <trkpt lat="42.5567" lon="1.8997">
        <ele>1949.69</ele>
        <time>2021-07-05T07:00:32Z</time>
      </trkpt>
      <trkpt lat="42.55677" lon="1.89973">
        <ele>1950.17</ele>
        <time>2021-07-05T07:00:40Z</time>
      </trkpt>
      <trkpt lat="42.55675" lon="1.89971">
        <ele>1950.65</ele>
        <time>2021-07-05T07:00:48Z</time>
      </trkpt>
      <trkpt lat="42.55681" lon="1.89972">
        <ele>1950.65</ele>
        <time>2021-07-05T07:01:00Z</time>
      </trkpt>
      <trkpt lat="42.55685" lon="1.89973">
        <ele>1952.09</ele>
        <time>2021-07-05T07:01:10Z</time>
      </trkpt>
      <trkpt lat="42.55687" lon="1.89975">
        <ele>1954.02</ele>
        <time>2021-07-05T07:01:18Z</time>
      </trkpt>
      <trkpt lat="42.55685" lon="1.89979">
        <ele>1955.46</ele>
        <time>2021-07-05T07:01:25Z</time>
      </trkpt>
      <trkpt lat="42.5568" lon="1.89985">
        <ele>1956.9</ele>
        <time>2021-07-05T07:01:32Z</time>
      </trkpt>
      <trkpt lat="42.55687" lon="1.89989">
        <ele>1958.82</ele>
        <time>2021-07-05T07:01:40Z</time>
      </trkpt>
      <trkpt lat="42.55691" lon="1.89991">
        <ele>1961.23</ele>
        <time>2021-07-05T07:01:51Z</time>
      </trkpt>
      <trkpt lat="42.5569" lon="1.89994">
        <ele>1963.15</ele>
        <time>2021-07-05T07:02:00Z</time>
      </trkpt>
      <trkpt lat="42.55691" lon="1.89996">
        <ele>1963.63</ele>
        <time>2021-07-05T07:02:09Z</time>
      </trkpt>
      <trkpt lat="42.55692" lon="1.90001">
        <ele>1965.55</ele>
        <time>2021-07-05T07:02:20Z</time>
      </trkpt>
      <trkpt lat="42.55693" lon="1.90006">
        <ele>1967.96</ele>
        <time>2021-07-05T07:02:33Z</time>
      </trkpt>
      <trkpt lat="42.55695" lon="1.90013">
        <ele>1970.36</ele>
        <time>2021-07-05T07:02:42Z</time>
      </trkpt>
      <trkpt lat="42.55693" lon="1.90014">
        <ele>1972.28</ele>
        <time>2021-07-05T07:02:50Z</time>
      </trkpt>
      <trkpt lat="42.55692" lon="1.90015">
        <ele>1974.2</ele>
        <time>2021-07-05T07:02:59Z</time>
      </trkpt>
      <trkpt lat="42.5569" lon="1.90018">
        <ele>1975.17</ele>
        <time>2021-07-05T07:03:09Z</time>
      </trkpt>
      <trkpt lat="42.55687" lon="1.90021">
        <ele>1975.65</ele>
        <time>2021-07-05T07:03:18Z</time>
      </trkpt>
      <trkpt lat="42.55685" lon="1.90023">
        <ele>1978.05</ele>
        <time>2021-07-05T07:03:27Z</time>
      </trkpt>
      <trkpt lat="42.55681" lon="1.90024">
        <ele>1978.53</ele>
        <time>2021-07-05T07:03:35Z</time>
      </trkpt>
      <trkpt lat="42.55676" lon="1.90028">
        <ele>1979.01</ele>
        <time>2021-07-05T07:03:43Z</time>
      </trkpt>
      <trkpt lat="42.55674" lon="1.90029">
        <ele>1979.01</ele>
        <time>2021-07-05T07:03:51Z</time>
      </trkpt>
      <trkpt lat="42.55672" lon="1.90033">
        <ele>1981.41</ele>
        <time>2021-07-05T07:03:59Z</time>
      </trkpt>
      <trkpt lat="42.5567" lon="1.90034">
        <ele>1982.86</ele>
        <time>2021-07-05T07:04:07Z</time>
      </trkpt>
      <trkpt lat="42.5567" lon="1.90036">
        <ele>1984.3</ele>
        <time>2021-07-05T07:04:14Z</time>
      </trkpt>
      <trkpt lat="42.55669" lon="1.90037">
        <ele>1986.7</ele>
        <time>2021-07-05T07:04:24Z</time>
      </trkpt>
      <trkpt lat="42.55665" lon="1.9004">
        <ele>1988.14</ele>
        <time>2021-07-05T07:04:31Z</time>
      </trkpt>
      <trkpt lat="42.55663" lon="1.90043">
        <ele>1989.59</ele>
        <time>2021-07-05T07:04:38Z</time>
      </trkpt>
      <trkpt lat="42.55664" lon="1.90046">
        <ele>1991.51</ele>
        <time>2021-07-05T07:04:45Z</time>
      </trkpt>
      <trkpt lat="42.55664" lon="1.90049">
        <ele>1990.55</ele>
        <time>2021-07-05T07:04:54Z</time>
      </trkpt>
      <trkpt lat="42.55664" lon="1.90051">
        <ele>1990.55</ele>
        <time>2021-07-05T07:05:07Z</time>
      </trkpt>
      <trkpt lat="42.55662" lon="1.90048">
        <ele>1991.03</ele>
        <time>2021-07-05T07:05:23Z</time>
      </trkpt>
      <trkpt lat="42.55661" lon="1.90047">
        <ele>1991.03</ele>
        <time>2021-07-05T07:05:31Z</time>
      </trkpt>
      <trkpt lat="42.55661" lon="1.90048">
        <ele>1991.51</ele>
        <time>2021-07-05T07:05:41Z</time>
      </trkpt>
      <trkpt lat="42.5566" lon="1.90046">
        <ele>1991.51</ele>
        <time>2021-07-05T07:05:55Z</time>
      </trkpt>
      <trkpt lat="42.55658" lon="1.90044">
        <ele>1991.51</ele>
        <time>2021-07-05T07:06:08Z</time>
      </trkpt>
      <trkpt lat="42.55661" lon="1.90046">
        <ele>1991.99</ele>
        <time>2021-07-05T07:06:17Z</time>
      </trkpt>
      <trkpt lat="42.55664" lon="1.90054">
        <ele>1992.95</ele>
        <time>2021-07-05T07:06:25Z</time>
      </trkpt>
      <trkpt lat="42.55665" lon="1.90058">
        <ele>1993.91</ele>
        <time>2021-07-05T07:06:31Z</time>
      </trkpt>
      <trkpt lat="42.55665" lon="1.90062">
        <ele>1994.39</ele>
        <time>2021-07-05T07:06:34Z</time>
      </trkpt>
      <trkpt lat="42.55669" lon="1.90068">
        <ele>1994.87</ele>
        <time>2021-07-05T07:06:39Z</time>
      </trkpt>
      <trkpt lat="42.55674" lon="1.90079">
        <ele>1996.32</ele>
        <time>2021-07-05T07:06:48Z</time>
      </trkpt>
      <trkpt lat="42.55674" lon="1.90086">
        <ele>1995.83</ele>
        <time>2021-07-05T07:06:55Z</time>
      </trkpt>
      <trkpt lat="42.55682" lon="1.90091">
        <ele>1996.32</ele>
        <time>2021-07-05T07:07:02Z</time>
      </trkpt>
      <trkpt lat="42.55685" lon="1.90094">
        <ele>1996.8</ele>
        <time>2021-07-05T07:07:06Z</time>
      </trkpt>
      <trkpt lat="42.55685" lon="1.90095">
        <ele>1997.76</ele>
        <time>2021-07-05T07:07:12Z</time>
      </trkpt>
      <trkpt lat="42.55691" lon="1.90097">
        <ele>1997.28</ele>
        <time>2021-07-05T07:07:17Z</time>
      </trkpt>
      <trkpt lat="42.55696" lon="1.90099">
        <ele>1996.8</ele>
        <time>2021-07-05T07:07:23Z</time>
      </trkpt>
      <trkpt lat="42.557" lon="1.90101">
        <ele>1997.28</ele>
        <time>2021-07-05T07:07:29Z</time>
      </trkpt>
      <trkpt lat="42.55713" lon="1.90103">
        <ele>1997.76</ele>
        <time>2021-07-05T07:07:35Z</time>
      </trkpt>
      <trkpt lat="42.5572" lon="1.90105">
        <ele>1997.28</ele>
        <time>2021-07-05T07:07:40Z</time>
      </trkpt>
      <trkpt lat="42.55723" lon="1.90107">
        <ele>1997.76</ele>
        <time>2021-07-05T07:07:46Z</time>
      </trkpt>
      <trkpt lat="42.55726" lon="1.90108">
        <ele>1997.76</ele>
        <time>2021-07-05T07:07:49Z</time>
      </trkpt>
      <trkpt lat="42.55731" lon="1.90108">
        <ele>1997.76</ele>
        <time>2021-07-05T07:07:52Z</time>
      </trkpt>
      <trkpt lat="42.55737" lon="1.90108">
        <ele>1997.76</ele>
        <time>2021-07-05T07:07:58Z</time>
      </trkpt>
      <trkpt lat="42.55744" lon="1.9011">
        <ele>1997.76</ele>
        <time>2021-07-05T07:08:04Z</time>
      </trkpt>
      <trkpt lat="42.55746" lon="1.90112">
        <ele>1997.76</ele>
        <time>2021-07-05T07:08:06Z</time>
      </trkpt>
      <trkpt lat="42.55753" lon="1.90115">
        <ele>1998.24</ele>
        <time>2021-07-05T07:08:10Z</time>
      </trkpt>
      <trkpt lat="42.55764" lon="1.90117">
        <ele>1998.24</ele>
        <time>2021-07-05T07:08:15Z</time>
      </trkpt>
      <trkpt lat="42.55769" lon="1.9012">
        <ele>1997.76</ele>
        <time>2021-07-05T07:08:21Z</time>
      </trkpt>
      <trkpt lat="42.55776" lon="1.9012">
        <ele>1998.24</ele>
        <time>2021-07-05T07:08:26Z</time>
      </trkpt>
      <trkpt lat="42.55784" lon="1.90121">
        <ele>1998.24</ele>
        <time>2021-07-05T07:08:33Z</time>
      </trkpt>
      <trkpt lat="42.55791" lon="1.90123">
        <ele>1998.24</ele>
        <time>2021-07-05T07:08:39Z</time>
      </trkpt>
      <trkpt lat="42.55793" lon="1.90123">
        <ele>1998.72</ele>
        <time>2021-07-05T07:08:51Z</time>
      </trkpt>
      <trkpt lat="42.5579" lon="1.90118">
        <ele>1998.72</ele>
        <time>2021-07-05T07:09:06Z</time>
      </trkpt>
      <trkpt lat="42.55791" lon="1.90118">
        <ele>1998.72</ele>
        <time>2021-07-05T07:09:13Z</time>
      </trkpt>
      <trkpt lat="42.558" lon="1.90122">
        <ele>1998.24</ele>
        <time>2021-07-05T07:09:20Z</time>
      </trkpt>
      <trkpt lat="42.55801" lon="1.90123">
        <ele>1998.72</ele>
        <time>2021-07-05T07:09:21Z</time>
      </trkpt>
      <trkpt lat="42.55808" lon="1.90123">
        <ele>1997.76</ele>
        <time>2021-07-05T07:09:26Z</time>
      </trkpt>
      <trkpt lat="42.5581" lon="1.90123">
        <ele>1997.76</ele>
        <time>2021-07-05T07:09:27Z</time>
      </trkpt>
      <trkpt lat="42.55816" lon="1.90125">
        <ele>1998.24</ele>
        <time>2021-07-05T07:09:33Z</time>
      </trkpt>
      <trkpt lat="42.55823" lon="1.90124">
        <ele>1998.24</ele>
        <time>2021-07-05T07:09:39Z</time>
      </trkpt>
      <trkpt lat="42.55824" lon="1.90124">
        <ele>1998.72</ele>
        <time>2021-07-05T07:09:41Z</time>
      </trkpt>
      <trkpt lat="42.55829" lon="1.90123">
        <ele>1998.72</ele>
        <time>2021-07-05T07:09:45Z</time>
      </trkpt>
      <trkpt lat="42.55843" lon="1.9012">
        <ele>1998.24</ele>
        <time>2021-07-05T07:09:51Z</time>
      </trkpt>
      <trkpt lat="42.55848" lon="1.90121">
        <ele>1998.24</ele>
        <time>2021-07-05T07:09:54Z</time>
      </trkpt>
      <trkpt lat="42.5586" lon="1.90115">
        <ele>1997.76</ele>
        <time>2021-07-05T07:10:02Z</time>
      </trkpt>
      <trkpt lat="42.55866" lon="1.90109">
        <ele>1998.24</ele>
        <time>2021-07-05T07:10:09Z</time>
      </trkpt>
      <trkpt lat="42.55872" lon="1.90107">
        <ele>1998.72</ele>
        <time>2021-07-05T07:10:14Z</time>
      </trkpt>
      <trkpt lat="42.55878" lon="1.90103">
        <ele>1998.72</ele>
        <time>2021-07-05T07:10:19Z</time>
      </trkpt>
      <trkpt lat="42.55887" lon="1.90097">
        <ele>1998.72</ele>
        <time>2021-07-05T07:10:25Z</time>
      </trkpt>
      <trkpt lat="42.55892" lon="1.9009">
        <ele>1998.72</ele>
        <time>2021-07-05T07:10:32Z</time>
      </trkpt>
      <trkpt lat="42.55899" lon="1.90085">
        <ele>1999.2</ele>
        <time>2021-07-05T07:10:39Z</time>
      </trkpt>
      <trkpt lat="42.55899" lon="1.90072">
        <ele>1998.72</ele>
        <time>2021-07-05T07:10:46Z</time>
      </trkpt>
      <trkpt lat="42.559" lon="1.90065">
        <ele>1997.28</ele>
        <time>2021-07-05T07:10:53Z</time>
      </trkpt>
      <trkpt lat="42.559" lon="1.90063">
        <ele>1996.8</ele>
        <time>2021-07-05T07:10:54Z</time>
      </trkpt>
      <trkpt lat="42.55901" lon="1.90055">
        <ele>1996.8</ele>
        <time>2021-07-05T07:10:58Z</time>
      </trkpt>
      <trkpt lat="42.559" lon="1.90043">
        <ele>1996.8</ele>
        <time>2021-07-05T07:11:06Z</time>
      </trkpt>
      <trkpt lat="42.55901" lon="1.90041">
        <ele>1996.32</ele>
        <time>2021-07-05T07:11:07Z</time>
      </trkpt>
      <trkpt lat="42.55902" lon="1.90029">
        <ele>1996.8</ele>
        <time>2021-07-05T07:11:15Z</time>
      </trkpt>
      <trkpt lat="42.559" lon="1.90024">
        <ele>1996.8</ele>
        <time>2021-07-05T07:11:20Z</time>
      </trkpt>
      <trkpt lat="42.559" lon="1.90023">
        <ele>1997.28</ele>
        <time>2021-07-05T07:11:28Z</time>
      </trkpt>
      <trkpt lat="42.559" lon="1.90022">
        <ele>1996.8</ele>
        <time>2021-07-05T07:11:40Z</time>
      </trkpt>
      <trkpt lat="42.55901" lon="1.90022">
        <ele>1996.8</ele>
        <time>2021-07-05T07:11:56Z</time>
      </trkpt>
      <trkpt lat="42.55901" lon="1.90022">
        <ele>1997.28</ele>
        <time>2021-07-05T07:12:07Z</time>
      </trkpt>
      <trkpt lat="42.55901" lon="1.90022">
        <ele>1997.28</ele>
        <time>2021-07-05T07:12:16Z</time>
      </trkpt>
      <trkpt lat="42.559" lon="1.90017">
        <ele>1997.76</ele>
        <time>2021-07-05T07:12:23Z</time>
      </trkpt>
      <trkpt lat="42.55899" lon="1.9001">
        <ele>1996.8</ele>
        <time>2021-07-05T07:12:30Z</time>
      </trkpt>
      <trkpt lat="42.55899" lon="1.90004">
        <ele>1996.32</ele>
        <time>2021-07-05T07:12:37Z</time>
      </trkpt>
      <trkpt lat="42.559" lon="1.89994">
        <ele>1995.83</ele>
        <time>2021-07-05T07:12:44Z</time>
      </trkpt>
      <trkpt lat="42.55901" lon="1.89991">
        <ele>1995.35</ele>
        <time>2021-07-05T07:12:46Z</time>
      </trkpt>
      <trkpt lat="42.55903" lon="1.89986">
        <ele>1994.87</ele>
        <time>2021-07-05T07:12:49Z</time>
      </trkpt>
      <trkpt lat="42.55908" lon="1.89985">
        <ele>1995.35</ele>
        <time>2021-07-05T07:12:54Z</time>
      </trkpt>
      <trkpt lat="42.55909" lon="1.89985">
        <ele>1995.83</ele>
        <time>2021-07-05T07:12:59Z</time>
      </trkpt>
      <trkpt lat="42.55911" lon="1.8999">
        <ele>1995.83</ele>
        <time>2021-07-05T07:13:07Z</time>
      </trkpt>
      <trkpt lat="42.55913" lon="1.8999">
        <ele>1996.32</ele>
        <time>2021-07-05T07:13:13Z</time>
      </trkpt>
      <trkpt lat="42.55918" lon="1.89991">
        <ele>1996.32</ele>
        <time>2021-07-05T07:13:17Z</time>
      </trkpt>
      <trkpt lat="42.55924" lon="1.89987">
        <ele>1997.28</ele>
        <time>2021-07-05T07:13:22Z</time>
      </trkpt>
      <trkpt lat="42.55925" lon="1.89985">
        <ele>1997.76</ele>
        <time>2021-07-05T07:13:25Z</time>
      </trkpt>
      <trkpt lat="42.55931" lon="1.89984">
        <ele>1998.72</ele>
        <time>2021-07-05T07:13:30Z</time>
      </trkpt>
      <trkpt lat="42.55934" lon="1.89979">
        <ele>2000.64</ele>
        <time>2021-07-05T07:13:36Z</time>
      </trkpt>
      <trkpt lat="42.55937" lon="1.89978">
        <ele>2002.08</ele>
        <time>2021-07-05T07:13:42Z</time>
      </trkpt>
      <trkpt lat="42.55941" lon="1.89977">
        <ele>2003.04</ele>
        <time>2021-07-05T07:13:48Z</time>
      </trkpt>
      <trkpt lat="42.55952" lon="1.89983">
        <ele>2004.01</ele>
        <time>2021-07-05T07:13:53Z</time>
      </trkpt>
      <trkpt lat="42.55954" lon="1.89984">
        <ele>2004.97</ele>
        <time>2021-07-05T07:14:00Z</time>
      </trkpt>
      <trkpt lat="42.55952" lon="1.89987">
        <ele>2005.93</ele>
        <time>2021-07-05T07:14:07Z</time>
      </trkpt>
      <trkpt lat="42.55952" lon="1.89989">
        <ele>2006.89</ele>
        <time>2021-07-05T07:14:12Z</time>
      </trkpt>
      <trkpt lat="42.55952" lon="1.89991">
        <ele>2007.85</ele>
        <time>2021-07-05T07:14:19Z</time>
      </trkpt>
      <trkpt lat="42.55952" lon="1.89994">
        <ele>2009.29</ele>
        <time>2021-07-05T07:14:27Z</time>
      </trkpt>
      <trkpt lat="42.55952" lon="1.89998">
        <ele>2010.73</ele>
        <time>2021-07-05T07:14:33Z</time>
      </trkpt>
      <trkpt lat="42.55953" lon="1.90001">
        <ele>2012.18</ele>
        <time>2021-07-05T07:14:40Z</time>
      </trkpt>
      <trkpt lat="42.55955" lon="1.90006">
        <ele>2013.14</ele>
        <time>2021-07-05T07:14:48Z</time>
      </trkpt>
      <trkpt lat="42.55958" lon="1.90011">
        <ele>2014.58</ele>
        <time>2021-07-05T07:14:54Z</time>
      </trkpt>
      <trkpt lat="42.55962" lon="1.90015">
        <ele>2016.02</ele>
        <time>2021-07-05T07:15:00Z</time>
      </trkpt>
      <trkpt lat="42.55965" lon="1.90018">
        <ele>2016.5</ele>
        <time>2021-07-05T07:15:05Z</time>
      </trkpt>
      <trkpt lat="42.55968" lon="1.90024">
        <ele>2017.94</ele>
        <time>2021-07-05T07:15:11Z</time>
      </trkpt>
      <trkpt lat="42.55972" lon="1.90026">
        <ele>2018.43</ele>
        <time>2021-07-05T07:15:16Z</time>
      </trkpt>
      <trkpt lat="42.55973" lon="1.90028">
        <ele>2017.94</ele>
        <time>2021-07-05T07:15:22Z</time>
      </trkpt>
      <trkpt lat="42.55974" lon="1.90038">
        <ele>2017.46</ele>
        <time>2021-07-05T07:15:27Z</time>
      </trkpt>
      <trkpt lat="42.55977" lon="1.90043">
        <ele>2017.46</ele>
        <time>2021-07-05T07:15:33Z</time>
      </trkpt>
      <trkpt lat="42.55982" lon="1.9005">
        <ele>2017.94</ele>
        <time>2021-07-05T07:15:40Z</time>
      </trkpt>
      <trkpt lat="42.55983" lon="1.90051">
        <ele>2017.94</ele>
        <time>2021-07-05T07:15:42Z</time>
      </trkpt>
      <trkpt lat="42.55987" lon="1.90053">
        <ele>2018.43</ele>
        <time>2021-07-05T07:15:44Z</time>
      </trkpt>
      <trkpt lat="42.5599" lon="1.90056">
        <ele>2018.91</ele>
        <time>2021-07-05T07:15:48Z</time>
      </trkpt>
      <trkpt lat="42.55998" lon="1.90064">
        <ele>2019.87</ele>
        <time>2021-07-05T07:15:53Z</time>
      </trkpt>
      <trkpt lat="42.56027" lon="1.90081">
        <ele>2020.83</ele>
        <time>2021-07-05T07:16:01Z</time>
      </trkpt>
      <trkpt lat="42.56031" lon="1.90078">
        <ele>2021.79</ele>
        <time>2021-07-05T07:16:08Z</time>
      </trkpt>
      <trkpt lat="42.56036" lon="1.90078">
        <ele>2023.23</ele>
        <time>2021-07-05T07:16:17Z</time>
      </trkpt>
      <trkpt lat="42.56044" lon="1.90075">
        <ele>2024.19</ele>
        <time>2021-07-05T07:16:25Z</time>
      </trkpt>
      <trkpt lat="42.56047" lon="1.90074">
        <ele>2024.67</ele>
        <time>2021-07-05T07:16:27Z</time>
      </trkpt>
      <trkpt lat="42.56051" lon="1.90073">
        <ele>2025.15</ele>
        <time>2021-07-05T07:16:30Z</time>
      </trkpt>
      <trkpt lat="42.56062" lon="1.90066">
        <ele>2026.12</ele>
        <time>2021-07-05T07:16:39Z</time>
      </trkpt>
      <trkpt lat="42.56064" lon="1.90064">
        <ele>2027.08</ele>
        <time>2021-07-05T07:16:42Z</time>
      </trkpt>
      <trkpt lat="42.56067" lon="1.90061">
        <ele>2027.08</ele>
        <time>2021-07-05T07:16:45Z</time>
      </trkpt>
      <trkpt lat="42.56069" lon="1.90058">
        <ele>2027.56</ele>
        <time>2021-07-05T07:16:47Z</time>
      </trkpt>
      <trkpt lat="42.56075" lon="1.9005">
        <ele>2028.04</ele>
        <time>2021-07-05T07:16:54Z</time>
      </trkpt>
      <trkpt lat="42.56079" lon="1.90045">
        <ele>2029</ele>
        <time>2021-07-05T07:16:59Z</time>
      </trkpt>
      <trkpt lat="42.56079" lon="1.90044">
        <ele>2029</ele>
        <time>2021-07-05T07:17:00Z</time>
      </trkpt>
      <trkpt lat="42.56082" lon="1.90039">
        <ele>2029.96</ele>
        <time>2021-07-05T07:17:06Z</time>
      </trkpt>
      <trkpt lat="42.56085" lon="1.90039">
        <ele>2031.4</ele>
        <time>2021-07-05T07:17:14Z</time>
      </trkpt>
      <trkpt lat="42.56088" lon="1.90042">
        <ele>2031.4</ele>
        <time>2021-07-05T07:17:29Z</time>
      </trkpt>
      <trkpt lat="42.56097" lon="1.90042">
        <ele>2031.4</ele>
        <time>2021-07-05T07:18:00Z</time>
      </trkpt>
      <trkpt lat="42.56096" lon="1.90042">
        <ele>2031.4</ele>
        <time>2021-07-05T07:18:05Z</time>
      </trkpt>
      <trkpt lat="42.56107" lon="1.90053">
        <ele>2032.36</ele>
        <time>2021-07-05T07:18:11Z</time>
      </trkpt>
      <trkpt lat="42.56112" lon="1.90061">
        <ele>2033.33</ele>
        <time>2021-07-05T07:18:18Z</time>
      </trkpt>
      <trkpt lat="42.56114" lon="1.90064">
        <ele>2034.29</ele>
        <time>2021-07-05T07:18:21Z</time>
      </trkpt>
      <trkpt lat="42.56118" lon="1.90074">
        <ele>2033.81</ele>
        <time>2021-07-05T07:18:30Z</time>
      </trkpt>
      <trkpt lat="42.56118" lon="1.90081">
        <ele>2036.69</ele>
        <time>2021-07-05T07:18:36Z</time>
      </trkpt>
      <trkpt lat="42.56118" lon="1.90081">
        <ele>2034.29</ele>
        <time>2021-07-05T07:18:37Z</time>
      </trkpt>
      <trkpt lat="42.56118" lon="1.9008">
        <ele>2035.73</ele>
        <time>2021-07-05T07:18:45Z</time>
      </trkpt>
      <trkpt lat="42.56119" lon="1.9008">
        <ele>2034.29</ele>
        <time>2021-07-05T07:18:58Z</time>
      </trkpt>
      <trkpt lat="42.56119" lon="1.90081">
        <ele>2034.29</ele>
        <time>2021-07-05T07:19:00Z</time>
      </trkpt>
      <trkpt lat="42.56117" lon="1.90086">
        <ele>2034.77</ele>
        <time>2021-07-05T07:19:05Z</time>
      </trkpt>
      <trkpt lat="42.56119" lon="1.9009">
        <ele>2034.77</ele>
        <time>2021-07-05T07:19:08Z</time>
      </trkpt>
      <trkpt lat="42.56122" lon="1.90094">
        <ele>2034.77</ele>
        <time>2021-07-05T07:19:11Z</time>
      </trkpt>
      <trkpt lat="42.56127" lon="1.90111">
        <ele>2035.25</ele>
        <time>2021-07-05T07:19:20Z</time>
      </trkpt>
      <trkpt lat="42.56132" lon="1.90118">
        <ele>2035.73</ele>
        <time>2021-07-05T07:19:26Z</time>
      </trkpt>
      <trkpt lat="42.56133" lon="1.9012">
        <ele>2037.17</ele>
        <time>2021-07-05T07:19:34Z</time>
      </trkpt>
      <trkpt lat="42.56134" lon="1.9012">
        <ele>2037.65</ele>
        <time>2021-07-05T07:19:43Z</time>
      </trkpt>
      <trkpt lat="42.56133" lon="1.90119">
        <ele>2037.65</ele>
        <time>2021-07-05T07:19:59Z</time>
      </trkpt>
      <trkpt lat="42.56133" lon="1.90119">
        <ele>2037.65</ele>
        <time>2021-07-05T07:20:14Z</time>
      </trkpt>
      <trkpt lat="42.56137" lon="1.90123">
        <ele>2038.61</ele>
        <time>2021-07-05T07:20:21Z</time>
      </trkpt>
      <trkpt lat="42.56139" lon="1.90126">
        <ele>2038.13</ele>
        <time>2021-07-05T07:20:24Z</time>
      </trkpt>
      <trkpt lat="42.56145" lon="1.90135">
        <ele>2039.57</ele>
        <time>2021-07-05T07:20:32Z</time>
      </trkpt>
      <trkpt lat="42.56148" lon="1.90137">
        <ele>2040.05</ele>
        <time>2021-07-05T07:20:39Z</time>
      </trkpt>
      <trkpt lat="42.56148" lon="1.90139">
        <ele>2040.05</ele>
        <time>2021-07-05T07:20:40Z</time>
      </trkpt>
      <trkpt lat="42.56155" lon="1.90143">
        <ele>2041.02</ele>
        <time>2021-07-05T07:20:47Z</time>
      </trkpt>
      <trkpt lat="42.56155" lon="1.90144">
        <ele>2041.5</ele>
        <time>2021-07-05T07:20:48Z</time>
      </trkpt>
      <trkpt lat="42.56162" lon="1.90151">
        <ele>2041.98</ele>
        <time>2021-07-05T07:20:55Z</time>
      </trkpt>
      <trkpt lat="42.56165" lon="1.90156">
        <ele>2042.46</ele>
        <time>2021-07-05T07:21:00Z</time>
      </trkpt>
      <trkpt lat="42.5617" lon="1.90157">
        <ele>2042.94</ele>
        <time>2021-07-05T07:21:07Z</time>
      </trkpt>
      <trkpt lat="42.56171" lon="1.90158">
        <ele>2042.94</ele>
        <time>2021-07-05T07:21:08Z</time>
      </trkpt>
      <trkpt lat="42.56176" lon="1.90163">
        <ele>2043.9</ele>
        <time>2021-07-05T07:21:14Z</time>
      </trkpt>
      <trkpt lat="42.56177" lon="1.90164">
        <ele>2043.9</ele>
        <time>2021-07-05T07:21:15Z</time>
      </trkpt>
      <trkpt lat="42.56182" lon="1.90167">
        <ele>2043.9</ele>
        <time>2021-07-05T07:21:20Z</time>
      </trkpt>
      <trkpt lat="42.56191" lon="1.90177">
        <ele>2043.9</ele>
        <time>2021-07-05T07:21:27Z</time>
      </trkpt>
      <trkpt lat="42.56193" lon="1.90181">
        <ele>2044.38</ele>
        <time>2021-07-05T07:21:30Z</time>
      </trkpt>
      <trkpt lat="42.56199" lon="1.90191">
        <ele>2046.3</ele>
        <time>2021-07-05T07:21:38Z</time>
      </trkpt>
      <trkpt lat="42.56203" lon="1.90199">
        <ele>2047.26</ele>
        <time>2021-07-05T07:21:44Z</time>
      </trkpt>
      <trkpt lat="42.56207" lon="1.90205">
        <ele>2048.71</ele>
        <time>2021-07-05T07:21:50Z</time>
      </trkpt>
      <trkpt lat="42.56212" lon="1.90211">
        <ele>2049.19</ele>
        <time>2021-07-05T07:21:55Z</time>
      </trkpt>
      <trkpt lat="42.56214" lon="1.90214">
        <ele>2049.67</ele>
        <time>2021-07-05T07:21:57Z</time>
      </trkpt>
      <trkpt lat="42.56217" lon="1.90221">
        <ele>2049.67</ele>
        <time>2021-07-05T07:22:01Z</time>
      </trkpt>
      <trkpt lat="42.56221" lon="1.90232">
        <ele>2051.59</ele>
        <time>2021-07-05T07:22:10Z</time>
      </trkpt>
      <trkpt lat="42.56224" lon="1.90235">
        <ele>2052.07</ele>
        <time>2021-07-05T07:22:17Z</time>
      </trkpt>
      <trkpt lat="42.56224" lon="1.90235">
        <ele>2049.19</ele>
        <time>2021-07-05T07:22:20Z</time>
      </trkpt>
      <trkpt lat="42.56224" lon="1.90235">
        <ele>2054.47</ele>
        <time>2021-07-05T07:22:21Z</time>
      </trkpt>
      <trkpt lat="42.56224" lon="1.90235">
        <ele>2050.63</ele>
        <time>2021-07-05T07:22:23Z</time>
      </trkpt>
      <trkpt lat="42.56224" lon="1.90235">
        <ele>2053.99</ele>
        <time>2021-07-05T07:22:24Z</time>
      </trkpt>
      <trkpt lat="42.56224" lon="1.90235">
        <ele>2049.19</ele>
        <time>2021-07-05T07:22:25Z</time>
      </trkpt>
      <trkpt lat="42.56224" lon="1.90235">
        <ele>2054.96</ele>
        <time>2021-07-05T07:22:26Z</time>
      </trkpt>
      <trkpt lat="42.56224" lon="1.90235">
        <ele>2044.38</ele>
        <time>2021-07-05T07:22:27Z</time>
      </trkpt>
      <trkpt lat="42.56224" lon="1.90235">
        <ele>2060.72</ele>
        <time>2021-07-05T07:22:28Z</time>
      </trkpt>
      <trkpt lat="42.56224" lon="1.90235">
        <ele>2051.59</ele>
        <time>2021-07-05T07:22:29Z</time>
      </trkpt>
      <trkpt lat="42.56224" lon="1.90237">
        <ele>2052.07</ele>
        <time>2021-07-05T07:22:43Z</time>
      </trkpt>
      <trkpt lat="42.56223" lon="1.90238">
        <ele>2052.07</ele>
        <time>2021-07-05T07:22:45Z</time>
      </trkpt>
      <trkpt lat="42.56223" lon="1.90243">
        <ele>2053.03</ele>
        <time>2021-07-05T07:22:50Z</time>
      </trkpt>
      <trkpt lat="42.56221" lon="1.90247">
        <ele>2053.99</ele>
        <time>2021-07-05T07:22:53Z</time>
      </trkpt>
      <trkpt lat="42.56222" lon="1.90248">
        <ele>2053.99</ele>
        <time>2021-07-05T07:22:54Z</time>
      </trkpt>
      <trkpt lat="42.56223" lon="1.90254">
        <ele>2055.44</ele>
        <time>2021-07-05T07:23:00Z</time>
      </trkpt>
      <trkpt lat="42.56224" lon="1.9026">
        <ele>2057.36</ele>
        <time>2021-07-05T07:23:07Z</time>
      </trkpt>
      <trkpt lat="42.56225" lon="1.90264">
        <ele>2058.32</ele>
        <time>2021-07-05T07:23:12Z</time>
      </trkpt>
      <trkpt lat="42.56225" lon="1.90265">
        <ele>2059.28</ele>
        <time>2021-07-05T07:23:21Z</time>
      </trkpt>
      <trkpt lat="42.56225" lon="1.90266">
        <ele>2058.32</ele>
        <time>2021-07-05T07:23:32Z</time>
      </trkpt>
      <trkpt lat="42.56231" lon="1.90265">
        <ele>2059.76</ele>
        <time>2021-07-05T07:23:39Z</time>
      </trkpt>
      <trkpt lat="42.56237" lon="1.90265">
        <ele>2061.2</ele>
        <time>2021-07-05T07:23:46Z</time>
      </trkpt>
      <trkpt lat="42.56241" lon="1.90263">
        <ele>2062.65</ele>
        <time>2021-07-05T07:23:51Z</time>
      </trkpt>
      <trkpt lat="42.56246" lon="1.90257">
        <ele>2064.57</ele>
        <time>2021-07-05T07:24:00Z</time>
      </trkpt>
      <trkpt lat="42.56248" lon="1.90255">
        <ele>2065.53</ele>
        <time>2021-07-05T07:24:07Z</time>
      </trkpt>
      <trkpt lat="42.56253" lon="1.90254">
        <ele>2067.45</ele>
        <time>2021-07-05T07:24:14Z</time>
      </trkpt>
      <trkpt lat="42.56255" lon="1.90251">
        <ele>2069.86</ele>
        <time>2021-07-05T07:24:21Z</time>
      </trkpt>
      <trkpt lat="42.56257" lon="1.90252">
        <ele>2069.86</ele>
        <time>2021-07-05T07:24:24Z</time>
      </trkpt>
      <trkpt lat="42.56263" lon="1.90251">
        <ele>2070.82</ele>
        <time>2021-07-05T07:24:28Z</time>
      </trkpt>
      <trkpt lat="42.56269" lon="1.90244">
        <ele>2072.26</ele>
        <time>2021-07-05T07:24:35Z</time>
      </trkpt>
      <trkpt lat="42.56273" lon="1.90243">
        <ele>2072.26</ele>
        <time>2021-07-05T07:24:42Z</time>
      </trkpt>
      <trkpt lat="42.56274" lon="1.9024">
        <ele>2071.78</ele>
        <time>2021-07-05T07:24:52Z</time>
      </trkpt>
      <trkpt lat="42.56278" lon="1.90237">
        <ele>2072.74</ele>
        <time>2021-07-05T07:24:59Z</time>
      </trkpt>
      <trkpt lat="42.56279" lon="1.90237">
        <ele>2072.74</ele>
        <time>2021-07-05T07:25:00Z</time>
      </trkpt>
      <trkpt lat="42.56283" lon="1.90237">
        <ele>2073.7</ele>
        <time>2021-07-05T07:25:07Z</time>
      </trkpt>
      <trkpt lat="42.56289" lon="1.90231">
        <ele>2075.14</ele>
        <time>2021-07-05T07:25:14Z</time>
      </trkpt>
      <trkpt lat="42.56295" lon="1.90227">
        <ele>2076.59</ele>
        <time>2021-07-05T07:25:21Z</time>
      </trkpt>
      <trkpt lat="42.56299" lon="1.90224">
        <ele>2077.07</ele>
        <time>2021-07-05T07:25:25Z</time>
      </trkpt>
      <trkpt lat="42.56302" lon="1.90216">
        <ele>2077.55</ele>
        <time>2021-07-05T07:25:31Z</time>
      </trkpt>
      <trkpt lat="42.56302" lon="1.90215">
        <ele>2078.51</ele>
        <time>2021-07-05T07:25:33Z</time>
      </trkpt>
      <trkpt lat="42.56304" lon="1.90207">
        <ele>2079.95</ele>
        <time>2021-07-05T07:25:39Z</time>
      </trkpt>
      <trkpt lat="42.56305" lon="1.90206">
        <ele>2079.95</ele>
        <time>2021-07-05T07:25:40Z</time>
      </trkpt>
      <trkpt lat="42.56307" lon="1.90204">
        <ele>2079.95</ele>
        <time>2021-07-05T07:25:42Z</time>
      </trkpt>
      <trkpt lat="42.56316" lon="1.90197">
        <ele>2078.51</ele>
        <time>2021-07-05T07:25:48Z</time>
      </trkpt>
      <trkpt lat="42.56319" lon="1.90196">
        <ele>2078.51</ele>
        <time>2021-07-05T07:25:53Z</time>
      </trkpt>
      <trkpt lat="42.56321" lon="1.90196">
        <ele>2078.99</ele>
        <time>2021-07-05T07:25:56Z</time>
      </trkpt>
      <trkpt lat="42.56332" lon="1.90191">
        <ele>2078.51</ele>
        <time>2021-07-05T07:26:05Z</time>
      </trkpt>
      <trkpt lat="42.5634" lon="1.90184">
        <ele>2078.51</ele>
        <time>2021-07-05T07:26:10Z</time>
      </trkpt>
      <trkpt lat="42.56343" lon="1.90177">
        <ele>2078.51</ele>
        <time>2021-07-05T07:26:14Z</time>
      </trkpt>
      <trkpt lat="42.56348" lon="1.90166">
        <ele>2077.55</ele>
        <time>2021-07-05T07:26:22Z</time>
      </trkpt>
      <trkpt lat="42.5635" lon="1.90162">
        <ele>2077.55</ele>
        <time>2021-07-05T07:26:26Z</time>
      </trkpt>
      <trkpt lat="42.56353" lon="1.90159">
        <ele>2078.03</ele>
        <time>2021-07-05T07:26:29Z</time>
      </trkpt>
      <trkpt lat="42.56356" lon="1.90149">
        <ele>2076.59</ele>
        <time>2021-07-05T07:26:33Z</time>
      </trkpt>
      <trkpt lat="42.56366" lon="1.90139">
        <ele>2075.62</ele>
        <time>2021-07-05T07:26:41Z</time>
      </trkpt>
      <trkpt lat="42.56372" lon="1.90135">
        <ele>2075.14</ele>
        <time>2021-07-05T07:26:47Z</time>
      </trkpt>
      <trkpt lat="42.56377" lon="1.90129">
        <ele>2074.18</ele>
        <time>2021-07-05T07:26:53Z</time>
      </trkpt>
      <trkpt lat="42.56383" lon="1.90125">
        <ele>2075.62</ele>
        <time>2021-07-05T07:27:00Z</time>
      </trkpt>
      <trkpt lat="42.56388" lon="1.9012">
        <ele>2076.1</ele>
        <time>2021-07-05T07:27:07Z</time>
      </trkpt>
      <trkpt lat="42.56391" lon="1.90119">
        <ele>2076.1</ele>
        <time>2021-07-05T07:27:11Z</time>
      </trkpt>
      <trkpt lat="42.56396" lon="1.90115">
        <ele>2076.1</ele>
        <time>2021-07-05T07:27:17Z</time>
      </trkpt>
      <trkpt lat="42.56401" lon="1.9011">
        <ele>2076.59</ele>
        <time>2021-07-05T07:27:22Z</time>
      </trkpt>
      <trkpt lat="42.56408" lon="1.90107">
        <ele>2076.59</ele>
        <time>2021-07-05T07:27:28Z</time>
      </trkpt>
      <trkpt lat="42.56409" lon="1.90106">
        <ele>2076.59</ele>
        <time>2021-07-05T07:27:29Z</time>
      </trkpt>
      <trkpt lat="42.56422" lon="1.90095">
        <ele>2077.07</ele>
        <time>2021-07-05T07:27:36Z</time>
      </trkpt>
      <trkpt lat="42.56424" lon="1.90093">
        <ele>2077.07</ele>
        <time>2021-07-05T07:27:39Z</time>
      </trkpt>
      <trkpt lat="42.56427" lon="1.90091">
        <ele>2077.55</ele>
        <time>2021-07-05T07:27:43Z</time>
      </trkpt>
      <trkpt lat="42.56429" lon="1.90089">
        <ele>2077.55</ele>
        <time>2021-07-05T07:27:44Z</time>
      </trkpt>
      <trkpt lat="42.56433" lon="1.90087">
        <ele>2078.03</ele>
        <time>2021-07-05T07:27:49Z</time>
      </trkpt>
      <trkpt lat="42.56441" lon="1.90081">
        <ele>2078.03</ele>
        <time>2021-07-05T07:27:55Z</time>
      </trkpt>
      <trkpt lat="42.56447" lon="1.90075">
        <ele>2078.99</ele>
        <time>2021-07-05T07:28:00Z</time>
      </trkpt>
      <trkpt lat="42.56455" lon="1.90066">
        <ele>2079.47</ele>
        <time>2021-07-05T07:28:07Z</time>
      </trkpt>
      <trkpt lat="42.56462" lon="1.90061">
        <ele>2080.43</ele>
        <time>2021-07-05T07:28:14Z</time>
      </trkpt>
      <trkpt lat="42.5647" lon="1.90058">
        <ele>2080.91</ele>
        <time>2021-07-05T07:28:20Z</time>
      </trkpt>
      <trkpt lat="42.56472" lon="1.90056">
        <ele>2080.91</ele>
        <time>2021-07-05T07:28:22Z</time>
      </trkpt>
      <trkpt lat="42.56474" lon="1.90055">
        <ele>2080.91</ele>
        <time>2021-07-05T07:28:24Z</time>
      </trkpt>
      <trkpt lat="42.56481" lon="1.90055">
        <ele>2081.39</ele>
        <time>2021-07-05T07:28:32Z</time>
      </trkpt>
      <trkpt lat="42.56482" lon="1.90056">
        <ele>2081.87</ele>
        <time>2021-07-05T07:28:33Z</time>
      </trkpt>
      <trkpt lat="42.56486" lon="1.90055">
        <ele>2081.87</ele>
        <time>2021-07-05T07:28:37Z</time>
      </trkpt>
      <trkpt lat="42.56489" lon="1.90055">
        <ele>2082.35</ele>
        <time>2021-07-05T07:28:39Z</time>
      </trkpt>
      <trkpt lat="42.56498" lon="1.90059">
        <ele>2083.31</ele>
        <time>2021-07-05T07:28:48Z</time>
      </trkpt>
      <trkpt lat="42.56503" lon="1.90058">
        <ele>2084.28</ele>
        <time>2021-07-05T07:28:54Z</time>
      </trkpt>
      <trkpt lat="42.56505" lon="1.90058">
        <ele>2084.76</ele>
        <time>2021-07-05T07:28:56Z</time>
      </trkpt>
      <trkpt lat="42.56507" lon="1.9006">
        <ele>2085.24</ele>
        <time>2021-07-05T07:29:00Z</time>
      </trkpt>
      <trkpt lat="42.56511" lon="1.90061">
        <ele>2086.68</ele>
        <time>2021-07-05T07:29:06Z</time>
      </trkpt>
      <trkpt lat="42.56511" lon="1.90061">
        <ele>2086.68</ele>
        <time>2021-07-05T07:29:07Z</time>
      </trkpt>
      <trkpt lat="42.56517" lon="1.90058">
        <ele>2087.64</ele>
        <time>2021-07-05T07:29:14Z</time>
      </trkpt>
      <trkpt lat="42.5652" lon="1.90062">
        <ele>2089.56</ele>
        <time>2021-07-05T07:29:20Z</time>
      </trkpt>
      <trkpt lat="42.56524" lon="1.90062">
        <ele>2090.04</ele>
        <time>2021-07-05T07:29:24Z</time>
      </trkpt>
      <trkpt lat="42.56525" lon="1.90062">
        <ele>2090.52</ele>
        <time>2021-07-05T07:29:25Z</time>
      </trkpt>
      <trkpt lat="42.56528" lon="1.90061">
        <ele>2091.49</ele>
        <time>2021-07-05T07:29:28Z</time>
      </trkpt>
      <trkpt lat="42.56532" lon="1.90055">
        <ele>2091.97</ele>
        <time>2021-07-05T07:29:33Z</time>
      </trkpt>
      <trkpt lat="42.56535" lon="1.90046">
        <ele>2093.41</ele>
        <time>2021-07-05T07:29:41Z</time>
      </trkpt>
      <trkpt lat="42.56544" lon="1.90038">
        <ele>2094.37</ele>
        <time>2021-07-05T07:29:46Z</time>
      </trkpt>
      <trkpt lat="42.56544" lon="1.9003">
        <ele>2095.33</ele>
        <time>2021-07-05T07:29:52Z</time>
      </trkpt>
      <trkpt lat="42.56545" lon="1.90025">
        <ele>2096.29</ele>
        <time>2021-07-05T07:29:59Z</time>
      </trkpt>
      <trkpt lat="42.5655" lon="1.90025">
        <ele>2097.25</ele>
        <time>2021-07-05T07:30:06Z</time>
      </trkpt>
      <trkpt lat="42.56549" lon="1.90025">
        <ele>2097.25</ele>
        <time>2021-07-05T07:30:17Z</time>
      </trkpt>
      <trkpt lat="42.56549" lon="1.90025">
        <ele>2097.73</ele>
        <time>2021-07-05T07:30:22Z</time>
      </trkpt>
      <trkpt lat="42.5655" lon="1.90025">
        <ele>2098.7</ele>
        <time>2021-07-05T07:30:24Z</time>
      </trkpt>
      <trkpt lat="42.56552" lon="1.90018">
        <ele>2100.14</ele>
        <time>2021-07-05T07:30:31Z</time>
      </trkpt>
      <trkpt lat="42.56553" lon="1.90013">
        <ele>2100.14</ele>
        <time>2021-07-05T07:30:35Z</time>
      </trkpt>
      <trkpt lat="42.56554" lon="1.90008">
        <ele>2099.66</ele>
        <time>2021-07-05T07:30:39Z</time>
      </trkpt>
      <trkpt lat="42.56559" lon="1.90002">
        <ele>2100.14</ele>
        <time>2021-07-05T07:30:46Z</time>
      </trkpt>
      <trkpt lat="42.56561" lon="1.89997">
        <ele>2101.58</ele>
        <time>2021-07-05T07:30:53Z</time>
      </trkpt>
      <trkpt lat="42.56564" lon="1.8999">
        <ele>2102.54</ele>
        <time>2021-07-05T07:30:59Z</time>
      </trkpt>
      <trkpt lat="42.56565" lon="1.89986">
        <ele>2102.54</ele>
        <time>2021-07-05T07:31:01Z</time>
      </trkpt>
      <trkpt lat="42.56564" lon="1.89983">
        <ele>2103.02</ele>
        <time>2021-07-05T07:31:03Z</time>
      </trkpt>
      <trkpt lat="42.56566" lon="1.89978">
        <ele>2103.02</ele>
        <time>2021-07-05T07:31:06Z</time>
      </trkpt>
      <trkpt lat="42.5657" lon="1.89973">
        <ele>2104.46</ele>
        <time>2021-07-05T07:31:12Z</time>
      </trkpt>
      <trkpt lat="42.56572" lon="1.89972">
        <ele>2102.06</ele>
        <time>2021-07-05T07:31:15Z</time>
      </trkpt>
      <trkpt lat="42.56572" lon="1.89972">
        <ele>2104.94</ele>
        <time>2021-07-05T07:31:16Z</time>
      </trkpt>
      <trkpt lat="42.56573" lon="1.89972">
        <ele>2103.5</ele>
        <time>2021-07-05T07:31:17Z</time>
      </trkpt>
      <trkpt lat="42.5658" lon="1.89968">
        <ele>2099.66</ele>
        <time>2021-07-05T07:31:22Z</time>
      </trkpt>
      <trkpt lat="42.56581" lon="1.89967">
        <ele>2110.71</ele>
        <time>2021-07-05T07:31:23Z</time>
      </trkpt>
      <trkpt lat="42.56582" lon="1.89966">
        <ele>2103.02</ele>
        <time>2021-07-05T07:31:24Z</time>
      </trkpt>
      <trkpt lat="42.56589" lon="1.89963">
        <ele>2102.54</ele>
        <time>2021-07-05T07:31:33Z</time>
      </trkpt>
      <trkpt lat="42.56594" lon="1.8996">
        <ele>2102.06</ele>
        <time>2021-07-05T07:31:38Z</time>
      </trkpt>
      <trkpt lat="42.56595" lon="1.89959">
        <ele>2102.54</ele>
        <time>2021-07-05T07:31:40Z</time>
      </trkpt>
      <trkpt lat="42.56602" lon="1.89953">
        <ele>2102.06</ele>
        <time>2021-07-05T07:31:46Z</time>
      </trkpt>
      <trkpt lat="42.56604" lon="1.89948">
        <ele>2102.54</ele>
        <time>2021-07-05T07:31:50Z</time>
      </trkpt>
      <trkpt lat="42.56614" lon="1.89941">
        <ele>2102.06</ele>
        <time>2021-07-05T07:31:57Z</time>
      </trkpt>
      <trkpt lat="42.56623" lon="1.89934">
        <ele>2103.02</ele>
        <time>2021-07-05T07:32:04Z</time>
      </trkpt>
      <trkpt lat="42.56627" lon="1.89923">
        <ele>2103.02</ele>
        <time>2021-07-05T07:32:09Z</time>
      </trkpt>
      <trkpt lat="42.56631" lon="1.89916">
        <ele>2103.98</ele>
        <time>2021-07-05T07:32:16Z</time>
      </trkpt>
      <trkpt lat="42.56638" lon="1.89909">
        <ele>2104.94</ele>
        <time>2021-07-05T07:32:23Z</time>
      </trkpt>
      <trkpt lat="42.56644" lon="1.89899">
        <ele>2106.87</ele>
        <time>2021-07-05T07:32:30Z</time>
      </trkpt>
      <trkpt lat="42.56646" lon="1.89895">
        <ele>2107.35</ele>
        <time>2021-07-05T07:32:35Z</time>
      </trkpt>
      <trkpt lat="42.56649" lon="1.89894">
        <ele>2107.83</ele>
        <time>2021-07-05T07:32:38Z</time>
      </trkpt>
      <trkpt lat="42.56651" lon="1.8989">
        <ele>2108.31</ele>
        <time>2021-07-05T07:32:42Z</time>
      </trkpt>
      <trkpt lat="42.56651" lon="1.89884">
        <ele>2108.31</ele>
        <time>2021-07-05T07:32:45Z</time>
      </trkpt>
      <trkpt lat="42.56653" lon="1.89876">
        <ele>2109.27</ele>
        <time>2021-07-05T07:32:50Z</time>
      </trkpt>
      <trkpt lat="42.56659" lon="1.89872">
        <ele>2110.23</ele>
        <time>2021-07-05T07:32:57Z</time>
      </trkpt>
      <trkpt lat="42.5666" lon="1.89873">
        <ele>2109.75</ele>
        <time>2021-07-05T07:32:58Z</time>
      </trkpt>
      <trkpt lat="42.56667" lon="1.89884">
        <ele>2109.27</ele>
        <time>2021-07-05T07:33:07Z</time>
      </trkpt>
      <trkpt lat="42.56668" lon="1.89884">
        <ele>2109.27</ele>
        <time>2021-07-05T07:33:08Z</time>
      </trkpt>
      <trkpt lat="42.56676" lon="1.89884">
        <ele>2110.23</ele>
        <time>2021-07-05T07:33:14Z</time>
      </trkpt>
      <trkpt lat="42.56681" lon="1.8988">
        <ele>2110.71</ele>
        <time>2021-07-05T07:33:19Z</time>
      </trkpt>
      <trkpt lat="42.56683" lon="1.89878">
        <ele>2111.67</ele>
        <time>2021-07-05T07:33:22Z</time>
      </trkpt>
      <trkpt lat="42.56685" lon="1.89877">
        <ele>2112.15</ele>
        <time>2021-07-05T07:33:24Z</time>
      </trkpt>
      <trkpt lat="42.56686" lon="1.8987">
        <ele>2112.63</ele>
        <time>2021-07-05T07:33:32Z</time>
      </trkpt>
      <trkpt lat="42.56687" lon="1.8987">
        <ele>2112.63</ele>
        <time>2021-07-05T07:33:43Z</time>
      </trkpt>
      <trkpt lat="42.56686" lon="1.89866">
        <ele>2112.63</ele>
        <time>2021-07-05T07:33:45Z</time>
      </trkpt>
      <trkpt lat="42.56687" lon="1.89858">
        <ele>2112.63</ele>
        <time>2021-07-05T07:33:50Z</time>
      </trkpt>
      <trkpt lat="42.56691" lon="1.89851">
        <ele>2112.15</ele>
        <time>2021-07-05T07:33:55Z</time>
      </trkpt>
      <trkpt lat="42.56694" lon="1.89845">
        <ele>2111.67</ele>
        <time>2021-07-05T07:34:01Z</time>
      </trkpt>
      <trkpt lat="42.56694" lon="1.89844">
        <ele>2111.67</ele>
        <time>2021-07-05T07:34:02Z</time>
      </trkpt>
      <trkpt lat="42.56695" lon="1.89842">
        <ele>2111.67</ele>
        <time>2021-07-05T07:34:04Z</time>
      </trkpt>
      <trkpt lat="42.56697" lon="1.89841">
        <ele>2111.67</ele>
        <time>2021-07-05T07:34:06Z</time>
      </trkpt>
      <trkpt lat="42.56697" lon="1.89834">
        <ele>2112.15</ele>
        <time>2021-07-05T07:34:12Z</time>
      </trkpt>
      <trkpt lat="42.56698" lon="1.89834">
        <ele>2112.15</ele>
        <time>2021-07-05T07:34:13Z</time>
      </trkpt>
      <trkpt lat="42.56702" lon="1.89834">
        <ele>2110.71</ele>
        <time>2021-07-05T07:34:20Z</time>
      </trkpt>
      <trkpt lat="42.56703" lon="1.89838">
        <ele>2110.23</ele>
        <time>2021-07-05T07:34:26Z</time>
      </trkpt>
      <trkpt lat="42.56704" lon="1.8984">
        <ele>2109.75</ele>
        <time>2021-07-05T07:34:29Z</time>
      </trkpt>
      <trkpt lat="42.5671" lon="1.89845">
        <ele>2109.75</ele>
        <time>2021-07-05T07:34:35Z</time>
      </trkpt>
      <trkpt lat="42.56714" lon="1.89848">
        <ele>2109.27</ele>
        <time>2021-07-05T07:34:40Z</time>
      </trkpt>
      <trkpt lat="42.56716" lon="1.89851">
        <ele>2109.27</ele>
        <time>2021-07-05T07:34:43Z</time>
      </trkpt>
      <trkpt lat="42.56719" lon="1.89855">
        <ele>2108.79</ele>
        <time>2021-07-05T07:34:47Z</time>
      </trkpt>
      <trkpt lat="42.56721" lon="1.89858">
        <ele>2108.79</ele>
        <time>2021-07-05T07:34:49Z</time>
      </trkpt>
      <trkpt lat="42.5673" lon="1.89868">
        <ele>2109.27</ele>
        <time>2021-07-05T07:34:54Z</time>
      </trkpt>
      <trkpt lat="42.56738" lon="1.89875">
        <ele>2107.83</ele>
        <time>2021-07-05T07:35:02Z</time>
      </trkpt>
      <trkpt lat="42.5674" lon="1.8988">
        <ele>2106.87</ele>
        <time>2021-07-05T07:35:06Z</time>
      </trkpt>
      <trkpt lat="42.56746" lon="1.89888">
        <ele>2106.39</ele>
        <time>2021-07-05T07:35:12Z</time>
      </trkpt>
      <trkpt lat="42.56747" lon="1.89892">
        <ele>2105.42</ele>
        <time>2021-07-05T07:35:17Z</time>
      </trkpt>
      <trkpt lat="42.56752" lon="1.89899">
        <ele>2104.46</ele>
        <time>2021-07-05T07:35:23Z</time>
      </trkpt>
      <trkpt lat="42.56755" lon="1.89903">
        <ele>2104.46</ele>
        <time>2021-07-05T07:35:24Z</time>
      </trkpt>
      <trkpt lat="42.56766" lon="1.89914">
        <ele>2103.98</ele>
        <time>2021-07-05T07:35:30Z</time>
      </trkpt>
      <trkpt lat="42.56767" lon="1.89915">
        <ele>2103.98</ele>
        <time>2021-07-05T07:35:31Z</time>
      </trkpt>
      <trkpt lat="42.56777" lon="1.89926">
        <ele>2104.46</ele>
        <time>2021-07-05T07:35:36Z</time>
      </trkpt>
      <trkpt lat="42.56785" lon="1.89936">
        <ele>2103.98</ele>
        <time>2021-07-05T07:35:41Z</time>
      </trkpt>
      <trkpt lat="42.56788" lon="1.89944">
        <ele>2102.54</ele>
        <time>2021-07-05T07:35:49Z</time>
      </trkpt>
      <trkpt lat="42.56789" lon="1.8995">
        <ele>2101.58</ele>
        <time>2021-07-05T07:35:57Z</time>
      </trkpt>
      <trkpt lat="42.5679" lon="1.89957">
        <ele>2101.58</ele>
        <time>2021-07-05T07:36:04Z</time>
      </trkpt>
      <trkpt lat="42.56791" lon="1.89959">
        <ele>2101.1</ele>
        <time>2021-07-05T07:36:06Z</time>
      </trkpt>
      <trkpt lat="42.56796" lon="1.89968">
        <ele>2099.66</ele>
        <time>2021-07-05T07:36:12Z</time>
      </trkpt>
      <trkpt lat="42.568" lon="1.89975">
        <ele>2098.7</ele>
        <time>2021-07-05T07:36:17Z</time>
      </trkpt>
      <trkpt lat="42.56801" lon="1.89976">
        <ele>2098.21</ele>
        <time>2021-07-05T07:36:18Z</time>
      </trkpt>
      <trkpt lat="42.56807" lon="1.89986">
        <ele>2097.25</ele>
        <time>2021-07-05T07:36:25Z</time>
      </trkpt>
      <trkpt lat="42.56811" lon="1.89993">
        <ele>2096.77</ele>
        <time>2021-07-05T07:36:33Z</time>
      </trkpt>
      <trkpt lat="42.56811" lon="1.89999">
        <ele>2097.73</ele>
        <time>2021-07-05T07:36:42Z</time>
      </trkpt>
      <trkpt lat="42.56813" lon="1.90007">
        <ele>2098.7</ele>
        <time>2021-07-05T07:36:48Z</time>
      </trkpt>
      <trkpt lat="42.5682" lon="1.9002">
        <ele>2100.14</ele>
        <time>2021-07-05T07:36:55Z</time>
      </trkpt>
      <trkpt lat="42.56823" lon="1.90022">
        <ele>2101.58</ele>
        <time>2021-07-05T07:37:00Z</time>
      </trkpt>
      <trkpt lat="42.56828" lon="1.90028">
        <ele>2102.54</ele>
        <time>2021-07-05T07:37:06Z</time>
      </trkpt>
      <trkpt lat="42.56834" lon="1.90032">
        <ele>2103.98</ele>
        <time>2021-07-05T07:37:11Z</time>
      </trkpt>
      <trkpt lat="42.56837" lon="1.90036">
        <ele>2104.46</ele>
        <time>2021-07-05T07:37:15Z</time>
      </trkpt>
      <trkpt lat="42.56839" lon="1.90043">
        <ele>2105.42</ele>
        <time>2021-07-05T07:37:21Z</time>
      </trkpt>
      <trkpt lat="42.56839" lon="1.90048">
        <ele>2106.39</ele>
        <time>2021-07-05T07:37:27Z</time>
      </trkpt>
      <trkpt lat="42.56842" lon="1.90054">
        <ele>2106.87</ele>
        <time>2021-07-05T07:37:32Z</time>
      </trkpt>
      <trkpt lat="42.56849" lon="1.90062">
        <ele>2107.35</ele>
        <time>2021-07-05T07:37:40Z</time>
      </trkpt>
      <trkpt lat="42.56855" lon="1.90065">
        <ele>2107.35</ele>
        <time>2021-07-05T07:37:44Z</time>
      </trkpt>
      <trkpt lat="42.56857" lon="1.90071">
        <ele>2108.31</ele>
        <time>2021-07-05T07:37:50Z</time>
      </trkpt>
      <trkpt lat="42.56861" lon="1.90078">
        <ele>2108.79</ele>
        <time>2021-07-05T07:37:54Z</time>
      </trkpt>
      <trkpt lat="42.56866" lon="1.90084">
        <ele>2108.79</ele>
        <time>2021-07-05T07:37:58Z</time>
      </trkpt>
      <trkpt lat="42.56878" lon="1.90089">
        <ele>2110.71</ele>
        <time>2021-07-05T07:38:07Z</time>
      </trkpt>
      <trkpt lat="42.56884" lon="1.9009">
        <ele>2110.23</ele>
        <time>2021-07-05T07:38:13Z</time>
      </trkpt>
      <trkpt lat="42.56885" lon="1.90091">
        <ele>2110.23</ele>
        <time>2021-07-05T07:38:14Z</time>
      </trkpt>
      <trkpt lat="42.56894" lon="1.90094">
        <ele>2111.19</ele>
        <time>2021-07-05T07:38:20Z</time>
      </trkpt>
      <trkpt lat="42.569" lon="1.90095">
        <ele>2112.15</ele>
        <time>2021-07-05T07:38:25Z</time>
      </trkpt>
      <trkpt lat="42.56908" lon="1.901">
        <ele>2112.15</ele>
        <time>2021-07-05T07:38:31Z</time>
      </trkpt>
      <trkpt lat="42.56912" lon="1.90103">
        <ele>2108.79</ele>
        <time>2021-07-05T07:38:34Z</time>
      </trkpt>
      <trkpt lat="42.56913" lon="1.90104">
        <ele>2119.36</ele>
        <time>2021-07-05T07:38:35Z</time>
      </trkpt>
      <trkpt lat="42.56913" lon="1.90105">
        <ele>2112.63</ele>
        <time>2021-07-05T07:38:36Z</time>
      </trkpt>
      <trkpt lat="42.5692" lon="1.90112">
        <ele>2112.15</ele>
        <time>2021-07-05T07:38:44Z</time>
      </trkpt>
      <trkpt lat="42.56924" lon="1.90116">
        <ele>2111.67</ele>
        <time>2021-07-05T07:38:51Z</time>
      </trkpt>
      <trkpt lat="42.56929" lon="1.90124">
        <ele>2111.19</ele>
        <time>2021-07-05T07:38:57Z</time>
      </trkpt>
      <trkpt lat="42.56933" lon="1.9013">
        <ele>2110.71</ele>
        <time>2021-07-05T07:39:03Z</time>
      </trkpt>
      <trkpt lat="42.56934" lon="1.90136">
        <ele>2109.75</ele>
        <time>2021-07-05T07:39:09Z</time>
      </trkpt>
      <trkpt lat="42.56936" lon="1.90142">
        <ele>2109.27</ele>
        <time>2021-07-05T07:39:14Z</time>
      </trkpt>
      <trkpt lat="42.56941" lon="1.90152">
        <ele>2108.79</ele>
        <time>2021-07-05T07:39:20Z</time>
      </trkpt>
      <trkpt lat="42.56948" lon="1.90159">
        <ele>2108.79</ele>
        <time>2021-07-05T07:39:25Z</time>
      </trkpt>
      <trkpt lat="42.56962" lon="1.90173">
        <ele>2108.79</ele>
        <time>2021-07-05T07:39:32Z</time>
      </trkpt>
      <trkpt lat="42.5697" lon="1.90186">
        <ele>2108.79</ele>
        <time>2021-07-05T07:39:39Z</time>
      </trkpt>
      <trkpt lat="42.56975" lon="1.90191">
        <ele>2108.31</ele>
        <time>2021-07-05T07:39:44Z</time>
      </trkpt>
      <trkpt lat="42.56985" lon="1.90185">
        <ele>2108.31</ele>
        <time>2021-07-05T07:39:50Z</time>
      </trkpt>
      <trkpt lat="42.56988" lon="1.90185">
        <ele>2107.83</ele>
        <time>2021-07-05T07:39:52Z</time>
      </trkpt>
      <trkpt lat="42.56998" lon="1.90188">
        <ele>2107.83</ele>
        <time>2021-07-05T07:39:59Z</time>
      </trkpt>
      <trkpt lat="42.57002" lon="1.9019">
        <ele>2108.31</ele>
        <time>2021-07-05T07:40:05Z</time>
      </trkpt>
      <trkpt lat="42.57006" lon="1.90189">
        <ele>2108.31</ele>
        <time>2021-07-05T07:40:11Z</time>
      </trkpt>
      <trkpt lat="42.57009" lon="1.90191">
        <ele>2108.31</ele>
        <time>2021-07-05T07:40:14Z</time>
      </trkpt>
      <trkpt lat="42.57017" lon="1.90195">
        <ele>2107.83</ele>
        <time>2021-07-05T07:40:21Z</time>
      </trkpt>
      <trkpt lat="42.57018" lon="1.90196">
        <ele>2108.79</ele>
        <time>2021-07-05T07:40:23Z</time>
      </trkpt>
      <trkpt lat="42.57023" lon="1.90198">
        <ele>2108.31</ele>
        <time>2021-07-05T07:40:26Z</time>
      </trkpt>
      <trkpt lat="42.5703" lon="1.902">
        <ele>2108.31</ele>
        <time>2021-07-05T07:40:32Z</time>
      </trkpt>
      <trkpt lat="42.57033" lon="1.90202">
        <ele>2108.31</ele>
        <time>2021-07-05T07:40:35Z</time>
      </trkpt>
      <trkpt lat="42.5704" lon="1.90207">
        <ele>2108.31</ele>
        <time>2021-07-05T07:40:41Z</time>
      </trkpt>
      <trkpt lat="42.5705" lon="1.90209">
        <ele>2108.31</ele>
        <time>2021-07-05T07:40:47Z</time>
      </trkpt>
      <trkpt lat="42.57061" lon="1.90214">
        <ele>2108.31</ele>
        <time>2021-07-05T07:40:53Z</time>
      </trkpt>
      <trkpt lat="42.57074" lon="1.90211">
        <ele>2108.31</ele>
        <time>2021-07-05T07:41:00Z</time>
      </trkpt>
      <trkpt lat="42.57078" lon="1.90209">
        <ele>2108.31</ele>
        <time>2021-07-05T07:41:02Z</time>
      </trkpt>
      <trkpt lat="42.57089" lon="1.90203">
        <ele>2108.31</ele>
        <time>2021-07-05T07:41:09Z</time>
      </trkpt>
      <trkpt lat="42.57094" lon="1.902">
        <ele>2108.79</ele>
        <time>2021-07-05T07:41:13Z</time>
      </trkpt>
      <trkpt lat="42.571" lon="1.902">
        <ele>2108.79</ele>
        <time>2021-07-05T07:41:17Z</time>
      </trkpt>
      <trkpt lat="42.57103" lon="1.90202">
        <ele>2108.79</ele>
        <time>2021-07-05T07:41:20Z</time>
      </trkpt>
      <trkpt lat="42.57109" lon="1.9021">
        <ele>2108.31</ele>
        <time>2021-07-05T07:41:27Z</time>
      </trkpt>
      <trkpt lat="42.57111" lon="1.90216">
        <ele>2108.31</ele>
        <time>2021-07-05T07:41:32Z</time>
      </trkpt>
      <trkpt lat="42.57114" lon="1.90219">
        <ele>2107.83</ele>
        <time>2021-07-05T07:41:38Z</time>
      </trkpt>
      <trkpt lat="42.57119" lon="1.9022">
        <ele>2107.83</ele>
        <time>2021-07-05T07:41:44Z</time>
      </trkpt>
      <trkpt lat="42.57127" lon="1.90221">
        <ele>2107.83</ele>
        <time>2021-07-05T07:41:49Z</time>
      </trkpt>
      <trkpt lat="42.5713" lon="1.90219">
        <ele>2107.83</ele>
        <time>2021-07-05T07:41:52Z</time>
      </trkpt>
      <trkpt lat="42.57137" lon="1.90214">
        <ele>2106.87</ele>
        <time>2021-07-05T07:41:59Z</time>
      </trkpt>
      <trkpt lat="42.5714" lon="1.90212">
        <ele>2106.39</ele>
        <time>2021-07-05T07:42:04Z</time>
      </trkpt>
      <trkpt lat="42.57145" lon="1.90208">
        <ele>2105.91</ele>
        <time>2021-07-05T07:42:08Z</time>
      </trkpt>
      <trkpt lat="42.57152" lon="1.90198">
        <ele>2105.42</ele>
        <time>2021-07-05T07:42:15Z</time>
      </trkpt>
      <trkpt lat="42.57154" lon="1.90193">
        <ele>2105.42</ele>
        <time>2021-07-05T07:42:18Z</time>
      </trkpt>
      <trkpt lat="42.57156" lon="1.9019">
        <ele>2105.42</ele>
        <time>2021-07-05T07:42:20Z</time>
      </trkpt>
      <trkpt lat="42.57161" lon="1.90177">
        <ele>2104.94</ele>
        <time>2021-07-05T07:42:28Z</time>
      </trkpt>
      <trkpt lat="42.57164" lon="1.90173">
        <ele>2104.94</ele>
        <time>2021-07-05T07:42:36Z</time>
      </trkpt>
      <trkpt lat="42.57164" lon="1.90172">
        <ele>2104.94</ele>
        <time>2021-07-05T07:42:44Z</time>
      </trkpt>
      <trkpt lat="42.57166" lon="1.9017">
        <ele>2104.46</ele>
        <time>2021-07-05T07:42:46Z</time>
      </trkpt>
      <trkpt lat="42.57169" lon="1.90164">
        <ele>2103.02</ele>
        <time>2021-07-05T07:42:50Z</time>
      </trkpt>
      <trkpt lat="42.5717" lon="1.90154">
        <ele>2103.02</ele>
        <time>2021-07-05T07:42:55Z</time>
      </trkpt>
      <trkpt lat="42.5717" lon="1.90151">
        <ele>2103.02</ele>
        <time>2021-07-05T07:42:57Z</time>
      </trkpt>
      <trkpt lat="42.57175" lon="1.90148">
        <ele>2102.54</ele>
        <time>2021-07-05T07:43:01Z</time>
      </trkpt>
      <trkpt lat="42.57179" lon="1.9015">
        <ele>2102.54</ele>
        <time>2021-07-05T07:43:05Z</time>
      </trkpt>
      <trkpt lat="42.57182" lon="1.90153">
        <ele>2102.06</ele>
        <time>2021-07-05T07:43:07Z</time>
      </trkpt>
      <trkpt lat="42.57189" lon="1.90152">
        <ele>2100.62</ele>
        <time>2021-07-05T07:43:14Z</time>
      </trkpt>
      <trkpt lat="42.5719" lon="1.9015">
        <ele>2100.14</ele>
        <time>2021-07-05T07:43:16Z</time>
      </trkpt>
      <trkpt lat="42.57198" lon="1.90147">
        <ele>2098.7</ele>
        <time>2021-07-05T07:43:22Z</time>
      </trkpt>
      <trkpt lat="42.57203" lon="1.90141">
        <ele>2097.73</ele>
        <time>2021-07-05T07:43:26Z</time>
      </trkpt>
      <trkpt lat="42.57208" lon="1.90133">
        <ele>2096.77</ele>
        <time>2021-07-05T07:43:33Z</time>
      </trkpt>
      <trkpt lat="42.57215" lon="1.90126">
        <ele>2095.33</ele>
        <time>2021-07-05T07:43:40Z</time>
      </trkpt>
      <trkpt lat="42.57219" lon="1.90114">
        <ele>2095.81</ele>
        <time>2021-07-05T07:43:47Z</time>
      </trkpt>
      <trkpt lat="42.57222" lon="1.90106">
        <ele>2096.77</ele>
        <time>2021-07-05T07:43:52Z</time>
      </trkpt>
      <trkpt lat="42.57224" lon="1.90103">
        <ele>2097.25</ele>
        <time>2021-07-05T07:44:00Z</time>
      </trkpt>
      <trkpt lat="42.57228" lon="1.901">
        <ele>2098.21</ele>
        <time>2021-07-05T07:44:04Z</time>
      </trkpt>
      <trkpt lat="42.57234" lon="1.90106">
        <ele>2099.66</ele>
        <time>2021-07-05T07:44:11Z</time>
      </trkpt>
      <trkpt lat="42.57237" lon="1.90109">
        <ele>2101.1</ele>
        <time>2021-07-05T07:44:17Z</time>
      </trkpt>
      <trkpt lat="42.57238" lon="1.90112">
        <ele>2103.02</ele>
        <time>2021-07-05T07:44:24Z</time>
      </trkpt>
      <trkpt lat="42.57239" lon="1.90117">
        <ele>2102.54</ele>
        <time>2021-07-05T07:44:29Z</time>
      </trkpt>
      <trkpt lat="42.5724" lon="1.90119">
        <ele>2103.98</ele>
        <time>2021-07-05T07:44:36Z</time>
      </trkpt>
      <trkpt lat="42.57242" lon="1.90129">
        <ele>2104.46</ele>
        <time>2021-07-05T07:44:42Z</time>
      </trkpt>
      <trkpt lat="42.57246" lon="1.90139">
        <ele>2105.42</ele>
        <time>2021-07-05T07:44:48Z</time>
      </trkpt>
      <trkpt lat="42.57248" lon="1.90147">
        <ele>2104.94</ele>
        <time>2021-07-05T07:44:54Z</time>
      </trkpt>
      <trkpt lat="42.5725" lon="1.90149">
        <ele>2104.94</ele>
        <time>2021-07-05T07:44:56Z</time>
      </trkpt>
      <trkpt lat="42.5726" lon="1.90156">
        <ele>2107.35</ele>
        <time>2021-07-05T07:45:03Z</time>
      </trkpt>
      <trkpt lat="42.57269" lon="1.90159">
        <ele>2106.39</ele>
        <time>2021-07-05T07:45:10Z</time>
      </trkpt>
      <trkpt lat="42.57275" lon="1.90165">
        <ele>2106.39</ele>
        <time>2021-07-05T07:45:17Z</time>
      </trkpt>
      <trkpt lat="42.57286" lon="1.90169">
        <ele>2106.39</ele>
        <time>2021-07-05T07:45:24Z</time>
      </trkpt>
      <trkpt lat="42.57292" lon="1.9017">
        <ele>2107.35</ele>
        <time>2021-07-05T07:45:30Z</time>
      </trkpt>
      <trkpt lat="42.57298" lon="1.90168">
        <ele>2107.35</ele>
        <time>2021-07-05T07:45:35Z</time>
      </trkpt>
      <trkpt lat="42.57302" lon="1.90164">
        <ele>2107.35</ele>
        <time>2021-07-05T07:45:39Z</time>
      </trkpt>
      <trkpt lat="42.57309" lon="1.90163">
        <ele>2107.83</ele>
        <time>2021-07-05T07:45:46Z</time>
      </trkpt>
      <trkpt lat="42.57314" lon="1.90159">
        <ele>2108.31</ele>
        <time>2021-07-05T07:45:52Z</time>
      </trkpt>
      <trkpt lat="42.57316" lon="1.90153">
        <ele>2107.83</ele>
        <time>2021-07-05T07:45:56Z</time>
      </trkpt>
      <trkpt lat="42.57321" lon="1.90149">
        <ele>2109.27</ele>
        <time>2021-07-05T07:46:02Z</time>
      </trkpt>
      <trkpt lat="42.57328" lon="1.90147">
        <ele>2111.67</ele>
        <time>2021-07-05T07:46:10Z</time>
      </trkpt>
      <trkpt lat="42.57329" lon="1.90147">
        <ele>2111.67</ele>
        <time>2021-07-05T07:46:11Z</time>
      </trkpt>
      <trkpt lat="42.57334" lon="1.90143">
        <ele>2112.63</ele>
        <time>2021-07-05T07:46:17Z</time>
      </trkpt>
      <trkpt lat="42.57338" lon="1.90141">
        <ele>2111.19</ele>
        <time>2021-07-05T07:46:22Z</time>
      </trkpt>
      <trkpt lat="42.57343" lon="1.90141">
        <ele>2111.67</ele>
        <time>2021-07-05T07:46:28Z</time>
      </trkpt>
      <trkpt lat="42.57348" lon="1.90141">
        <ele>2111.67</ele>
        <time>2021-07-05T07:46:34Z</time>
      </trkpt>
      <trkpt lat="42.57355" lon="1.90139">
        <ele>2113.12</ele>
        <time>2021-07-05T07:46:42Z</time>
      </trkpt>
      <trkpt lat="42.57359" lon="1.90135">
        <ele>2113.6</ele>
        <time>2021-07-05T07:46:49Z</time>
      </trkpt>
      <trkpt lat="42.57364" lon="1.90133">
        <ele>2115.04</ele>
        <time>2021-07-05T07:46:55Z</time>
      </trkpt>
      <trkpt lat="42.57368" lon="1.9013">
        <ele>2116.48</ele>
        <time>2021-07-05T07:47:01Z</time>
      </trkpt>
      <trkpt lat="42.57369" lon="1.90131">
        <ele>2116.48</ele>
        <time>2021-07-05T07:47:03Z</time>
      </trkpt>
      <trkpt lat="42.57374" lon="1.9013">
        <ele>2116.96</ele>
        <time>2021-07-05T07:47:11Z</time>
      </trkpt>
      <trkpt lat="42.57378" lon="1.90129">
        <ele>2116.96</ele>
        <time>2021-07-05T07:47:16Z</time>
      </trkpt>
      <trkpt lat="42.57381" lon="1.90125">
        <ele>2116</ele>
        <time>2021-07-05T07:47:20Z</time>
      </trkpt>
      <trkpt lat="42.57383" lon="1.90122">
        <ele>2116</ele>
        <time>2021-07-05T07:47:22Z</time>
      </trkpt>
      <trkpt lat="42.57388" lon="1.90113">
        <ele>2116.48</ele>
        <time>2021-07-05T07:47:28Z</time>
      </trkpt>
      <trkpt lat="42.57394" lon="1.90105">
        <ele>2116.48</ele>
        <time>2021-07-05T07:47:33Z</time>
      </trkpt>
      <trkpt lat="42.574" lon="1.90096">
        <ele>2116.48</ele>
        <time>2021-07-05T07:47:37Z</time>
      </trkpt>
      <trkpt lat="42.57402" lon="1.90083">
        <ele>2116.48</ele>
        <time>2021-07-05T07:47:43Z</time>
      </trkpt>
      <trkpt lat="42.57401" lon="1.90074">
        <ele>2116.48</ele>
        <time>2021-07-05T07:47:47Z</time>
      </trkpt>
      <trkpt lat="42.574" lon="1.90057">
        <ele>2116.96</ele>
        <time>2021-07-05T07:47:55Z</time>
      </trkpt>
      <trkpt lat="42.57401" lon="1.9005">
        <ele>2117.92</ele>
        <time>2021-07-05T07:48:01Z</time>
      </trkpt>
      <trkpt lat="42.57401" lon="1.9005">
        <ele>2118.4</ele>
        <time>2021-07-05T07:48:16Z</time>
      </trkpt>
      <trkpt lat="42.57401" lon="1.90051">
        <ele>2117.44</ele>
        <time>2021-07-05T07:48:26Z</time>
      </trkpt>
      <trkpt lat="42.57401" lon="1.9005">
        <ele>2118.88</ele>
        <time>2021-07-05T07:48:38Z</time>
      </trkpt>
      <trkpt lat="42.57401" lon="1.9005">
        <ele>2118.4</ele>
        <time>2021-07-05T07:48:39Z</time>
      </trkpt>
      <trkpt lat="42.57403" lon="1.90046">
        <ele>2118.4</ele>
        <time>2021-07-05T07:48:42Z</time>
      </trkpt>
      <trkpt lat="42.57406" lon="1.90043">
        <ele>2118.4</ele>
        <time>2021-07-05T07:48:45Z</time>
      </trkpt>
      <trkpt lat="42.57408" lon="1.90041">
        <ele>2119.36</ele>
        <time>2021-07-05T07:48:47Z</time>
      </trkpt>
      <trkpt lat="42.57411" lon="1.9003">
        <ele>2119.36</ele>
        <time>2021-07-05T07:48:53Z</time>
      </trkpt>
      <trkpt lat="42.57412" lon="1.90024">
        <ele>2119.84</ele>
        <time>2021-07-05T07:48:56Z</time>
      </trkpt>
      <trkpt lat="42.57412" lon="1.90012">
        <ele>2118.88</ele>
        <time>2021-07-05T07:49:04Z</time>
      </trkpt>
      <trkpt lat="42.5741" lon="1.90009">
        <ele>2118.88</ele>
        <time>2021-07-05T07:49:13Z</time>
      </trkpt>
      <trkpt lat="42.5741" lon="1.90008">
        <ele>2118.4</ele>
        <time>2021-07-05T07:49:26Z</time>
      </trkpt>
      <trkpt lat="42.57409" lon="1.90007">
        <ele>2118.4</ele>
        <time>2021-07-05T07:49:37Z</time>
      </trkpt>
      <trkpt lat="42.57409" lon="1.90007">
        <ele>2118.4</ele>
        <time>2021-07-05T07:49:46Z</time>
      </trkpt>
      <trkpt lat="42.57408" lon="1.90006">
        <ele>2118.4</ele>
        <time>2021-07-05T07:49:57Z</time>
      </trkpt>
      <trkpt lat="42.57407" lon="1.89997">
        <ele>2118.4</ele>
        <time>2021-07-05T07:50:08Z</time>
      </trkpt>
      <trkpt lat="42.57407" lon="1.89988">
        <ele>2117.92</ele>
        <time>2021-07-05T07:50:12Z</time>
      </trkpt>
      <trkpt lat="42.57407" lon="1.89984">
        <ele>2117.92</ele>
        <time>2021-07-05T07:50:14Z</time>
      </trkpt>
      <trkpt lat="42.57412" lon="1.8997">
        <ele>2117.92</ele>
        <time>2021-07-05T07:50:23Z</time>
      </trkpt>
      <trkpt lat="42.57414" lon="1.89975">
        <ele>2117.44</ele>
        <time>2021-07-05T07:50:28Z</time>
      </trkpt>
      <trkpt lat="42.57414" lon="1.89976">
        <ele>2117.92</ele>
        <time>2021-07-05T07:50:36Z</time>
      </trkpt>
      <trkpt lat="42.57414" lon="1.89975">
        <ele>2117.92</ele>
        <time>2021-07-05T07:50:37Z</time>
      </trkpt>
      <trkpt lat="42.57413" lon="1.89976">
        <ele>2116.96</ele>
        <time>2021-07-05T07:50:42Z</time>
      </trkpt>
      <trkpt lat="42.57412" lon="1.89976">
        <ele>2116.96</ele>
        <time>2021-07-05T07:51:00Z</time>
      </trkpt>
      <trkpt lat="42.57412" lon="1.89975">
        <ele>2116.96</ele>
        <time>2021-07-05T07:51:22Z</time>
      </trkpt>
      <trkpt lat="42.57413" lon="1.89974">
        <ele>2116.96</ele>
        <time>2021-07-05T07:51:43Z</time>
      </trkpt>
      <trkpt lat="42.57415" lon="1.89975">
        <ele>2117.44</ele>
        <time>2021-07-05T07:52:05Z</time>
      </trkpt>
      <trkpt lat="42.57415" lon="1.89976">
        <ele>2117.44</ele>
        <time>2021-07-05T07:52:26Z</time>
      </trkpt>
      <trkpt lat="42.57415" lon="1.89975">
        <ele>2117.92</ele>
        <time>2021-07-05T07:52:49Z</time>
      </trkpt>
      <trkpt lat="42.57414" lon="1.89975">
        <ele>2117.92</ele>
        <time>2021-07-05T07:53:10Z</time>
      </trkpt>
      <trkpt lat="42.57414" lon="1.89975">
        <ele>2117.92</ele>
        <time>2021-07-05T07:53:30Z</time>
      </trkpt>
      <trkpt lat="42.57414" lon="1.89975">
        <ele>2118.4</ele>
        <time>2021-07-05T07:53:44Z</time>
      </trkpt>
      <trkpt lat="42.57415" lon="1.89976">
        <ele>2117.92</ele>
        <time>2021-07-05T07:53:57Z</time>
      </trkpt>
      <trkpt lat="42.57415" lon="1.89976">
        <ele>2117.92</ele>
        <time>2021-07-05T07:54:14Z</time>
      </trkpt>
      <trkpt lat="42.57415" lon="1.89976">
        <ele>2118.4</ele>
        <time>2021-07-05T07:54:32Z</time>
      </trkpt>
      <trkpt lat="42.57414" lon="1.89974">
        <ele>2118.4</ele>
        <time>2021-07-05T07:54:53Z</time>
      </trkpt>
      <trkpt lat="42.57414" lon="1.89975">
        <ele>2117.92</ele>
        <time>2021-07-05T07:55:14Z</time>
      </trkpt>
      <trkpt lat="42.57413" lon="1.89975">
        <ele>2118.4</ele>
        <time>2021-07-05T07:55:33Z</time>
      </trkpt>
      <trkpt lat="42.57413" lon="1.89975">
        <ele>2118.4</ele>
        <time>2021-07-05T07:55:51Z</time>
      </trkpt>
      <trkpt lat="42.57412" lon="1.89975">
        <ele>2118.4</ele>
        <time>2021-07-05T07:56:09Z</time>
      </trkpt>
      <trkpt lat="42.57412" lon="1.89975">
        <ele>2118.4</ele>
        <time>2021-07-05T07:56:27Z</time>
      </trkpt>
      <trkpt lat="42.57412" lon="1.89975">
        <ele>2118.88</ele>
        <time>2021-07-05T07:56:45Z</time>
      </trkpt>
      <trkpt lat="42.57412" lon="1.89975">
        <ele>2118.88</ele>
        <time>2021-07-05T07:57:06Z</time>
      </trkpt>
      <trkpt lat="42.57412" lon="1.89975">
        <ele>2119.36</ele>
        <time>2021-07-05T07:57:23Z</time>
      </trkpt>
      <trkpt lat="42.57413" lon="1.89974">
        <ele>2119.36</ele>
        <time>2021-07-05T07:57:41Z</time>
      </trkpt>
      <trkpt lat="42.57413" lon="1.89974">
        <ele>2119.84</ele>
        <time>2021-07-05T07:57:59Z</time>
      </trkpt>
      <trkpt lat="42.57413" lon="1.89974">
        <ele>2119.84</ele>
        <time>2021-07-05T07:58:16Z</time>
      </trkpt>
      <trkpt lat="42.57413" lon="1.89973">
        <ele>2119.84</ele>
        <time>2021-07-05T07:58:33Z</time>
      </trkpt>
      <trkpt lat="42.57413" lon="1.89973">
        <ele>2120.32</ele>
        <time>2021-07-05T07:58:50Z</time>
      </trkpt>
      <trkpt lat="42.57413" lon="1.89974">
        <ele>2120.32</ele>
        <time>2021-07-05T07:59:12Z</time>
      </trkpt>
      <trkpt lat="42.57414" lon="1.89974">
        <ele>2120.32</ele>
        <time>2021-07-05T07:59:29Z</time>
      </trkpt>
      <trkpt lat="42.57414" lon="1.89975">
        <ele>2120.81</ele>
        <time>2021-07-05T07:59:53Z</time>
      </trkpt>
      <trkpt lat="42.57414" lon="1.89975">
        <ele>2120.81</ele>
        <time>2021-07-05T08:00:09Z</time>
      </trkpt>
      <trkpt lat="42.57414" lon="1.89975">
        <ele>2120.81</ele>
        <time>2021-07-05T08:00:29Z</time>
      </trkpt>
      <trkpt lat="42.57414" lon="1.89975">
        <ele>2122.25</ele>
        <time>2021-07-05T08:00:43Z</time>
      </trkpt>
      <trkpt lat="42.57414" lon="1.89976">
        <ele>2122.25</ele>
        <time>2021-07-05T08:00:50Z</time>
      </trkpt>
      <trkpt lat="42.57413" lon="1.89976">
        <ele>2122.25</ele>
        <time>2021-07-05T08:00:58Z</time>
      </trkpt>
      <trkpt lat="42.57414" lon="1.89976">
        <ele>2122.73</ele>
        <time>2021-07-05T08:01:07Z</time>
      </trkpt>
      <trkpt lat="42.57414" lon="1.89977">
        <ele>2122.73</ele>
        <time>2021-07-05T08:01:16Z</time>
      </trkpt>
      <trkpt lat="42.57414" lon="1.89977">
        <ele>2122.73</ele>
        <time>2021-07-05T08:01:26Z</time>
      </trkpt>
      <trkpt lat="42.57413" lon="1.89977">
        <ele>2122.73</ele>
        <time>2021-07-05T08:01:35Z</time>
      </trkpt>
      <trkpt lat="42.57414" lon="1.89976">
        <ele>2122.73</ele>
        <time>2021-07-05T08:01:48Z</time>
      </trkpt>
      <trkpt lat="42.57413" lon="1.89976">
        <ele>2123.21</ele>
        <time>2021-07-05T08:02:00Z</time>
      </trkpt>
      <trkpt lat="42.57413" lon="1.89976">
        <ele>2123.21</ele>
        <time>2021-07-05T08:02:10Z</time>
      </trkpt>
      <trkpt lat="42.57412" lon="1.89976">
        <ele>2122.25</ele>
        <time>2021-07-05T08:02:19Z</time>
      </trkpt>
      <trkpt lat="42.57412" lon="1.89974">
        <ele>2122.73</ele>
        <time>2021-07-05T08:02:34Z</time>
      </trkpt>
      <trkpt lat="42.57412" lon="1.89975">
        <ele>2122.73</ele>
        <time>2021-07-05T08:02:40Z</time>
      </trkpt>
      <trkpt lat="42.57413" lon="1.89971">
        <ele>2123.21</ele>
        <time>2021-07-05T08:02:47Z</time>
      </trkpt>
      <trkpt lat="42.57414" lon="1.89969">
        <ele>2123.21</ele>
        <time>2021-07-05T08:02:49Z</time>
      </trkpt>
      <trkpt lat="42.57418" lon="1.89959">
        <ele>2123.21</ele>
        <time>2021-07-05T08:02:57Z</time>
      </trkpt>
      <trkpt lat="42.57426" lon="1.89951">
        <ele>2123.21</ele>
        <time>2021-07-05T08:03:05Z</time>
      </trkpt>
      <trkpt lat="42.57435" lon="1.89948">
        <ele>2123.21</ele>
        <time>2021-07-05T08:03:12Z</time>
      </trkpt>
      <trkpt lat="42.57439" lon="1.89943">
        <ele>2123.69</ele>
        <time>2021-07-05T08:03:19Z</time>
      </trkpt>
      <trkpt lat="42.5744" lon="1.89942">
        <ele>2123.21</ele>
        <time>2021-07-05T08:03:26Z</time>
      </trkpt>
      <trkpt lat="42.5744" lon="1.89941">
        <ele>2123.69</ele>
        <time>2021-07-05T08:03:37Z</time>
      </trkpt>
      <trkpt lat="42.5744" lon="1.89941">
        <ele>2123.21</ele>
        <time>2021-07-05T08:03:47Z</time>
      </trkpt>
      <trkpt lat="42.57441" lon="1.89938">
        <ele>2123.21</ele>
        <time>2021-07-05T08:03:49Z</time>
      </trkpt>
      <trkpt lat="42.5744" lon="1.89929">
        <ele>2124.17</ele>
        <time>2021-07-05T08:03:56Z</time>
      </trkpt>
      <trkpt lat="42.57442" lon="1.89924">
        <ele>2124.17</ele>
        <time>2021-07-05T08:04:05Z</time>
      </trkpt>
      <trkpt lat="42.57441" lon="1.89915">
        <ele>2125.13</ele>
        <time>2021-07-05T08:04:11Z</time>
      </trkpt>
      <trkpt lat="42.57442" lon="1.89901">
        <ele>2126.57</ele>
        <time>2021-07-05T08:04:20Z</time>
      </trkpt>
      <trkpt lat="42.57441" lon="1.899">
        <ele>2126.57</ele>
        <time>2021-07-05T08:04:23Z</time>
      </trkpt>
      <trkpt lat="42.57441" lon="1.89892">
        <ele>2127.05</ele>
        <time>2021-07-05T08:04:30Z</time>
      </trkpt>
      <trkpt lat="42.57441" lon="1.89892">
        <ele>2117.92</ele>
        <time>2021-07-05T08:04:34Z</time>
      </trkpt>
      <trkpt lat="42.57441" lon="1.89892">
        <ele>2137.63</ele>
        <time>2021-07-05T08:04:35Z</time>
      </trkpt>
      <trkpt lat="42.57441" lon="1.89892">
        <ele>2127.53</ele>
        <time>2021-07-05T08:04:36Z</time>
      </trkpt>
      <trkpt lat="42.5744" lon="1.89891">
        <ele>2127.05</ele>
        <time>2021-07-05T08:04:42Z</time>
      </trkpt>
      <trkpt lat="42.57436" lon="1.89878">
        <ele>2127.53</ele>
        <time>2021-07-05T08:04:50Z</time>
      </trkpt>
      <trkpt lat="42.57436" lon="1.89866">
        <ele>2129.46</ele>
        <time>2021-07-05T08:04:57Z</time>
      </trkpt>
      <trkpt lat="42.57441" lon="1.89851">
        <ele>2129.94</ele>
        <time>2021-07-05T08:05:05Z</time>
      </trkpt>
      <trkpt lat="42.5744" lon="1.89849">
        <ele>2128.98</ele>
        <time>2021-07-05T08:05:17Z</time>
      </trkpt>
      <trkpt lat="42.5744" lon="1.89851">
        <ele>2129.94</ele>
        <time>2021-07-05T08:05:21Z</time>
      </trkpt>
      <trkpt lat="42.57437" lon="1.89864">
        <ele>2128.98</ele>
        <time>2021-07-05T08:05:29Z</time>
      </trkpt>
      <trkpt lat="42.57436" lon="1.89875">
        <ele>2127.53</ele>
        <time>2021-07-05T08:05:35Z</time>
      </trkpt>
      <trkpt lat="42.57439" lon="1.89891">
        <ele>2127.05</ele>
        <time>2021-07-05T08:05:44Z</time>
      </trkpt>
      <trkpt lat="42.57441" lon="1.899">
        <ele>2127.05</ele>
        <time>2021-07-05T08:05:51Z</time>
      </trkpt>
      <trkpt lat="42.57441" lon="1.89906">
        <ele>2126.09</ele>
        <time>2021-07-05T08:05:56Z</time>
      </trkpt>
      <trkpt lat="42.57441" lon="1.89913">
        <ele>2126.09</ele>
        <time>2021-07-05T08:06:00Z</time>
      </trkpt>
      <trkpt lat="42.57443" lon="1.89922">
        <ele>2125.13</ele>
        <time>2021-07-05T08:06:05Z</time>
      </trkpt>
      <trkpt lat="42.57442" lon="1.89933">
        <ele>2124.17</ele>
        <time>2021-07-05T08:06:12Z</time>
      </trkpt>
      <trkpt lat="42.57442" lon="1.89941">
        <ele>2124.65</ele>
        <time>2021-07-05T08:06:20Z</time>
      </trkpt>
      <trkpt lat="42.57441" lon="1.89947">
        <ele>2124.17</ele>
        <time>2021-07-05T08:06:27Z</time>
      </trkpt>
      <trkpt lat="42.57438" lon="1.89957">
        <ele>2124.17</ele>
        <time>2021-07-05T08:06:34Z</time>
      </trkpt>
      <trkpt lat="42.57435" lon="1.89963">
        <ele>2124.17</ele>
        <time>2021-07-05T08:06:41Z</time>
      </trkpt>
      <trkpt lat="42.57432" lon="1.89966">
        <ele>2123.69</ele>
        <time>2021-07-05T08:06:48Z</time>
      </trkpt>
      <trkpt lat="42.57429" lon="1.89971">
        <ele>2124.17</ele>
        <time>2021-07-05T08:06:54Z</time>
      </trkpt>
      <trkpt lat="42.57428" lon="1.89972">
        <ele>2124.17</ele>
        <time>2021-07-05T08:06:55Z</time>
      </trkpt>
      <trkpt lat="42.57424" lon="1.89983">
        <ele>2124.65</ele>
        <time>2021-07-05T08:07:03Z</time>
      </trkpt>
      <trkpt lat="42.57424" lon="1.89983">
        <ele>2120.32</ele>
        <time>2021-07-05T08:07:12Z</time>
      </trkpt>
      <trkpt lat="42.57424" lon="1.89983">
        <ele>2127.05</ele>
        <time>2021-07-05T08:07:13Z</time>
      </trkpt>
      <trkpt lat="42.57424" lon="1.89981">
        <ele>2124.65</ele>
        <time>2021-07-05T08:07:18Z</time>
      </trkpt>
      <trkpt lat="42.57432" lon="1.89971">
        <ele>2124.17</ele>
        <time>2021-07-05T08:07:26Z</time>
      </trkpt>
      <trkpt lat="42.57436" lon="1.89969">
        <ele>2124.65</ele>
        <time>2021-07-05T08:07:32Z</time>
      </trkpt>
      <trkpt lat="42.57441" lon="1.89968">
        <ele>2125.61</ele>
        <time>2021-07-05T08:07:39Z</time>
      </trkpt>
      <trkpt lat="42.57446" lon="1.89969">
        <ele>2127.05</ele>
        <time>2021-07-05T08:07:47Z</time>
      </trkpt>
      <trkpt lat="42.57448" lon="1.89969">
        <ele>2127.53</ele>
        <time>2021-07-05T08:07:55Z</time>
      </trkpt>
      <trkpt lat="42.57449" lon="1.89968">
        <ele>2127.05</ele>
        <time>2021-07-05T08:07:56Z</time>
      </trkpt>
      <trkpt lat="42.5745" lon="1.89964">
        <ele>2128.02</ele>
        <time>2021-07-05T08:08:02Z</time>
      </trkpt>
      <trkpt lat="42.5745" lon="1.89957">
        <ele>2128.5</ele>
        <time>2021-07-05T08:08:09Z</time>
      </trkpt>
      <trkpt lat="42.57456" lon="1.89951">
        <ele>2129.46</ele>
        <time>2021-07-05T08:08:17Z</time>
      </trkpt>
      <trkpt lat="42.57456" lon="1.89946">
        <ele>2129.46</ele>
        <time>2021-07-05T08:08:24Z</time>
      </trkpt>
      <trkpt lat="42.57453" lon="1.89941">
        <ele>2128.98</ele>
        <time>2021-07-05T08:08:34Z</time>
      </trkpt>
      <trkpt lat="42.57453" lon="1.89934">
        <ele>2128.98</ele>
        <time>2021-07-05T08:08:41Z</time>
      </trkpt>
      <trkpt lat="42.57455" lon="1.89928">
        <ele>2129.94</ele>
        <time>2021-07-05T08:08:47Z</time>
      </trkpt>
      <trkpt lat="42.57455" lon="1.89926">
        <ele>2130.9</ele>
        <time>2021-07-05T08:08:52Z</time>
      </trkpt>
      <trkpt lat="42.57453" lon="1.89923">
        <ele>2130.42</ele>
        <time>2021-07-05T08:09:03Z</time>
      </trkpt>
      <trkpt lat="42.57453" lon="1.89921">
        <ele>2131.38</ele>
        <time>2021-07-05T08:09:10Z</time>
      </trkpt>
      <trkpt lat="42.57453" lon="1.8992">
        <ele>2130.9</ele>
        <time>2021-07-05T08:09:11Z</time>
      </trkpt>
      <trkpt lat="42.57456" lon="1.89915">
        <ele>2131.38</ele>
        <time>2021-07-05T08:09:18Z</time>
      </trkpt>
      <trkpt lat="42.57455" lon="1.89911">
        <ele>2132.34</ele>
        <time>2021-07-05T08:09:24Z</time>
      </trkpt>
      <trkpt lat="42.57455" lon="1.89908">
        <ele>2133.78</ele>
        <time>2021-07-05T08:09:29Z</time>
      </trkpt>
      <trkpt lat="42.57456" lon="1.89899">
        <ele>2134.26</ele>
        <time>2021-07-05T08:09:35Z</time>
      </trkpt>
      <trkpt lat="42.57456" lon="1.89893">
        <ele>2136.67</ele>
        <time>2021-07-05T08:09:42Z</time>
      </trkpt>
      <trkpt lat="42.57454" lon="1.89891">
        <ele>2137.15</ele>
        <time>2021-07-05T08:09:49Z</time>
      </trkpt>
      <trkpt lat="42.57453" lon="1.89885">
        <ele>2138.11</ele>
        <time>2021-07-05T08:09:56Z</time>
      </trkpt>
      <trkpt lat="42.57455" lon="1.89875">
        <ele>2138.59</ele>
        <time>2021-07-05T08:10:05Z</time>
      </trkpt>
      <trkpt lat="42.57457" lon="1.89874">
        <ele>2138.59</ele>
        <time>2021-07-05T08:10:08Z</time>
      </trkpt>
      <trkpt lat="42.57459" lon="1.89866">
        <ele>2139.55</ele>
        <time>2021-07-05T08:10:17Z</time>
      </trkpt>
      <trkpt lat="42.57459" lon="1.89865">
        <ele>2135.23</ele>
        <time>2021-07-05T08:10:22Z</time>
      </trkpt>
      <trkpt lat="42.57459" lon="1.89865">
        <ele>2140.03</ele>
        <time>2021-07-05T08:10:23Z</time>
      </trkpt>
      <trkpt lat="42.5746" lon="1.89863">
        <ele>2138.59</ele>
        <time>2021-07-05T08:10:33Z</time>
      </trkpt>
      <trkpt lat="42.57462" lon="1.89855">
        <ele>2139.55</ele>
        <time>2021-07-05T08:10:40Z</time>
      </trkpt>
      <trkpt lat="42.57463" lon="1.89854">
        <ele>2139.55</ele>
        <time>2021-07-05T08:10:41Z</time>
      </trkpt>
      <trkpt lat="42.57463" lon="1.89845">
        <ele>2140.51</ele>
        <time>2021-07-05T08:10:48Z</time>
      </trkpt>
      <trkpt lat="42.57463" lon="1.89838">
        <ele>2140.03</ele>
        <time>2021-07-05T08:10:52Z</time>
      </trkpt>
      <trkpt lat="42.57462" lon="1.89829">
        <ele>2140.03</ele>
        <time>2021-07-05T08:11:00Z</time>
      </trkpt>
      <trkpt lat="42.57462" lon="1.89822">
        <ele>2139.55</ele>
        <time>2021-07-05T08:11:07Z</time>
      </trkpt>
      <trkpt lat="42.57462" lon="1.89821">
        <ele>2133.3</ele>
        <time>2021-07-05T08:11:09Z</time>
      </trkpt>
      <trkpt lat="42.57462" lon="1.89821">
        <ele>2144.84</ele>
        <time>2021-07-05T08:11:10Z</time>
      </trkpt>
      <trkpt lat="42.57462" lon="1.89821">
        <ele>2140.03</ele>
        <time>2021-07-05T08:11:11Z</time>
      </trkpt>
      <trkpt lat="42.57462" lon="1.89821">
        <ele>2131.86</ele>
        <time>2021-07-05T08:11:13Z</time>
      </trkpt>
      <trkpt lat="42.57462" lon="1.89821">
        <ele>2146.76</ele>
        <time>2021-07-05T08:11:14Z</time>
      </trkpt>
      <trkpt lat="42.57462" lon="1.89821">
        <ele>2137.63</ele>
        <time>2021-07-05T08:11:15Z</time>
      </trkpt>
      <trkpt lat="42.57463" lon="1.89821">
        <ele>2141.95</ele>
        <time>2021-07-05T08:11:16Z</time>
      </trkpt>
      <trkpt lat="42.57463" lon="1.89821">
        <ele>2136.67</ele>
        <time>2021-07-05T08:11:17Z</time>
      </trkpt>
      <trkpt lat="42.57463" lon="1.89821">
        <ele>2141.47</ele>
        <time>2021-07-05T08:11:18Z</time>
      </trkpt>
      <trkpt lat="42.57463" lon="1.89821">
        <ele>2133.3</ele>
        <time>2021-07-05T08:11:21Z</time>
      </trkpt>
      <trkpt lat="42.57463" lon="1.89821">
        <ele>2145.8</ele>
        <time>2021-07-05T08:11:22Z</time>
      </trkpt>
      <trkpt lat="42.57463" lon="1.8982">
        <ele>2141.47</ele>
        <time>2021-07-05T08:11:23Z</time>
      </trkpt>
      <trkpt lat="42.57463" lon="1.8982">
        <ele>2131.86</ele>
        <time>2021-07-05T08:11:26Z</time>
      </trkpt>
      <trkpt lat="42.57463" lon="1.8982">
        <ele>2142.92</ele>
        <time>2021-07-05T08:11:27Z</time>
      </trkpt>
      <trkpt lat="42.57463" lon="1.8982">
        <ele>2147.72</ele>
        <time>2021-07-05T08:11:28Z</time>
      </trkpt>
      <trkpt lat="42.57463" lon="1.8982">
        <ele>2139.07</ele>
        <time>2021-07-05T08:11:29Z</time>
      </trkpt>
      <trkpt lat="42.57463" lon="1.8982">
        <ele>2134.74</ele>
        <time>2021-07-05T08:11:30Z</time>
      </trkpt>
      <trkpt lat="42.57463" lon="1.8982">
        <ele>2145.32</ele>
        <time>2021-07-05T08:11:31Z</time>
      </trkpt>
      <trkpt lat="42.57463" lon="1.8982">
        <ele>2140.03</ele>
        <time>2021-07-05T08:11:32Z</time>
      </trkpt>
      <trkpt lat="42.57462" lon="1.89821">
        <ele>2138.59</ele>
        <time>2021-07-05T08:11:39Z</time>
      </trkpt>
      <trkpt lat="42.57464" lon="1.89832">
        <ele>2140.51</ele>
        <time>2021-07-05T08:11:47Z</time>
      </trkpt>
      <trkpt lat="42.57464" lon="1.89843">
        <ele>2140.51</ele>
        <time>2021-07-05T08:11:54Z</time>
      </trkpt>
      <trkpt lat="42.57464" lon="1.89845">
        <ele>2140.51</ele>
        <time>2021-07-05T08:11:56Z</time>
      </trkpt>
      <trkpt lat="42.57465" lon="1.89851">
        <ele>2140.51</ele>
        <time>2021-07-05T08:12:04Z</time>
      </trkpt>
      <trkpt lat="42.57464" lon="1.89855">
        <ele>2139.55</ele>
        <time>2021-07-05T08:12:16Z</time>
      </trkpt>
      <trkpt lat="42.5746" lon="1.89864">
        <ele>2138.11</ele>
        <time>2021-07-05T08:12:23Z</time>
      </trkpt>
      <trkpt lat="42.57462" lon="1.89873">
        <ele>2137.63</ele>
        <time>2021-07-05T08:12:29Z</time>
      </trkpt>
      <trkpt lat="42.57464" lon="1.8988">
        <ele>2138.11</ele>
        <time>2021-07-05T08:12:35Z</time>
      </trkpt>
      <trkpt lat="42.57465" lon="1.89885">
        <ele>2139.07</ele>
        <time>2021-07-05T08:12:42Z</time>
      </trkpt>
      <trkpt lat="42.57466" lon="1.89891">
        <ele>2140.51</ele>
        <time>2021-07-05T08:12:50Z</time>
      </trkpt>
      <trkpt lat="42.57467" lon="1.89893">
        <ele>2140.03</ele>
        <time>2021-07-05T08:12:57Z</time>
      </trkpt>
      <trkpt lat="42.57469" lon="1.89899">
        <ele>2140.03</ele>
        <time>2021-07-05T08:13:06Z</time>
      </trkpt>
      <trkpt lat="42.57469" lon="1.8991">
        <ele>2140.99</ele>
        <time>2021-07-05T08:13:12Z</time>
      </trkpt>
      <trkpt lat="42.57471" lon="1.89913">
        <ele>2140.99</ele>
        <time>2021-07-05T08:13:14Z</time>
      </trkpt>
      <trkpt lat="42.57472" lon="1.89917">
        <ele>2141.95</ele>
        <time>2021-07-05T08:13:22Z</time>
      </trkpt>
      <trkpt lat="42.57472" lon="1.89927">
        <ele>2141.95</ele>
        <time>2021-07-05T08:13:30Z</time>
      </trkpt>
      <trkpt lat="42.57473" lon="1.89933">
        <ele>2141.95</ele>
        <time>2021-07-05T08:13:37Z</time>
      </trkpt>
      <trkpt lat="42.57473" lon="1.89942">
        <ele>2143.4</ele>
        <time>2021-07-05T08:13:46Z</time>
      </trkpt>
      <trkpt lat="42.57472" lon="1.89947">
        <ele>2143.88</ele>
        <time>2021-07-05T08:13:51Z</time>
      </trkpt>
      <trkpt lat="42.5747" lon="1.89953">
        <ele>2143.88</ele>
        <time>2021-07-05T08:14:00Z</time>
      </trkpt>
      <trkpt lat="42.57468" lon="1.89959">
        <ele>2143.88</ele>
        <time>2021-07-05T08:14:07Z</time>
      </trkpt>
      <trkpt lat="42.57469" lon="1.89958">
        <ele>2144.36</ele>
        <time>2021-07-05T08:14:13Z</time>
      </trkpt>
      <trkpt lat="42.5747" lon="1.89958">
        <ele>2144.36</ele>
        <time>2021-07-05T08:14:24Z</time>
      </trkpt>
      <trkpt lat="42.5747" lon="1.89959">
        <ele>2145.32</ele>
        <time>2021-07-05T08:14:31Z</time>
      </trkpt>
      <trkpt lat="42.57471" lon="1.89962">
        <ele>2146.28</ele>
        <time>2021-07-05T08:14:37Z</time>
      </trkpt>
      <trkpt lat="42.57473" lon="1.89968">
        <ele>2147.24</ele>
        <time>2021-07-05T08:14:43Z</time>
      </trkpt>
      <trkpt lat="42.57476" lon="1.89973">
        <ele>2148.68</ele>
        <time>2021-07-05T08:14:49Z</time>
      </trkpt>
      <trkpt lat="42.57476" lon="1.89979">
        <ele>2149.65</ele>
        <time>2021-07-05T08:14:56Z</time>
      </trkpt>
      <trkpt lat="42.57476" lon="1.89986">
        <ele>2150.61</ele>
        <time>2021-07-05T08:15:05Z</time>
      </trkpt>
      <trkpt lat="42.57475" lon="1.89994">
        <ele>2151.57</ele>
        <time>2021-07-05T08:15:12Z</time>
      </trkpt>
      <trkpt lat="42.57474" lon="1.89998">
        <ele>2152.53</ele>
        <time>2021-07-05T08:15:18Z</time>
      </trkpt>
      <trkpt lat="42.57476" lon="1.90008">
        <ele>2154.45</ele>
        <time>2021-07-05T08:15:26Z</time>
      </trkpt>
      <trkpt lat="42.57476" lon="1.90015">
        <ele>2155.41</ele>
        <time>2021-07-05T08:15:33Z</time>
      </trkpt>
      <trkpt lat="42.57477" lon="1.90019">
        <ele>2157.34</ele>
        <time>2021-07-05T08:15:41Z</time>
      </trkpt>
      <trkpt lat="42.57477" lon="1.90026">
        <ele>2158.78</ele>
        <time>2021-07-05T08:15:50Z</time>
      </trkpt>
      <trkpt lat="42.57476" lon="1.90029">
        <ele>2159.74</ele>
        <time>2021-07-05T08:15:56Z</time>
      </trkpt>
      <trkpt lat="42.5748" lon="1.90029">
        <ele>2160.22</ele>
        <time>2021-07-05T08:16:04Z</time>
      </trkpt>
      <trkpt lat="42.5748" lon="1.90028">
        <ele>2161.18</ele>
        <time>2021-07-05T08:16:11Z</time>
      </trkpt>
      <trkpt lat="42.57481" lon="1.90028">
        <ele>2162.14</ele>
        <time>2021-07-05T08:16:16Z</time>
      </trkpt>
      <trkpt lat="42.57482" lon="1.90034">
        <ele>2162.62</ele>
        <time>2021-07-05T08:16:23Z</time>
      </trkpt>
      <trkpt lat="42.57482" lon="1.90034">
        <ele>2164.06</ele>
        <time>2021-07-05T08:16:29Z</time>
      </trkpt>
      <trkpt lat="42.57485" lon="1.90035">
        <ele>2164.55</ele>
        <time>2021-07-05T08:16:36Z</time>
      </trkpt>
      <trkpt lat="42.57486" lon="1.90035">
        <ele>2163.58</ele>
        <time>2021-07-05T08:16:44Z</time>
      </trkpt>
      <trkpt lat="42.57489" lon="1.90035">
        <ele>2162.14</ele>
        <time>2021-07-05T08:16:51Z</time>
      </trkpt>
      <trkpt lat="42.57491" lon="1.90041">
        <ele>2163.58</ele>
        <time>2021-07-05T08:16:59Z</time>
      </trkpt>
      <trkpt lat="42.57492" lon="1.9005">
        <ele>2165.03</ele>
        <time>2021-07-05T08:17:07Z</time>
      </trkpt>
      <trkpt lat="42.57492" lon="1.90057">
        <ele>2166.47</ele>
        <time>2021-07-05T08:17:15Z</time>
      </trkpt>
      <trkpt lat="42.57494" lon="1.90064">
        <ele>2167.91</ele>
        <time>2021-07-05T08:17:23Z</time>
      </trkpt>
      <trkpt lat="42.575" lon="1.9007">
        <ele>2169.35</ele>
        <time>2021-07-05T08:17:32Z</time>
      </trkpt>
      <trkpt lat="42.57504" lon="1.90075">
        <ele>2170.31</ele>
        <time>2021-07-05T08:17:39Z</time>
      </trkpt>
      <trkpt lat="42.57509" lon="1.90079">
        <ele>2171.76</ele>
        <time>2021-07-05T08:17:47Z</time>
      </trkpt>
      <trkpt lat="42.57509" lon="1.90079">
        <ele>2168.39</ele>
        <time>2021-07-05T08:17:48Z</time>
      </trkpt>
      <trkpt lat="42.57509" lon="1.9008">
        <ele>2175.6</ele>
        <time>2021-07-05T08:17:49Z</time>
      </trkpt>
      <trkpt lat="42.5751" lon="1.9008">
        <ele>2172.24</ele>
        <time>2021-07-05T08:17:50Z</time>
      </trkpt>
      <trkpt lat="42.57509" lon="1.90085">
        <ele>2173.2</ele>
        <time>2021-07-05T08:17:56Z</time>
      </trkpt>
      <trkpt lat="42.5751" lon="1.90091">
        <ele>2174.64</ele>
        <time>2021-07-05T08:18:03Z</time>
      </trkpt>
      <trkpt lat="42.57512" lon="1.90095">
        <ele>2177.52</ele>
        <time>2021-07-05T08:18:09Z</time>
      </trkpt>
      <trkpt lat="42.57512" lon="1.90095">
        <ele>2166.95</ele>
        <time>2021-07-05T08:18:10Z</time>
      </trkpt>
      <trkpt lat="42.57511" lon="1.90095">
        <ele>2185.21</ele>
        <time>2021-07-05T08:18:11Z</time>
      </trkpt>
      <trkpt lat="42.57511" lon="1.90095">
        <ele>2175.12</ele>
        <time>2021-07-05T08:18:12Z</time>
      </trkpt>
      <trkpt lat="42.57511" lon="1.90095">
        <ele>2171.76</ele>
        <time>2021-07-05T08:18:13Z</time>
      </trkpt>
      <trkpt lat="42.57511" lon="1.90095">
        <ele>2178</ele>
        <time>2021-07-05T08:18:14Z</time>
      </trkpt>
      <trkpt lat="42.57512" lon="1.90096">
        <ele>2175.6</ele>
        <time>2021-07-05T08:18:25Z</time>
      </trkpt>
      <trkpt lat="42.57512" lon="1.901">
        <ele>2176.56</ele>
        <time>2021-07-05T08:18:33Z</time>
      </trkpt>
      <trkpt lat="42.57513" lon="1.90106">
        <ele>2176.56</ele>
        <time>2021-07-05T08:18:41Z</time>
      </trkpt>
      <trkpt lat="42.57516" lon="1.90109">
        <ele>2177.52</ele>
        <time>2021-07-05T08:18:46Z</time>
      </trkpt>
      <trkpt lat="42.57514" lon="1.90114">
        <ele>2177.52</ele>
        <time>2021-07-05T08:18:52Z</time>
      </trkpt>
      <trkpt lat="42.57514" lon="1.90116">
        <ele>2178.48</ele>
        <time>2021-07-05T08:18:59Z</time>
      </trkpt>
      <trkpt lat="42.57515" lon="1.9012">
        <ele>2179.45</ele>
        <time>2021-07-05T08:19:06Z</time>
      </trkpt>
      <trkpt lat="42.57515" lon="1.90125">
        <ele>2180.41</ele>
        <time>2021-07-05T08:19:13Z</time>
      </trkpt>
      <trkpt lat="42.57514" lon="1.90127">
        <ele>2180.89</ele>
        <time>2021-07-05T08:19:22Z</time>
      </trkpt>
      <trkpt lat="42.57514" lon="1.90132">
        <ele>2181.37</ele>
        <time>2021-07-05T08:19:28Z</time>
      </trkpt>
      <trkpt lat="42.57513" lon="1.90136">
        <ele>2182.33</ele>
        <time>2021-07-05T08:19:35Z</time>
      </trkpt>
      <trkpt lat="42.57515" lon="1.90136">
        <ele>2186.66</ele>
        <time>2021-07-05T08:19:40Z</time>
      </trkpt>
      <trkpt lat="42.57515" lon="1.90136">
        <ele>2183.29</ele>
        <time>2021-07-05T08:19:41Z</time>
      </trkpt>
      <trkpt lat="42.57515" lon="1.90137">
        <ele>2182.81</ele>
        <time>2021-07-05T08:19:49Z</time>
      </trkpt>
      <trkpt lat="42.57514" lon="1.90138">
        <ele>2182.33</ele>
        <time>2021-07-05T08:19:56Z</time>
      </trkpt>
      <trkpt lat="42.57512" lon="1.9014">
        <ele>2183.77</ele>
        <time>2021-07-05T08:20:04Z</time>
      </trkpt>
      <trkpt lat="42.57512" lon="1.90146">
        <ele>2185.21</ele>
        <time>2021-07-05T08:20:10Z</time>
      </trkpt>
      <trkpt lat="42.57512" lon="1.90148">
        <ele>2186.66</ele>
        <time>2021-07-05T08:20:18Z</time>
      </trkpt>
      <trkpt lat="42.57512" lon="1.90154">
        <ele>2188.58</ele>
        <time>2021-07-05T08:20:25Z</time>
      </trkpt>
      <trkpt lat="42.57511" lon="1.90157">
        <ele>2191.46</ele>
        <time>2021-07-05T08:20:31Z</time>
      </trkpt>
      <trkpt lat="42.57513" lon="1.90157">
        <ele>2189.54</ele>
        <time>2021-07-05T08:20:41Z</time>
      </trkpt>
      <trkpt lat="42.57514" lon="1.9016">
        <ele>2190.98</ele>
        <time>2021-07-05T08:20:48Z</time>
      </trkpt>
      <trkpt lat="42.57515" lon="1.90165">
        <ele>2192.42</ele>
        <time>2021-07-05T08:20:55Z</time>
      </trkpt>
      <trkpt lat="42.57515" lon="1.90171">
        <ele>2194.35</ele>
        <time>2021-07-05T08:21:03Z</time>
      </trkpt>
      <trkpt lat="42.57514" lon="1.90175">
        <ele>2195.31</ele>
        <time>2021-07-05T08:21:10Z</time>
      </trkpt>
      <trkpt lat="42.57514" lon="1.90179">
        <ele>2197.71</ele>
        <time>2021-07-05T08:21:18Z</time>
      </trkpt>
      <trkpt lat="42.57515" lon="1.90184">
        <ele>2199.63</ele>
        <time>2021-07-05T08:21:27Z</time>
      </trkpt>
      <trkpt lat="42.57517" lon="1.90191">
        <ele>2200.11</ele>
        <time>2021-07-05T08:21:35Z</time>
      </trkpt>
      <trkpt lat="42.57518" lon="1.90197">
        <ele>2202.04</ele>
        <time>2021-07-05T08:21:42Z</time>
      </trkpt>
      <trkpt lat="42.5752" lon="1.90201">
        <ele>2201.08</ele>
        <time>2021-07-05T08:21:49Z</time>
      </trkpt>
      <trkpt lat="42.57522" lon="1.90208">
        <ele>2202.04</ele>
        <time>2021-07-05T08:21:55Z</time>
      </trkpt>
      <trkpt lat="42.57525" lon="1.90212">
        <ele>2203.96</ele>
        <time>2021-07-05T08:22:03Z</time>
      </trkpt>
      <trkpt lat="42.57528" lon="1.90218">
        <ele>2204.92</ele>
        <time>2021-07-05T08:22:11Z</time>
      </trkpt>
      <trkpt lat="42.5753" lon="1.90227">
        <ele>2205.88</ele>
        <time>2021-07-05T08:22:18Z</time>
      </trkpt>
      <trkpt lat="42.5753" lon="1.9023">
        <ele>2206.36</ele>
        <time>2021-07-05T08:22:25Z</time>
      </trkpt>
      <trkpt lat="42.5753" lon="1.90234">
        <ele>2206.36</ele>
        <time>2021-07-05T08:22:31Z</time>
      </trkpt>
      <trkpt lat="42.5753" lon="1.90239">
        <ele>2207.81</ele>
        <time>2021-07-05T08:22:37Z</time>
      </trkpt>
      <trkpt lat="42.5753" lon="1.90245">
        <ele>2208.77</ele>
        <time>2021-07-05T08:22:44Z</time>
      </trkpt>
      <trkpt lat="42.57529" lon="1.9025">
        <ele>2209.73</ele>
        <time>2021-07-05T08:22:52Z</time>
      </trkpt>
      <trkpt lat="42.5753" lon="1.90255">
        <ele>2211.17</ele>
        <time>2021-07-05T08:23:01Z</time>
      </trkpt>
      <trkpt lat="42.57533" lon="1.90261">
        <ele>2212.13</ele>
        <time>2021-07-05T08:23:08Z</time>
      </trkpt>
      <trkpt lat="42.57534" lon="1.90265">
        <ele>2213.09</ele>
        <time>2021-07-05T08:23:13Z</time>
      </trkpt>
      <trkpt lat="42.57534" lon="1.90267">
        <ele>2213.57</ele>
        <time>2021-07-05T08:23:20Z</time>
      </trkpt>
      <trkpt lat="42.57535" lon="1.90271">
        <ele>2214.05</ele>
        <time>2021-07-05T08:23:26Z</time>
      </trkpt>
      <trkpt lat="42.57536" lon="1.90279">
        <ele>2215.5</ele>
        <time>2021-07-05T08:23:33Z</time>
      </trkpt>
      <trkpt lat="42.57539" lon="1.90283">
        <ele>2215.98</ele>
        <time>2021-07-05T08:23:38Z</time>
      </trkpt>
      <trkpt lat="42.57538" lon="1.90293">
        <ele>2217.9</ele>
        <time>2021-07-05T08:23:47Z</time>
      </trkpt>
      <trkpt lat="42.57539" lon="1.90299">
        <ele>2216.94</ele>
        <time>2021-07-05T08:23:53Z</time>
      </trkpt>
      <trkpt lat="42.5754" lon="1.90304">
        <ele>2219.34</ele>
        <time>2021-07-05T08:23:59Z</time>
      </trkpt>
      <trkpt lat="42.5754" lon="1.90304">
        <ele>2219.34</ele>
        <time>2021-07-05T08:24:06Z</time>
      </trkpt>
      <trkpt lat="42.57544" lon="1.90301">
        <ele>2219.34</ele>
        <time>2021-07-05T08:24:13Z</time>
      </trkpt>
      <trkpt lat="42.57549" lon="1.90296">
        <ele>2220.3</ele>
        <time>2021-07-05T08:24:19Z</time>
      </trkpt>
      <trkpt lat="42.57553" lon="1.90291">
        <ele>2221.74</ele>
        <time>2021-07-05T08:24:26Z</time>
      </trkpt>
      <trkpt lat="42.57557" lon="1.90283">
        <ele>2224.15</ele>
        <time>2021-07-05T08:24:34Z</time>
      </trkpt>
      <trkpt lat="42.57558" lon="1.90284">
        <ele>2225.11</ele>
        <time>2021-07-05T08:24:40Z</time>
      </trkpt>
      <trkpt lat="42.5756" lon="1.90285">
        <ele>2226.55</ele>
        <time>2021-07-05T08:24:47Z</time>
      </trkpt>
      <trkpt lat="42.57565" lon="1.90285">
        <ele>2227.51</ele>
        <time>2021-07-05T08:24:53Z</time>
      </trkpt>
      <trkpt lat="42.57566" lon="1.90285">
        <ele>2227.51</ele>
        <time>2021-07-05T08:25:04Z</time>
      </trkpt>
      <trkpt lat="42.57569" lon="1.90281">
        <ele>2227.03</ele>
        <time>2021-07-05T08:25:12Z</time>
      </trkpt>
      <trkpt lat="42.57573" lon="1.90275">
        <ele>2227.99</ele>
        <time>2021-07-05T08:25:20Z</time>
      </trkpt>
      <trkpt lat="42.57576" lon="1.90272">
        <ele>2229.43</ele>
        <time>2021-07-05T08:25:25Z</time>
      </trkpt>
      <trkpt lat="42.57582" lon="1.90273">
        <ele>2230.88</ele>
        <time>2021-07-05T08:25:32Z</time>
      </trkpt>
      <trkpt lat="42.57584" lon="1.90275">
        <ele>2231.84</ele>
        <time>2021-07-05T08:25:36Z</time>
      </trkpt>
      <trkpt lat="42.57586" lon="1.90277">
        <ele>2233.28</ele>
        <time>2021-07-05T08:25:43Z</time>
      </trkpt>
      <trkpt lat="42.57587" lon="1.90274">
        <ele>2233.28</ele>
        <time>2021-07-05T08:25:49Z</time>
      </trkpt>
      <trkpt lat="42.57587" lon="1.90272">
        <ele>2234.72</ele>
        <time>2021-07-05T08:25:58Z</time>
      </trkpt>
      <trkpt lat="42.57592" lon="1.90272">
        <ele>2235.2</ele>
        <time>2021-07-05T08:26:04Z</time>
      </trkpt>
      <trkpt lat="42.57595" lon="1.90271">
        <ele>2235.68</ele>
        <time>2021-07-05T08:26:10Z</time>
      </trkpt>
      <trkpt lat="42.57596" lon="1.90271">
        <ele>2235.68</ele>
        <time>2021-07-05T08:26:17Z</time>
      </trkpt>
      <trkpt lat="42.57599" lon="1.9027">
        <ele>2236.16</ele>
        <time>2021-07-05T08:26:27Z</time>
      </trkpt>
      <trkpt lat="42.57604" lon="1.90275">
        <ele>2234.24</ele>
        <time>2021-07-05T08:26:34Z</time>
      </trkpt>
      <trkpt lat="42.57608" lon="1.90282">
        <ele>2232.8</ele>
        <time>2021-07-05T08:26:40Z</time>
      </trkpt>
      <trkpt lat="42.5761" lon="1.90287">
        <ele>2232.32</ele>
        <time>2021-07-05T08:26:43Z</time>
      </trkpt>
      <trkpt lat="42.5761" lon="1.90296">
        <ele>2232.32</ele>
        <time>2021-07-05T08:26:48Z</time>
      </trkpt>
      <trkpt lat="42.5761" lon="1.90311">
        <ele>2231.84</ele>
        <time>2021-07-05T08:26:57Z</time>
      </trkpt>
      <trkpt lat="42.57609" lon="1.90325">
        <ele>2231.36</ele>
        <time>2021-07-05T08:27:05Z</time>
      </trkpt>
      <trkpt lat="42.57608" lon="1.90333">
        <ele>2230.88</ele>
        <time>2021-07-05T08:27:11Z</time>
      </trkpt>
      <trkpt lat="42.57605" lon="1.9034">
        <ele>2229.92</ele>
        <time>2021-07-05T08:27:17Z</time>
      </trkpt>
      <trkpt lat="42.57603" lon="1.90349">
        <ele>2229.92</ele>
        <time>2021-07-05T08:27:24Z</time>
      </trkpt>
      <trkpt lat="42.57605" lon="1.90363">
        <ele>2230.4</ele>
        <time>2021-07-05T08:27:33Z</time>
      </trkpt>
      <trkpt lat="42.57605" lon="1.90371">
        <ele>2231.36</ele>
        <time>2021-07-05T08:27:40Z</time>
      </trkpt>
      <trkpt lat="42.57607" lon="1.9038">
        <ele>2232.8</ele>
        <time>2021-07-05T08:27:47Z</time>
      </trkpt>
      <trkpt lat="42.5761" lon="1.90388">
        <ele>2235.2</ele>
        <time>2021-07-05T08:27:57Z</time>
      </trkpt>
      <trkpt lat="42.5761" lon="1.90392">
        <ele>2234.72</ele>
        <time>2021-07-05T08:28:02Z</time>
      </trkpt>
      <trkpt lat="42.5761" lon="1.90395">
        <ele>2235.68</ele>
        <time>2021-07-05T08:28:08Z</time>
      </trkpt>
      <trkpt lat="42.5761" lon="1.904">
        <ele>2236.16</ele>
        <time>2021-07-05T08:28:14Z</time>
      </trkpt>
      <trkpt lat="42.57608" lon="1.90405">
        <ele>2236.64</ele>
        <time>2021-07-05T08:28:20Z</time>
      </trkpt>
      <trkpt lat="42.57605" lon="1.90412">
        <ele>2237.61</ele>
        <time>2021-07-05T08:28:26Z</time>
      </trkpt>
      <trkpt lat="42.57604" lon="1.90418">
        <ele>2238.09</ele>
        <time>2021-07-05T08:28:31Z</time>
      </trkpt>
      <trkpt lat="42.57602" lon="1.90426">
        <ele>2239.53</ele>
        <time>2021-07-05T08:28:38Z</time>
      </trkpt>
      <trkpt lat="42.57599" lon="1.90432">
        <ele>2240.97</ele>
        <time>2021-07-05T08:28:45Z</time>
      </trkpt>
      <trkpt lat="42.57598" lon="1.90436">
        <ele>2241.45</ele>
        <time>2021-07-05T08:28:51Z</time>
      </trkpt>
      <trkpt lat="42.576" lon="1.90441">
        <ele>2242.41</ele>
        <time>2021-07-05T08:28:57Z</time>
      </trkpt>
      <trkpt lat="42.57599" lon="1.9045">
        <ele>2243.37</ele>
        <time>2021-07-05T08:29:04Z</time>
      </trkpt>
      <trkpt lat="42.57598" lon="1.90457">
        <ele>2244.33</ele>
        <time>2021-07-05T08:29:10Z</time>
      </trkpt>
      <trkpt lat="42.57597" lon="1.90466">
        <ele>2245.3</ele>
        <time>2021-07-05T08:29:17Z</time>
      </trkpt>
      <trkpt lat="42.57595" lon="1.90474">
        <ele>2245.78</ele>
        <time>2021-07-05T08:29:22Z</time>
      </trkpt>
      <trkpt lat="42.57595" lon="1.90483">
        <ele>2246.26</ele>
        <time>2021-07-05T08:29:27Z</time>
      </trkpt>
      <trkpt lat="42.57595" lon="1.90493">
        <ele>2247.22</ele>
        <time>2021-07-05T08:29:34Z</time>
      </trkpt>
      <trkpt lat="42.57593" lon="1.90498">
        <ele>2248.18</ele>
        <time>2021-07-05T08:29:40Z</time>
      </trkpt>
      <trkpt lat="42.57593" lon="1.90504">
        <ele>2248.66</ele>
        <time>2021-07-05T08:29:45Z</time>
      </trkpt>
      <trkpt lat="42.57589" lon="1.9051">
        <ele>2249.14</ele>
        <time>2021-07-05T08:29:52Z</time>
      </trkpt>
      <trkpt lat="42.57588" lon="1.90514">
        <ele>2250.1</ele>
        <time>2021-07-05T08:29:55Z</time>
      </trkpt>
      <trkpt lat="42.57587" lon="1.90521">
        <ele>2250.1</ele>
        <time>2021-07-05T08:30:01Z</time>
      </trkpt>
      <trkpt lat="42.57589" lon="1.90526">
        <ele>2251.06</ele>
        <time>2021-07-05T08:30:07Z</time>
      </trkpt>
      <trkpt lat="42.5759" lon="1.90526">
        <ele>2252.03</ele>
        <time>2021-07-05T08:30:13Z</time>
      </trkpt>
      <trkpt lat="42.5759" lon="1.90526">
        <ele>2252.51</ele>
        <time>2021-07-05T08:30:24Z</time>
      </trkpt>
      <trkpt lat="42.57591" lon="1.90527">
        <ele>2251.54</ele>
        <time>2021-07-05T08:30:34Z</time>
      </trkpt>
      <trkpt lat="42.5759" lon="1.90528">
        <ele>2251.54</ele>
        <time>2021-07-05T08:30:42Z</time>
      </trkpt>
      <trkpt lat="42.57591" lon="1.90535">
        <ele>2252.99</ele>
        <time>2021-07-05T08:30:48Z</time>
      </trkpt>
      <trkpt lat="42.57589" lon="1.90539">
        <ele>2254.43</ele>
        <time>2021-07-05T08:30:54Z</time>
      </trkpt>
      <trkpt lat="42.57589" lon="1.90548">
        <ele>2255.39</ele>
        <time>2021-07-05T08:31:02Z</time>
      </trkpt>
      <trkpt lat="42.57587" lon="1.90557">
        <ele>2256.35</ele>
        <time>2021-07-05T08:31:10Z</time>
      </trkpt>
      <trkpt lat="42.57589" lon="1.90564">
        <ele>2257.31</ele>
        <time>2021-07-05T08:31:16Z</time>
      </trkpt>
      <trkpt lat="42.5759" lon="1.90572">
        <ele>2258.75</ele>
        <time>2021-07-05T08:31:22Z</time>
      </trkpt>
      <trkpt lat="42.57589" lon="1.90576">
        <ele>2259.72</ele>
        <time>2021-07-05T08:31:29Z</time>
      </trkpt>
      <trkpt lat="42.57591" lon="1.90582">
        <ele>2260.68</ele>
        <time>2021-07-05T08:31:36Z</time>
      </trkpt>
      <trkpt lat="42.57592" lon="1.90587">
        <ele>2262.12</ele>
        <time>2021-07-05T08:31:42Z</time>
      </trkpt>
      <trkpt lat="42.57594" lon="1.90591">
        <ele>2263.08</ele>
        <time>2021-07-05T08:31:47Z</time>
      </trkpt>
      <trkpt lat="42.57595" lon="1.90597">
        <ele>2264.52</ele>
        <time>2021-07-05T08:31:54Z</time>
      </trkpt>
      <trkpt lat="42.57596" lon="1.90601">
        <ele>2265.48</ele>
        <time>2021-07-05T08:32:02Z</time>
      </trkpt>
      <trkpt lat="42.57597" lon="1.90606">
        <ele>2266.93</ele>
        <time>2021-07-05T08:32:08Z</time>
      </trkpt>
      <trkpt lat="42.57597" lon="1.90613">
        <ele>2268.37</ele>
        <time>2021-07-05T08:32:16Z</time>
      </trkpt>
      <trkpt lat="42.57598" lon="1.90614">
        <ele>2268.85</ele>
        <time>2021-07-05T08:32:18Z</time>
      </trkpt>
      <trkpt lat="42.576" lon="1.9062">
        <ele>2270.29</ele>
        <time>2021-07-05T08:32:27Z</time>
      </trkpt>
      <trkpt lat="42.57601" lon="1.90623">
        <ele>2272.21</ele>
        <time>2021-07-05T08:32:35Z</time>
      </trkpt>
      <trkpt lat="42.57601" lon="1.90623">
        <ele>2272.21</ele>
        <time>2021-07-05T08:32:48Z</time>
      </trkpt>
      <trkpt lat="42.57604" lon="1.90624">
        <ele>2271.73</ele>
        <time>2021-07-05T08:33:00Z</time>
      </trkpt>
      <trkpt lat="42.57603" lon="1.90625">
        <ele>2271.73</ele>
        <time>2021-07-05T08:33:10Z</time>
      </trkpt>
      <trkpt lat="42.57605" lon="1.9063">
        <ele>2273.17</ele>
        <time>2021-07-05T08:33:17Z</time>
      </trkpt>
      <trkpt lat="42.57605" lon="1.90636">
        <ele>2274.14</ele>
        <time>2021-07-05T08:33:23Z</time>
      </trkpt>
      <trkpt lat="42.57606" lon="1.90641">
        <ele>2275.58</ele>
        <time>2021-07-05T08:33:27Z</time>
      </trkpt>
      <trkpt lat="42.57607" lon="1.9065">
        <ele>2276.06</ele>
        <time>2021-07-05T08:33:35Z</time>
      </trkpt>
      <trkpt lat="42.5761" lon="1.9066">
        <ele>2277.98</ele>
        <time>2021-07-05T08:33:44Z</time>
      </trkpt>
      <trkpt lat="42.57609" lon="1.90668">
        <ele>2278.94</ele>
        <time>2021-07-05T08:33:50Z</time>
      </trkpt>
      <trkpt lat="42.57608" lon="1.90677">
        <ele>2280.38</ele>
        <time>2021-07-05T08:33:57Z</time>
      </trkpt>
      <trkpt lat="42.57608" lon="1.90681">
        <ele>2280.87</ele>
        <time>2021-07-05T08:34:03Z</time>
      </trkpt>
      <trkpt lat="42.57609" lon="1.9069">
        <ele>2281.83</ele>
        <time>2021-07-05T08:34:10Z</time>
      </trkpt>
      <trkpt lat="42.5761" lon="1.90694">
        <ele>2282.31</ele>
        <time>2021-07-05T08:34:14Z</time>
      </trkpt>
      <trkpt lat="42.5761" lon="1.90703">
        <ele>2283.75</ele>
        <time>2021-07-05T08:34:21Z</time>
      </trkpt>
      <trkpt lat="42.5761" lon="1.90712">
        <ele>2284.71</ele>
        <time>2021-07-05T08:34:27Z</time>
      </trkpt>
      <trkpt lat="42.5761" lon="1.9072">
        <ele>2285.67</ele>
        <time>2021-07-05T08:34:34Z</time>
      </trkpt>
      <trkpt lat="42.57613" lon="1.90728">
        <ele>2287.11</ele>
        <time>2021-07-05T08:34:41Z</time>
      </trkpt>
      <trkpt lat="42.57613" lon="1.90735">
        <ele>2288.08</ele>
        <time>2021-07-05T08:34:48Z</time>
      </trkpt>
      <trkpt lat="42.57614" lon="1.9074">
        <ele>2289.52</ele>
        <time>2021-07-05T08:34:54Z</time>
      </trkpt>
      <trkpt lat="42.57614" lon="1.90747">
        <ele>2290.96</ele>
        <time>2021-07-05T08:35:01Z</time>
      </trkpt>
      <trkpt lat="42.57614" lon="1.90755">
        <ele>2292.4</ele>
        <time>2021-07-05T08:35:08Z</time>
      </trkpt>
      <trkpt lat="42.57614" lon="1.90762">
        <ele>2293.36</ele>
        <time>2021-07-05T08:35:15Z</time>
      </trkpt>
      <trkpt lat="42.57612" lon="1.90768">
        <ele>2294.32</ele>
        <time>2021-07-05T08:35:21Z</time>
      </trkpt>
      <trkpt lat="42.57614" lon="1.90775">
        <ele>2295.28</ele>
        <time>2021-07-05T08:35:28Z</time>
      </trkpt>
      <trkpt lat="42.57614" lon="1.90779">
        <ele>2296.73</ele>
        <time>2021-07-05T08:35:35Z</time>
      </trkpt>
      <trkpt lat="42.57616" lon="1.90783">
        <ele>2297.69</ele>
        <time>2021-07-05T08:35:40Z</time>
      </trkpt>
      <trkpt lat="42.57615" lon="1.90786">
        <ele>2299.13</ele>
        <time>2021-07-05T08:35:47Z</time>
      </trkpt>
      <trkpt lat="42.57615" lon="1.90786">
        <ele>2299.13</ele>
        <time>2021-07-05T08:35:53Z</time>
      </trkpt>
      <trkpt lat="42.57618" lon="1.90791">
        <ele>2300.57</ele>
        <time>2021-07-05T08:36:00Z</time>
      </trkpt>
      <trkpt lat="42.57619" lon="1.90801">
        <ele>2301.05</ele>
        <time>2021-07-05T08:36:07Z</time>
      </trkpt>
      <trkpt lat="42.57619" lon="1.90804">
        <ele>2301.05</ele>
        <time>2021-07-05T08:36:09Z</time>
      </trkpt>
      <trkpt lat="42.5762" lon="1.90815">
        <ele>2302.01</ele>
        <time>2021-07-05T08:36:16Z</time>
      </trkpt>
      <trkpt lat="42.5762" lon="1.90824">
        <ele>2303.46</ele>
        <time>2021-07-05T08:36:23Z</time>
      </trkpt>
      <trkpt lat="42.57624" lon="1.90833">
        <ele>2304.42</ele>
        <time>2021-07-05T08:36:31Z</time>
      </trkpt>
      <trkpt lat="42.57625" lon="1.90839">
        <ele>2304.9</ele>
        <time>2021-07-05T08:36:36Z</time>
      </trkpt>
      <trkpt lat="42.57626" lon="1.90841">
        <ele>2305.38</ele>
        <time>2021-07-05T08:36:44Z</time>
      </trkpt>
      <trkpt lat="42.57626" lon="1.90842">
        <ele>2304.9</ele>
        <time>2021-07-05T08:36:54Z</time>
      </trkpt>
      <trkpt lat="42.57626" lon="1.90842">
        <ele>2304.42</ele>
        <time>2021-07-05T08:37:08Z</time>
      </trkpt>
      <trkpt lat="42.57626" lon="1.90843">
        <ele>2305.38</ele>
        <time>2021-07-05T08:37:25Z</time>
      </trkpt>
      <trkpt lat="42.57625" lon="1.90844">
        <ele>2305.38</ele>
        <time>2021-07-05T08:37:33Z</time>
      </trkpt>
      <trkpt lat="42.57625" lon="1.90844">
        <ele>2304.9</ele>
        <time>2021-07-05T08:37:41Z</time>
      </trkpt>
      <trkpt lat="42.57625" lon="1.90844">
        <ele>2304.9</ele>
        <time>2021-07-05T08:38:01Z</time>
      </trkpt>
      <trkpt lat="42.57625" lon="1.90844">
        <ele>2304.9</ele>
        <time>2021-07-05T08:38:16Z</time>
      </trkpt>
      <trkpt lat="42.57626" lon="1.90844">
        <ele>2306.82</ele>
        <time>2021-07-05T08:38:29Z</time>
      </trkpt>
      <trkpt lat="42.57627" lon="1.90842">
        <ele>2305.86</ele>
        <time>2021-07-05T08:38:36Z</time>
      </trkpt>
      <trkpt lat="42.57625" lon="1.90849">
        <ele>2306.82</ele>
        <time>2021-07-05T08:38:43Z</time>
      </trkpt>
      <trkpt lat="42.57625" lon="1.90855">
        <ele>2306.82</ele>
        <time>2021-07-05T08:38:50Z</time>
      </trkpt>
      <trkpt lat="42.57625" lon="1.90858">
        <ele>2307.3</ele>
        <time>2021-07-05T08:38:52Z</time>
      </trkpt>
      <trkpt lat="42.57626" lon="1.90863">
        <ele>2307.78</ele>
        <time>2021-07-05T08:38:56Z</time>
      </trkpt>
      <trkpt lat="42.57625" lon="1.90866">
        <ele>2307.78</ele>
        <time>2021-07-05T08:38:58Z</time>
      </trkpt>
      <trkpt lat="42.57627" lon="1.90879">
        <ele>2308.26</ele>
        <time>2021-07-05T08:39:06Z</time>
      </trkpt>
      <trkpt lat="42.57626" lon="1.90891">
        <ele>2308.26</ele>
        <time>2021-07-05T08:39:13Z</time>
      </trkpt>
      <trkpt lat="42.57624" lon="1.90896">
        <ele>2308.26</ele>
        <time>2021-07-05T08:39:17Z</time>
      </trkpt>
      <trkpt lat="42.57618" lon="1.90907">
        <ele>2308.74</ele>
        <time>2021-07-05T08:39:25Z</time>
      </trkpt>
      <trkpt lat="42.57618" lon="1.90908">
        <ele>2308.74</ele>
        <time>2021-07-05T08:39:26Z</time>
      </trkpt>
      <trkpt lat="42.57618" lon="1.90913">
        <ele>2308.74</ele>
        <time>2021-07-05T08:39:29Z</time>
      </trkpt>
      <trkpt lat="42.57617" lon="1.9092">
        <ele>2309.22</ele>
        <time>2021-07-05T08:39:34Z</time>
      </trkpt>
      <trkpt lat="42.57614" lon="1.90931">
        <ele>2310.19</ele>
        <time>2021-07-05T08:39:43Z</time>
      </trkpt>
      <trkpt lat="42.57615" lon="1.90931">
        <ele>2310.19</ele>
        <time>2021-07-05T08:39:51Z</time>
      </trkpt>
      <trkpt lat="42.57615" lon="1.9093">
        <ele>2310.67</ele>
        <time>2021-07-05T08:39:59Z</time>
      </trkpt>
      <trkpt lat="42.57614" lon="1.90929">
        <ele>2309.7</ele>
        <time>2021-07-05T08:40:08Z</time>
      </trkpt>
      <trkpt lat="42.57614" lon="1.90929">
        <ele>2309.7</ele>
        <time>2021-07-05T08:40:23Z</time>
      </trkpt>
      <trkpt lat="42.57615" lon="1.90929">
        <ele>2311.63</ele>
        <time>2021-07-05T08:40:30Z</time>
      </trkpt>
      <trkpt lat="42.57615" lon="1.90929">
        <ele>2310.19</ele>
        <time>2021-07-05T08:40:40Z</time>
      </trkpt>
      <trkpt lat="42.57616" lon="1.90931">
        <ele>2310.19</ele>
        <time>2021-07-05T08:40:51Z</time>
      </trkpt>
      <trkpt lat="42.57612" lon="1.90937">
        <ele>2310.67</ele>
        <time>2021-07-05T08:40:57Z</time>
      </trkpt>
      <trkpt lat="42.57608" lon="1.90945">
        <ele>2311.63</ele>
        <time>2021-07-05T08:41:05Z</time>
      </trkpt>
      <trkpt lat="42.57608" lon="1.90946">
        <ele>2312.11</ele>
        <time>2021-07-05T08:41:14Z</time>
      </trkpt>
      <trkpt lat="42.57609" lon="1.90944">
        <ele>2312.11</ele>
        <time>2021-07-05T08:41:28Z</time>
      </trkpt>
      <trkpt lat="42.5761" lon="1.90944">
        <ele>2312.59</ele>
        <time>2021-07-05T08:41:42Z</time>
      </trkpt>
      <trkpt lat="42.57609" lon="1.90951">
        <ele>2313.07</ele>
        <time>2021-07-05T08:41:48Z</time>
      </trkpt>
      <trkpt lat="42.57608" lon="1.90955">
        <ele>2313.55</ele>
        <time>2021-07-05T08:41:51Z</time>
      </trkpt>
      <trkpt lat="42.57604" lon="1.90966">
        <ele>2314.03</ele>
        <time>2021-07-05T08:41:58Z</time>
      </trkpt>
      <trkpt lat="42.57602" lon="1.90968">
        <ele>2314.51</ele>
        <time>2021-07-05T08:42:05Z</time>
      </trkpt>
      <trkpt lat="42.57603" lon="1.90968">
        <ele>2311.15</ele>
        <time>2021-07-05T08:42:15Z</time>
      </trkpt>
      <trkpt lat="42.57603" lon="1.90968">
        <ele>2316.43</ele>
        <time>2021-07-05T08:42:16Z</time>
      </trkpt>
      <trkpt lat="42.57603" lon="1.90968">
        <ele>2313.07</ele>
        <time>2021-07-05T08:42:17Z</time>
      </trkpt>
      <trkpt lat="42.57603" lon="1.90968">
        <ele>2314.99</ele>
        <time>2021-07-05T08:42:30Z</time>
      </trkpt>
      <trkpt lat="42.57602" lon="1.90973">
        <ele>2314.51</ele>
        <time>2021-07-05T08:42:35Z</time>
      </trkpt>
      <trkpt lat="42.57601" lon="1.90984">
        <ele>2315.95</ele>
        <time>2021-07-05T08:42:41Z</time>
      </trkpt>
      <trkpt lat="42.57601" lon="1.90988">
        <ele>2316.43</ele>
        <time>2021-07-05T08:42:47Z</time>
      </trkpt>
      <trkpt lat="42.57601" lon="1.9099">
        <ele>2315.47</ele>
        <time>2021-07-05T08:42:51Z</time>
      </trkpt>
      <trkpt lat="42.57604" lon="1.90991">
        <ele>2315.47</ele>
        <time>2021-07-05T08:42:57Z</time>
      </trkpt>
      <trkpt lat="42.57606" lon="1.90992">
        <ele>2315.95</ele>
        <time>2021-07-05T08:43:04Z</time>
      </trkpt>
      <trkpt lat="42.57608" lon="1.90994">
        <ele>2315.95</ele>
        <time>2021-07-05T08:43:10Z</time>
      </trkpt>
      <trkpt lat="42.57612" lon="1.90998">
        <ele>2315.95</ele>
        <time>2021-07-05T08:43:15Z</time>
      </trkpt>
      <trkpt lat="42.57613" lon="1.90999">
        <ele>2315.95</ele>
        <time>2021-07-05T08:43:18Z</time>
      </trkpt>
      <trkpt lat="42.57615" lon="1.91006">
        <ele>2315.95</ele>
        <time>2021-07-05T08:43:24Z</time>
      </trkpt>
      <trkpt lat="42.5762" lon="1.9101">
        <ele>2315.95</ele>
        <time>2021-07-05T08:43:31Z</time>
      </trkpt>
      <trkpt lat="42.57621" lon="1.91011">
        <ele>2315.95</ele>
        <time>2021-07-05T08:43:32Z</time>
      </trkpt>
      <trkpt lat="42.57628" lon="1.91015">
        <ele>2316.91</ele>
        <time>2021-07-05T08:43:39Z</time>
      </trkpt>
      <trkpt lat="42.57632" lon="1.91014">
        <ele>2318.84</ele>
        <time>2021-07-05T08:43:46Z</time>
      </trkpt>
      <trkpt lat="42.57633" lon="1.91017">
        <ele>2318.36</ele>
        <time>2021-07-05T08:43:50Z</time>
      </trkpt>
      <trkpt lat="42.57632" lon="1.91018">
        <ele>2319.32</ele>
        <time>2021-07-05T08:43:52Z</time>
      </trkpt>
      <trkpt lat="42.5763" lon="1.91026">
        <ele>2320.28</ele>
        <time>2021-07-05T08:43:58Z</time>
      </trkpt>
      <trkpt lat="42.57629" lon="1.91027">
        <ele>2320.76</ele>
        <time>2021-07-05T08:43:59Z</time>
      </trkpt>
      <trkpt lat="42.57626" lon="1.91035">
        <ele>2321.72</ele>
        <time>2021-07-05T08:44:05Z</time>
      </trkpt>
      <trkpt lat="42.57625" lon="1.91046">
        <ele>2322.2</ele>
        <time>2021-07-05T08:44:12Z</time>
      </trkpt>
      <trkpt lat="42.57625" lon="1.91052">
        <ele>2324.12</ele>
        <time>2021-07-05T08:44:18Z</time>
      </trkpt>
      <trkpt lat="42.57624" lon="1.91061">
        <ele>2324.61</ele>
        <time>2021-07-05T08:44:24Z</time>
      </trkpt>
      <trkpt lat="42.57626" lon="1.91065">
        <ele>2325.57</ele>
        <time>2021-07-05T08:44:28Z</time>
      </trkpt>
      <trkpt lat="42.57622" lon="1.91071">
        <ele>2327.01</ele>
        <time>2021-07-05T08:44:34Z</time>
      </trkpt>
      <trkpt lat="42.57616" lon="1.91082">
        <ele>2327.01</ele>
        <time>2021-07-05T08:44:41Z</time>
      </trkpt>
      <trkpt lat="42.5761" lon="1.91093">
        <ele>2328.45</ele>
        <time>2021-07-05T08:44:48Z</time>
      </trkpt>
      <trkpt lat="42.57605" lon="1.911">
        <ele>2329.89</ele>
        <time>2021-07-05T08:44:56Z</time>
      </trkpt>
      <trkpt lat="42.57604" lon="1.91108">
        <ele>2330.85</ele>
        <time>2021-07-05T08:45:02Z</time>
      </trkpt>
      <trkpt lat="42.57602" lon="1.91112">
        <ele>2331.81</ele>
        <time>2021-07-05T08:45:06Z</time>
      </trkpt>
      <trkpt lat="42.57602" lon="1.91115">
        <ele>2331.81</ele>
        <time>2021-07-05T08:45:08Z</time>
      </trkpt>
      <trkpt lat="42.57596" lon="1.91124">
        <ele>2331.81</ele>
        <time>2021-07-05T08:45:15Z</time>
      </trkpt>
      <trkpt lat="42.57596" lon="1.91129">
        <ele>2333.26</ele>
        <time>2021-07-05T08:45:20Z</time>
      </trkpt>
      <trkpt lat="42.57595" lon="1.91137">
        <ele>2334.22</ele>
        <time>2021-07-05T08:45:26Z</time>
      </trkpt>
      <trkpt lat="42.57593" lon="1.91143">
        <ele>2334.7</ele>
        <time>2021-07-05T08:45:30Z</time>
      </trkpt>
      <trkpt lat="42.57594" lon="1.91148">
        <ele>2335.66</ele>
        <time>2021-07-05T08:45:33Z</time>
      </trkpt>
      <trkpt lat="42.57591" lon="1.91162">
        <ele>2337.1</ele>
        <time>2021-07-05T08:45:41Z</time>
      </trkpt>
      <trkpt lat="42.5759" lon="1.91167">
        <ele>2338.06</ele>
        <time>2021-07-05T08:45:45Z</time>
      </trkpt>
      <trkpt lat="42.5759" lon="1.91172">
        <ele>2339.02</ele>
        <time>2021-07-05T08:45:50Z</time>
      </trkpt>
      <trkpt lat="42.5759" lon="1.91173">
        <ele>2339.51</ele>
        <time>2021-07-05T08:45:51Z</time>
      </trkpt>
      <trkpt lat="42.5759" lon="1.91178">
        <ele>2339.51</ele>
        <time>2021-07-05T08:45:54Z</time>
      </trkpt>
      <trkpt lat="42.57591" lon="1.91184">
        <ele>2340.47</ele>
        <time>2021-07-05T08:46:01Z</time>
      </trkpt>
      <trkpt lat="42.57591" lon="1.91185">
        <ele>2341.43</ele>
        <time>2021-07-05T08:46:03Z</time>
      </trkpt>
      <trkpt lat="42.57595" lon="1.91194">
        <ele>2342.87</ele>
        <time>2021-07-05T08:46:11Z</time>
      </trkpt>
      <trkpt lat="42.57597" lon="1.91201">
        <ele>2343.83</ele>
        <time>2021-07-05T08:46:17Z</time>
      </trkpt>
      <trkpt lat="42.57597" lon="1.91203">
        <ele>2343.83</ele>
        <time>2021-07-05T08:46:18Z</time>
      </trkpt>
      <trkpt lat="42.57595" lon="1.9121">
        <ele>2344.31</ele>
        <time>2021-07-05T08:46:23Z</time>
      </trkpt>
      <trkpt lat="42.5759" lon="1.91218">
        <ele>2346.23</ele>
        <time>2021-07-05T08:46:30Z</time>
      </trkpt>
      <trkpt lat="42.57588" lon="1.91222">
        <ele>2347.2</ele>
        <time>2021-07-05T08:46:37Z</time>
      </trkpt>
      <trkpt lat="42.57586" lon="1.91223">
        <ele>2348.16</ele>
        <time>2021-07-05T08:46:42Z</time>
      </trkpt>
      <trkpt lat="42.57586" lon="1.91228">
        <ele>2349.12</ele>
        <time>2021-07-05T08:46:48Z</time>
      </trkpt>
      <trkpt lat="42.57585" lon="1.91233">
        <ele>2350.56</ele>
        <time>2021-07-05T08:46:55Z</time>
      </trkpt>
      <trkpt lat="42.57582" lon="1.91237">
        <ele>2352</ele>
        <time>2021-07-05T08:47:01Z</time>
      </trkpt>
      <trkpt lat="42.57582" lon="1.91244">
        <ele>2353.44</ele>
        <time>2021-07-05T08:47:08Z</time>
      </trkpt>
      <trkpt lat="42.57581" lon="1.91252">
        <ele>2354.41</ele>
        <time>2021-07-05T08:47:14Z</time>
      </trkpt>
      <trkpt lat="42.5758" lon="1.91255">
        <ele>2355.85</ele>
        <time>2021-07-05T08:47:20Z</time>
      </trkpt>
      <trkpt lat="42.57577" lon="1.91261">
        <ele>2357.29</ele>
        <time>2021-07-05T08:47:28Z</time>
      </trkpt>
      <trkpt lat="42.57574" lon="1.91267">
        <ele>2358.73</ele>
        <time>2021-07-05T08:47:35Z</time>
      </trkpt>
      <trkpt lat="42.57571" lon="1.91271">
        <ele>2360.65</ele>
        <time>2021-07-05T08:47:42Z</time>
      </trkpt>
      <trkpt lat="42.57568" lon="1.91277">
        <ele>2361.62</ele>
        <time>2021-07-05T08:47:49Z</time>
      </trkpt>
      <trkpt lat="42.57567" lon="1.91278">
        <ele>2361.62</ele>
        <time>2021-07-05T08:47:50Z</time>
      </trkpt>
      <trkpt lat="42.57563" lon="1.91284">
        <ele>2362.1</ele>
        <time>2021-07-05T08:47:58Z</time>
      </trkpt>
      <trkpt lat="42.57561" lon="1.91291">
        <ele>2363.06</ele>
        <time>2021-07-05T08:48:05Z</time>
      </trkpt>
      <trkpt lat="42.57558" lon="1.91298">
        <ele>2364.02</ele>
        <time>2021-07-05T08:48:12Z</time>
      </trkpt>
      <trkpt lat="42.57557" lon="1.91303">
        <ele>2364.5</ele>
        <time>2021-07-05T08:48:15Z</time>
      </trkpt>
      <trkpt lat="42.57552" lon="1.91309">
        <ele>2364.98</ele>
        <time>2021-07-05T08:48:23Z</time>
      </trkpt>
      <trkpt lat="42.5755" lon="1.91316">
        <ele>2365.46</ele>
        <time>2021-07-05T08:48:30Z</time>
      </trkpt>
      <trkpt lat="42.57549" lon="1.9132">
        <ele>2366.42</ele>
        <time>2021-07-05T08:48:36Z</time>
      </trkpt>
      <trkpt lat="42.57544" lon="1.91323">
        <ele>2367.86</ele>
        <time>2021-07-05T08:48:43Z</time>
      </trkpt>
      <trkpt lat="42.57541" lon="1.9133">
        <ele>2368.35</ele>
        <time>2021-07-05T08:48:49Z</time>
      </trkpt>
      <trkpt lat="42.57542" lon="1.9134">
        <ele>2369.79</ele>
        <time>2021-07-05T08:48:56Z</time>
      </trkpt>
      <trkpt lat="42.57543" lon="1.91345">
        <ele>2370.27</ele>
        <time>2021-07-05T08:49:01Z</time>
      </trkpt>
      <trkpt lat="42.57539" lon="1.91361">
        <ele>2369.31</ele>
        <time>2021-07-05T08:49:09Z</time>
      </trkpt>
      <trkpt lat="42.57538" lon="1.91365">
        <ele>2368.83</ele>
        <time>2021-07-05T08:49:11Z</time>
      </trkpt>
      <trkpt lat="42.57534" lon="1.9138">
        <ele>2369.79</ele>
        <time>2021-07-05T08:49:19Z</time>
      </trkpt>
      <trkpt lat="42.57534" lon="1.91388">
        <ele>2369.79</ele>
        <time>2021-07-05T08:49:23Z</time>
      </trkpt>
      <trkpt lat="42.57534" lon="1.91393">
        <ele>2370.27</ele>
        <time>2021-07-05T08:49:26Z</time>
      </trkpt>
      <trkpt lat="42.57531" lon="1.914">
        <ele>2370.75</ele>
        <time>2021-07-05T08:49:31Z</time>
      </trkpt>
      <trkpt lat="42.57526" lon="1.91416">
        <ele>2369.31</ele>
        <time>2021-07-05T08:49:39Z</time>
      </trkpt>
      <trkpt lat="42.57521" lon="1.91431">
        <ele>2367.38</ele>
        <time>2021-07-05T08:49:49Z</time>
      </trkpt>
      <trkpt lat="42.57515" lon="1.91445">
        <ele>2366.9</ele>
        <time>2021-07-05T08:49:57Z</time>
      </trkpt>
      <trkpt lat="42.57507" lon="1.91452">
        <ele>2366.9</ele>
        <time>2021-07-05T08:50:03Z</time>
      </trkpt>
      <trkpt lat="42.57502" lon="1.91454">
        <ele>2367.38</ele>
        <time>2021-07-05T08:50:07Z</time>
      </trkpt>
      <trkpt lat="42.57491" lon="1.91457">
        <ele>2368.35</ele>
        <time>2021-07-05T08:50:15Z</time>
      </trkpt>
      <trkpt lat="42.5748" lon="1.91463">
        <ele>2369.79</ele>
        <time>2021-07-05T08:50:23Z</time>
      </trkpt>
      <trkpt lat="42.57472" lon="1.91468">
        <ele>2370.75</ele>
        <time>2021-07-05T08:50:30Z</time>
      </trkpt>
      <trkpt lat="42.57466" lon="1.91472">
        <ele>2372.67</ele>
        <time>2021-07-05T08:50:37Z</time>
      </trkpt>
      <trkpt lat="42.57463" lon="1.91473">
        <ele>2373.15</ele>
        <time>2021-07-05T08:50:40Z</time>
      </trkpt>
      <trkpt lat="42.57461" lon="1.91477">
        <ele>2374.11</ele>
        <time>2021-07-05T08:50:43Z</time>
      </trkpt>
      <trkpt lat="42.57459" lon="1.91484">
        <ele>2374.59</ele>
        <time>2021-07-05T08:50:49Z</time>
      </trkpt>
      <trkpt lat="42.5745" lon="1.91493">
        <ele>2376.04</ele>
        <time>2021-07-05T08:50:58Z</time>
      </trkpt>
      <trkpt lat="42.57446" lon="1.91499">
        <ele>2375.55</ele>
        <time>2021-07-05T08:51:03Z</time>
      </trkpt>
      <trkpt lat="42.57442" lon="1.91506">
        <ele>2376.04</ele>
        <time>2021-07-05T08:51:06Z</time>
      </trkpt>
      <trkpt lat="42.57438" lon="1.91519">
        <ele>2376.52</ele>
        <time>2021-07-05T08:51:14Z</time>
      </trkpt>
      <trkpt lat="42.57432" lon="1.91527">
        <ele>2377</ele>
        <time>2021-07-05T08:51:20Z</time>
      </trkpt>
      <trkpt lat="42.57427" lon="1.91533">
        <ele>2378.92</ele>
        <time>2021-07-05T08:51:26Z</time>
      </trkpt>
      <trkpt lat="42.57426" lon="1.91539">
        <ele>2380.36</ele>
        <time>2021-07-05T08:51:33Z</time>
      </trkpt>
      <trkpt lat="42.57423" lon="1.91546">
        <ele>2381.8</ele>
        <time>2021-07-05T08:51:39Z</time>
      </trkpt>
      <trkpt lat="42.57423" lon="1.91548">
        <ele>2382.76</ele>
        <time>2021-07-05T08:51:44Z</time>
      </trkpt>
      <trkpt lat="42.57421" lon="1.9155">
        <ele>2384.69</ele>
        <time>2021-07-05T08:51:51Z</time>
      </trkpt>
      <trkpt lat="42.5742" lon="1.91553">
        <ele>2385.17</ele>
        <time>2021-07-05T08:51:57Z</time>
      </trkpt>
      <trkpt lat="42.57419" lon="1.91561">
        <ele>2386.61</ele>
        <time>2021-07-05T08:52:04Z</time>
      </trkpt>
      <trkpt lat="42.5742" lon="1.91564">
        <ele>2388.05</ele>
        <time>2021-07-05T08:52:10Z</time>
      </trkpt>
      <trkpt lat="42.57419" lon="1.9157">
        <ele>2389.97</ele>
        <time>2021-07-05T08:52:17Z</time>
      </trkpt>
      <trkpt lat="42.57418" lon="1.91575">
        <ele>2390.46</ele>
        <time>2021-07-05T08:52:23Z</time>
      </trkpt>
      <trkpt lat="42.5742" lon="1.91575">
        <ele>2390.94</ele>
        <time>2021-07-05T08:52:25Z</time>
      </trkpt>
      <trkpt lat="42.57426" lon="1.9158">
        <ele>2391.9</ele>
        <time>2021-07-05T08:52:32Z</time>
      </trkpt>
      <trkpt lat="42.57428" lon="1.91584">
        <ele>2392.38</ele>
        <time>2021-07-05T08:52:38Z</time>
      </trkpt>
      <trkpt lat="42.57422" lon="1.91587">
        <ele>2393.82</ele>
        <time>2021-07-05T08:52:44Z</time>
      </trkpt>
      <trkpt lat="42.5742" lon="1.91591">
        <ele>2395.26</ele>
        <time>2021-07-05T08:52:50Z</time>
      </trkpt>
      <trkpt lat="42.57422" lon="1.91595">
        <ele>2396.7</ele>
        <time>2021-07-05T08:52:58Z</time>
      </trkpt>
      <trkpt lat="42.57421" lon="1.91598">
        <ele>2397.67</ele>
        <time>2021-07-05T08:53:05Z</time>
      </trkpt>
      <trkpt lat="42.57421" lon="1.91602">
        <ele>2399.11</ele>
        <time>2021-07-05T08:53:12Z</time>
      </trkpt>
      <trkpt lat="42.57417" lon="1.91603">
        <ele>2401.03</ele>
        <time>2021-07-05T08:53:20Z</time>
      </trkpt>
      <trkpt lat="42.57415" lon="1.91606">
        <ele>2401.03</ele>
        <time>2021-07-05T08:53:27Z</time>
      </trkpt>
      <trkpt lat="42.57415" lon="1.91611">
        <ele>2403.43</ele>
        <time>2021-07-05T08:53:33Z</time>
      </trkpt>
      <trkpt lat="42.57414" lon="1.91614">
        <ele>2404.39</ele>
        <time>2021-07-05T08:53:41Z</time>
      </trkpt>
      <trkpt lat="42.57414" lon="1.91618">
        <ele>2405.36</ele>
        <time>2021-07-05T08:53:48Z</time>
      </trkpt>
      <trkpt lat="42.57413" lon="1.91618">
        <ele>2407.76</ele>
        <time>2021-07-05T08:53:54Z</time>
      </trkpt>
      <trkpt lat="42.57412" lon="1.91622">
        <ele>2407.28</ele>
        <time>2021-07-05T08:54:00Z</time>
      </trkpt>
      <trkpt lat="42.5741" lon="1.91623">
        <ele>2409.2</ele>
        <time>2021-07-05T08:54:06Z</time>
      </trkpt>
      <trkpt lat="42.5741" lon="1.91625">
        <ele>2410.16</ele>
        <time>2021-07-05T08:54:12Z</time>
      </trkpt>
      <trkpt lat="42.5741" lon="1.91625">
        <ele>2412.57</ele>
        <time>2021-07-05T08:54:15Z</time>
      </trkpt>
      <trkpt lat="42.57407" lon="1.91629">
        <ele>2411.6</ele>
        <time>2021-07-05T08:54:22Z</time>
      </trkpt>
      <trkpt lat="42.57405" lon="1.91636">
        <ele>2414.01</ele>
        <time>2021-07-05T08:54:30Z</time>
      </trkpt>
      <trkpt lat="42.57402" lon="1.91638">
        <ele>2415.45</ele>
        <time>2021-07-05T08:54:37Z</time>
      </trkpt>
      <trkpt lat="42.57397" lon="1.91641">
        <ele>2416.89</ele>
        <time>2021-07-05T08:54:45Z</time>
      </trkpt>
      <trkpt lat="42.57396" lon="1.91646">
        <ele>2419.3</ele>
        <time>2021-07-05T08:54:52Z</time>
      </trkpt>
      <trkpt lat="42.57394" lon="1.91646">
        <ele>2420.26</ele>
        <time>2021-07-05T08:54:56Z</time>
      </trkpt>
      <trkpt lat="42.57392" lon="1.91643">
        <ele>2420.74</ele>
        <time>2021-07-05T08:54:59Z</time>
      </trkpt>
      <trkpt lat="42.57389" lon="1.91648">
        <ele>2422.18</ele>
        <time>2021-07-05T08:55:06Z</time>
      </trkpt>
      <trkpt lat="42.57387" lon="1.91649">
        <ele>2423.14</ele>
        <time>2021-07-05T08:55:12Z</time>
      </trkpt>
      <trkpt lat="42.57388" lon="1.91649">
        <ele>2422.66</ele>
        <time>2021-07-05T08:55:24Z</time>
      </trkpt>
      <trkpt lat="42.57388" lon="1.91649">
        <ele>2422.18</ele>
        <time>2021-07-05T08:55:39Z</time>
      </trkpt>
      <trkpt lat="42.57388" lon="1.91649">
        <ele>2421.7</ele>
        <time>2021-07-05T08:55:49Z</time>
      </trkpt>
      <trkpt lat="42.57388" lon="1.91653">
        <ele>2422.66</ele>
        <time>2021-07-05T08:55:52Z</time>
      </trkpt>
      <trkpt lat="42.57385" lon="1.9166">
        <ele>2424.1</ele>
        <time>2021-07-05T08:55:58Z</time>
      </trkpt>
      <trkpt lat="42.57378" lon="1.91664">
        <ele>2426.5</ele>
        <time>2021-07-05T08:56:06Z</time>
      </trkpt>
      <trkpt lat="42.57376" lon="1.91672">
        <ele>2427.47</ele>
        <time>2021-07-05T08:56:12Z</time>
      </trkpt>
      <trkpt lat="42.57373" lon="1.91679">
        <ele>2428.91</ele>
        <time>2021-07-05T08:56:18Z</time>
      </trkpt>
      <trkpt lat="42.57369" lon="1.91684">
        <ele>2430.83</ele>
        <time>2021-07-05T08:56:25Z</time>
      </trkpt>
      <trkpt lat="42.57368" lon="1.91687">
        <ele>2431.31</ele>
        <time>2021-07-05T08:56:30Z</time>
      </trkpt>
      <trkpt lat="42.57368" lon="1.91692">
        <ele>2432.27</ele>
        <time>2021-07-05T08:56:36Z</time>
      </trkpt>
      <trkpt lat="42.57366" lon="1.91699">
        <ele>2433.71</ele>
        <time>2021-07-05T08:56:42Z</time>
      </trkpt>
      <trkpt lat="42.57363" lon="1.91706">
        <ele>2435.16</ele>
        <time>2021-07-05T08:56:49Z</time>
      </trkpt>
      <trkpt lat="42.57361" lon="1.91711">
        <ele>2437.08</ele>
        <time>2021-07-05T08:56:56Z</time>
      </trkpt>
      <trkpt lat="42.5736" lon="1.9172">
        <ele>2438.52</ele>
        <time>2021-07-05T08:57:03Z</time>
      </trkpt>
      <trkpt lat="42.57358" lon="1.91727">
        <ele>2439.48</ele>
        <time>2021-07-05T08:57:08Z</time>
      </trkpt>
      <trkpt lat="42.57358" lon="1.9173">
        <ele>2439.96</ele>
        <time>2021-07-05T08:57:10Z</time>
      </trkpt>
      <trkpt lat="42.57353" lon="1.91738">
        <ele>2441.41</ele>
        <time>2021-07-05T08:57:18Z</time>
      </trkpt>
      <trkpt lat="42.57353" lon="1.91739">
        <ele>2441.89</ele>
        <time>2021-07-05T08:57:19Z</time>
      </trkpt>
      <trkpt lat="42.57347" lon="1.91747">
        <ele>2442.85</ele>
        <time>2021-07-05T08:57:26Z</time>
      </trkpt>
      <trkpt lat="42.57343" lon="1.91752">
        <ele>2443.81</ele>
        <time>2021-07-05T08:57:32Z</time>
      </trkpt>
      <trkpt lat="42.57333" lon="1.91751">
        <ele>2444.77</ele>
        <time>2021-07-05T08:57:42Z</time>
      </trkpt>
      <trkpt lat="42.57331" lon="1.91753">
        <ele>2445.25</ele>
        <time>2021-07-05T08:57:48Z</time>
      </trkpt>
      <trkpt lat="42.57325" lon="1.91764">
        <ele>2444.77</ele>
        <time>2021-07-05T08:57:57Z</time>
      </trkpt>
      <trkpt lat="42.57323" lon="1.91769">
        <ele>2444.77</ele>
        <time>2021-07-05T08:58:05Z</time>
      </trkpt>
      <trkpt lat="42.57316" lon="1.9178">
        <ele>2445.25</ele>
        <time>2021-07-05T08:58:12Z</time>
      </trkpt>
      <trkpt lat="42.57312" lon="1.91788">
        <ele>2444.77</ele>
        <time>2021-07-05T08:58:21Z</time>
      </trkpt>
      <trkpt lat="42.57313" lon="1.91787">
        <ele>2445.25</ele>
        <time>2021-07-05T08:58:31Z</time>
      </trkpt>
      <trkpt lat="42.57313" lon="1.91787">
        <ele>2444.77</ele>
        <time>2021-07-05T08:58:47Z</time>
      </trkpt>
      <trkpt lat="42.57312" lon="1.91786">
        <ele>2448.13</ele>
        <time>2021-07-05T08:58:53Z</time>
      </trkpt>
      <trkpt lat="42.57312" lon="1.91786">
        <ele>2445.73</ele>
        <time>2021-07-05T08:58:54Z</time>
      </trkpt>
      <trkpt lat="42.57312" lon="1.91786">
        <ele>2445.25</ele>
        <time>2021-07-05T08:58:56Z</time>
      </trkpt>
      <trkpt lat="42.57312" lon="1.91786">
        <ele>2449.1</ele>
        <time>2021-07-05T08:59:00Z</time>
      </trkpt>
      <trkpt lat="42.57312" lon="1.91786">
        <ele>2445.73</ele>
        <time>2021-07-05T08:59:01Z</time>
      </trkpt>
      <trkpt lat="42.57312" lon="1.91786">
        <ele>2445.25</ele>
        <time>2021-07-05T08:59:14Z</time>
      </trkpt>
      <trkpt lat="42.57312" lon="1.91786">
        <ele>2444.77</ele>
        <time>2021-07-05T08:59:20Z</time>
      </trkpt>
      <trkpt lat="42.57311" lon="1.91786">
        <ele>2444.29</ele>
        <time>2021-07-05T08:59:34Z</time>
      </trkpt>
      <trkpt lat="42.57311" lon="1.91786">
        <ele>2444.77</ele>
        <time>2021-07-05T08:59:50Z</time>
      </trkpt>
      <trkpt lat="42.57311" lon="1.91786">
        <ele>2444.29</ele>
        <time>2021-07-05T09:00:01Z</time>
      </trkpt>
      <trkpt lat="42.57311" lon="1.91787">
        <ele>2444.29</ele>
        <time>2021-07-05T09:00:02Z</time>
      </trkpt>
      <trkpt lat="42.57309" lon="1.91801">
        <ele>2445.73</ele>
        <time>2021-07-05T09:00:10Z</time>
      </trkpt>
      <trkpt lat="42.57306" lon="1.91818">
        <ele>2447.17</ele>
        <time>2021-07-05T09:00:20Z</time>
      </trkpt>
      <trkpt lat="42.57304" lon="1.91824">
        <ele>2447.17</ele>
        <time>2021-07-05T09:00:23Z</time>
      </trkpt>
      <trkpt lat="42.57299" lon="1.91836">
        <ele>2448.13</ele>
        <time>2021-07-05T09:00:30Z</time>
      </trkpt>
      <trkpt lat="42.57299" lon="1.91837">
        <ele>2448.13</ele>
        <time>2021-07-05T09:00:31Z</time>
      </trkpt>
      <trkpt lat="42.57297" lon="1.91842">
        <ele>2448.62</ele>
        <time>2021-07-05T09:00:34Z</time>
      </trkpt>
      <trkpt lat="42.57296" lon="1.91847">
        <ele>2449.1</ele>
        <time>2021-07-05T09:00:38Z</time>
      </trkpt>
      <trkpt lat="42.57289" lon="1.9186">
        <ele>2450.06</ele>
        <time>2021-07-05T09:00:47Z</time>
      </trkpt>
      <trkpt lat="42.57289" lon="1.91863">
        <ele>2450.06</ele>
        <time>2021-07-05T09:00:49Z</time>
      </trkpt>
      <trkpt lat="42.57281" lon="1.91874">
        <ele>2450.54</ele>
        <time>2021-07-05T09:00:57Z</time>
      </trkpt>
      <trkpt lat="42.57279" lon="1.91875">
        <ele>2450.54</ele>
        <time>2021-07-05T09:00:59Z</time>
      </trkpt>
      <trkpt lat="42.57273" lon="1.91879">
        <ele>2449.1</ele>
        <time>2021-07-05T09:01:04Z</time>
      </trkpt>
      <trkpt lat="42.57264" lon="1.91891">
        <ele>2448.13</ele>
        <time>2021-07-05T09:01:12Z</time>
      </trkpt>
      <trkpt lat="42.5726" lon="1.91899">
        <ele>2447.65</ele>
        <time>2021-07-05T09:01:17Z</time>
      </trkpt>
      <trkpt lat="42.57254" lon="1.91913">
        <ele>2447.65</ele>
        <time>2021-07-05T09:01:25Z</time>
      </trkpt>
      <trkpt lat="42.57249" lon="1.91924">
        <ele>2449.58</ele>
        <time>2021-07-05T09:01:32Z</time>
      </trkpt>
      <trkpt lat="42.57245" lon="1.9193">
        <ele>2450.06</ele>
        <time>2021-07-05T09:01:36Z</time>
      </trkpt>
      <trkpt lat="42.57244" lon="1.91935">
        <ele>2450.54</ele>
        <time>2021-07-05T09:01:40Z</time>
      </trkpt>
      <trkpt lat="42.57243" lon="1.9194">
        <ele>2451.5</ele>
        <time>2021-07-05T09:01:43Z</time>
      </trkpt>
      <trkpt lat="42.57238" lon="1.9195">
        <ele>2453.42</ele>
        <time>2021-07-05T09:01:51Z</time>
      </trkpt>
      <trkpt lat="42.57231" lon="1.91957">
        <ele>2454.38</ele>
        <time>2021-07-05T09:01:58Z</time>
      </trkpt>
      <trkpt lat="42.57225" lon="1.91967">
        <ele>2454.86</ele>
        <time>2021-07-05T09:02:06Z</time>
      </trkpt>
      <trkpt lat="42.57225" lon="1.91968">
        <ele>2455.34</ele>
        <time>2021-07-05T09:02:15Z</time>
      </trkpt>
      <trkpt lat="42.57225" lon="1.91968">
        <ele>2455.34</ele>
        <time>2021-07-05T09:02:16Z</time>
      </trkpt>
      <trkpt lat="42.57222" lon="1.91974">
        <ele>2454.86</ele>
        <time>2021-07-05T09:02:25Z</time>
      </trkpt>
      <trkpt lat="42.57218" lon="1.91986">
        <ele>2455.82</ele>
        <time>2021-07-05T09:02:33Z</time>
      </trkpt>
      <trkpt lat="42.57213" lon="1.91995">
        <ele>2454.86</ele>
        <time>2021-07-05T09:02:42Z</time>
      </trkpt>
      <trkpt lat="42.57212" lon="1.91998">
        <ele>2458.23</ele>
        <time>2021-07-05T09:02:44Z</time>
      </trkpt>
      <trkpt lat="42.57208" lon="1.92005">
        <ele>2458.23</ele>
        <time>2021-07-05T09:02:50Z</time>
      </trkpt>
      <trkpt lat="42.57204" lon="1.92011">
        <ele>2459.67</ele>
        <time>2021-07-05T09:02:57Z</time>
      </trkpt>
      <trkpt lat="42.57205" lon="1.92011">
        <ele>2460.15</ele>
        <time>2021-07-05T09:03:09Z</time>
      </trkpt>
      <trkpt lat="42.57206" lon="1.92011">
        <ele>2459.67</ele>
        <time>2021-07-05T09:03:30Z</time>
      </trkpt>
      <trkpt lat="42.57206" lon="1.92011">
        <ele>2460.15</ele>
        <time>2021-07-05T09:03:47Z</time>
      </trkpt>
      <trkpt lat="42.57207" lon="1.9201">
        <ele>2459.67</ele>
        <time>2021-07-05T09:04:05Z</time>
      </trkpt>
      <trkpt lat="42.57207" lon="1.9201">
        <ele>2461.11</ele>
        <time>2021-07-05T09:04:17Z</time>
      </trkpt>
      <trkpt lat="42.57207" lon="1.92011">
        <ele>2461.11</ele>
        <time>2021-07-05T09:04:35Z</time>
      </trkpt>
      <trkpt lat="42.57206" lon="1.92011">
        <ele>2460.15</ele>
        <time>2021-07-05T09:04:40Z</time>
      </trkpt>
      <trkpt lat="42.57203" lon="1.92013">
        <ele>2460.63</ele>
        <time>2021-07-05T09:04:42Z</time>
      </trkpt>
      <trkpt lat="42.57199" lon="1.92024">
        <ele>2460.63</ele>
        <time>2021-07-05T09:04:49Z</time>
      </trkpt>
      <trkpt lat="42.57199" lon="1.92029">
        <ele>2460.15</ele>
        <time>2021-07-05T09:04:54Z</time>
      </trkpt>
      <trkpt lat="42.57198" lon="1.92032">
        <ele>2459.67</ele>
        <time>2021-07-05T09:04:56Z</time>
      </trkpt>
      <trkpt lat="42.57197" lon="1.92045">
        <ele>2459.19</ele>
        <time>2021-07-05T09:05:04Z</time>
      </trkpt>
      <trkpt lat="42.57196" lon="1.92045">
        <ele>2459.67</ele>
        <time>2021-07-05T09:05:22Z</time>
      </trkpt>
      <trkpt lat="42.57196" lon="1.92049">
        <ele>2458.71</ele>
        <time>2021-07-05T09:05:25Z</time>
      </trkpt>
      <trkpt lat="42.57189" lon="1.92061">
        <ele>2457.75</ele>
        <time>2021-07-05T09:05:33Z</time>
      </trkpt>
      <trkpt lat="42.57186" lon="1.9207">
        <ele>2456.79</ele>
        <time>2021-07-05T09:05:38Z</time>
      </trkpt>
      <trkpt lat="42.57186" lon="1.92075">
        <ele>2456.79</ele>
        <time>2021-07-05T09:05:40Z</time>
      </trkpt>
      <trkpt lat="42.57187" lon="1.9209">
        <ele>2454.86</ele>
        <time>2021-07-05T09:05:47Z</time>
      </trkpt>
      <trkpt lat="42.5719" lon="1.92106">
        <ele>2453.9</ele>
        <time>2021-07-05T09:05:54Z</time>
      </trkpt>
      <trkpt lat="42.57189" lon="1.92115">
        <ele>2455.34</ele>
        <time>2021-07-05T09:06:00Z</time>
      </trkpt>
      <trkpt lat="42.57187" lon="1.92126">
        <ele>2455.82</ele>
        <time>2021-07-05T09:06:07Z</time>
      </trkpt>
      <trkpt lat="42.57185" lon="1.92138">
        <ele>2456.31</ele>
        <time>2021-07-05T09:06:14Z</time>
      </trkpt>
      <trkpt lat="42.57184" lon="1.92144">
        <ele>2457.27</ele>
        <time>2021-07-05T09:06:19Z</time>
      </trkpt>
      <trkpt lat="42.57185" lon="1.92149">
        <ele>2457.75</ele>
        <time>2021-07-05T09:06:22Z</time>
      </trkpt>
      <trkpt lat="42.57182" lon="1.92154">
        <ele>2459.19</ele>
        <time>2021-07-05T09:06:29Z</time>
      </trkpt>
      <trkpt lat="42.5718" lon="1.92156">
        <ele>2459.67</ele>
        <time>2021-07-05T09:06:31Z</time>
      </trkpt>
      <trkpt lat="42.57175" lon="1.92161">
        <ele>2461.11</ele>
        <time>2021-07-05T09:06:39Z</time>
      </trkpt>
      <trkpt lat="42.57172" lon="1.92166">
        <ele>2462.55</ele>
        <time>2021-07-05T09:06:45Z</time>
      </trkpt>
      <trkpt lat="42.57167" lon="1.92171">
        <ele>2464</ele>
        <time>2021-07-05T09:06:53Z</time>
      </trkpt>
      <trkpt lat="42.57165" lon="1.92175">
        <ele>2465.92</ele>
        <time>2021-07-05T09:07:00Z</time>
      </trkpt>
      <trkpt lat="42.57165" lon="1.92176">
        <ele>2465.92</ele>
        <time>2021-07-05T09:07:09Z</time>
      </trkpt>
      <trkpt lat="42.57164" lon="1.92181">
        <ele>2466.4</ele>
        <time>2021-07-05T09:07:16Z</time>
      </trkpt>
      <trkpt lat="42.57166" lon="1.92183">
        <ele>2466.88</ele>
        <time>2021-07-05T09:07:22Z</time>
      </trkpt>
      <trkpt lat="42.57168" lon="1.9219">
        <ele>2468.32</ele>
        <time>2021-07-05T09:07:29Z</time>
      </trkpt>
      <trkpt lat="42.57168" lon="1.92195">
        <ele>2469.76</ele>
        <time>2021-07-05T09:07:36Z</time>
      </trkpt>
      <trkpt lat="42.57169" lon="1.92202">
        <ele>2471.21</ele>
        <time>2021-07-05T09:07:43Z</time>
      </trkpt>
      <trkpt lat="42.57166" lon="1.9221">
        <ele>2473.13</ele>
        <time>2021-07-05T09:07:51Z</time>
      </trkpt>
      <trkpt lat="42.57164" lon="1.92215">
        <ele>2474.09</ele>
        <time>2021-07-05T09:07:57Z</time>
      </trkpt>
      <trkpt lat="42.57163" lon="1.9222">
        <ele>2474.57</ele>
        <time>2021-07-05T09:08:03Z</time>
      </trkpt>
      <trkpt lat="42.57161" lon="1.92225">
        <ele>2476.01</ele>
        <time>2021-07-05T09:08:09Z</time>
      </trkpt>
      <trkpt lat="42.57162" lon="1.92229">
        <ele>2476.97</ele>
        <time>2021-07-05T09:08:15Z</time>
      </trkpt>
      <trkpt lat="42.57166" lon="1.92233">
        <ele>2478.42</ele>
        <time>2021-07-05T09:08:23Z</time>
      </trkpt>
      <trkpt lat="42.57167" lon="1.92237">
        <ele>2479.86</ele>
        <time>2021-07-05T09:08:32Z</time>
      </trkpt>
      <trkpt lat="42.57166" lon="1.92242">
        <ele>2481.78</ele>
        <time>2021-07-05T09:08:39Z</time>
      </trkpt>
      <trkpt lat="42.57165" lon="1.92245">
        <ele>2481.3</ele>
        <time>2021-07-05T09:08:47Z</time>
      </trkpt>
      <trkpt lat="42.57166" lon="1.92247">
        <ele>2484.66</ele>
        <time>2021-07-05T09:08:49Z</time>
      </trkpt>
      <trkpt lat="42.57167" lon="1.92249">
        <ele>2483.22</ele>
        <time>2021-07-05T09:08:52Z</time>
      </trkpt>
      <trkpt lat="42.57168" lon="1.92255">
        <ele>2486.11</ele>
        <time>2021-07-05T09:08:59Z</time>
      </trkpt>
      <trkpt lat="42.57167" lon="1.92263">
        <ele>2487.07</ele>
        <time>2021-07-05T09:09:07Z</time>
      </trkpt>
      <trkpt lat="42.57168" lon="1.92268">
        <ele>2488.99</ele>
        <time>2021-07-05T09:09:15Z</time>
      </trkpt>
      <trkpt lat="42.57167" lon="1.92272">
        <ele>2489.47</ele>
        <time>2021-07-05T09:09:21Z</time>
      </trkpt>
      <trkpt lat="42.57163" lon="1.92276">
        <ele>2490.43</ele>
        <time>2021-07-05T09:09:29Z</time>
      </trkpt>
      <trkpt lat="42.57163" lon="1.92276">
        <ele>2490.43</ele>
        <time>2021-07-05T09:09:30Z</time>
      </trkpt>
      <trkpt lat="42.57162" lon="1.92279">
        <ele>2487.55</ele>
        <time>2021-07-05T09:09:34Z</time>
      </trkpt>
      <trkpt lat="42.57158" lon="1.92287">
        <ele>2490.91</ele>
        <time>2021-07-05T09:09:42Z</time>
      </trkpt>
      <trkpt lat="42.57154" lon="1.92296">
        <ele>2492.36</ele>
        <time>2021-07-05T09:09:51Z</time>
      </trkpt>
      <trkpt lat="42.57152" lon="1.92308">
        <ele>2495.24</ele>
        <time>2021-07-05T09:10:00Z</time>
      </trkpt>
      <trkpt lat="42.57151" lon="1.9231">
        <ele>2496.2</ele>
        <time>2021-07-05T09:10:08Z</time>
      </trkpt>
      <trkpt lat="42.57153" lon="1.92314">
        <ele>2497.16</ele>
        <time>2021-07-05T09:10:15Z</time>
      </trkpt>
      <trkpt lat="42.57153" lon="1.9232">
        <ele>2498.12</ele>
        <time>2021-07-05T09:10:23Z</time>
      </trkpt>
      <trkpt lat="42.57152" lon="1.92327">
        <ele>2500.05</ele>
        <time>2021-07-05T09:10:31Z</time>
      </trkpt>
      <trkpt lat="42.57151" lon="1.92335">
        <ele>2502.45</ele>
        <time>2021-07-05T09:10:40Z</time>
      </trkpt>
      <trkpt lat="42.57153" lon="1.92345">
        <ele>2503.89</ele>
        <time>2021-07-05T09:10:48Z</time>
      </trkpt>
      <trkpt lat="42.57153" lon="1.92349">
        <ele>2504.85</ele>
        <time>2021-07-05T09:10:55Z</time>
      </trkpt>
      <trkpt lat="42.57151" lon="1.9235">
        <ele>2498.6</ele>
        <time>2021-07-05T09:11:03Z</time>
      </trkpt>
      <trkpt lat="42.57151" lon="1.9235">
        <ele>2508.7</ele>
        <time>2021-07-05T09:11:04Z</time>
      </trkpt>
      <trkpt lat="42.57151" lon="1.9235">
        <ele>2508.7</ele>
        <time>2021-07-05T09:11:05Z</time>
      </trkpt>
      <trkpt lat="42.57151" lon="1.9235">
        <ele>2505.81</ele>
        <time>2021-07-05T09:11:06Z</time>
      </trkpt>
      <trkpt lat="42.5715" lon="1.9235">
        <ele>2505.33</ele>
        <time>2021-07-05T09:11:07Z</time>
      </trkpt>
      <trkpt lat="42.5715" lon="1.92351">
        <ele>2505.33</ele>
        <time>2021-07-05T09:11:17Z</time>
      </trkpt>
      <trkpt lat="42.57148" lon="1.92359">
        <ele>2506.29</ele>
        <time>2021-07-05T09:11:25Z</time>
      </trkpt>
      <trkpt lat="42.5715" lon="1.92368">
        <ele>2508.22</ele>
        <time>2021-07-05T09:11:33Z</time>
      </trkpt>
      <trkpt lat="42.57151" lon="1.92376">
        <ele>2510.14</ele>
        <time>2021-07-05T09:11:42Z</time>
      </trkpt>
      <trkpt lat="42.57152" lon="1.9238">
        <ele>2511.1</ele>
        <time>2021-07-05T09:11:49Z</time>
      </trkpt>
      <trkpt lat="42.57157" lon="1.92386">
        <ele>2512.06</ele>
        <time>2021-07-05T09:11:55Z</time>
      </trkpt>
      <trkpt lat="42.57157" lon="1.92387">
        <ele>2512.06</ele>
        <time>2021-07-05T09:11:57Z</time>
      </trkpt>
      <trkpt lat="42.57158" lon="1.92399">
        <ele>2513.02</ele>
        <time>2021-07-05T09:12:05Z</time>
      </trkpt>
      <trkpt lat="42.57157" lon="1.92408">
        <ele>2514.47</ele>
        <time>2021-07-05T09:12:12Z</time>
      </trkpt>
      <trkpt lat="42.5716" lon="1.92419">
        <ele>2513.5</ele>
        <time>2021-07-05T09:12:20Z</time>
      </trkpt>
      <trkpt lat="42.57161" lon="1.92427">
        <ele>2514.47</ele>
        <time>2021-07-05T09:12:27Z</time>
      </trkpt>
      <trkpt lat="42.57161" lon="1.92429">
        <ele>2514.95</ele>
        <time>2021-07-05T09:12:38Z</time>
      </trkpt>
      <trkpt lat="42.5716" lon="1.92433">
        <ele>2514.47</ele>
        <time>2021-07-05T09:12:46Z</time>
      </trkpt>
      <trkpt lat="42.5716" lon="1.92434">
        <ele>2514.47</ele>
        <time>2021-07-05T09:12:54Z</time>
      </trkpt>
      <trkpt lat="42.5716" lon="1.92433">
        <ele>2512.54</ele>
        <time>2021-07-05T09:13:10Z</time>
      </trkpt>
      <trkpt lat="42.5716" lon="1.92433">
        <ele>2513.98</ele>
        <time>2021-07-05T09:13:20Z</time>
      </trkpt>
      <trkpt lat="42.57159" lon="1.92433">
        <ele>2514.47</ele>
        <time>2021-07-05T09:13:38Z</time>
      </trkpt>
      <trkpt lat="42.57159" lon="1.92434">
        <ele>2513.98</ele>
        <time>2021-07-05T09:13:51Z</time>
      </trkpt>
      <trkpt lat="42.5716" lon="1.92435">
        <ele>2514.47</ele>
        <time>2021-07-05T09:14:09Z</time>
      </trkpt>
      <trkpt lat="42.57159" lon="1.92436">
        <ele>2514.47</ele>
        <time>2021-07-05T09:14:23Z</time>
      </trkpt>
      <trkpt lat="42.5716" lon="1.92444">
        <ele>2512.54</ele>
        <time>2021-07-05T09:14:30Z</time>
      </trkpt>
      <trkpt lat="42.57162" lon="1.92457">
        <ele>2513.5</ele>
        <time>2021-07-05T09:14:37Z</time>
      </trkpt>
      <trkpt lat="42.57163" lon="1.92464">
        <ele>2514.95</ele>
        <time>2021-07-05T09:14:42Z</time>
      </trkpt>
      <trkpt lat="42.57167" lon="1.92471">
        <ele>2516.39</ele>
        <time>2021-07-05T09:14:49Z</time>
      </trkpt>
      <trkpt lat="42.57173" lon="1.92475">
        <ele>2517.83</ele>
        <time>2021-07-05T09:14:56Z</time>
      </trkpt>
      <trkpt lat="42.57176" lon="1.92481">
        <ele>2517.83</ele>
        <time>2021-07-05T09:15:03Z</time>
      </trkpt>
      <trkpt lat="42.57173" lon="1.92489">
        <ele>2518.79</ele>
        <time>2021-07-05T09:15:12Z</time>
      </trkpt>
      <trkpt lat="42.57173" lon="1.92491">
        <ele>2520.23</ele>
        <time>2021-07-05T09:15:14Z</time>
      </trkpt>
      <trkpt lat="42.57173" lon="1.92492">
        <ele>2517.35</ele>
        <time>2021-07-05T09:15:16Z</time>
      </trkpt>
      <trkpt lat="42.5717" lon="1.92497">
        <ele>2519.27</ele>
        <time>2021-07-05T09:15:23Z</time>
      </trkpt>
      <trkpt lat="42.5717" lon="1.92499">
        <ele>2522.64</ele>
        <time>2021-07-05T09:15:28Z</time>
      </trkpt>
      <trkpt lat="42.5717" lon="1.92507">
        <ele>2523.6</ele>
        <time>2021-07-05T09:15:35Z</time>
      </trkpt>
      <trkpt lat="42.57174" lon="1.92512">
        <ele>2526</ele>
        <time>2021-07-05T09:15:43Z</time>
      </trkpt>
      <trkpt lat="42.57176" lon="1.92517">
        <ele>2527.44</ele>
        <time>2021-07-05T09:15:50Z</time>
      </trkpt>
      <trkpt lat="42.57178" lon="1.92523">
        <ele>2528.4</ele>
        <time>2021-07-05T09:15:56Z</time>
      </trkpt>
      <trkpt lat="42.57178" lon="1.92529">
        <ele>2528.89</ele>
        <time>2021-07-05T09:16:04Z</time>
      </trkpt>
      <trkpt lat="42.57178" lon="1.92532">
        <ele>2530.81</ele>
        <time>2021-07-05T09:16:09Z</time>
      </trkpt>
      <trkpt lat="42.57178" lon="1.92535">
        <ele>2532.73</ele>
        <time>2021-07-05T09:16:16Z</time>
      </trkpt>
      <trkpt lat="42.57179" lon="1.92538">
        <ele>2533.21</ele>
        <time>2021-07-05T09:16:23Z</time>
      </trkpt>
      <trkpt lat="42.57181" lon="1.92543">
        <ele>2535.61</ele>
        <time>2021-07-05T09:16:31Z</time>
      </trkpt>
      <trkpt lat="42.57185" lon="1.92546">
        <ele>2535.61</ele>
        <time>2021-07-05T09:16:37Z</time>
      </trkpt>
      <trkpt lat="42.5718" lon="1.92552">
        <ele>2537.06</ele>
        <time>2021-07-05T09:16:46Z</time>
      </trkpt>
      <trkpt lat="42.57179" lon="1.92555">
        <ele>2538.98</ele>
        <time>2021-07-05T09:16:55Z</time>
      </trkpt>
      <trkpt lat="42.5718" lon="1.9256">
        <ele>2540.42</ele>
        <time>2021-07-05T09:17:01Z</time>
      </trkpt>
      <trkpt lat="42.57179" lon="1.92563">
        <ele>2540.9</ele>
        <time>2021-07-05T09:17:07Z</time>
      </trkpt>
      <trkpt lat="42.57181" lon="1.92563">
        <ele>2542.82</ele>
        <time>2021-07-05T09:17:14Z</time>
      </trkpt>
      <trkpt lat="42.57183" lon="1.92569">
        <ele>2543.31</ele>
        <time>2021-07-05T09:17:21Z</time>
      </trkpt>
      <trkpt lat="42.57187" lon="1.92573">
        <ele>2544.75</ele>
        <time>2021-07-05T09:17:27Z</time>
      </trkpt>
      <trkpt lat="42.57187" lon="1.92575">
        <ele>2544.27</ele>
        <time>2021-07-05T09:17:29Z</time>
      </trkpt>
      <trkpt lat="42.57188" lon="1.92581">
        <ele>2545.71</ele>
        <time>2021-07-05T09:17:35Z</time>
      </trkpt>
      <trkpt lat="42.57189" lon="1.92583">
        <ele>2547.15</ele>
        <time>2021-07-05T09:17:39Z</time>
      </trkpt>
      <trkpt lat="42.5719" lon="1.92585">
        <ele>2547.63</ele>
        <time>2021-07-05T09:17:43Z</time>
      </trkpt>
      <trkpt lat="42.5719" lon="1.9259">
        <ele>2548.59</ele>
        <time>2021-07-05T09:17:48Z</time>
      </trkpt>
      <trkpt lat="42.57191" lon="1.92594">
        <ele>2550.51</ele>
        <time>2021-07-05T09:17:55Z</time>
      </trkpt>
      <trkpt lat="42.57192" lon="1.92595">
        <ele>2551.48</ele>
        <time>2021-07-05T09:18:00Z</time>
      </trkpt>
      <trkpt lat="42.57193" lon="1.92597">
        <ele>2552.44</ele>
        <time>2021-07-05T09:18:07Z</time>
      </trkpt>
      <trkpt lat="42.57195" lon="1.92601">
        <ele>2553.88</ele>
        <time>2021-07-05T09:18:13Z</time>
      </trkpt>
      <trkpt lat="42.57197" lon="1.92608">
        <ele>2555.32</ele>
        <time>2021-07-05T09:18:20Z</time>
      </trkpt>
      <trkpt lat="42.57198" lon="1.92612">
        <ele>2555.8</ele>
        <time>2021-07-05T09:18:27Z</time>
      </trkpt>
      <trkpt lat="42.57193" lon="1.92613">
        <ele>2557.73</ele>
        <time>2021-07-05T09:18:34Z</time>
      </trkpt>
      <trkpt lat="42.57193" lon="1.92617">
        <ele>2558.69</ele>
        <time>2021-07-05T09:18:39Z</time>
      </trkpt>
      <trkpt lat="42.57192" lon="1.92618">
        <ele>2558.21</ele>
        <time>2021-07-05T09:18:45Z</time>
      </trkpt>
      <trkpt lat="42.5719" lon="1.9262">
        <ele>2559.17</ele>
        <time>2021-07-05T09:18:51Z</time>
      </trkpt>
      <trkpt lat="42.57187" lon="1.92621">
        <ele>2561.09</ele>
        <time>2021-07-05T09:18:58Z</time>
      </trkpt>
      <trkpt lat="42.57186" lon="1.92623">
        <ele>2563.01</ele>
        <time>2021-07-05T09:19:03Z</time>
      </trkpt>
      <trkpt lat="42.57186" lon="1.9263">
        <ele>2563.01</ele>
        <time>2021-07-05T09:19:10Z</time>
      </trkpt>
      <trkpt lat="42.57184" lon="1.92631">
        <ele>2563.01</ele>
        <time>2021-07-05T09:19:18Z</time>
      </trkpt>
      <trkpt lat="42.57184" lon="1.92633">
        <ele>2566.38</ele>
        <time>2021-07-05T09:19:20Z</time>
      </trkpt>
      <trkpt lat="42.57184" lon="1.92635">
        <ele>2564.45</ele>
        <time>2021-07-05T09:19:24Z</time>
      </trkpt>
      <trkpt lat="42.57183" lon="1.92639">
        <ele>2567.34</ele>
        <time>2021-07-05T09:19:32Z</time>
      </trkpt>
      <trkpt lat="42.57184" lon="1.92641">
        <ele>2567.82</ele>
        <time>2021-07-05T09:19:34Z</time>
      </trkpt>
      <trkpt lat="42.57186" lon="1.92645">
        <ele>2569.74</ele>
        <time>2021-07-05T09:19:42Z</time>
      </trkpt>
      <trkpt lat="42.57188" lon="1.92649">
        <ele>2570.22</ele>
        <time>2021-07-05T09:19:50Z</time>
      </trkpt>
      <trkpt lat="42.57188" lon="1.92649">
        <ele>2570.22</ele>
        <time>2021-07-05T09:19:51Z</time>
      </trkpt>
      <trkpt lat="42.57192" lon="1.92648">
        <ele>2570.22</ele>
        <time>2021-07-05T09:19:58Z</time>
      </trkpt>
      <trkpt lat="42.57196" lon="1.9265">
        <ele>2570.22</ele>
        <time>2021-07-05T09:20:08Z</time>
      </trkpt>
      <trkpt lat="42.57192" lon="1.92653">
        <ele>2572.14</ele>
        <time>2021-07-05T09:20:15Z</time>
      </trkpt>
      <trkpt lat="42.5719" lon="1.92658">
        <ele>2573.59</ele>
        <time>2021-07-05T09:20:24Z</time>
      </trkpt>
      <trkpt lat="42.57189" lon="1.92662">
        <ele>2575.03</ele>
        <time>2021-07-05T09:20:29Z</time>
      </trkpt>
      <trkpt lat="42.57188" lon="1.92663">
        <ele>2576.47</ele>
        <time>2021-07-05T09:20:36Z</time>
      </trkpt>
      <trkpt lat="42.57185" lon="1.92668">
        <ele>2578.87</ele>
        <time>2021-07-05T09:20:44Z</time>
      </trkpt>
      <trkpt lat="42.57182" lon="1.92671">
        <ele>2580.8</ele>
        <time>2021-07-05T09:20:54Z</time>
      </trkpt>
      <trkpt lat="42.57181" lon="1.92676">
        <ele>2582.24</ele>
        <time>2021-07-05T09:21:01Z</time>
      </trkpt>
      <trkpt lat="42.57182" lon="1.92678">
        <ele>2583.68</ele>
        <time>2021-07-05T09:21:07Z</time>
      </trkpt>
      <trkpt lat="42.57186" lon="1.92681">
        <ele>2584.64</ele>
        <time>2021-07-05T09:21:14Z</time>
      </trkpt>
      <trkpt lat="42.57189" lon="1.92683">
        <ele>2586.56</ele>
        <time>2021-07-05T09:21:21Z</time>
      </trkpt>
      <trkpt lat="42.57188" lon="1.92685">
        <ele>2588.01</ele>
        <time>2021-07-05T09:21:28Z</time>
      </trkpt>
      <trkpt lat="42.57187" lon="1.92684">
        <ele>2589.45</ele>
        <time>2021-07-05T09:21:37Z</time>
      </trkpt>
      <trkpt lat="42.57187" lon="1.92685">
        <ele>2588.49</ele>
        <time>2021-07-05T09:21:54Z</time>
      </trkpt>
      <trkpt lat="42.57187" lon="1.92685">
        <ele>2589.45</ele>
        <time>2021-07-05T09:22:04Z</time>
      </trkpt>
      <trkpt lat="42.57186" lon="1.92686">
        <ele>2589.93</ele>
        <time>2021-07-05T09:22:15Z</time>
      </trkpt>
      <trkpt lat="42.57183" lon="1.92689">
        <ele>2592.81</ele>
        <time>2021-07-05T09:22:23Z</time>
      </trkpt>
      <trkpt lat="42.57183" lon="1.92689">
        <ele>2592.81</ele>
        <time>2021-07-05T09:22:24Z</time>
      </trkpt>
      <trkpt lat="42.57183" lon="1.92693">
        <ele>2594.74</ele>
        <time>2021-07-05T09:22:33Z</time>
      </trkpt>
      <trkpt lat="42.5718" lon="1.92693">
        <ele>2595.7</ele>
        <time>2021-07-05T09:22:41Z</time>
      </trkpt>
      <trkpt lat="42.57176" lon="1.92697">
        <ele>2597.62</ele>
        <time>2021-07-05T09:22:48Z</time>
      </trkpt>
      <trkpt lat="42.57175" lon="1.92702">
        <ele>2598.1</ele>
        <time>2021-07-05T09:22:55Z</time>
      </trkpt>
      <trkpt lat="42.57177" lon="1.92704">
        <ele>2599.54</ele>
        <time>2021-07-05T09:23:04Z</time>
      </trkpt>
      <trkpt lat="42.57177" lon="1.92708">
        <ele>2600.98</ele>
        <time>2021-07-05T09:23:10Z</time>
      </trkpt>
      <trkpt lat="42.57178" lon="1.92712">
        <ele>2602.43</ele>
        <time>2021-07-05T09:23:19Z</time>
      </trkpt>
      <trkpt lat="42.57176" lon="1.92715">
        <ele>2603.87</ele>
        <time>2021-07-05T09:23:28Z</time>
      </trkpt>
      <trkpt lat="42.57177" lon="1.92718">
        <ele>2605.31</ele>
        <time>2021-07-05T09:23:36Z</time>
      </trkpt>
      <trkpt lat="42.5718" lon="1.92721">
        <ele>2606.75</ele>
        <time>2021-07-05T09:23:44Z</time>
      </trkpt>
      <trkpt lat="42.5718" lon="1.92722">
        <ele>2607.71</ele>
        <time>2021-07-05T09:23:49Z</time>
      </trkpt>
      <trkpt lat="42.57183" lon="1.92723">
        <ele>2609.16</ele>
        <time>2021-07-05T09:23:56Z</time>
      </trkpt>
      <trkpt lat="42.57183" lon="1.92723">
        <ele>2610.12</ele>
        <time>2021-07-05T09:24:04Z</time>
      </trkpt>
      <trkpt lat="42.5718" lon="1.92725">
        <ele>2611.08</ele>
        <time>2021-07-05T09:24:13Z</time>
      </trkpt>
      <trkpt lat="42.57178" lon="1.92729">
        <ele>2613.48</ele>
        <time>2021-07-05T09:24:22Z</time>
      </trkpt>
      <trkpt lat="42.57177" lon="1.92732">
        <ele>2614.92</ele>
        <time>2021-07-05T09:24:30Z</time>
      </trkpt>
      <trkpt lat="42.57176" lon="1.92734">
        <ele>2616.85</ele>
        <time>2021-07-05T09:24:40Z</time>
      </trkpt>
      <trkpt lat="42.57177" lon="1.92737">
        <ele>2617.81</ele>
        <time>2021-07-05T09:24:46Z</time>
      </trkpt>
      <trkpt lat="42.57178" lon="1.92739">
        <ele>2619.25</ele>
        <time>2021-07-05T09:24:52Z</time>
      </trkpt>
      <trkpt lat="42.57178" lon="1.9274">
        <ele>2620.69</ele>
        <time>2021-07-05T09:24:58Z</time>
      </trkpt>
      <trkpt lat="42.57178" lon="1.92742">
        <ele>2622.13</ele>
        <time>2021-07-05T09:25:06Z</time>
      </trkpt>
      <trkpt lat="42.57176" lon="1.92745">
        <ele>2623.09</ele>
        <time>2021-07-05T09:25:14Z</time>
      </trkpt>
      <trkpt lat="42.57173" lon="1.92747">
        <ele>2625.5</ele>
        <time>2021-07-05T09:25:22Z</time>
      </trkpt>
      <trkpt lat="42.57171" lon="1.92751">
        <ele>2626.46</ele>
        <time>2021-07-05T09:25:30Z</time>
      </trkpt>
      <trkpt lat="42.57171" lon="1.92754">
        <ele>2627.9</ele>
        <time>2021-07-05T09:25:36Z</time>
      </trkpt>
      <trkpt lat="42.57172" lon="1.92758">
        <ele>2628.86</ele>
        <time>2021-07-05T09:25:43Z</time>
      </trkpt>
      <trkpt lat="42.57173" lon="1.92761">
        <ele>2630.3</ele>
        <time>2021-07-05T09:25:51Z</time>
      </trkpt>
      <trkpt lat="42.57172" lon="1.92762">
        <ele>2630.3</ele>
        <time>2021-07-05T09:26:00Z</time>
      </trkpt>
      <trkpt lat="42.57173" lon="1.92764">
        <ele>2632.71</ele>
        <time>2021-07-05T09:26:07Z</time>
      </trkpt>
      <trkpt lat="42.57172" lon="1.92767">
        <ele>2634.15</ele>
        <time>2021-07-05T09:26:14Z</time>
      </trkpt>
      <trkpt lat="42.57172" lon="1.92769">
        <ele>2634.63</ele>
        <time>2021-07-05T09:26:21Z</time>
      </trkpt>
      <trkpt lat="42.57174" lon="1.92772">
        <ele>2636.07</ele>
        <time>2021-07-05T09:26:29Z</time>
      </trkpt>
      <trkpt lat="42.57173" lon="1.92775">
        <ele>2637.99</ele>
        <time>2021-07-05T09:26:36Z</time>
      </trkpt>
      <trkpt lat="42.57173" lon="1.92775">
        <ele>2639.92</ele>
        <time>2021-07-05T09:26:42Z</time>
      </trkpt>
      <trkpt lat="42.57172" lon="1.92778">
        <ele>2640.88</ele>
        <time>2021-07-05T09:26:49Z</time>
      </trkpt>
      <trkpt lat="42.57172" lon="1.92779">
        <ele>2641.36</ele>
        <time>2021-07-05T09:26:56Z</time>
      </trkpt>
      <trkpt lat="42.57174" lon="1.92783">
        <ele>2642.8</ele>
        <time>2021-07-05T09:27:05Z</time>
      </trkpt>
      <trkpt lat="42.57173" lon="1.92786">
        <ele>2644.24</ele>
        <time>2021-07-05T09:27:12Z</time>
      </trkpt>
      <trkpt lat="42.57172" lon="1.92789">
        <ele>2645.69</ele>
        <time>2021-07-05T09:27:19Z</time>
      </trkpt>
      <trkpt lat="42.5717" lon="1.92791">
        <ele>2648.57</ele>
        <time>2021-07-05T09:27:28Z</time>
      </trkpt>
      <trkpt lat="42.57168" lon="1.92795">
        <ele>2649.53</ele>
        <time>2021-07-05T09:27:37Z</time>
      </trkpt>
      <trkpt lat="42.57167" lon="1.92796">
        <ele>2650.01</ele>
        <time>2021-07-05T09:27:46Z</time>
      </trkpt>
      <trkpt lat="42.57167" lon="1.92797">
        <ele>2640.88</ele>
        <time>2021-07-05T09:27:51Z</time>
      </trkpt>
      <trkpt lat="42.57167" lon="1.92797">
        <ele>2656.74</ele>
        <time>2021-07-05T09:27:52Z</time>
      </trkpt>
      <trkpt lat="42.57167" lon="1.92797">
        <ele>2650.01</ele>
        <time>2021-07-05T09:27:53Z</time>
      </trkpt>
      <trkpt lat="42.57167" lon="1.92798">
        <ele>2649.53</ele>
        <time>2021-07-05T09:28:04Z</time>
      </trkpt>
      <trkpt lat="42.57165" lon="1.92803">
        <ele>2650.97</ele>
        <time>2021-07-05T09:28:11Z</time>
      </trkpt>
      <trkpt lat="42.57164" lon="1.92803">
        <ele>2651.45</ele>
        <time>2021-07-05T09:28:13Z</time>
      </trkpt>
      <trkpt lat="42.57163" lon="1.92805">
        <ele>2652.9</ele>
        <time>2021-07-05T09:28:19Z</time>
      </trkpt>
      <trkpt lat="42.5716" lon="1.92809">
        <ele>2653.86</ele>
        <time>2021-07-05T09:28:25Z</time>
      </trkpt>
      <trkpt lat="42.57161" lon="1.9281">
        <ele>2655.78</ele>
        <time>2021-07-05T09:28:31Z</time>
      </trkpt>
      <trkpt lat="42.57162" lon="1.92812">
        <ele>2657.22</ele>
        <time>2021-07-05T09:28:38Z</time>
      </trkpt>
      <trkpt lat="42.57162" lon="1.92814">
        <ele>2658.18</ele>
        <time>2021-07-05T09:28:45Z</time>
      </trkpt>
      <trkpt lat="42.57161" lon="1.92815">
        <ele>2659.14</ele>
        <time>2021-07-05T09:28:52Z</time>
      </trkpt>
      <trkpt lat="42.57161" lon="1.92818">
        <ele>2660.59</ele>
        <time>2021-07-05T09:28:58Z</time>
      </trkpt>
      <trkpt lat="42.5716" lon="1.92821">
        <ele>2661.07</ele>
        <time>2021-07-05T09:29:04Z</time>
      </trkpt>
      <trkpt lat="42.5716" lon="1.92826">
        <ele>2662.51</ele>
        <time>2021-07-05T09:29:11Z</time>
      </trkpt>
      <trkpt lat="42.57161" lon="1.92827">
        <ele>2664.43</ele>
        <time>2021-07-05T09:29:20Z</time>
      </trkpt>
      <trkpt lat="42.57162" lon="1.92828">
        <ele>2665.39</ele>
        <time>2021-07-05T09:29:26Z</time>
      </trkpt>
      <trkpt lat="42.57163" lon="1.92829">
        <ele>2666.83</ele>
        <time>2021-07-05T09:29:33Z</time>
      </trkpt>
      <trkpt lat="42.57165" lon="1.9283">
        <ele>2668.28</ele>
        <time>2021-07-05T09:29:40Z</time>
      </trkpt>
      <trkpt lat="42.57168" lon="1.92833">
        <ele>2669.24</ele>
        <time>2021-07-05T09:29:47Z</time>
      </trkpt>
      <trkpt lat="42.57168" lon="1.92836">
        <ele>2670.2</ele>
        <time>2021-07-05T09:29:54Z</time>
      </trkpt>
      <trkpt lat="42.57168" lon="1.92837">
        <ele>2671.64</ele>
        <time>2021-07-05T09:30:02Z</time>
      </trkpt>
      <trkpt lat="42.5717" lon="1.9284">
        <ele>2673.08</ele>
        <time>2021-07-05T09:30:09Z</time>
      </trkpt>
      <trkpt lat="42.57174" lon="1.9284">
        <ele>2673.56</ele>
        <time>2021-07-05T09:30:11Z</time>
      </trkpt>
      <trkpt lat="42.57174" lon="1.92842">
        <ele>2674.52</ele>
        <time>2021-07-05T09:30:23Z</time>
      </trkpt>
      <trkpt lat="42.57174" lon="1.92845">
        <ele>2675.49</ele>
        <time>2021-07-05T09:30:30Z</time>
      </trkpt>
      <trkpt lat="42.57173" lon="1.92847">
        <ele>2676.93</ele>
        <time>2021-07-05T09:30:37Z</time>
      </trkpt>
      <trkpt lat="42.57171" lon="1.92848">
        <ele>2678.37</ele>
        <time>2021-07-05T09:30:44Z</time>
      </trkpt>
      <trkpt lat="42.57171" lon="1.92851">
        <ele>2679.81</ele>
        <time>2021-07-05T09:30:51Z</time>
      </trkpt>
      <trkpt lat="42.57174" lon="1.92854">
        <ele>2681.25</ele>
        <time>2021-07-05T09:30:57Z</time>
      </trkpt>
      <trkpt lat="42.57176" lon="1.92858">
        <ele>2682.22</ele>
        <time>2021-07-05T09:31:04Z</time>
      </trkpt>
      <trkpt lat="42.57174" lon="1.9286">
        <ele>2683.66</ele>
        <time>2021-07-05T09:31:13Z</time>
      </trkpt>
      <trkpt lat="42.57172" lon="1.92863">
        <ele>2684.14</ele>
        <time>2021-07-05T09:31:18Z</time>
      </trkpt>
      <trkpt lat="42.57167" lon="1.92865">
        <ele>2686.06</ele>
        <time>2021-07-05T09:31:25Z</time>
      </trkpt>
      <trkpt lat="42.57165" lon="1.92865">
        <ele>2687.5</ele>
        <time>2021-07-05T09:31:33Z</time>
      </trkpt>
      <trkpt lat="42.57165" lon="1.92866">
        <ele>2687.98</ele>
        <time>2021-07-05T09:31:37Z</time>
      </trkpt>
      <trkpt lat="42.57162" lon="1.92866">
        <ele>2688.94</ele>
        <time>2021-07-05T09:31:45Z</time>
      </trkpt>
      <trkpt lat="42.57161" lon="1.92864">
        <ele>2688.46</ele>
        <time>2021-07-05T09:31:55Z</time>
      </trkpt>
      <trkpt lat="42.57161" lon="1.92865">
        <ele>2688.46</ele>
        <time>2021-07-05T09:32:07Z</time>
      </trkpt>
      <trkpt lat="42.57161" lon="1.92865">
        <ele>2688.94</ele>
        <time>2021-07-05T09:32:21Z</time>
      </trkpt>
      <trkpt lat="42.57161" lon="1.92866">
        <ele>2688.94</ele>
        <time>2021-07-05T09:32:31Z</time>
      </trkpt>
      <trkpt lat="42.57161" lon="1.92865">
        <ele>2688.46</ele>
        <time>2021-07-05T09:32:42Z</time>
      </trkpt>
      <trkpt lat="42.57161" lon="1.92866">
        <ele>2688.46</ele>
        <time>2021-07-05T09:32:51Z</time>
      </trkpt>
      <trkpt lat="42.57163" lon="1.92869">
        <ele>2689.91</ele>
        <time>2021-07-05T09:32:58Z</time>
      </trkpt>
      <trkpt lat="42.57162" lon="1.9287">
        <ele>2689.91</ele>
        <time>2021-07-05T09:33:04Z</time>
      </trkpt>
      <trkpt lat="42.57161" lon="1.92873">
        <ele>2691.83</ele>
        <time>2021-07-05T09:33:11Z</time>
      </trkpt>
      <trkpt lat="42.5716" lon="1.92874">
        <ele>2693.27</ele>
        <time>2021-07-05T09:33:18Z</time>
      </trkpt>
      <trkpt lat="42.57161" lon="1.92876">
        <ele>2694.23</ele>
        <time>2021-07-05T09:33:24Z</time>
      </trkpt>
      <trkpt lat="42.57161" lon="1.92876">
        <ele>2695.19</ele>
        <time>2021-07-05T09:33:36Z</time>
      </trkpt>
      <trkpt lat="42.57159" lon="1.92877">
        <ele>2697.12</ele>
        <time>2021-07-05T09:33:46Z</time>
      </trkpt>
      <trkpt lat="42.57158" lon="1.92878">
        <ele>2699.04</ele>
        <time>2021-07-05T09:33:55Z</time>
      </trkpt>
      <trkpt lat="42.57158" lon="1.92882">
        <ele>2701.44</ele>
        <time>2021-07-05T09:34:08Z</time>
      </trkpt>
      <trkpt lat="42.57155" lon="1.92883">
        <ele>2701.44</ele>
        <time>2021-07-05T09:34:19Z</time>
      </trkpt>
      <trkpt lat="42.57155" lon="1.92885">
        <ele>2701.44</ele>
        <time>2021-07-05T09:34:33Z</time>
      </trkpt>
      <trkpt lat="42.57156" lon="1.92888">
        <ele>2701.92</ele>
        <time>2021-07-05T09:34:39Z</time>
      </trkpt>
      <trkpt lat="42.57154" lon="1.92891">
        <ele>2703.36</ele>
        <time>2021-07-05T09:34:46Z</time>
      </trkpt>
      <trkpt lat="42.57154" lon="1.92892">
        <ele>2704.81</ele>
        <time>2021-07-05T09:34:54Z</time>
      </trkpt>
      <trkpt lat="42.57151" lon="1.92893">
        <ele>2706.25</ele>
        <time>2021-07-05T09:35:01Z</time>
      </trkpt>
      <trkpt lat="42.57154" lon="1.92896">
        <ele>2707.69</ele>
        <time>2021-07-05T09:35:10Z</time>
      </trkpt>
      <trkpt lat="42.5715" lon="1.92899">
        <ele>2709.61</ele>
        <time>2021-07-05T09:35:18Z</time>
      </trkpt>
      <trkpt lat="42.57149" lon="1.92899">
        <ele>2710.09</ele>
        <time>2021-07-05T09:35:29Z</time>
      </trkpt>
      <trkpt lat="42.57148" lon="1.92899">
        <ele>2711.06</ele>
        <time>2021-07-05T09:35:35Z</time>
      </trkpt>
      <trkpt lat="42.57146" lon="1.92902">
        <ele>2712.02</ele>
        <time>2021-07-05T09:35:41Z</time>
      </trkpt>
      <trkpt lat="42.57147" lon="1.92903">
        <ele>2713.46</ele>
        <time>2021-07-05T09:35:49Z</time>
      </trkpt>
      <trkpt lat="42.57148" lon="1.92903">
        <ele>2714.9</ele>
        <time>2021-07-05T09:35:57Z</time>
      </trkpt>
      <trkpt lat="42.57148" lon="1.92904">
        <ele>2715.86</ele>
        <time>2021-07-05T09:36:03Z</time>
      </trkpt>
      <trkpt lat="42.57145" lon="1.92904">
        <ele>2717.78</ele>
        <time>2021-07-05T09:36:11Z</time>
      </trkpt>
      <trkpt lat="42.57144" lon="1.92904">
        <ele>2717.78</ele>
        <time>2021-07-05T09:36:12Z</time>
      </trkpt>
      <trkpt lat="42.57138" lon="1.92905">
        <ele>2719.71</ele>
        <time>2021-07-05T09:36:21Z</time>
      </trkpt>
      <trkpt lat="42.57138" lon="1.92908">
        <ele>2720.67</ele>
        <time>2021-07-05T09:36:27Z</time>
      </trkpt>
      <trkpt lat="42.57137" lon="1.92909">
        <ele>2721.63</ele>
        <time>2021-07-05T09:36:35Z</time>
      </trkpt>
      <trkpt lat="42.57137" lon="1.92913">
        <ele>2723.07</ele>
        <time>2021-07-05T09:36:42Z</time>
      </trkpt>
      <trkpt lat="42.57137" lon="1.92915">
        <ele>2724.03</ele>
        <time>2021-07-05T09:36:51Z</time>
      </trkpt>
      <trkpt lat="42.57138" lon="1.92918">
        <ele>2724.99</ele>
        <time>2021-07-05T09:36:58Z</time>
      </trkpt>
      <trkpt lat="42.57137" lon="1.92919">
        <ele>2726.44</ele>
        <time>2021-07-05T09:37:06Z</time>
      </trkpt>
      <trkpt lat="42.57138" lon="1.92921">
        <ele>2727.88</ele>
        <time>2021-07-05T09:37:14Z</time>
      </trkpt>
      <trkpt lat="42.57135" lon="1.92923">
        <ele>2728.84</ele>
        <time>2021-07-05T09:37:21Z</time>
      </trkpt>
      <trkpt lat="42.57134" lon="1.92927">
        <ele>2728.84</ele>
        <time>2021-07-05T09:37:28Z</time>
      </trkpt>
      <trkpt lat="42.57132" lon="1.9293">
        <ele>2730.28</ele>
        <time>2021-07-05T09:37:37Z</time>
      </trkpt>
      <trkpt lat="42.57132" lon="1.92929">
        <ele>2731.24</ele>
        <time>2021-07-05T09:37:46Z</time>
      </trkpt>
      <trkpt lat="42.5713" lon="1.92931">
        <ele>2732.68</ele>
        <time>2021-07-05T09:37:53Z</time>
      </trkpt>
      <trkpt lat="42.57131" lon="1.92932">
        <ele>2733.65</ele>
        <time>2021-07-05T09:38:00Z</time>
      </trkpt>
      <trkpt lat="42.57132" lon="1.92935">
        <ele>2735.57</ele>
        <time>2021-07-05T09:38:07Z</time>
      </trkpt>
      <trkpt lat="42.57132" lon="1.92937">
        <ele>2737.49</ele>
        <time>2021-07-05T09:38:15Z</time>
      </trkpt>
      <trkpt lat="42.57132" lon="1.92937">
        <ele>2737.49</ele>
        <time>2021-07-05T09:38:16Z</time>
      </trkpt>
      <trkpt lat="42.57132" lon="1.9294">
        <ele>2738.93</ele>
        <time>2021-07-05T09:38:23Z</time>
      </trkpt>
      <trkpt lat="42.57129" lon="1.92942">
        <ele>2739.89</ele>
        <time>2021-07-05T09:38:30Z</time>
      </trkpt>
      <trkpt lat="42.57127" lon="1.92943">
        <ele>2741.82</ele>
        <time>2021-07-05T09:38:37Z</time>
      </trkpt>
      <trkpt lat="42.57127" lon="1.92943">
        <ele>2741.82</ele>
        <time>2021-07-05T09:38:39Z</time>
      </trkpt>
      <trkpt lat="42.57125" lon="1.92943">
        <ele>2742.78</ele>
        <time>2021-07-05T09:38:46Z</time>
      </trkpt>
      <trkpt lat="42.57123" lon="1.92943">
        <ele>2744.22</ele>
        <time>2021-07-05T09:38:54Z</time>
      </trkpt>
      <trkpt lat="42.57124" lon="1.92948">
        <ele>2746.14</ele>
        <time>2021-07-05T09:39:03Z</time>
      </trkpt>
      <trkpt lat="42.57125" lon="1.92949">
        <ele>2747.59</ele>
        <time>2021-07-05T09:39:09Z</time>
      </trkpt>
      <trkpt lat="42.57125" lon="1.92952">
        <ele>2748.55</ele>
        <time>2021-07-05T09:39:15Z</time>
      </trkpt>
      <trkpt lat="42.57123" lon="1.92955">
        <ele>2749.99</ele>
        <time>2021-07-05T09:39:23Z</time>
      </trkpt>
      <trkpt lat="42.57121" lon="1.92957">
        <ele>2751.91</ele>
        <time>2021-07-05T09:39:31Z</time>
      </trkpt>
      <trkpt lat="42.5712" lon="1.92959">
        <ele>2752.87</ele>
        <time>2021-07-05T09:39:40Z</time>
      </trkpt>
      <trkpt lat="42.5712" lon="1.9296">
        <ele>2754.31</ele>
        <time>2021-07-05T09:39:50Z</time>
      </trkpt>
      <trkpt lat="42.57119" lon="1.92961">
        <ele>2755.28</ele>
        <time>2021-07-05T09:40:00Z</time>
      </trkpt>
      <trkpt lat="42.57118" lon="1.92963">
        <ele>2757.2</ele>
        <time>2021-07-05T09:40:10Z</time>
      </trkpt>
      <trkpt lat="42.57118" lon="1.92965">
        <ele>2758.16</ele>
        <time>2021-07-05T09:40:16Z</time>
      </trkpt>
      <trkpt lat="42.57117" lon="1.92966">
        <ele>2758.16</ele>
        <time>2021-07-05T09:40:17Z</time>
      </trkpt>
      <trkpt lat="42.57116" lon="1.92968">
        <ele>2762</ele>
        <time>2021-07-05T09:40:26Z</time>
      </trkpt>
      <trkpt lat="42.57116" lon="1.92968">
        <ele>2757.68</ele>
        <time>2021-07-05T09:40:28Z</time>
      </trkpt>
      <trkpt lat="42.57116" lon="1.92968">
        <ele>2763.45</ele>
        <time>2021-07-05T09:40:29Z</time>
      </trkpt>
      <trkpt lat="42.57116" lon="1.92968">
        <ele>2759.6</ele>
        <time>2021-07-05T09:40:30Z</time>
      </trkpt>
      <trkpt lat="42.57116" lon="1.92968">
        <ele>2759.6</ele>
        <time>2021-07-05T09:40:38Z</time>
      </trkpt>
      <trkpt lat="42.57117" lon="1.92971">
        <ele>2760.56</ele>
        <time>2021-07-05T09:40:44Z</time>
      </trkpt>
      <trkpt lat="42.57117" lon="1.92972">
        <ele>2762</ele>
        <time>2021-07-05T09:40:53Z</time>
      </trkpt>
      <trkpt lat="42.57117" lon="1.92974">
        <ele>2762.97</ele>
        <time>2021-07-05T09:41:00Z</time>
      </trkpt>
      <trkpt lat="42.57115" lon="1.92976">
        <ele>2764.41</ele>
        <time>2021-07-05T09:41:10Z</time>
      </trkpt>
      <trkpt lat="42.57114" lon="1.92977">
        <ele>2766.33</ele>
        <time>2021-07-05T09:41:18Z</time>
      </trkpt>
      <trkpt lat="42.57112" lon="1.92978">
        <ele>2767.77</ele>
        <time>2021-07-05T09:41:25Z</time>
      </trkpt>
      <trkpt lat="42.57114" lon="1.92982">
        <ele>2768.73</ele>
        <time>2021-07-05T09:41:33Z</time>
      </trkpt>
      <trkpt lat="42.57116" lon="1.92985">
        <ele>2770.18</ele>
        <time>2021-07-05T09:41:40Z</time>
      </trkpt>
      <trkpt lat="42.57114" lon="1.92985">
        <ele>2771.62</ele>
        <time>2021-07-05T09:41:48Z</time>
      </trkpt>
      <trkpt lat="42.57113" lon="1.92985">
        <ele>2772.1</ele>
        <time>2021-07-05T09:41:59Z</time>
      </trkpt>
      <trkpt lat="42.57112" lon="1.92984">
        <ele>2773.54</ele>
        <time>2021-07-05T09:42:06Z</time>
      </trkpt>
      <trkpt lat="42.5711" lon="1.92985">
        <ele>2775.46</ele>
        <time>2021-07-05T09:42:15Z</time>
      </trkpt>
      <trkpt lat="42.57104" lon="1.92986">
        <ele>2776.91</ele>
        <time>2021-07-05T09:42:24Z</time>
      </trkpt>
      <trkpt lat="42.57102" lon="1.92986">
        <ele>2778.35</ele>
        <time>2021-07-05T09:42:31Z</time>
      </trkpt>
      <trkpt lat="42.57101" lon="1.92989">
        <ele>2779.79</ele>
        <time>2021-07-05T09:42:39Z</time>
      </trkpt>
      <trkpt lat="42.57101" lon="1.92989">
        <ele>2782.19</ele>
        <time>2021-07-05T09:42:48Z</time>
      </trkpt>
      <trkpt lat="42.57098" lon="1.92985">
        <ele>2783.15</ele>
        <time>2021-07-05T09:42:56Z</time>
      </trkpt>
      <trkpt lat="42.57096" lon="1.92983">
        <ele>2785.08</ele>
        <time>2021-07-05T09:43:04Z</time>
      </trkpt>
      <trkpt lat="42.57095" lon="1.92983">
        <ele>2784.12</ele>
        <time>2021-07-05T09:43:16Z</time>
      </trkpt>
      <trkpt lat="42.57094" lon="1.92985">
        <ele>2784.6</ele>
        <time>2021-07-05T09:43:23Z</time>
      </trkpt>
      <trkpt lat="42.57094" lon="1.9299">
        <ele>2785.56</ele>
        <time>2021-07-05T09:43:30Z</time>
      </trkpt>
      <trkpt lat="42.57095" lon="1.92994">
        <ele>2786.52</ele>
        <time>2021-07-05T09:43:36Z</time>
      </trkpt>
      <trkpt lat="42.57096" lon="1.93001">
        <ele>2788.92</ele>
        <time>2021-07-05T09:43:44Z</time>
      </trkpt>
      <trkpt lat="42.57096" lon="1.93003">
        <ele>2790.36</ele>
        <time>2021-07-05T09:43:51Z</time>
      </trkpt>
      <trkpt lat="42.57092" lon="1.93004">
        <ele>2792.29</ele>
        <time>2021-07-05T09:44:00Z</time>
      </trkpt>
      <trkpt lat="42.57087" lon="1.93004">
        <ele>2794.21</ele>
        <time>2021-07-05T09:44:09Z</time>
      </trkpt>
      <trkpt lat="42.57084" lon="1.93003">
        <ele>2795.65</ele>
        <time>2021-07-05T09:44:15Z</time>
      </trkpt>
      <trkpt lat="42.57082" lon="1.93007">
        <ele>2796.61</ele>
        <time>2021-07-05T09:44:24Z</time>
      </trkpt>
      <trkpt lat="42.57078" lon="1.93006">
        <ele>2798.05</ele>
        <time>2021-07-05T09:44:32Z</time>
      </trkpt>
      <trkpt lat="42.57078" lon="1.93005">
        <ele>2798.54</ele>
        <time>2021-07-05T09:44:41Z</time>
      </trkpt>
      <trkpt lat="42.57079" lon="1.93007">
        <ele>2799.5</ele>
        <time>2021-07-05T09:44:53Z</time>
      </trkpt>
      <trkpt lat="42.5708" lon="1.93009">
        <ele>2800.94</ele>
        <time>2021-07-05T09:45:00Z</time>
      </trkpt>
      <trkpt lat="42.57081" lon="1.93013">
        <ele>2802.38</ele>
        <time>2021-07-05T09:45:08Z</time>
      </trkpt>
      <trkpt lat="42.57078" lon="1.93015">
        <ele>2804.3</ele>
        <time>2021-07-05T09:45:17Z</time>
      </trkpt>
      <trkpt lat="42.57078" lon="1.93017">
        <ele>2805.26</ele>
        <time>2021-07-05T09:45:24Z</time>
      </trkpt>
      <trkpt lat="42.57078" lon="1.93017">
        <ele>2805.26</ele>
        <time>2021-07-05T09:45:35Z</time>
      </trkpt>
      <trkpt lat="42.57078" lon="1.93017">
        <ele>2805.26</ele>
        <time>2021-07-05T09:45:48Z</time>
      </trkpt>
      <trkpt lat="42.57077" lon="1.93018">
        <ele>2805.26</ele>
        <time>2021-07-05T09:45:56Z</time>
      </trkpt>
      <trkpt lat="42.57078" lon="1.9302">
        <ele>2806.23</ele>
        <time>2021-07-05T09:46:05Z</time>
      </trkpt>
      <trkpt lat="42.57074" lon="1.93022">
        <ele>2808.63</ele>
        <time>2021-07-05T09:46:15Z</time>
      </trkpt>
      <trkpt lat="42.57072" lon="1.93025">
        <ele>2810.55</ele>
        <time>2021-07-05T09:46:22Z</time>
      </trkpt>
      <trkpt lat="42.57072" lon="1.93029">
        <ele>2811.99</ele>
        <time>2021-07-05T09:46:29Z</time>
      </trkpt>
      <trkpt lat="42.5707" lon="1.93031">
        <ele>2814.88</ele>
        <time>2021-07-05T09:46:37Z</time>
      </trkpt>
      <trkpt lat="42.57069" lon="1.93034">
        <ele>2815.84</ele>
        <time>2021-07-05T09:46:45Z</time>
      </trkpt>
      <trkpt lat="42.57069" lon="1.93035">
        <ele>2816.32</ele>
        <time>2021-07-05T09:46:48Z</time>
      </trkpt>
      <trkpt lat="42.57064" lon="1.93037">
        <ele>2818.24</ele>
        <time>2021-07-05T09:46:57Z</time>
      </trkpt>
      <trkpt lat="42.57062" lon="1.9304">
        <ele>2820.16</ele>
        <time>2021-07-05T09:47:06Z</time>
      </trkpt>
      <trkpt lat="42.57061" lon="1.93042">
        <ele>2821.13</ele>
        <time>2021-07-05T09:47:14Z</time>
      </trkpt>
      <trkpt lat="42.57061" lon="1.93044">
        <ele>2822.57</ele>
        <time>2021-07-05T09:47:22Z</time>
      </trkpt>
      <trkpt lat="42.5706" lon="1.93046">
        <ele>2824.01</ele>
        <time>2021-07-05T09:47:31Z</time>
      </trkpt>
      <trkpt lat="42.57057" lon="1.9305">
        <ele>2825.45</ele>
        <time>2021-07-05T09:47:38Z</time>
      </trkpt>
      <trkpt lat="42.57056" lon="1.93051">
        <ele>2826.89</ele>
        <time>2021-07-05T09:47:45Z</time>
      </trkpt>
      <trkpt lat="42.57055" lon="1.93056">
        <ele>2828.34</ele>
        <time>2021-07-05T09:47:52Z</time>
      </trkpt>
      <trkpt lat="42.57055" lon="1.93058">
        <ele>2829.78</ele>
        <time>2021-07-05T09:47:58Z</time>
      </trkpt>
      <trkpt lat="42.57054" lon="1.93063">
        <ele>2831.22</ele>
        <time>2021-07-05T09:48:05Z</time>
      </trkpt>
      <trkpt lat="42.57051" lon="1.93066">
        <ele>2833.14</ele>
        <time>2021-07-05T09:48:12Z</time>
      </trkpt>
      <trkpt lat="42.57046" lon="1.93068">
        <ele>2834.1</ele>
        <time>2021-07-05T09:48:20Z</time>
      </trkpt>
      <trkpt lat="42.57043" lon="1.93071">
        <ele>2835.06</ele>
        <time>2021-07-05T09:48:28Z</time>
      </trkpt>
      <trkpt lat="42.5704" lon="1.93073">
        <ele>2836.51</ele>
        <time>2021-07-05T09:48:34Z</time>
      </trkpt>
      <trkpt lat="42.57039" lon="1.9308">
        <ele>2839.39</ele>
        <time>2021-07-05T09:48:45Z</time>
      </trkpt>
      <trkpt lat="42.57039" lon="1.93083">
        <ele>2840.83</ele>
        <time>2021-07-05T09:48:52Z</time>
      </trkpt>
      <trkpt lat="42.5704" lon="1.9309">
        <ele>2842.76</ele>
        <time>2021-07-05T09:49:00Z</time>
      </trkpt>
      <trkpt lat="42.57041" lon="1.93093">
        <ele>2842.76</ele>
        <time>2021-07-05T09:49:09Z</time>
      </trkpt>
      <trkpt lat="42.57043" lon="1.93097">
        <ele>2844.68</ele>
        <time>2021-07-05T09:49:16Z</time>
      </trkpt>
      <trkpt lat="42.57048" lon="1.93101">
        <ele>2846.6</ele>
        <time>2021-07-05T09:49:26Z</time>
      </trkpt>
      <trkpt lat="42.57053" lon="1.93102">
        <ele>2847.56</ele>
        <time>2021-07-05T09:49:34Z</time>
      </trkpt>
      <trkpt lat="42.57057" lon="1.93104">
        <ele>2849</ele>
        <time>2021-07-05T09:49:40Z</time>
      </trkpt>
      <trkpt lat="42.57061" lon="1.93107">
        <ele>2849.97</ele>
        <time>2021-07-05T09:49:47Z</time>
      </trkpt>
      <trkpt lat="42.57065" lon="1.93111">
        <ele>2852.37</ele>
        <time>2021-07-05T09:49:57Z</time>
      </trkpt>
      <trkpt lat="42.57067" lon="1.93113">
        <ele>2853.81</ele>
        <time>2021-07-05T09:50:04Z</time>
      </trkpt>
      <trkpt lat="42.57066" lon="1.93116">
        <ele>2854.77</ele>
        <time>2021-07-05T09:50:11Z</time>
      </trkpt>
      <trkpt lat="42.57067" lon="1.93117">
        <ele>2856.21</ele>
        <time>2021-07-05T09:50:19Z</time>
      </trkpt>
      <trkpt lat="42.57066" lon="1.93119">
        <ele>2858.62</ele>
        <time>2021-07-05T09:50:30Z</time>
      </trkpt>
      <trkpt lat="42.57064" lon="1.93123">
        <ele>2860.06</ele>
        <time>2021-07-05T09:50:39Z</time>
      </trkpt>
      <trkpt lat="42.57061" lon="1.93129">
        <ele>2861.5</ele>
        <time>2021-07-05T09:50:47Z</time>
      </trkpt>
      <trkpt lat="42.57061" lon="1.93131">
        <ele>2862.94</ele>
        <time>2021-07-05T09:50:54Z</time>
      </trkpt>
      <trkpt lat="42.57062" lon="1.93136">
        <ele>2864.39</ele>
        <time>2021-07-05T09:51:03Z</time>
      </trkpt>
      <trkpt lat="42.57059" lon="1.9314">
        <ele>2866.31</ele>
        <time>2021-07-05T09:51:11Z</time>
      </trkpt>
      <trkpt lat="42.57059" lon="1.93142">
        <ele>2867.27</ele>
        <time>2021-07-05T09:51:17Z</time>
      </trkpt>
      <trkpt lat="42.57057" lon="1.93151">
        <ele>2868.23</ele>
        <time>2021-07-05T09:51:24Z</time>
      </trkpt>
      <trkpt lat="42.57055" lon="1.93155">
        <ele>2870.15</ele>
        <time>2021-07-05T09:51:32Z</time>
      </trkpt>
      <trkpt lat="42.57053" lon="1.9316">
        <ele>2871.11</ele>
        <time>2021-07-05T09:51:39Z</time>
      </trkpt>
      <trkpt lat="42.57052" lon="1.93165">
        <ele>2873.04</ele>
        <time>2021-07-05T09:51:46Z</time>
      </trkpt>
      <trkpt lat="42.57051" lon="1.93168">
        <ele>2875.44</ele>
        <time>2021-07-05T09:51:54Z</time>
      </trkpt>
      <trkpt lat="42.5705" lon="1.9317">
        <ele>2877.36</ele>
        <time>2021-07-05T09:52:02Z</time>
      </trkpt>
      <trkpt lat="42.57049" lon="1.93173">
        <ele>2876.88</ele>
        <time>2021-07-05T09:52:09Z</time>
      </trkpt>
      <trkpt lat="42.57048" lon="1.93174">
        <ele>2878.81</ele>
        <time>2021-07-05T09:52:16Z</time>
      </trkpt>
      <trkpt lat="42.57048" lon="1.93176">
        <ele>2880.73</ele>
        <time>2021-07-05T09:52:21Z</time>
      </trkpt>
      <trkpt lat="42.57048" lon="1.93179">
        <ele>2882.65</ele>
        <time>2021-07-05T09:52:28Z</time>
      </trkpt>
      <trkpt lat="42.57046" lon="1.93181">
        <ele>2883.61</ele>
        <time>2021-07-05T09:52:35Z</time>
      </trkpt>
      <trkpt lat="42.57045" lon="1.93184">
        <ele>2885.05</ele>
        <time>2021-07-05T09:52:38Z</time>
      </trkpt>
      <trkpt lat="42.57044" lon="1.93185">
        <ele>2885.05</ele>
        <time>2021-07-05T09:52:48Z</time>
      </trkpt>
      <trkpt lat="42.57044" lon="1.93186">
        <ele>2886.5</ele>
        <time>2021-07-05T09:52:56Z</time>
      </trkpt>
      <trkpt lat="42.57044" lon="1.93187">
        <ele>2886.98</ele>
        <time>2021-07-05T09:53:03Z</time>
      </trkpt>
      <trkpt lat="42.57044" lon="1.93188">
        <ele>2884.57</ele>
        <time>2021-07-05T09:53:10Z</time>
      </trkpt>
      <trkpt lat="42.57044" lon="1.93188">
        <ele>2884.09</ele>
        <time>2021-07-05T09:53:24Z</time>
      </trkpt>
      <trkpt lat="42.57044" lon="1.93188">
        <ele>2883.13</ele>
        <time>2021-07-05T09:53:42Z</time>
      </trkpt>
      <trkpt lat="42.57044" lon="1.93189">
        <ele>2883.13</ele>
        <time>2021-07-05T09:53:51Z</time>
      </trkpt>
      <trkpt lat="42.57044" lon="1.93189">
        <ele>2883.61</ele>
        <time>2021-07-05T09:54:08Z</time>
      </trkpt>
      <trkpt lat="42.57044" lon="1.93188">
        <ele>2884.09</ele>
        <time>2021-07-05T09:54:28Z</time>
      </trkpt>
      <trkpt lat="42.57044" lon="1.93188">
        <ele>2884.57</ele>
        <time>2021-07-05T09:54:49Z</time>
      </trkpt>
      <trkpt lat="42.57044" lon="1.93188">
        <ele>2884.57</ele>
        <time>2021-07-05T09:54:58Z</time>
      </trkpt>
      <trkpt lat="42.57043" lon="1.93188">
        <ele>2886.02</ele>
        <time>2021-07-05T09:55:20Z</time>
      </trkpt>
      <trkpt lat="42.57043" lon="1.93188">
        <ele>2885.05</ele>
        <time>2021-07-05T09:55:41Z</time>
      </trkpt>
      <trkpt lat="42.57043" lon="1.93189">
        <ele>2886.02</ele>
        <time>2021-07-05T09:56:00Z</time>
      </trkpt>
      <trkpt lat="42.57043" lon="1.93189">
        <ele>2885.53</ele>
        <time>2021-07-05T09:56:09Z</time>
      </trkpt>
      <trkpt lat="42.57043" lon="1.93189">
        <ele>2886.98</ele>
        <time>2021-07-05T09:56:16Z</time>
      </trkpt>
      <trkpt lat="42.57043" lon="1.93189">
        <ele>2886.98</ele>
        <time>2021-07-05T09:56:25Z</time>
      </trkpt>
      <trkpt lat="42.57043" lon="1.93189">
        <ele>2887.46</ele>
        <time>2021-07-05T09:56:37Z</time>
      </trkpt>
      <trkpt lat="42.57043" lon="1.93189">
        <ele>2887.94</ele>
        <time>2021-07-05T09:56:45Z</time>
      </trkpt>
      <trkpt lat="42.57044" lon="1.93189">
        <ele>2887.94</ele>
        <time>2021-07-05T09:56:57Z</time>
      </trkpt>
      <trkpt lat="42.57044" lon="1.93189">
        <ele>2887.46</ele>
        <time>2021-07-05T09:57:07Z</time>
      </trkpt>
      <trkpt lat="42.57045" lon="1.9319">
        <ele>2887.94</ele>
        <time>2021-07-05T09:57:15Z</time>
      </trkpt>
      <trkpt lat="42.57046" lon="1.93192">
        <ele>2887.94</ele>
        <time>2021-07-05T09:57:18Z</time>
      </trkpt>
      <trkpt lat="42.5705" lon="1.93194">
        <ele>2887.94</ele>
        <time>2021-07-05T09:57:25Z</time>
      </trkpt>
      <trkpt lat="42.57051" lon="1.93195">
        <ele>2887.46</ele>
        <time>2021-07-05T09:57:37Z</time>
      </trkpt>
      <trkpt lat="42.57051" lon="1.93194">
        <ele>2887.94</ele>
        <time>2021-07-05T09:57:45Z</time>
      </trkpt>
      <trkpt lat="42.57054" lon="1.93195">
        <ele>2887.94</ele>
        <time>2021-07-05T09:57:50Z</time>
      </trkpt>
      <trkpt lat="42.57058" lon="1.93192">
        <ele>2889.38</ele>
        <time>2021-07-05T09:57:58Z</time>
      </trkpt>
      <trkpt lat="42.57058" lon="1.93191">
        <ele>2889.38</ele>
        <time>2021-07-05T09:57:59Z</time>
      </trkpt>
      <trkpt lat="42.5706" lon="1.93186">
        <ele>2891.78</ele>
        <time>2021-07-05T09:58:07Z</time>
      </trkpt>
      <trkpt lat="42.57061" lon="1.93182">
        <ele>2892.26</ele>
        <time>2021-07-05T09:58:14Z</time>
      </trkpt>
      <trkpt lat="42.57062" lon="1.9318">
        <ele>2892.26</ele>
        <time>2021-07-05T09:58:21Z</time>
      </trkpt>
      <trkpt lat="42.57063" lon="1.93184">
        <ele>2892.74</ele>
        <time>2021-07-05T09:58:30Z</time>
      </trkpt>
      <trkpt lat="42.57061" lon="1.93188">
        <ele>2891.3</ele>
        <time>2021-07-05T09:58:38Z</time>
      </trkpt>
      <trkpt lat="42.57059" lon="1.93191">
        <ele>2890.34</ele>
        <time>2021-07-05T09:58:44Z</time>
      </trkpt>
      <trkpt lat="42.57058" lon="1.93192">
        <ele>2889.86</ele>
        <time>2021-07-05T09:58:46Z</time>
      </trkpt>
      <trkpt lat="42.57058" lon="1.93199">
        <ele>2887.46</ele>
        <time>2021-07-05T09:58:53Z</time>
      </trkpt>
      <trkpt lat="42.57053" lon="1.93197">
        <ele>2886.98</ele>
        <time>2021-07-05T09:59:00Z</time>
      </trkpt>
      <trkpt lat="42.5705" lon="1.93193">
        <ele>2888.42</ele>
        <time>2021-07-05T09:59:08Z</time>
      </trkpt>
      <trkpt lat="42.57048" lon="1.93193">
        <ele>2888.9</ele>
        <time>2021-07-05T09:59:09Z</time>
      </trkpt>
      <trkpt lat="42.57044" lon="1.93191">
        <ele>2888.9</ele>
        <time>2021-07-05T09:59:16Z</time>
      </trkpt>
      <trkpt lat="42.5704" lon="1.93189">
        <ele>2890.82</ele>
        <time>2021-07-05T09:59:23Z</time>
      </trkpt>
      <trkpt lat="42.57039" lon="1.93187">
        <ele>2890.34</ele>
        <time>2021-07-05T09:59:31Z</time>
      </trkpt>
      <trkpt lat="42.57037" lon="1.93188">
        <ele>2890.34</ele>
        <time>2021-07-05T09:59:36Z</time>
      </trkpt>
      <trkpt lat="42.57037" lon="1.93189">
        <ele>2891.3</ele>
        <time>2021-07-05T09:59:43Z</time>
      </trkpt>
      <trkpt lat="42.57035" lon="1.93189">
        <ele>2893.23</ele>
        <time>2021-07-05T09:59:51Z</time>
      </trkpt>
      <trkpt lat="42.57034" lon="1.93191">
        <ele>2894.19</ele>
        <time>2021-07-05T10:00:00Z</time>
      </trkpt>
      <trkpt lat="42.57034" lon="1.93191">
        <ele>2895.15</ele>
        <time>2021-07-05T10:00:09Z</time>
      </trkpt>
      <trkpt lat="42.57029" lon="1.93191">
        <ele>2896.11</ele>
        <time>2021-07-05T10:00:22Z</time>
      </trkpt>
      <trkpt lat="42.57025" lon="1.9319">
        <ele>2896.59</ele>
        <time>2021-07-05T10:00:30Z</time>
      </trkpt>
      <trkpt lat="42.57021" lon="1.93192">
        <ele>2896.59</ele>
        <time>2021-07-05T10:00:37Z</time>
      </trkpt>
      <trkpt lat="42.57019" lon="1.93194">
        <ele>2895.63</ele>
        <time>2021-07-05T10:00:44Z</time>
      </trkpt>
      <trkpt lat="42.57019" lon="1.93193">
        <ele>2895.63</ele>
        <time>2021-07-05T10:00:51Z</time>
      </trkpt>
      <trkpt lat="42.57018" lon="1.93194">
        <ele>2895.63</ele>
        <time>2021-07-05T10:01:05Z</time>
      </trkpt>
      <trkpt lat="42.57018" lon="1.93194">
        <ele>2895.63</ele>
        <time>2021-07-05T10:01:16Z</time>
      </trkpt>
      <trkpt lat="42.57014" lon="1.93196">
        <ele>2897.07</ele>
        <time>2021-07-05T10:01:24Z</time>
      </trkpt>
      <trkpt lat="42.57012" lon="1.93201">
        <ele>2897.55</ele>
        <time>2021-07-05T10:01:32Z</time>
      </trkpt>
      <trkpt lat="42.57008" lon="1.93202">
        <ele>2898.03</ele>
        <time>2021-07-05T10:01:40Z</time>
      </trkpt>
      <trkpt lat="42.57006" lon="1.93205">
        <ele>2898.51</ele>
        <time>2021-07-05T10:01:46Z</time>
      </trkpt>
      <trkpt lat="42.57004" lon="1.9321">
        <ele>2897.55</ele>
        <time>2021-07-05T10:01:52Z</time>
      </trkpt>
      <trkpt lat="42.56999" lon="1.93211">
        <ele>2898.99</ele>
        <time>2021-07-05T10:02:00Z</time>
      </trkpt>
      <trkpt lat="42.56998" lon="1.93215">
        <ele>2898.03</ele>
        <time>2021-07-05T10:02:07Z</time>
      </trkpt>
      <trkpt lat="42.56993" lon="1.93216">
        <ele>2898.51</ele>
        <time>2021-07-05T10:02:14Z</time>
      </trkpt>
      <trkpt lat="42.56991" lon="1.93217">
        <ele>2898.99</ele>
        <time>2021-07-05T10:02:16Z</time>
      </trkpt>
      <trkpt lat="42.56986" lon="1.93215">
        <ele>2900.92</ele>
        <time>2021-07-05T10:02:24Z</time>
      </trkpt>
      <trkpt lat="42.56984" lon="1.93213">
        <ele>2901.88</ele>
        <time>2021-07-05T10:02:33Z</time>
      </trkpt>
      <trkpt lat="42.56984" lon="1.93212">
        <ele>2901.88</ele>
        <time>2021-07-05T10:02:42Z</time>
      </trkpt>
      <trkpt lat="42.56984" lon="1.93212">
        <ele>2902.36</ele>
        <time>2021-07-05T10:02:52Z</time>
      </trkpt>
      <trkpt lat="42.56984" lon="1.93212">
        <ele>2902.36</ele>
        <time>2021-07-05T10:03:02Z</time>
      </trkpt>
      <trkpt lat="42.56985" lon="1.93213">
        <ele>2902.84</ele>
        <time>2021-07-05T10:03:09Z</time>
      </trkpt>
      <trkpt lat="42.56985" lon="1.93213">
        <ele>2901.88</ele>
        <time>2021-07-05T10:03:16Z</time>
      </trkpt>
      <trkpt lat="42.56985" lon="1.93213">
        <ele>2900.92</ele>
        <time>2021-07-05T10:03:30Z</time>
      </trkpt>
      <trkpt lat="42.56985" lon="1.93213">
        <ele>2905.24</ele>
        <time>2021-07-05T10:03:31Z</time>
      </trkpt>
      <trkpt lat="42.56985" lon="1.93213">
        <ele>2902.84</ele>
        <time>2021-07-05T10:03:40Z</time>
      </trkpt>
      <trkpt lat="42.56984" lon="1.93213">
        <ele>2902.36</ele>
        <time>2021-07-05T10:03:49Z</time>
      </trkpt>
      <trkpt lat="42.56985" lon="1.93213">
        <ele>2902.84</ele>
        <time>2021-07-05T10:03:53Z</time>
      </trkpt>
      <trkpt lat="42.56983" lon="1.93214">
        <ele>2901.88</ele>
        <time>2021-07-05T10:03:57Z</time>
      </trkpt>
      <trkpt lat="42.56983" lon="1.93214">
        <ele>2902.36</ele>
        <time>2021-07-05T10:04:09Z</time>
      </trkpt>
      <trkpt lat="42.56983" lon="1.93213">
        <ele>2901.88</ele>
        <time>2021-07-05T10:04:24Z</time>
      </trkpt>
      <trkpt lat="42.56984" lon="1.93213">
        <ele>2902.36</ele>
        <time>2021-07-05T10:04:42Z</time>
      </trkpt>
      <trkpt lat="42.56984" lon="1.93213">
        <ele>2902.84</ele>
        <time>2021-07-05T10:05:02Z</time>
      </trkpt>
      <trkpt lat="42.56984" lon="1.93213">
        <ele>2901.88</ele>
        <time>2021-07-05T10:05:24Z</time>
      </trkpt>
      <trkpt lat="42.56984" lon="1.93213">
        <ele>2902.36</ele>
        <time>2021-07-05T10:05:41Z</time>
      </trkpt>
      <trkpt lat="42.56984" lon="1.93213">
        <ele>2902.36</ele>
        <time>2021-07-05T10:06:03Z</time>
      </trkpt>
      <trkpt lat="42.56984" lon="1.93213">
        <ele>2902.36</ele>
        <time>2021-07-05T10:06:22Z</time>
      </trkpt>
      <trkpt lat="42.56984" lon="1.93213">
        <ele>2902.84</ele>
        <time>2021-07-05T10:06:37Z</time>
      </trkpt>
      <trkpt lat="42.56984" lon="1.93213">
        <ele>2902.36</ele>
        <time>2021-07-05T10:06:54Z</time>
      </trkpt>
      <trkpt lat="42.56984" lon="1.93213">
        <ele>2902.36</ele>
        <time>2021-07-05T10:07:14Z</time>
      </trkpt>
      <trkpt lat="42.56984" lon="1.93212">
        <ele>2903.32</ele>
        <time>2021-07-05T10:07:35Z</time>
      </trkpt>
      <trkpt lat="42.56984" lon="1.93213">
        <ele>2902.84</ele>
        <time>2021-07-05T10:07:54Z</time>
      </trkpt>
      <trkpt lat="42.56985" lon="1.93213">
        <ele>2903.32</ele>
        <time>2021-07-05T10:08:14Z</time>
      </trkpt>
      <trkpt lat="42.56985" lon="1.93212">
        <ele>2903.32</ele>
        <time>2021-07-05T10:08:35Z</time>
      </trkpt>
      <trkpt lat="42.56984" lon="1.93212">
        <ele>2903.8</ele>
        <time>2021-07-05T10:08:54Z</time>
      </trkpt>
      <trkpt lat="42.56984" lon="1.93212">
        <ele>2903.8</ele>
        <time>2021-07-05T10:09:20Z</time>
      </trkpt>
      <trkpt lat="42.56984" lon="1.93212">
        <ele>2903.32</ele>
        <time>2021-07-05T10:09:40Z</time>
      </trkpt>
      <trkpt lat="42.56984" lon="1.93212">
        <ele>2903.32</ele>
        <time>2021-07-05T10:10:05Z</time>
      </trkpt>
      <trkpt lat="42.56984" lon="1.93212">
        <ele>2903.8</ele>
        <time>2021-07-05T10:10:26Z</time>
      </trkpt>
      <trkpt lat="42.56984" lon="1.93212">
        <ele>2904.28</ele>
        <time>2021-07-05T10:10:48Z</time>
      </trkpt>
      <trkpt lat="42.56984" lon="1.93212">
        <ele>2903.8</ele>
        <time>2021-07-05T10:11:09Z</time>
      </trkpt>
      <trkpt lat="42.56984" lon="1.93212">
        <ele>2903.8</ele>
        <time>2021-07-05T10:11:32Z</time>
      </trkpt>
      <trkpt lat="42.56984" lon="1.93212">
        <ele>2903.8</ele>
        <time>2021-07-05T10:11:51Z</time>
      </trkpt>
      <trkpt lat="42.56984" lon="1.93212">
        <ele>2904.28</ele>
        <time>2021-07-05T10:12:09Z</time>
      </trkpt>
      <trkpt lat="42.56984" lon="1.93212">
        <ele>2904.28</ele>
        <time>2021-07-05T10:12:33Z</time>
      </trkpt>
      <trkpt lat="42.56984" lon="1.93212">
        <ele>2904.76</ele>
        <time>2021-07-05T10:12:54Z</time>
      </trkpt>
      <trkpt lat="42.56984" lon="1.93212">
        <ele>2904.28</ele>
        <time>2021-07-05T10:13:10Z</time>
      </trkpt>
      <trkpt lat="42.56984" lon="1.93211">
        <ele>2905.24</ele>
        <time>2021-07-05T10:13:32Z</time>
      </trkpt>
      <trkpt lat="42.56984" lon="1.93211">
        <ele>2904.76</ele>
        <time>2021-07-05T10:13:51Z</time>
      </trkpt>
      <trkpt lat="42.56984" lon="1.93212">
        <ele>2904.76</ele>
        <time>2021-07-05T10:14:12Z</time>
      </trkpt>
      <trkpt lat="42.56984" lon="1.93212">
        <ele>2905.72</ele>
        <time>2021-07-05T10:14:34Z</time>
      </trkpt>
      <trkpt lat="42.56984" lon="1.93212">
        <ele>2905.72</ele>
        <time>2021-07-05T10:14:52Z</time>
      </trkpt>
      <trkpt lat="42.56984" lon="1.93212">
        <ele>2905.72</ele>
        <time>2021-07-05T10:15:09Z</time>
      </trkpt>
      <trkpt lat="42.56984" lon="1.93212">
        <ele>2905.72</ele>
        <time>2021-07-05T10:15:28Z</time>
      </trkpt>
      <trkpt lat="42.56984" lon="1.93212">
        <ele>2905.24</ele>
        <time>2021-07-05T10:15:50Z</time>
      </trkpt>
      <trkpt lat="42.56984" lon="1.93212">
        <ele>2905.24</ele>
        <time>2021-07-05T10:16:09Z</time>
      </trkpt>
      <trkpt lat="42.56984" lon="1.93212">
        <ele>2905.24</ele>
        <time>2021-07-05T10:16:26Z</time>
      </trkpt>
      <trkpt lat="42.56984" lon="1.93212">
        <ele>2905.24</ele>
        <time>2021-07-05T10:16:47Z</time>
      </trkpt>
      <trkpt lat="42.56984" lon="1.93212">
        <ele>2905.72</ele>
        <time>2021-07-05T10:17:09Z</time>
      </trkpt>
      <trkpt lat="42.56984" lon="1.93212">
        <ele>2906.2</ele>
        <time>2021-07-05T10:17:30Z</time>
      </trkpt>
      <trkpt lat="42.56984" lon="1.93212">
        <ele>2906.68</ele>
        <time>2021-07-05T10:17:52Z</time>
      </trkpt>
      <trkpt lat="42.56984" lon="1.93212">
        <ele>2906.68</ele>
        <time>2021-07-05T10:18:14Z</time>
      </trkpt>
      <trkpt lat="42.56984" lon="1.93212">
        <ele>2906.68</ele>
        <time>2021-07-05T10:18:29Z</time>
      </trkpt>
      <trkpt lat="42.56984" lon="1.93212">
        <ele>2906.68</ele>
        <time>2021-07-05T10:18:44Z</time>
      </trkpt>
      <trkpt lat="42.56984" lon="1.93212">
        <ele>2906.68</ele>
        <time>2021-07-05T10:19:01Z</time>
      </trkpt>
      <trkpt lat="42.56984" lon="1.93212">
        <ele>2906.68</ele>
        <time>2021-07-05T10:19:21Z</time>
      </trkpt>
      <trkpt lat="42.56984" lon="1.93212">
        <ele>2906.68</ele>
        <time>2021-07-05T10:19:44Z</time>
      </trkpt>
      <trkpt lat="42.56984" lon="1.93212">
        <ele>2906.2</ele>
        <time>2021-07-05T10:20:03Z</time>
      </trkpt>
      <trkpt lat="42.56984" lon="1.93212">
        <ele>2906.2</ele>
        <time>2021-07-05T10:20:21Z</time>
      </trkpt>
      <trkpt lat="42.56984" lon="1.93212">
        <ele>2906.68</ele>
        <time>2021-07-05T10:20:40Z</time>
      </trkpt>
      <trkpt lat="42.56984" lon="1.93212">
        <ele>2906.68</ele>
        <time>2021-07-05T10:21:00Z</time>
      </trkpt>
      <trkpt lat="42.56984" lon="1.93212">
        <ele>2906.68</ele>
        <time>2021-07-05T10:21:22Z</time>
      </trkpt>
      <trkpt lat="42.56984" lon="1.93212">
        <ele>2907.65</ele>
        <time>2021-07-05T10:21:41Z</time>
      </trkpt>
      <trkpt lat="42.56984" lon="1.93212">
        <ele>2907.65</ele>
        <time>2021-07-05T10:22:00Z</time>
      </trkpt>
      <trkpt lat="42.56984" lon="1.93212">
        <ele>2907.65</ele>
        <time>2021-07-05T10:22:21Z</time>
      </trkpt>
      <trkpt lat="42.56984" lon="1.93212">
        <ele>2908.13</ele>
        <time>2021-07-05T10:22:42Z</time>
      </trkpt>
      <trkpt lat="42.56984" lon="1.93212">
        <ele>2908.13</ele>
        <time>2021-07-05T10:23:04Z</time>
      </trkpt>
      <trkpt lat="42.56984" lon="1.93212">
        <ele>2908.61</ele>
        <time>2021-07-05T10:23:24Z</time>
      </trkpt>
      <trkpt lat="42.56984" lon="1.93212">
        <ele>2908.61</ele>
        <time>2021-07-05T10:23:43Z</time>
      </trkpt>
      <trkpt lat="42.56984" lon="1.93213">
        <ele>2908.61</ele>
        <time>2021-07-05T10:24:04Z</time>
      </trkpt>
      <trkpt lat="42.56984" lon="1.93212">
        <ele>2908.13</ele>
        <time>2021-07-05T10:24:23Z</time>
      </trkpt>
      <trkpt lat="42.56984" lon="1.93213">
        <ele>2907.65</ele>
        <time>2021-07-05T10:24:41Z</time>
      </trkpt>
      <trkpt lat="42.56984" lon="1.93213">
        <ele>2907.65</ele>
        <time>2021-07-05T10:24:58Z</time>
      </trkpt>
      <trkpt lat="42.56984" lon="1.93213">
        <ele>2908.61</ele>
        <time>2021-07-05T10:25:20Z</time>
      </trkpt>
      <trkpt lat="42.56984" lon="1.93213">
        <ele>2908.61</ele>
        <time>2021-07-05T10:25:40Z</time>
      </trkpt>
      <trkpt lat="42.56984" lon="1.93213">
        <ele>2908.61</ele>
        <time>2021-07-05T10:25:58Z</time>
      </trkpt>
      <trkpt lat="42.56984" lon="1.93213">
        <ele>2909.57</ele>
        <time>2021-07-05T10:26:17Z</time>
      </trkpt>
      <trkpt lat="42.56984" lon="1.93213">
        <ele>2909.09</ele>
        <time>2021-07-05T10:26:35Z</time>
      </trkpt>
      <trkpt lat="42.56984" lon="1.93213">
        <ele>2908.61</ele>
        <time>2021-07-05T10:26:53Z</time>
      </trkpt>
      <trkpt lat="42.56984" lon="1.93213">
        <ele>2908.61</ele>
        <time>2021-07-05T10:27:09Z</time>
      </trkpt>
      <trkpt lat="42.56984" lon="1.93213">
        <ele>2909.09</ele>
        <time>2021-07-05T10:27:26Z</time>
      </trkpt>
      <trkpt lat="42.56984" lon="1.93213">
        <ele>2908.61</ele>
        <time>2021-07-05T10:27:49Z</time>
      </trkpt>
      <trkpt lat="42.56984" lon="1.93213">
        <ele>2909.09</ele>
        <time>2021-07-05T10:28:07Z</time>
      </trkpt>
      <trkpt lat="42.56984" lon="1.93213">
        <ele>2909.57</ele>
        <time>2021-07-05T10:28:25Z</time>
      </trkpt>
      <trkpt lat="42.56984" lon="1.93213">
        <ele>2909.57</ele>
        <time>2021-07-05T10:28:43Z</time>
      </trkpt>
      <trkpt lat="42.56984" lon="1.93213">
        <ele>2909.57</ele>
        <time>2021-07-05T10:29:03Z</time>
      </trkpt>
      <trkpt lat="42.56984" lon="1.93213">
        <ele>2909.09</ele>
        <time>2021-07-05T10:29:22Z</time>
      </trkpt>
      <trkpt lat="42.56984" lon="1.93213">
        <ele>2909.09</ele>
        <time>2021-07-05T10:29:40Z</time>
      </trkpt>
      <trkpt lat="42.56984" lon="1.93213">
        <ele>2910.05</ele>
        <time>2021-07-05T10:30:00Z</time>
      </trkpt>
      <trkpt lat="42.56984" lon="1.93213">
        <ele>2910.05</ele>
        <time>2021-07-05T10:30:17Z</time>
      </trkpt>
      <trkpt lat="42.56984" lon="1.93213">
        <ele>2909.57</ele>
        <time>2021-07-05T10:30:36Z</time>
      </trkpt>
      <trkpt lat="42.56984" lon="1.93213">
        <ele>2910.05</ele>
        <time>2021-07-05T10:30:55Z</time>
      </trkpt>
      <trkpt lat="42.56984" lon="1.93213">
        <ele>2909.57</ele>
        <time>2021-07-05T10:31:14Z</time>
      </trkpt>
      <trkpt lat="42.56984" lon="1.93213">
        <ele>2910.05</ele>
        <time>2021-07-05T10:31:31Z</time>
      </trkpt>
      <trkpt lat="42.56984" lon="1.93213">
        <ele>2910.53</ele>
        <time>2021-07-05T10:31:47Z</time>
      </trkpt>
      <trkpt lat="42.56984" lon="1.93213">
        <ele>2910.53</ele>
        <time>2021-07-05T10:32:06Z</time>
      </trkpt>
      <trkpt lat="42.56985" lon="1.93213">
        <ele>2910.53</ele>
        <time>2021-07-05T10:32:27Z</time>
      </trkpt>
      <trkpt lat="42.56984" lon="1.93213">
        <ele>2910.53</ele>
        <time>2021-07-05T10:32:45Z</time>
      </trkpt>
      <trkpt lat="42.56984" lon="1.93213">
        <ele>2910.53</ele>
        <time>2021-07-05T10:33:04Z</time>
      </trkpt>
      <trkpt lat="42.56984" lon="1.93213">
        <ele>2910.53</ele>
        <time>2021-07-05T10:33:20Z</time>
      </trkpt>
      <trkpt lat="42.56984" lon="1.93213">
        <ele>2911.01</ele>
        <time>2021-07-05T10:33:39Z</time>
      </trkpt>
      <trkpt lat="42.56984" lon="1.93213">
        <ele>2911.01</ele>
        <time>2021-07-05T10:34:01Z</time>
      </trkpt>
      <trkpt lat="42.56984" lon="1.93213">
        <ele>2910.53</ele>
        <time>2021-07-05T10:34:19Z</time>
      </trkpt>
      <trkpt lat="42.56984" lon="1.93213">
        <ele>2910.53</ele>
        <time>2021-07-05T10:34:35Z</time>
      </trkpt>
      <trkpt lat="42.56984" lon="1.93213">
        <ele>2910.53</ele>
        <time>2021-07-05T10:34:55Z</time>
      </trkpt>
      <trkpt lat="42.56984" lon="1.93213">
        <ele>2910.53</ele>
        <time>2021-07-05T10:35:11Z</time>
      </trkpt>
      <trkpt lat="42.56984" lon="1.93213">
        <ele>2910.53</ele>
        <time>2021-07-05T10:35:25Z</time>
      </trkpt>
      <trkpt lat="42.56984" lon="1.93213">
        <ele>2910.53</ele>
        <time>2021-07-05T10:35:41Z</time>
      </trkpt>
      <trkpt lat="42.56984" lon="1.93213">
        <ele>2911.49</ele>
        <time>2021-07-05T10:36:02Z</time>
      </trkpt>
      <trkpt lat="42.56984" lon="1.93213">
        <ele>2911.97</ele>
        <time>2021-07-05T10:36:22Z</time>
      </trkpt>
      <trkpt lat="42.56984" lon="1.93213">
        <ele>2911.49</ele>
        <time>2021-07-05T10:36:43Z</time>
      </trkpt>
      <trkpt lat="42.56984" lon="1.93213">
        <ele>2911.01</ele>
        <time>2021-07-05T10:37:02Z</time>
      </trkpt>
      <trkpt lat="42.56984" lon="1.93213">
        <ele>2911.01</ele>
        <time>2021-07-05T10:37:20Z</time>
      </trkpt>
      <trkpt lat="42.56984" lon="1.93213">
        <ele>2911.49</ele>
        <time>2021-07-05T10:37:43Z</time>
      </trkpt>
      <trkpt lat="42.56984" lon="1.93213">
        <ele>2911.49</ele>
        <time>2021-07-05T10:38:03Z</time>
      </trkpt>
      <trkpt lat="42.56984" lon="1.93213">
        <ele>2911.49</ele>
        <time>2021-07-05T10:38:25Z</time>
      </trkpt>
      <trkpt lat="42.56984" lon="1.93213">
        <ele>2911.49</ele>
        <time>2021-07-05T10:38:47Z</time>
      </trkpt>
      <trkpt lat="42.56984" lon="1.93213">
        <ele>2912.45</ele>
        <time>2021-07-05T10:39:08Z</time>
      </trkpt>
      <trkpt lat="42.56984" lon="1.93212">
        <ele>2912.45</ele>
        <time>2021-07-05T10:39:14Z</time>
      </trkpt>
      <trkpt lat="42.56984" lon="1.93211">
        <ele>2913.89</ele>
        <time>2021-07-05T10:39:21Z</time>
      </trkpt>
      <trkpt lat="42.56984" lon="1.93211">
        <ele>2913.89</ele>
        <time>2021-07-05T10:39:28Z</time>
      </trkpt>
      <trkpt lat="42.56984" lon="1.93211">
        <ele>2913.41</ele>
        <time>2021-07-05T10:39:36Z</time>
      </trkpt>
      <trkpt lat="42.56984" lon="1.93211">
        <ele>2913.89</ele>
        <time>2021-07-05T10:39:45Z</time>
      </trkpt>
      <trkpt lat="42.56984" lon="1.93211">
        <ele>2913.89</ele>
        <time>2021-07-05T10:39:54Z</time>
      </trkpt>
      <trkpt lat="42.56984" lon="1.93211">
        <ele>2914.85</ele>
        <time>2021-07-05T10:40:05Z</time>
      </trkpt>
      <trkpt lat="42.56984" lon="1.93211">
        <ele>2913.41</ele>
        <time>2021-07-05T10:40:10Z</time>
      </trkpt>
      <trkpt lat="42.56984" lon="1.93211">
        <ele>2913.41</ele>
        <time>2021-07-05T10:40:24Z</time>
      </trkpt>
      <trkpt lat="42.56984" lon="1.93211">
        <ele>2913.41</ele>
        <time>2021-07-05T10:40:37Z</time>
      </trkpt>
      <trkpt lat="42.56984" lon="1.93211">
        <ele>2913.41</ele>
        <time>2021-07-05T10:40:48Z</time>
      </trkpt>
      <trkpt lat="42.56984" lon="1.93212">
        <ele>2913.89</ele>
        <time>2021-07-05T10:40:54Z</time>
      </trkpt>
      <trkpt lat="42.56983" lon="1.93212">
        <ele>2913.41</ele>
        <time>2021-07-05T10:41:06Z</time>
      </trkpt>
      <trkpt lat="42.56984" lon="1.93212">
        <ele>2913.89</ele>
        <time>2021-07-05T10:41:14Z</time>
      </trkpt>
      <trkpt lat="42.56984" lon="1.93212">
        <ele>2914.37</ele>
        <time>2021-07-05T10:41:26Z</time>
      </trkpt>
      <trkpt lat="42.56983" lon="1.93212">
        <ele>2913.89</ele>
        <time>2021-07-05T10:41:38Z</time>
      </trkpt>
      <trkpt lat="42.56984" lon="1.93211">
        <ele>2913.89</ele>
        <time>2021-07-05T10:41:50Z</time>
      </trkpt>
      <trkpt lat="42.56985" lon="1.93211">
        <ele>2913.41</ele>
        <time>2021-07-05T10:42:03Z</time>
      </trkpt>
      <trkpt lat="42.56985" lon="1.93213">
        <ele>2912.45</ele>
        <time>2021-07-05T10:42:09Z</time>
      </trkpt>
      <trkpt lat="42.56987" lon="1.93216">
        <ele>2911.97</ele>
        <time>2021-07-05T10:42:18Z</time>
      </trkpt>
      <trkpt lat="42.56987" lon="1.9322">
        <ele>2910.53</ele>
        <time>2021-07-05T10:42:24Z</time>
      </trkpt>
      <trkpt lat="42.5699" lon="1.9322">
        <ele>2909.57</ele>
        <time>2021-07-05T10:42:27Z</time>
      </trkpt>
      <trkpt lat="42.56994" lon="1.93216">
        <ele>2909.09</ele>
        <time>2021-07-05T10:42:34Z</time>
      </trkpt>
      <trkpt lat="42.56996" lon="1.93217">
        <ele>2909.09</ele>
        <time>2021-07-05T10:42:36Z</time>
      </trkpt>
      <trkpt lat="42.57004" lon="1.93213">
        <ele>2907.65</ele>
        <time>2021-07-05T10:42:44Z</time>
      </trkpt>
      <trkpt lat="42.57005" lon="1.93212">
        <ele>2907.65</ele>
        <time>2021-07-05T10:42:47Z</time>
      </trkpt>
      <trkpt lat="42.57007" lon="1.9321">
        <ele>2907.16</ele>
        <time>2021-07-05T10:42:49Z</time>
      </trkpt>
      <trkpt lat="42.57015" lon="1.93203">
        <ele>2906.2</ele>
        <time>2021-07-05T10:42:57Z</time>
      </trkpt>
      <trkpt lat="42.57018" lon="1.93198">
        <ele>2906.2</ele>
        <time>2021-07-05T10:43:03Z</time>
      </trkpt>
      <trkpt lat="42.5702" lon="1.93199">
        <ele>2906.2</ele>
        <time>2021-07-05T10:43:06Z</time>
      </trkpt>
      <trkpt lat="42.57023" lon="1.93201">
        <ele>2904.76</ele>
        <time>2021-07-05T10:43:13Z</time>
      </trkpt>
      <trkpt lat="42.57025" lon="1.93198">
        <ele>2904.76</ele>
        <time>2021-07-05T10:43:22Z</time>
      </trkpt>
      <trkpt lat="42.57025" lon="1.93195">
        <ele>2904.76</ele>
        <time>2021-07-05T10:43:28Z</time>
      </trkpt>
      <trkpt lat="42.57026" lon="1.93193">
        <ele>2905.72</ele>
        <time>2021-07-05T10:43:34Z</time>
      </trkpt>
      <trkpt lat="42.57027" lon="1.93191">
        <ele>2906.68</ele>
        <time>2021-07-05T10:43:41Z</time>
      </trkpt>
      <trkpt lat="42.57029" lon="1.9319">
        <ele>2906.68</ele>
        <time>2021-07-05T10:43:48Z</time>
      </trkpt>
      <trkpt lat="42.57031" lon="1.9319">
        <ele>2906.2</ele>
        <time>2021-07-05T10:43:58Z</time>
      </trkpt>
      <trkpt lat="42.57032" lon="1.93191">
        <ele>2903.8</ele>
        <time>2021-07-05T10:44:08Z</time>
      </trkpt>
      <trkpt lat="42.57034" lon="1.93192">
        <ele>2902.84</ele>
        <time>2021-07-05T10:44:15Z</time>
      </trkpt>
      <trkpt lat="42.57036" lon="1.93195">
        <ele>2900.92</ele>
        <time>2021-07-05T10:44:22Z</time>
      </trkpt>
      <trkpt lat="42.57038" lon="1.93195">
        <ele>2899.47</ele>
        <time>2021-07-05T10:44:29Z</time>
      </trkpt>
      <trkpt lat="42.5704" lon="1.93191">
        <ele>2899.95</ele>
        <time>2021-07-05T10:44:36Z</time>
      </trkpt>
      <trkpt lat="42.57041" lon="1.93188">
        <ele>2900.92</ele>
        <time>2021-07-05T10:44:44Z</time>
      </trkpt>
      <trkpt lat="42.57042" lon="1.93189">
        <ele>2900.92</ele>
        <time>2021-07-05T10:44:55Z</time>
      </trkpt>
      <trkpt lat="42.57042" lon="1.93189">
        <ele>2901.88</ele>
        <time>2021-07-05T10:45:11Z</time>
      </trkpt>
      <trkpt lat="42.57042" lon="1.93189">
        <ele>2902.36</ele>
        <time>2021-07-05T10:45:26Z</time>
      </trkpt>
      <trkpt lat="42.57044" lon="1.9319">
        <ele>2902.36</ele>
        <time>2021-07-05T10:45:34Z</time>
      </trkpt>
      <trkpt lat="42.57043" lon="1.93189">
        <ele>2902.36</ele>
        <time>2021-07-05T10:45:49Z</time>
      </trkpt>
      <trkpt lat="42.57044" lon="1.93189">
        <ele>2901.88</ele>
        <time>2021-07-05T10:45:55Z</time>
      </trkpt>
      <trkpt lat="42.57045" lon="1.93185">
        <ele>2900.44</ele>
        <time>2021-07-05T10:46:01Z</time>
      </trkpt>
      <trkpt lat="42.57048" lon="1.93179">
        <ele>2898.03</ele>
        <time>2021-07-05T10:46:08Z</time>
      </trkpt>
      <trkpt lat="42.5705" lon="1.93175">
        <ele>2896.11</ele>
        <time>2021-07-05T10:46:13Z</time>
      </trkpt>
      <trkpt lat="42.57051" lon="1.93172">
        <ele>2893.71</ele>
        <time>2021-07-05T10:46:20Z</time>
      </trkpt>
      <trkpt lat="42.5705" lon="1.93168">
        <ele>2891.78</ele>
        <time>2021-07-05T10:46:26Z</time>
      </trkpt>
      <trkpt lat="42.57051" lon="1.93167">
        <ele>2891.78</ele>
        <time>2021-07-05T10:46:27Z</time>
      </trkpt>
      <trkpt lat="42.57052" lon="1.93165">
        <ele>2889.86</ele>
        <time>2021-07-05T10:46:34Z</time>
      </trkpt>
      <trkpt lat="42.57055" lon="1.93161">
        <ele>2888.9</ele>
        <time>2021-07-05T10:46:42Z</time>
      </trkpt>
      <trkpt lat="42.57057" lon="1.9316">
        <ele>2888.42</ele>
        <time>2021-07-05T10:46:54Z</time>
      </trkpt>
      <trkpt lat="42.57058" lon="1.93161">
        <ele>2888.42</ele>
        <time>2021-07-05T10:47:05Z</time>
      </trkpt>
      <trkpt lat="42.57058" lon="1.93161">
        <ele>2887.46</ele>
        <time>2021-07-05T10:47:12Z</time>
      </trkpt>
      <trkpt lat="42.57058" lon="1.93157">
        <ele>2886.5</ele>
        <time>2021-07-05T10:47:15Z</time>
      </trkpt>
      <trkpt lat="42.57058" lon="1.93145">
        <ele>2885.05</ele>
        <time>2021-07-05T10:47:21Z</time>
      </trkpt>
      <trkpt lat="42.5706" lon="1.93136">
        <ele>2882.65</ele>
        <time>2021-07-05T10:47:29Z</time>
      </trkpt>
      <trkpt lat="42.5706" lon="1.93134">
        <ele>2882.65</ele>
        <time>2021-07-05T10:47:30Z</time>
      </trkpt>
      <trkpt lat="42.57059" lon="1.93132">
        <ele>2882.17</ele>
        <time>2021-07-05T10:47:32Z</time>
      </trkpt>
      <trkpt lat="42.57058" lon="1.93125">
        <ele>2880.25</ele>
        <time>2021-07-05T10:47:40Z</time>
      </trkpt>
      <trkpt lat="42.5706" lon="1.93121">
        <ele>2878.32</ele>
        <time>2021-07-05T10:47:46Z</time>
      </trkpt>
      <trkpt lat="42.57061" lon="1.9312">
        <ele>2876.88</ele>
        <time>2021-07-05T10:47:53Z</time>
      </trkpt>
      <trkpt lat="42.57062" lon="1.93119">
        <ele>2876.4</ele>
        <time>2021-07-05T10:47:54Z</time>
      </trkpt>
      <trkpt lat="42.57064" lon="1.93116">
        <ele>2874.96</ele>
        <time>2021-07-05T10:48:00Z</time>
      </trkpt>
      <trkpt lat="42.57064" lon="1.93111">
        <ele>2873.52</ele>
        <time>2021-07-05T10:48:07Z</time>
      </trkpt>
      <trkpt lat="42.57062" lon="1.9311">
        <ele>2871.6</ele>
        <time>2021-07-05T10:48:10Z</time>
      </trkpt>
      <trkpt lat="42.57061" lon="1.93108">
        <ele>2870.63</ele>
        <time>2021-07-05T10:48:12Z</time>
      </trkpt>
      <trkpt lat="42.57056" lon="1.93102">
        <ele>2868.23</ele>
        <time>2021-07-05T10:48:17Z</time>
      </trkpt>
      <trkpt lat="42.57053" lon="1.931">
        <ele>2867.27</ele>
        <time>2021-07-05T10:48:19Z</time>
      </trkpt>
      <trkpt lat="42.57052" lon="1.931">
        <ele>2866.79</ele>
        <time>2021-07-05T10:48:20Z</time>
      </trkpt>
      <trkpt lat="42.5705" lon="1.93099">
        <ele>2866.31</ele>
        <time>2021-07-05T10:48:27Z</time>
      </trkpt>
      <trkpt lat="42.5705" lon="1.93099">
        <ele>2866.31</ele>
        <time>2021-07-05T10:48:41Z</time>
      </trkpt>
      <trkpt lat="42.5705" lon="1.931">
        <ele>2866.31</ele>
        <time>2021-07-05T10:48:52Z</time>
      </trkpt>
      <trkpt lat="42.5705" lon="1.931">
        <ele>2865.83</ele>
        <time>2021-07-05T10:49:04Z</time>
      </trkpt>
      <trkpt lat="42.57043" lon="1.93094">
        <ele>2863.42</ele>
        <time>2021-07-05T10:49:10Z</time>
      </trkpt>
      <trkpt lat="42.57039" lon="1.93087">
        <ele>2861.5</ele>
        <time>2021-07-05T10:49:16Z</time>
      </trkpt>
      <trkpt lat="42.57038" lon="1.93081">
        <ele>2859.58</ele>
        <time>2021-07-05T10:49:20Z</time>
      </trkpt>
      <trkpt lat="42.57039" lon="1.93072">
        <ele>2856.69</ele>
        <time>2021-07-05T10:49:27Z</time>
      </trkpt>
      <trkpt lat="42.5704" lon="1.93071">
        <ele>2856.21</ele>
        <time>2021-07-05T10:49:28Z</time>
      </trkpt>
      <trkpt lat="42.57043" lon="1.93068">
        <ele>2855.25</ele>
        <time>2021-07-05T10:49:32Z</time>
      </trkpt>
      <trkpt lat="42.57048" lon="1.93067">
        <ele>2854.29</ele>
        <time>2021-07-05T10:49:36Z</time>
      </trkpt>
      <trkpt lat="42.57051" lon="1.93064">
        <ele>2853.81</ele>
        <time>2021-07-05T10:49:39Z</time>
      </trkpt>
      <trkpt lat="42.57053" lon="1.9306">
        <ele>2851.89</ele>
        <time>2021-07-05T10:49:46Z</time>
      </trkpt>
      <trkpt lat="42.57054" lon="1.93053">
        <ele>2849.97</ele>
        <time>2021-07-05T10:49:53Z</time>
      </trkpt>
      <trkpt lat="42.57054" lon="1.93052">
        <ele>2848.52</ele>
        <time>2021-07-05T10:50:00Z</time>
      </trkpt>
      <trkpt lat="42.57055" lon="1.93051">
        <ele>2847.56</ele>
        <time>2021-07-05T10:50:11Z</time>
      </trkpt>
      <trkpt lat="42.5706" lon="1.93047">
        <ele>2844.68</ele>
        <time>2021-07-05T10:50:18Z</time>
      </trkpt>
      <trkpt lat="42.57062" lon="1.93044">
        <ele>2842.28</ele>
        <time>2021-07-05T10:50:25Z</time>
      </trkpt>
      <trkpt lat="42.57063" lon="1.93043">
        <ele>2841.31</ele>
        <time>2021-07-05T10:50:27Z</time>
      </trkpt>
      <trkpt lat="42.57063" lon="1.93042">
        <ele>2841.79</ele>
        <time>2021-07-05T10:50:29Z</time>
      </trkpt>
      <trkpt lat="42.57065" lon="1.93037">
        <ele>2839.39</ele>
        <time>2021-07-05T10:50:35Z</time>
      </trkpt>
      <trkpt lat="42.57066" lon="1.93035">
        <ele>2838.43</ele>
        <time>2021-07-05T10:50:41Z</time>
      </trkpt>
      <trkpt lat="42.57066" lon="1.93034">
        <ele>2837.95</ele>
        <time>2021-07-05T10:50:42Z</time>
      </trkpt>
      <trkpt lat="42.5707" lon="1.93032">
        <ele>2836.03</ele>
        <time>2021-07-05T10:50:48Z</time>
      </trkpt>
      <trkpt lat="42.57071" lon="1.93027">
        <ele>2832.66</ele>
        <time>2021-07-05T10:50:54Z</time>
      </trkpt>
      <trkpt lat="42.5707" lon="1.93026">
        <ele>2833.14</ele>
        <time>2021-07-05T10:50:56Z</time>
      </trkpt>
      <trkpt lat="42.57071" lon="1.93022">
        <ele>2831.22</ele>
        <time>2021-07-05T10:50:59Z</time>
      </trkpt>
      <trkpt lat="42.57075" lon="1.93022">
        <ele>2830.26</ele>
        <time>2021-07-05T10:51:04Z</time>
      </trkpt>
      <trkpt lat="42.57075" lon="1.93017">
        <ele>2828.82</ele>
        <time>2021-07-05T10:51:10Z</time>
      </trkpt>
      <trkpt lat="42.57075" lon="1.93017">
        <ele>2827.37</ele>
        <time>2021-07-05T10:51:12Z</time>
      </trkpt>
      <trkpt lat="42.57079" lon="1.93017">
        <ele>2825.45</ele>
        <time>2021-07-05T10:51:17Z</time>
      </trkpt>
      <trkpt lat="42.57078" lon="1.93015">
        <ele>2824.97</ele>
        <time>2021-07-05T10:51:18Z</time>
      </trkpt>
      <trkpt lat="42.57078" lon="1.93006">
        <ele>2822.57</ele>
        <time>2021-07-05T10:51:25Z</time>
      </trkpt>
      <trkpt lat="42.57082" lon="1.93004">
        <ele>2820.65</ele>
        <time>2021-07-05T10:51:31Z</time>
      </trkpt>
      <trkpt lat="42.57084" lon="1.93002">
        <ele>2819.2</ele>
        <time>2021-07-05T10:51:36Z</time>
      </trkpt>
      <trkpt lat="42.5709" lon="1.93001">
        <ele>2815.84</ele>
        <time>2021-07-05T10:51:44Z</time>
      </trkpt>
      <trkpt lat="42.57092" lon="1.92999">
        <ele>2813.44</ele>
        <time>2021-07-05T10:51:51Z</time>
      </trkpt>
      <trkpt lat="42.57091" lon="1.92995">
        <ele>2811.51</ele>
        <time>2021-07-05T10:51:54Z</time>
      </trkpt>
      <trkpt lat="42.57091" lon="1.92985">
        <ele>2811.51</ele>
        <time>2021-07-05T10:52:02Z</time>
      </trkpt>
      <trkpt lat="42.57093" lon="1.92981">
        <ele>2809.59</ele>
        <time>2021-07-05T10:52:09Z</time>
      </trkpt>
      <trkpt lat="42.57096" lon="1.92983">
        <ele>2807.19</ele>
        <time>2021-07-05T10:52:15Z</time>
      </trkpt>
      <trkpt lat="42.57101" lon="1.92987">
        <ele>2805.26</ele>
        <time>2021-07-05T10:52:22Z</time>
      </trkpt>
      <trkpt lat="42.57101" lon="1.92984">
        <ele>2803.34</ele>
        <time>2021-07-05T10:52:28Z</time>
      </trkpt>
      <trkpt lat="42.57102" lon="1.92982">
        <ele>2800.94</ele>
        <time>2021-07-05T10:52:35Z</time>
      </trkpt>
      <trkpt lat="42.57106" lon="1.92983">
        <ele>2799.02</ele>
        <time>2021-07-05T10:52:42Z</time>
      </trkpt>
      <trkpt lat="42.57109" lon="1.92981">
        <ele>2797.09</ele>
        <time>2021-07-05T10:52:49Z</time>
      </trkpt>
      <trkpt lat="42.57112" lon="1.92979">
        <ele>2795.17</ele>
        <time>2021-07-05T10:52:56Z</time>
      </trkpt>
      <trkpt lat="42.57116" lon="1.92981">
        <ele>2793.25</ele>
        <time>2021-07-05T10:53:02Z</time>
      </trkpt>
      <trkpt lat="42.57116" lon="1.92981">
        <ele>2794.21</ele>
        <time>2021-07-05T10:53:14Z</time>
      </trkpt>
      <trkpt lat="42.57116" lon="1.9298">
        <ele>2795.17</ele>
        <time>2021-07-05T10:53:26Z</time>
      </trkpt>
      <trkpt lat="42.57116" lon="1.9298">
        <ele>2795.17</ele>
        <time>2021-07-05T10:53:43Z</time>
      </trkpt>
      <trkpt lat="42.57116" lon="1.9298">
        <ele>2794.69</ele>
        <time>2021-07-05T10:54:01Z</time>
      </trkpt>
      <trkpt lat="42.57116" lon="1.9298">
        <ele>2794.69</ele>
        <time>2021-07-05T10:54:21Z</time>
      </trkpt>
      <trkpt lat="42.57116" lon="1.9298">
        <ele>2794.21</ele>
        <time>2021-07-05T10:54:34Z</time>
      </trkpt>
      <trkpt lat="42.57115" lon="1.92977">
        <ele>2793.73</ele>
        <time>2021-07-05T10:54:44Z</time>
      </trkpt>
      <trkpt lat="42.57115" lon="1.92974">
        <ele>2790.84</ele>
        <time>2021-07-05T10:54:54Z</time>
      </trkpt>
      <trkpt lat="42.57117" lon="1.92973">
        <ele>2789.4</ele>
        <time>2021-07-05T10:55:02Z</time>
      </trkpt>
      <trkpt lat="42.57116" lon="1.9297">
        <ele>2788.44</ele>
        <time>2021-07-05T10:55:08Z</time>
      </trkpt>
      <trkpt lat="42.57119" lon="1.92969">
        <ele>2786.04</ele>
        <time>2021-07-05T10:55:16Z</time>
      </trkpt>
      <trkpt lat="42.57119" lon="1.92963">
        <ele>2785.08</ele>
        <time>2021-07-05T10:55:22Z</time>
      </trkpt>
      <trkpt lat="42.57119" lon="1.92962">
        <ele>2782.19</ele>
        <time>2021-07-05T10:55:30Z</time>
      </trkpt>
      <trkpt lat="42.57121" lon="1.92959">
        <ele>2780.75</ele>
        <time>2021-07-05T10:55:38Z</time>
      </trkpt>
      <trkpt lat="42.57122" lon="1.92958">
        <ele>2779.31</ele>
        <time>2021-07-05T10:55:45Z</time>
      </trkpt>
      <trkpt lat="42.57122" lon="1.92955">
        <ele>2776.91</ele>
        <time>2021-07-05T10:55:52Z</time>
      </trkpt>
      <trkpt lat="42.57124" lon="1.9295">
        <ele>2775.46</ele>
        <time>2021-07-05T10:56:00Z</time>
      </trkpt>
      <trkpt lat="42.57125" lon="1.92946">
        <ele>2774.02</ele>
        <time>2021-07-05T10:56:06Z</time>
      </trkpt>
      <trkpt lat="42.57125" lon="1.92946">
        <ele>2773.06</ele>
        <time>2021-07-05T10:56:08Z</time>
      </trkpt>
      <trkpt lat="42.57125" lon="1.92946">
        <ele>2772.1</ele>
        <time>2021-07-05T10:56:15Z</time>
      </trkpt>
      <trkpt lat="42.57125" lon="1.92946">
        <ele>2770.66</ele>
        <time>2021-07-05T10:56:17Z</time>
      </trkpt>
      <trkpt lat="42.57125" lon="1.92944">
        <ele>2767.77</ele>
        <time>2021-07-05T10:56:22Z</time>
      </trkpt>
      <trkpt lat="42.57126" lon="1.92942">
        <ele>2767.29</ele>
        <time>2021-07-05T10:56:27Z</time>
      </trkpt>
      <trkpt lat="42.57128" lon="1.92939">
        <ele>2766.81</ele>
        <time>2021-07-05T10:56:34Z</time>
      </trkpt>
      <trkpt lat="42.57128" lon="1.92939">
        <ele>2765.85</ele>
        <time>2021-07-05T10:56:36Z</time>
      </trkpt>
      <trkpt lat="42.57129" lon="1.92939">
        <ele>2762.49</ele>
        <time>2021-07-05T10:56:44Z</time>
      </trkpt>
      <trkpt lat="42.57129" lon="1.92939">
        <ele>2760.56</ele>
        <time>2021-07-05T10:56:51Z</time>
      </trkpt>
      <trkpt lat="42.5713" lon="1.9294">
        <ele>2758.64</ele>
        <time>2021-07-05T10:56:57Z</time>
      </trkpt>
      <trkpt lat="42.57131" lon="1.92933">
        <ele>2757.68</ele>
        <time>2021-07-05T10:57:03Z</time>
      </trkpt>
      <trkpt lat="42.57133" lon="1.92929">
        <ele>2756.24</ele>
        <time>2021-07-05T10:57:08Z</time>
      </trkpt>
      <trkpt lat="42.57134" lon="1.92929">
        <ele>2755.28</ele>
        <time>2021-07-05T10:57:10Z</time>
      </trkpt>
      <trkpt lat="42.57135" lon="1.92929">
        <ele>2755.28</ele>
        <time>2021-07-05T10:57:12Z</time>
      </trkpt>
      <trkpt lat="42.57136" lon="1.92924">
        <ele>2753.83</ele>
        <time>2021-07-05T10:57:19Z</time>
      </trkpt>
      <trkpt lat="42.57136" lon="1.92923">
        <ele>2751.91</ele>
        <time>2021-07-05T10:57:25Z</time>
      </trkpt>
      <trkpt lat="42.57136" lon="1.92922">
        <ele>2752.39</ele>
        <time>2021-07-05T10:57:27Z</time>
      </trkpt>
      <trkpt lat="42.57135" lon="1.92922">
        <ele>2749.99</ele>
        <time>2021-07-05T10:57:33Z</time>
      </trkpt>
      <trkpt lat="42.57134" lon="1.92918">
        <ele>2747.59</ele>
        <time>2021-07-05T10:57:42Z</time>
      </trkpt>
      <trkpt lat="42.57138" lon="1.92908">
        <ele>2745.66</ele>
        <time>2021-07-05T10:57:49Z</time>
      </trkpt>
      <trkpt lat="42.5714" lon="1.92905">
        <ele>2745.18</ele>
        <time>2021-07-05T10:57:52Z</time>
      </trkpt>
      <trkpt lat="42.57144" lon="1.92903">
        <ele>2743.74</ele>
        <time>2021-07-05T10:57:59Z</time>
      </trkpt>
      <trkpt lat="42.57143" lon="1.92903">
        <ele>2742.3</ele>
        <time>2021-07-05T10:58:11Z</time>
      </trkpt>
      <trkpt lat="42.57145" lon="1.92902">
        <ele>2740.38</ele>
        <time>2021-07-05T10:58:18Z</time>
      </trkpt>
      <trkpt lat="42.57147" lon="1.92902">
        <ele>2738.93</ele>
        <time>2021-07-05T10:58:25Z</time>
      </trkpt>
      <trkpt lat="42.57148" lon="1.92901">
        <ele>2737.49</ele>
        <time>2021-07-05T10:58:32Z</time>
      </trkpt>
      <trkpt lat="42.5715" lon="1.92894">
        <ele>2735.57</ele>
        <time>2021-07-05T10:58:39Z</time>
      </trkpt>
      <trkpt lat="42.57152" lon="1.92889">
        <ele>2733.17</ele>
        <time>2021-07-05T10:58:45Z</time>
      </trkpt>
      <trkpt lat="42.57152" lon="1.92885">
        <ele>2731.72</ele>
        <time>2021-07-05T10:58:52Z</time>
      </trkpt>
      <trkpt lat="42.57156" lon="1.92885">
        <ele>2729.8</ele>
        <time>2021-07-05T10:58:59Z</time>
      </trkpt>
      <trkpt lat="42.57157" lon="1.92881">
        <ele>2726.92</ele>
        <time>2021-07-05T10:59:08Z</time>
      </trkpt>
      <trkpt lat="42.57157" lon="1.92879">
        <ele>2726.44</ele>
        <time>2021-07-05T10:59:10Z</time>
      </trkpt>
      <trkpt lat="42.5716" lon="1.92876">
        <ele>2724.03</ele>
        <time>2021-07-05T10:59:17Z</time>
      </trkpt>
      <trkpt lat="42.57164" lon="1.92874">
        <ele>2722.59</ele>
        <time>2021-07-05T10:59:24Z</time>
      </trkpt>
      <trkpt lat="42.57163" lon="1.92872">
        <ele>2721.15</ele>
        <time>2021-07-05T10:59:31Z</time>
      </trkpt>
      <trkpt lat="42.57162" lon="1.92868">
        <ele>2719.23</ele>
        <time>2021-07-05T10:59:36Z</time>
      </trkpt>
      <trkpt lat="42.57162" lon="1.92865">
        <ele>2718.27</ele>
        <time>2021-07-05T10:59:43Z</time>
      </trkpt>
      <trkpt lat="42.5716" lon="1.92861">
        <ele>2715.86</ele>
        <time>2021-07-05T10:59:50Z</time>
      </trkpt>
      <trkpt lat="42.57162" lon="1.92859">
        <ele>2714.9</ele>
        <time>2021-07-05T10:59:55Z</time>
      </trkpt>
      <trkpt lat="42.57162" lon="1.92857">
        <ele>2713.94</ele>
        <time>2021-07-05T10:59:58Z</time>
      </trkpt>
      <trkpt lat="42.57165" lon="1.92855">
        <ele>2712.5</ele>
        <time>2021-07-05T11:00:02Z</time>
      </trkpt>
      <trkpt lat="42.57166" lon="1.92855">
        <ele>2710.57</ele>
        <time>2021-07-05T11:00:10Z</time>
      </trkpt>
      <trkpt lat="42.57166" lon="1.9285">
        <ele>2708.17</ele>
        <time>2021-07-05T11:00:18Z</time>
      </trkpt>
      <trkpt lat="42.5717" lon="1.92844">
        <ele>2706.25</ele>
        <time>2021-07-05T11:00:25Z</time>
      </trkpt>
      <trkpt lat="42.57171" lon="1.92841">
        <ele>2703.85</ele>
        <time>2021-07-05T11:00:29Z</time>
      </trkpt>
      <trkpt lat="42.57175" lon="1.92836">
        <ele>2701.92</ele>
        <time>2021-07-05T11:00:36Z</time>
      </trkpt>
      <trkpt lat="42.57175" lon="1.92837">
        <ele>2702.4</ele>
        <time>2021-07-05T11:00:42Z</time>
      </trkpt>
      <trkpt lat="42.57176" lon="1.92835">
        <ele>2701.44</ele>
        <time>2021-07-05T11:00:52Z</time>
      </trkpt>
      <trkpt lat="42.57173" lon="1.92831">
        <ele>2699.52</ele>
        <time>2021-07-05T11:00:59Z</time>
      </trkpt>
      <trkpt lat="42.57172" lon="1.92827">
        <ele>2698.08</ele>
        <time>2021-07-05T11:01:03Z</time>
      </trkpt>
      <trkpt lat="42.5717" lon="1.92824">
        <ele>2696.64</ele>
        <time>2021-07-05T11:01:09Z</time>
      </trkpt>
      <trkpt lat="42.57168" lon="1.9282">
        <ele>2694.23</ele>
        <time>2021-07-05T11:01:15Z</time>
      </trkpt>
      <trkpt lat="42.57165" lon="1.92816">
        <ele>2691.83</ele>
        <time>2021-07-05T11:01:21Z</time>
      </trkpt>
      <trkpt lat="42.57164" lon="1.92814">
        <ele>2689.91</ele>
        <time>2021-07-05T11:01:28Z</time>
      </trkpt>
      <trkpt lat="42.57165" lon="1.92809">
        <ele>2687.5</ele>
        <time>2021-07-05T11:01:35Z</time>
      </trkpt>
      <trkpt lat="42.57162" lon="1.92803">
        <ele>2684.62</ele>
        <time>2021-07-05T11:01:43Z</time>
      </trkpt>
      <trkpt lat="42.57161" lon="1.92799">
        <ele>2683.18</ele>
        <time>2021-07-05T11:01:47Z</time>
      </trkpt>
      <trkpt lat="42.57163" lon="1.92795">
        <ele>2680.77</ele>
        <time>2021-07-05T11:01:54Z</time>
      </trkpt>
      <trkpt lat="42.57163" lon="1.92795">
        <ele>2680.77</ele>
        <time>2021-07-05T11:01:55Z</time>
      </trkpt>
      <trkpt lat="42.57163" lon="1.92789">
        <ele>2677.89</ele>
        <time>2021-07-05T11:02:02Z</time>
      </trkpt>
      <trkpt lat="42.57167" lon="1.92785">
        <ele>2675.01</ele>
        <time>2021-07-05T11:02:09Z</time>
      </trkpt>
      <trkpt lat="42.57171" lon="1.92783">
        <ele>2672.6</ele>
        <time>2021-07-05T11:02:15Z</time>
      </trkpt>
      <trkpt lat="42.57173" lon="1.92781">
        <ele>2671.16</ele>
        <time>2021-07-05T11:02:19Z</time>
      </trkpt>
      <trkpt lat="42.57171" lon="1.92778">
        <ele>2669.72</ele>
        <time>2021-07-05T11:02:25Z</time>
      </trkpt>
      <trkpt lat="42.57169" lon="1.92776">
        <ele>2667.8</ele>
        <time>2021-07-05T11:02:33Z</time>
      </trkpt>
      <trkpt lat="42.5717" lon="1.92775">
        <ele>2667.31</ele>
        <time>2021-07-05T11:02:36Z</time>
      </trkpt>
      <trkpt lat="42.57175" lon="1.9277">
        <ele>2665.39</ele>
        <time>2021-07-05T11:02:43Z</time>
      </trkpt>
      <trkpt lat="42.57171" lon="1.92766">
        <ele>2662.51</ele>
        <time>2021-07-05T11:02:51Z</time>
      </trkpt>
      <trkpt lat="42.57172" lon="1.92762">
        <ele>2660.11</ele>
        <time>2021-07-05T11:02:58Z</time>
      </trkpt>
      <trkpt lat="42.5717" lon="1.92757">
        <ele>2657.7</ele>
        <time>2021-07-05T11:03:05Z</time>
      </trkpt>
      <trkpt lat="42.57167" lon="1.92752">
        <ele>2655.78</ele>
        <time>2021-07-05T11:03:12Z</time>
      </trkpt>
      <trkpt lat="42.57161" lon="1.92751">
        <ele>2654.34</ele>
        <time>2021-07-05T11:03:20Z</time>
      </trkpt>
      <trkpt lat="42.57164" lon="1.92748">
        <ele>2653.86</ele>
        <time>2021-07-05T11:03:30Z</time>
      </trkpt>
      <trkpt lat="42.57169" lon="1.92743">
        <ele>2650.97</ele>
        <time>2021-07-05T11:03:38Z</time>
      </trkpt>
      <trkpt lat="42.57175" lon="1.9274">
        <ele>2648.57</ele>
        <time>2021-07-05T11:03:44Z</time>
      </trkpt>
      <trkpt lat="42.57175" lon="1.92736">
        <ele>2645.69</ele>
        <time>2021-07-05T11:03:52Z</time>
      </trkpt>
      <trkpt lat="42.57175" lon="1.92735">
        <ele>2646.17</ele>
        <time>2021-07-05T11:03:53Z</time>
      </trkpt>
      <trkpt lat="42.57175" lon="1.9273">
        <ele>2642.8</ele>
        <time>2021-07-05T11:04:01Z</time>
      </trkpt>
      <trkpt lat="42.57178" lon="1.92727">
        <ele>2640.88</ele>
        <time>2021-07-05T11:04:09Z</time>
      </trkpt>
      <trkpt lat="42.57182" lon="1.92722">
        <ele>2639.44</ele>
        <time>2021-07-05T11:04:17Z</time>
      </trkpt>
      <trkpt lat="42.57181" lon="1.92722">
        <ele>2639.44</ele>
        <time>2021-07-05T11:04:18Z</time>
      </trkpt>
      <trkpt lat="42.57179" lon="1.9272">
        <ele>2637.03</ele>
        <time>2021-07-05T11:04:23Z</time>
      </trkpt>
      <trkpt lat="42.57177" lon="1.92716">
        <ele>2636.07</ele>
        <time>2021-07-05T11:04:26Z</time>
      </trkpt>
      <trkpt lat="42.57174" lon="1.92714">
        <ele>2633.67</ele>
        <time>2021-07-05T11:04:30Z</time>
      </trkpt>
      <trkpt lat="42.57175" lon="1.9271">
        <ele>2631.27</ele>
        <time>2021-07-05T11:04:35Z</time>
      </trkpt>
      <trkpt lat="42.57175" lon="1.92709">
        <ele>2630.3</ele>
        <time>2021-07-05T11:04:36Z</time>
      </trkpt>
      <trkpt lat="42.57175" lon="1.92703">
        <ele>2627.9</ele>
        <time>2021-07-05T11:04:43Z</time>
      </trkpt>
      <trkpt lat="42.57176" lon="1.92701">
        <ele>2626.46</ele>
        <time>2021-07-05T11:04:53Z</time>
      </trkpt>
      <trkpt lat="42.57177" lon="1.92701">
        <ele>2626.46</ele>
        <time>2021-07-05T11:04:54Z</time>
      </trkpt>
      <trkpt lat="42.57179" lon="1.92699">
        <ele>2625.02</ele>
        <time>2021-07-05T11:04:59Z</time>
      </trkpt>
      <trkpt lat="42.5718" lon="1.92697">
        <ele>2623.58</ele>
        <time>2021-07-05T11:05:02Z</time>
      </trkpt>
      <trkpt lat="42.5718" lon="1.92689">
        <ele>2620.69</ele>
        <time>2021-07-05T11:05:09Z</time>
      </trkpt>
      <trkpt lat="42.5718" lon="1.92687">
        <ele>2620.69</ele>
        <time>2021-07-05T11:05:10Z</time>
      </trkpt>
      <trkpt lat="42.5718" lon="1.92686">
        <ele>2620.21</ele>
        <time>2021-07-05T11:05:11Z</time>
      </trkpt>
      <trkpt lat="42.57181" lon="1.92683">
        <ele>2618.77</ele>
        <time>2021-07-05T11:05:14Z</time>
      </trkpt>
      <trkpt lat="42.57186" lon="1.92678">
        <ele>2616.37</ele>
        <time>2021-07-05T11:05:22Z</time>
      </trkpt>
      <trkpt lat="42.57182" lon="1.92668">
        <ele>2613</ele>
        <time>2021-07-05T11:05:30Z</time>
      </trkpt>
      <trkpt lat="42.57182" lon="1.92663">
        <ele>2609.64</ele>
        <time>2021-07-05T11:05:37Z</time>
      </trkpt>
      <trkpt lat="42.57184" lon="1.92659">
        <ele>2608.19</ele>
        <time>2021-07-05T11:05:42Z</time>
      </trkpt>
      <trkpt lat="42.57187" lon="1.92653">
        <ele>2606.27</ele>
        <time>2021-07-05T11:05:49Z</time>
      </trkpt>
      <trkpt lat="42.57188" lon="1.92649">
        <ele>2603.39</ele>
        <time>2021-07-05T11:05:53Z</time>
      </trkpt>
      <trkpt lat="42.57188" lon="1.92649">
        <ele>2603.39</ele>
        <time>2021-07-05T11:05:54Z</time>
      </trkpt>
      <trkpt lat="42.5719" lon="1.92646">
        <ele>2601.95</ele>
        <time>2021-07-05T11:05:58Z</time>
      </trkpt>
      <trkpt lat="42.57186" lon="1.9264">
        <ele>2600.02</ele>
        <time>2021-07-05T11:06:06Z</time>
      </trkpt>
      <trkpt lat="42.57184" lon="1.92635">
        <ele>2598.1</ele>
        <time>2021-07-05T11:06:10Z</time>
      </trkpt>
      <trkpt lat="42.57184" lon="1.92627">
        <ele>2594.74</ele>
        <time>2021-07-05T11:06:16Z</time>
      </trkpt>
      <trkpt lat="42.57185" lon="1.92625">
        <ele>2593.29</ele>
        <time>2021-07-05T11:06:20Z</time>
      </trkpt>
      <trkpt lat="42.57187" lon="1.92622">
        <ele>2591.85</ele>
        <time>2021-07-05T11:06:23Z</time>
      </trkpt>
      <trkpt lat="42.57186" lon="1.9262">
        <ele>2591.37</ele>
        <time>2021-07-05T11:06:25Z</time>
      </trkpt>
      <trkpt lat="42.57186" lon="1.92618">
        <ele>2589.93</ele>
        <time>2021-07-05T11:06:28Z</time>
      </trkpt>
      <trkpt lat="42.57192" lon="1.92613">
        <ele>2587.53</ele>
        <time>2021-07-05T11:06:35Z</time>
      </trkpt>
      <trkpt lat="42.57193" lon="1.92613">
        <ele>2586.56</ele>
        <time>2021-07-05T11:06:42Z</time>
      </trkpt>
      <trkpt lat="42.57193" lon="1.92613">
        <ele>2586.56</ele>
        <time>2021-07-05T11:06:51Z</time>
      </trkpt>
      <trkpt lat="42.57193" lon="1.92614">
        <ele>2587.04</ele>
        <time>2021-07-05T11:07:05Z</time>
      </trkpt>
      <trkpt lat="42.57193" lon="1.92614">
        <ele>2587.04</ele>
        <time>2021-07-05T11:07:20Z</time>
      </trkpt>
      <trkpt lat="42.57194" lon="1.92614">
        <ele>2586.56</ele>
        <time>2021-07-05T11:07:35Z</time>
      </trkpt>
      <trkpt lat="42.57194" lon="1.92614">
        <ele>2587.53</ele>
        <time>2021-07-05T11:07:50Z</time>
      </trkpt>
      <trkpt lat="42.57194" lon="1.9261">
        <ele>2584.16</ele>
        <time>2021-07-05T11:07:57Z</time>
      </trkpt>
      <trkpt lat="42.57195" lon="1.92606">
        <ele>2584.16</ele>
        <time>2021-07-05T11:08:02Z</time>
      </trkpt>
      <trkpt lat="42.57192" lon="1.92597">
        <ele>2580.8</ele>
        <time>2021-07-05T11:08:09Z</time>
      </trkpt>
      <trkpt lat="42.57192" lon="1.92595">
        <ele>2580.32</ele>
        <time>2021-07-05T11:08:10Z</time>
      </trkpt>
      <trkpt lat="42.57188" lon="1.92587">
        <ele>2577.43</ele>
        <time>2021-07-05T11:08:17Z</time>
      </trkpt>
      <trkpt lat="42.57188" lon="1.92582">
        <ele>2574.07</ele>
        <time>2021-07-05T11:08:22Z</time>
      </trkpt>
      <trkpt lat="42.57187" lon="1.92579">
        <ele>2575.51</ele>
        <time>2021-07-05T11:08:25Z</time>
      </trkpt>
      <trkpt lat="42.57185" lon="1.92574">
        <ele>2572.63</ele>
        <time>2021-07-05T11:08:30Z</time>
      </trkpt>
      <trkpt lat="42.57179" lon="1.92566">
        <ele>2570.7</ele>
        <time>2021-07-05T11:08:37Z</time>
      </trkpt>
      <trkpt lat="42.5718" lon="1.92562">
        <ele>2568.3</ele>
        <time>2021-07-05T11:08:42Z</time>
      </trkpt>
      <trkpt lat="42.57179" lon="1.9256">
        <ele>2568.3</ele>
        <time>2021-07-05T11:08:44Z</time>
      </trkpt>
      <trkpt lat="42.57181" lon="1.92557">
        <ele>2566.38</ele>
        <time>2021-07-05T11:08:48Z</time>
      </trkpt>
      <trkpt lat="42.57181" lon="1.92554">
        <ele>2565.9</ele>
        <time>2021-07-05T11:08:52Z</time>
      </trkpt>
      <trkpt lat="42.5718" lon="1.92544">
        <ele>2563.01</ele>
        <time>2021-07-05T11:08:59Z</time>
      </trkpt>
      <trkpt lat="42.57178" lon="1.9254">
        <ele>2561.57</ele>
        <time>2021-07-05T11:09:03Z</time>
      </trkpt>
      <trkpt lat="42.57177" lon="1.92533">
        <ele>2559.65</ele>
        <time>2021-07-05T11:09:09Z</time>
      </trkpt>
      <trkpt lat="42.57175" lon="1.92528">
        <ele>2558.21</ele>
        <time>2021-07-05T11:09:12Z</time>
      </trkpt>
      <trkpt lat="42.57177" lon="1.92526">
        <ele>2556.76</ele>
        <time>2021-07-05T11:09:15Z</time>
      </trkpt>
      <trkpt lat="42.57175" lon="1.92518">
        <ele>2554.84</ele>
        <time>2021-07-05T11:09:21Z</time>
      </trkpt>
      <trkpt lat="42.57173" lon="1.92513">
        <ele>2552.44</ele>
        <time>2021-07-05T11:09:26Z</time>
      </trkpt>
      <trkpt lat="42.57172" lon="1.925">
        <ele>2549.55</ele>
        <time>2021-07-05T11:09:36Z</time>
      </trkpt>
      <trkpt lat="42.57171" lon="1.92494">
        <ele>2548.11</ele>
        <time>2021-07-05T11:09:42Z</time>
      </trkpt>
      <trkpt lat="42.57173" lon="1.92487">
        <ele>2546.19</ele>
        <time>2021-07-05T11:09:48Z</time>
      </trkpt>
      <trkpt lat="42.5717" lon="1.92482">
        <ele>2544.75</ele>
        <time>2021-07-05T11:09:55Z</time>
      </trkpt>
      <trkpt lat="42.5717" lon="1.9248">
        <ele>2543.79</ele>
        <time>2021-07-05T11:09:57Z</time>
      </trkpt>
      <trkpt lat="42.57168" lon="1.92471">
        <ele>2541.86</ele>
        <time>2021-07-05T11:10:04Z</time>
      </trkpt>
      <trkpt lat="42.57168" lon="1.9247">
        <ele>2541.86</ele>
        <time>2021-07-05T11:10:05Z</time>
      </trkpt>
      <trkpt lat="42.57166" lon="1.92466">
        <ele>2541.38</ele>
        <time>2021-07-05T11:10:12Z</time>
      </trkpt>
      <trkpt lat="42.57166" lon="1.92464">
        <ele>2541.86</ele>
        <time>2021-07-05T11:10:25Z</time>
      </trkpt>
      <trkpt lat="42.57166" lon="1.92464">
        <ele>2541.38</ele>
        <time>2021-07-05T11:10:39Z</time>
      </trkpt>
      <trkpt lat="42.57166" lon="1.92464">
        <ele>2541.38</ele>
        <time>2021-07-05T11:10:44Z</time>
      </trkpt>
      <trkpt lat="42.57166" lon="1.92464">
        <ele>2540.9</ele>
        <time>2021-07-05T11:10:55Z</time>
      </trkpt>
      <trkpt lat="42.57166" lon="1.92464">
        <ele>2540.9</ele>
        <time>2021-07-05T11:11:07Z</time>
      </trkpt>
      <trkpt lat="42.57166" lon="1.92463">
        <ele>2541.38</ele>
        <time>2021-07-05T11:11:09Z</time>
      </trkpt>
      <trkpt lat="42.57166" lon="1.92459">
        <ele>2540.9</ele>
        <time>2021-07-05T11:11:11Z</time>
      </trkpt>
      <trkpt lat="42.57166" lon="1.92447">
        <ele>2539.46</ele>
        <time>2021-07-05T11:11:18Z</time>
      </trkpt>
      <trkpt lat="42.57164" lon="1.92439">
        <ele>2540.42</ele>
        <time>2021-07-05T11:11:25Z</time>
      </trkpt>
      <trkpt lat="42.57164" lon="1.92431">
        <ele>2541.86</ele>
        <time>2021-07-05T11:11:31Z</time>
      </trkpt>
      <trkpt lat="42.57164" lon="1.92427">
        <ele>2542.34</ele>
        <time>2021-07-05T11:11:37Z</time>
      </trkpt>
      <trkpt lat="42.57164" lon="1.92426">
        <ele>2541.86</ele>
        <time>2021-07-05T11:11:52Z</time>
      </trkpt>
      <trkpt lat="42.57164" lon="1.92425">
        <ele>2541.86</ele>
        <time>2021-07-05T11:11:57Z</time>
      </trkpt>
      <trkpt lat="42.57166" lon="1.92419">
        <ele>2540.42</ele>
        <time>2021-07-05T11:12:02Z</time>
      </trkpt>
      <trkpt lat="42.57161" lon="1.92408">
        <ele>2542.34</ele>
        <time>2021-07-05T11:12:10Z</time>
      </trkpt>
      <trkpt lat="42.57161" lon="1.924">
        <ele>2540.9</ele>
        <time>2021-07-05T11:12:15Z</time>
      </trkpt>
      <trkpt lat="42.57161" lon="1.92393">
        <ele>2539.94</ele>
        <time>2021-07-05T11:12:19Z</time>
      </trkpt>
      <trkpt lat="42.57157" lon="1.92385">
        <ele>2538.98</ele>
        <time>2021-07-05T11:12:24Z</time>
      </trkpt>
      <trkpt lat="42.57154" lon="1.92379">
        <ele>2538.5</ele>
        <time>2021-07-05T11:12:28Z</time>
      </trkpt>
      <trkpt lat="42.57154" lon="1.92374">
        <ele>2537.54</ele>
        <time>2021-07-05T11:12:31Z</time>
      </trkpt>
      <trkpt lat="42.57151" lon="1.92366">
        <ele>2535.61</ele>
        <time>2021-07-05T11:12:36Z</time>
      </trkpt>
      <trkpt lat="42.57151" lon="1.92363">
        <ele>2535.13</ele>
        <time>2021-07-05T11:12:38Z</time>
      </trkpt>
      <trkpt lat="42.5715" lon="1.92353">
        <ele>2533.21</ele>
        <time>2021-07-05T11:12:45Z</time>
      </trkpt>
      <trkpt lat="42.57151" lon="1.92351">
        <ele>2533.21</ele>
        <time>2021-07-05T11:12:50Z</time>
      </trkpt>
      <trkpt lat="42.5715" lon="1.92338">
        <ele>2530.33</ele>
        <time>2021-07-05T11:12:57Z</time>
      </trkpt>
      <trkpt lat="42.57151" lon="1.92332">
        <ele>2529.85</ele>
        <time>2021-07-05T11:13:01Z</time>
      </trkpt>
      <trkpt lat="42.57151" lon="1.92331">
        <ele>2528.89</ele>
        <time>2021-07-05T11:13:03Z</time>
      </trkpt>
      <trkpt lat="42.57153" lon="1.92327">
        <ele>2527.92</ele>
        <time>2021-07-05T11:13:07Z</time>
      </trkpt>
      <trkpt lat="42.57154" lon="1.92316">
        <ele>2526.48</ele>
        <time>2021-07-05T11:13:15Z</time>
      </trkpt>
      <trkpt lat="42.57154" lon="1.92311">
        <ele>2525.04</ele>
        <time>2021-07-05T11:13:19Z</time>
      </trkpt>
      <trkpt lat="42.57152" lon="1.92309">
        <ele>2524.56</ele>
        <time>2021-07-05T11:13:22Z</time>
      </trkpt>
      <trkpt lat="42.57153" lon="1.92304">
        <ele>2522.64</ele>
        <time>2021-07-05T11:13:26Z</time>
      </trkpt>
      <trkpt lat="42.57154" lon="1.92303">
        <ele>2522.16</ele>
        <time>2021-07-05T11:13:27Z</time>
      </trkpt>
      <trkpt lat="42.57159" lon="1.92291">
        <ele>2520.71</ele>
        <time>2021-07-05T11:13:36Z</time>
      </trkpt>
      <trkpt lat="42.57163" lon="1.92286">
        <ele>2518.31</ele>
        <time>2021-07-05T11:13:40Z</time>
      </trkpt>
      <trkpt lat="42.57167" lon="1.92276">
        <ele>2515.43</ele>
        <time>2021-07-05T11:13:48Z</time>
      </trkpt>
      <trkpt lat="42.57168" lon="1.92274">
        <ele>2514.95</ele>
        <time>2021-07-05T11:13:50Z</time>
      </trkpt>
      <trkpt lat="42.57168" lon="1.92271">
        <ele>2516.87</ele>
        <time>2021-07-05T11:13:52Z</time>
      </trkpt>
      <trkpt lat="42.57169" lon="1.92267">
        <ele>2514.95</ele>
        <time>2021-07-05T11:13:55Z</time>
      </trkpt>
      <trkpt lat="42.57169" lon="1.9226">
        <ele>2512.54</ele>
        <time>2021-07-05T11:14:01Z</time>
      </trkpt>
      <trkpt lat="42.57167" lon="1.92252">
        <ele>2512.06</ele>
        <time>2021-07-05T11:14:08Z</time>
      </trkpt>
      <trkpt lat="42.57168" lon="1.92247">
        <ele>2509.18</ele>
        <time>2021-07-05T11:14:13Z</time>
      </trkpt>
      <trkpt lat="42.5717" lon="1.92241">
        <ele>2507.74</ele>
        <time>2021-07-05T11:14:19Z</time>
      </trkpt>
      <trkpt lat="42.5717" lon="1.92238">
        <ele>2507.74</ele>
        <time>2021-07-05T11:14:21Z</time>
      </trkpt>
      <trkpt lat="42.57169" lon="1.92235">
        <ele>2507.26</ele>
        <time>2021-07-05T11:14:23Z</time>
      </trkpt>
      <trkpt lat="42.57161" lon="1.9223">
        <ele>2505.33</ele>
        <time>2021-07-05T11:14:30Z</time>
      </trkpt>
      <trkpt lat="42.5716" lon="1.92228">
        <ele>2504.85</ele>
        <time>2021-07-05T11:14:32Z</time>
      </trkpt>
      <trkpt lat="42.57163" lon="1.92225">
        <ele>2503.89</ele>
        <time>2021-07-05T11:14:40Z</time>
      </trkpt>
      <trkpt lat="42.57163" lon="1.92221">
        <ele>2501.49</ele>
        <time>2021-07-05T11:14:44Z</time>
      </trkpt>
      <trkpt lat="42.57167" lon="1.92213">
        <ele>2500.05</ele>
        <time>2021-07-05T11:14:50Z</time>
      </trkpt>
      <trkpt lat="42.5717" lon="1.92201">
        <ele>2498.6</ele>
        <time>2021-07-05T11:14:57Z</time>
      </trkpt>
      <trkpt lat="42.57168" lon="1.92192">
        <ele>2495.72</ele>
        <time>2021-07-05T11:15:04Z</time>
      </trkpt>
      <trkpt lat="42.57167" lon="1.9219">
        <ele>2496.2</ele>
        <time>2021-07-05T11:15:06Z</time>
      </trkpt>
      <trkpt lat="42.57166" lon="1.92185">
        <ele>2495.24</ele>
        <time>2021-07-05T11:15:09Z</time>
      </trkpt>
      <trkpt lat="42.57163" lon="1.92182">
        <ele>2494.76</ele>
        <time>2021-07-05T11:15:13Z</time>
      </trkpt>
      <trkpt lat="42.57165" lon="1.92176">
        <ele>2490.91</ele>
        <time>2021-07-05T11:15:17Z</time>
      </trkpt>
      <trkpt lat="42.57167" lon="1.92171">
        <ele>2489.47</ele>
        <time>2021-07-05T11:15:20Z</time>
      </trkpt>
      <trkpt lat="42.57168" lon="1.9217">
        <ele>2489.95</ele>
        <time>2021-07-05T11:15:21Z</time>
      </trkpt>
      <trkpt lat="42.57168" lon="1.92166">
        <ele>2489.47</ele>
        <time>2021-07-05T11:15:23Z</time>
      </trkpt>
      <trkpt lat="42.57171" lon="1.92162">
        <ele>2485.63</ele>
        <time>2021-07-05T11:15:26Z</time>
      </trkpt>
      <trkpt lat="42.57174" lon="1.92159">
        <ele>2485.63</ele>
        <time>2021-07-05T11:15:30Z</time>
      </trkpt>
      <trkpt lat="42.57181" lon="1.92154">
        <ele>2484.18</ele>
        <time>2021-07-05T11:15:36Z</time>
      </trkpt>
      <trkpt lat="42.57187" lon="1.92152">
        <ele>2484.18</ele>
        <time>2021-07-05T11:15:43Z</time>
      </trkpt>
      <trkpt lat="42.57186" lon="1.9215">
        <ele>2484.18</ele>
        <time>2021-07-05T11:15:44Z</time>
      </trkpt>
      <trkpt lat="42.57187" lon="1.92137">
        <ele>2482.74</ele>
        <time>2021-07-05T11:15:52Z</time>
      </trkpt>
      <trkpt lat="42.57187" lon="1.92127">
        <ele>2482.26</ele>
        <time>2021-07-05T11:15:57Z</time>
      </trkpt>
      <trkpt lat="42.57189" lon="1.92114">
        <ele>2480.34</ele>
        <time>2021-07-05T11:16:04Z</time>
      </trkpt>
      <trkpt lat="42.57189" lon="1.92112">
        <ele>2480.34</ele>
        <time>2021-07-05T11:16:05Z</time>
      </trkpt>
      <trkpt lat="42.57189" lon="1.92105">
        <ele>2480.34</ele>
        <time>2021-07-05T11:16:09Z</time>
      </trkpt>
      <trkpt lat="42.5719" lon="1.92097">
        <ele>2479.86</ele>
        <time>2021-07-05T11:16:13Z</time>
      </trkpt>
      <trkpt lat="42.57194" lon="1.92083">
        <ele>2480.34</ele>
        <time>2021-07-05T11:16:21Z</time>
      </trkpt>
      <trkpt lat="42.57197" lon="1.9208">
        <ele>2480.34</ele>
        <time>2021-07-05T11:16:23Z</time>
      </trkpt>
      <trkpt lat="42.57201" lon="1.92069">
        <ele>2481.3</ele>
        <time>2021-07-05T11:16:29Z</time>
      </trkpt>
      <trkpt lat="42.57206" lon="1.92056">
        <ele>2480.34</ele>
        <time>2021-07-05T11:16:37Z</time>
      </trkpt>
      <trkpt lat="42.5721" lon="1.9205">
        <ele>2482.26</ele>
        <time>2021-07-05T11:16:43Z</time>
      </trkpt>
      <trkpt lat="42.57209" lon="1.92049">
        <ele>2483.7</ele>
        <time>2021-07-05T11:16:52Z</time>
      </trkpt>
      <trkpt lat="42.57209" lon="1.92048">
        <ele>2483.7</ele>
        <time>2021-07-05T11:17:02Z</time>
      </trkpt>
      <trkpt lat="42.57209" lon="1.92048">
        <ele>2482.74</ele>
        <time>2021-07-05T11:17:15Z</time>
      </trkpt>
      <trkpt lat="42.5721" lon="1.92048">
        <ele>2480.34</ele>
        <time>2021-07-05T11:17:30Z</time>
      </trkpt>
      <trkpt lat="42.57209" lon="1.92048">
        <ele>2481.3</ele>
        <time>2021-07-05T11:17:51Z</time>
      </trkpt>
      <trkpt lat="42.5721" lon="1.92048">
        <ele>2480.34</ele>
        <time>2021-07-05T11:18:06Z</time>
      </trkpt>
      <trkpt lat="42.5721" lon="1.92048">
        <ele>2480.34</ele>
        <time>2021-07-05T11:18:18Z</time>
      </trkpt>
      <trkpt lat="42.5721" lon="1.92049">
        <ele>2479.86</ele>
        <time>2021-07-05T11:18:29Z</time>
      </trkpt>
      <trkpt lat="42.57211" lon="1.92048">
        <ele>2479.86</ele>
        <time>2021-07-05T11:18:41Z</time>
      </trkpt>
      <trkpt lat="42.57215" lon="1.92048">
        <ele>2479.38</ele>
        <time>2021-07-05T11:18:45Z</time>
      </trkpt>
      <trkpt lat="42.57224" lon="1.92043">
        <ele>2478.42</ele>
        <time>2021-07-05T11:18:52Z</time>
      </trkpt>
      <trkpt lat="42.57226" lon="1.92039">
        <ele>2478.42</ele>
        <time>2021-07-05T11:18:55Z</time>
      </trkpt>
      <trkpt lat="42.57227" lon="1.92035">
        <ele>2478.42</ele>
        <time>2021-07-05T11:18:58Z</time>
      </trkpt>
      <trkpt lat="42.57229" lon="1.92028">
        <ele>2478.42</ele>
        <time>2021-07-05T11:19:02Z</time>
      </trkpt>
      <trkpt lat="42.57226" lon="1.92016">
        <ele>2479.38</ele>
        <time>2021-07-05T11:19:09Z</time>
      </trkpt>
      <trkpt lat="42.57226" lon="1.92009">
        <ele>2478.42</ele>
        <time>2021-07-05T11:19:12Z</time>
      </trkpt>
      <trkpt lat="42.57227" lon="1.91994">
        <ele>2479.38</ele>
        <time>2021-07-05T11:19:20Z</time>
      </trkpt>
      <trkpt lat="42.57227" lon="1.91983">
        <ele>2478.9</ele>
        <time>2021-07-05T11:19:26Z</time>
      </trkpt>
      <trkpt lat="42.57227" lon="1.91982">
        <ele>2479.38</ele>
        <time>2021-07-05T11:19:27Z</time>
      </trkpt>
      <trkpt lat="42.57225" lon="1.91974">
        <ele>2479.38</ele>
        <time>2021-07-05T11:19:31Z</time>
      </trkpt>
      <trkpt lat="42.57228" lon="1.91966">
        <ele>2479.38</ele>
        <time>2021-07-05T11:19:35Z</time>
      </trkpt>
      <trkpt lat="42.57234" lon="1.91955">
        <ele>2478.42</ele>
        <time>2021-07-05T11:19:42Z</time>
      </trkpt>
      <trkpt lat="42.57242" lon="1.91946">
        <ele>2475.05</ele>
        <time>2021-07-05T11:19:48Z</time>
      </trkpt>
      <trkpt lat="42.57243" lon="1.91945">
        <ele>2475.53</ele>
        <time>2021-07-05T11:19:49Z</time>
      </trkpt>
      <trkpt lat="42.57244" lon="1.91939">
        <ele>2474.09</ele>
        <time>2021-07-05T11:19:52Z</time>
      </trkpt>
      <trkpt lat="42.57247" lon="1.91931">
        <ele>2473.13</ele>
        <time>2021-07-05T11:19:56Z</time>
      </trkpt>
      <trkpt lat="42.57254" lon="1.91918">
        <ele>2473.61</ele>
        <time>2021-07-05T11:20:04Z</time>
      </trkpt>
      <trkpt lat="42.5726" lon="1.91906">
        <ele>2473.13</ele>
        <time>2021-07-05T11:20:11Z</time>
      </trkpt>
      <trkpt lat="42.5726" lon="1.91904">
        <ele>2473.61</ele>
        <time>2021-07-05T11:20:12Z</time>
      </trkpt>
      <trkpt lat="42.57265" lon="1.91892">
        <ele>2473.61</ele>
        <time>2021-07-05T11:20:19Z</time>
      </trkpt>
      <trkpt lat="42.57265" lon="1.91891">
        <ele>2473.61</ele>
        <time>2021-07-05T11:20:27Z</time>
      </trkpt>
      <trkpt lat="42.57265" lon="1.91891">
        <ele>2473.13</ele>
        <time>2021-07-05T11:20:44Z</time>
      </trkpt>
      <trkpt lat="42.57265" lon="1.9189">
        <ele>2472.17</ele>
        <time>2021-07-05T11:20:59Z</time>
      </trkpt>
      <trkpt lat="42.57265" lon="1.9189">
        <ele>2472.17</ele>
        <time>2021-07-05T11:21:09Z</time>
      </trkpt>
      <trkpt lat="42.57266" lon="1.9189">
        <ele>2472.65</ele>
        <time>2021-07-05T11:21:23Z</time>
      </trkpt>
      <trkpt lat="42.57266" lon="1.91889">
        <ele>2472.65</ele>
        <time>2021-07-05T11:21:36Z</time>
      </trkpt>
      <trkpt lat="42.57265" lon="1.91889">
        <ele>2472.65</ele>
        <time>2021-07-05T11:21:52Z</time>
      </trkpt>
      <trkpt lat="42.57265" lon="1.91889">
        <ele>2472.65</ele>
        <time>2021-07-05T11:22:05Z</time>
      </trkpt>
      <trkpt lat="42.57265" lon="1.91889">
        <ele>2472.17</ele>
        <time>2021-07-05T11:22:14Z</time>
      </trkpt>
      <trkpt lat="42.57269" lon="1.9188">
        <ele>2472.17</ele>
        <time>2021-07-05T11:22:21Z</time>
      </trkpt>
      <trkpt lat="42.57275" lon="1.91869">
        <ele>2473.61</ele>
        <time>2021-07-05T11:22:28Z</time>
      </trkpt>
      <trkpt lat="42.57275" lon="1.91867">
        <ele>2473.61</ele>
        <time>2021-07-05T11:22:29Z</time>
      </trkpt>
      <trkpt lat="42.57278" lon="1.91863">
        <ele>2474.09</ele>
        <time>2021-07-05T11:22:32Z</time>
      </trkpt>
      <trkpt lat="42.57285" lon="1.91854">
        <ele>2473.61</ele>
        <time>2021-07-05T11:22:38Z</time>
      </trkpt>
      <trkpt lat="42.57288" lon="1.91851">
        <ele>2473.61</ele>
        <time>2021-07-05T11:22:40Z</time>
      </trkpt>
      <trkpt lat="42.5729" lon="1.9185">
        <ele>2473.61</ele>
        <time>2021-07-05T11:22:42Z</time>
      </trkpt>
      <trkpt lat="42.57301" lon="1.91836">
        <ele>2472.65</ele>
        <time>2021-07-05T11:22:52Z</time>
      </trkpt>
      <trkpt lat="42.57306" lon="1.91824">
        <ele>2472.65</ele>
        <time>2021-07-05T11:22:59Z</time>
      </trkpt>
      <trkpt lat="42.57307" lon="1.91823">
        <ele>2472.17</ele>
        <time>2021-07-05T11:23:00Z</time>
      </trkpt>
      <trkpt lat="42.57312" lon="1.91805">
        <ele>2471.69</ele>
        <time>2021-07-05T11:23:09Z</time>
      </trkpt>
      <trkpt lat="42.57312" lon="1.918">
        <ele>2470.73</ele>
        <time>2021-07-05T11:23:11Z</time>
      </trkpt>
      <trkpt lat="42.57315" lon="1.91787">
        <ele>2470.24</ele>
        <time>2021-07-05T11:23:18Z</time>
      </trkpt>
      <trkpt lat="42.57317" lon="1.91783">
        <ele>2468.8</ele>
        <time>2021-07-05T11:23:21Z</time>
      </trkpt>
      <trkpt lat="42.57319" lon="1.9178">
        <ele>2468.8</ele>
        <time>2021-07-05T11:23:23Z</time>
      </trkpt>
      <trkpt lat="42.57325" lon="1.9177">
        <ele>2467.84</ele>
        <time>2021-07-05T11:23:30Z</time>
      </trkpt>
      <trkpt lat="42.57333" lon="1.91755">
        <ele>2467.84</ele>
        <time>2021-07-05T11:23:39Z</time>
      </trkpt>
      <trkpt lat="42.57341" lon="1.91741">
        <ele>2467.84</ele>
        <time>2021-07-05T11:23:47Z</time>
      </trkpt>
      <trkpt lat="42.57346" lon="1.9173">
        <ele>2466.4</ele>
        <time>2021-07-05T11:23:54Z</time>
      </trkpt>
      <trkpt lat="42.57348" lon="1.91724">
        <ele>2464.48</ele>
        <time>2021-07-05T11:23:59Z</time>
      </trkpt>
      <trkpt lat="42.57355" lon="1.91713">
        <ele>2462.55</ele>
        <time>2021-07-05T11:24:06Z</time>
      </trkpt>
      <trkpt lat="42.57362" lon="1.91706">
        <ele>2459.19</ele>
        <time>2021-07-05T11:24:13Z</time>
      </trkpt>
      <trkpt lat="42.57363" lon="1.91704">
        <ele>2458.71</ele>
        <time>2021-07-05T11:24:14Z</time>
      </trkpt>
      <trkpt lat="42.57364" lon="1.91701">
        <ele>2457.27</ele>
        <time>2021-07-05T11:24:16Z</time>
      </trkpt>
      <trkpt lat="42.57367" lon="1.917">
        <ele>2457.75</ele>
        <time>2021-07-05T11:24:18Z</time>
      </trkpt>
      <trkpt lat="42.57372" lon="1.91695">
        <ele>2454.86</ele>
        <time>2021-07-05T11:24:24Z</time>
      </trkpt>
      <trkpt lat="42.57373" lon="1.91691">
        <ele>2453.9</ele>
        <time>2021-07-05T11:24:26Z</time>
      </trkpt>
      <trkpt lat="42.57374" lon="1.91684">
        <ele>2453.42</ele>
        <time>2021-07-05T11:24:32Z</time>
      </trkpt>
      <trkpt lat="42.57375" lon="1.91683">
        <ele>2452.94</ele>
        <time>2021-07-05T11:24:33Z</time>
      </trkpt>
      <trkpt lat="42.5738" lon="1.91674">
        <ele>2450.06</ele>
        <time>2021-07-05T11:24:39Z</time>
      </trkpt>
      <trkpt lat="42.57381" lon="1.91668">
        <ele>2449.58</ele>
        <time>2021-07-05T11:24:43Z</time>
      </trkpt>
      <trkpt lat="42.57384" lon="1.91664">
        <ele>2448.62</ele>
        <time>2021-07-05T11:24:46Z</time>
      </trkpt>
      <trkpt lat="42.57386" lon="1.91661">
        <ele>2447.65</ele>
        <time>2021-07-05T11:24:49Z</time>
      </trkpt>
      <trkpt lat="42.57389" lon="1.91654">
        <ele>2446.21</ele>
        <time>2021-07-05T11:24:55Z</time>
      </trkpt>
      <trkpt lat="42.57395" lon="1.91644">
        <ele>2444.29</ele>
        <time>2021-07-05T11:25:03Z</time>
      </trkpt>
      <trkpt lat="42.57397" lon="1.91643">
        <ele>2442.85</ele>
        <time>2021-07-05T11:25:06Z</time>
      </trkpt>
      <trkpt lat="42.57398" lon="1.91642">
        <ele>2442.37</ele>
        <time>2021-07-05T11:25:08Z</time>
      </trkpt>
      <trkpt lat="42.57403" lon="1.91636">
        <ele>2439.96</ele>
        <time>2021-07-05T11:25:14Z</time>
      </trkpt>
      <trkpt lat="42.57403" lon="1.91633">
        <ele>2439.96</ele>
        <time>2021-07-05T11:25:16Z</time>
      </trkpt>
      <trkpt lat="42.57407" lon="1.91629">
        <ele>2437.56</ele>
        <time>2021-07-05T11:25:20Z</time>
      </trkpt>
      <trkpt lat="42.57407" lon="1.91629">
        <ele>2437.56</ele>
        <time>2021-07-05T11:25:21Z</time>
      </trkpt>
      <trkpt lat="42.57411" lon="1.91624">
        <ele>2436.12</ele>
        <time>2021-07-05T11:25:26Z</time>
      </trkpt>
      <trkpt lat="42.57411" lon="1.91617">
        <ele>2434.2</ele>
        <time>2021-07-05T11:25:32Z</time>
      </trkpt>
      <trkpt lat="42.57412" lon="1.91613">
        <ele>2432.27</ele>
        <time>2021-07-05T11:25:39Z</time>
      </trkpt>
      <trkpt lat="42.57414" lon="1.91609">
        <ele>2430.83</ele>
        <time>2021-07-05T11:25:46Z</time>
      </trkpt>
      <trkpt lat="42.57416" lon="1.91604">
        <ele>2428.91</ele>
        <time>2021-07-05T11:25:53Z</time>
      </trkpt>
      <trkpt lat="42.57417" lon="1.91595">
        <ele>2426.02</ele>
        <time>2021-07-05T11:26:00Z</time>
      </trkpt>
      <trkpt lat="42.5742" lon="1.91596">
        <ele>2424.58</ele>
        <time>2021-07-05T11:26:05Z</time>
      </trkpt>
      <trkpt lat="42.57421" lon="1.91595">
        <ele>2424.58</ele>
        <time>2021-07-05T11:26:06Z</time>
      </trkpt>
      <trkpt lat="42.57423" lon="1.91594">
        <ele>2423.62</ele>
        <time>2021-07-05T11:26:08Z</time>
      </trkpt>
      <trkpt lat="42.57424" lon="1.91591">
        <ele>2423.14</ele>
        <time>2021-07-05T11:26:10Z</time>
      </trkpt>
      <trkpt lat="42.57424" lon="1.91583">
        <ele>2420.74</ele>
        <time>2021-07-05T11:26:18Z</time>
      </trkpt>
      <trkpt lat="42.57422" lon="1.9158">
        <ele>2418.81</ele>
        <time>2021-07-05T11:26:22Z</time>
      </trkpt>
      <trkpt lat="42.57422" lon="1.91576">
        <ele>2418.33</ele>
        <time>2021-07-05T11:26:26Z</time>
      </trkpt>
      <trkpt lat="42.57426" lon="1.91571">
        <ele>2415.93</ele>
        <time>2021-07-05T11:26:33Z</time>
      </trkpt>
      <trkpt lat="42.57423" lon="1.91568">
        <ele>2415.45</ele>
        <time>2021-07-05T11:26:37Z</time>
      </trkpt>
      <trkpt lat="42.57421" lon="1.91562">
        <ele>2413.05</ele>
        <time>2021-07-05T11:26:45Z</time>
      </trkpt>
      <trkpt lat="42.57421" lon="1.91556">
        <ele>2411.12</ele>
        <time>2021-07-05T11:26:51Z</time>
      </trkpt>
      <trkpt lat="42.57421" lon="1.91549">
        <ele>2408.24</ele>
        <time>2021-07-05T11:26:59Z</time>
      </trkpt>
      <trkpt lat="42.57422" lon="1.91545">
        <ele>2406.8</ele>
        <time>2021-07-05T11:27:03Z</time>
      </trkpt>
      <trkpt lat="42.57426" lon="1.91539">
        <ele>2404.88</ele>
        <time>2021-07-05T11:27:10Z</time>
      </trkpt>
      <trkpt lat="42.57429" lon="1.91534">
        <ele>2403.91</ele>
        <time>2021-07-05T11:27:16Z</time>
      </trkpt>
      <trkpt lat="42.57432" lon="1.9153">
        <ele>2401.99</ele>
        <time>2021-07-05T11:27:22Z</time>
      </trkpt>
      <trkpt lat="42.57432" lon="1.91524">
        <ele>2401.51</ele>
        <time>2021-07-05T11:27:26Z</time>
      </trkpt>
      <trkpt lat="42.5744" lon="1.91517">
        <ele>2400.07</ele>
        <time>2021-07-05T11:27:34Z</time>
      </trkpt>
      <trkpt lat="42.57441" lon="1.91516">
        <ele>2400.07</ele>
        <time>2021-07-05T11:27:35Z</time>
      </trkpt>
      <trkpt lat="42.57442" lon="1.91511">
        <ele>2400.07</ele>
        <time>2021-07-05T11:27:38Z</time>
      </trkpt>
      <trkpt lat="42.57447" lon="1.915">
        <ele>2399.59</ele>
        <time>2021-07-05T11:27:45Z</time>
      </trkpt>
      <trkpt lat="42.57453" lon="1.91491">
        <ele>2398.63</ele>
        <time>2021-07-05T11:27:52Z</time>
      </trkpt>
      <trkpt lat="42.57462" lon="1.91483">
        <ele>2397.67</ele>
        <time>2021-07-05T11:28:00Z</time>
      </trkpt>
      <trkpt lat="42.57463" lon="1.9148">
        <ele>2397.18</ele>
        <time>2021-07-05T11:28:02Z</time>
      </trkpt>
      <trkpt lat="42.57464" lon="1.91476">
        <ele>2396.7</ele>
        <time>2021-07-05T11:28:05Z</time>
      </trkpt>
      <trkpt lat="42.57466" lon="1.91473">
        <ele>2395.74</ele>
        <time>2021-07-05T11:28:08Z</time>
      </trkpt>
      <trkpt lat="42.57471" lon="1.91471">
        <ele>2395.26</ele>
        <time>2021-07-05T11:28:16Z</time>
      </trkpt>
      <trkpt lat="42.57471" lon="1.91471">
        <ele>2394.78</ele>
        <time>2021-07-05T11:28:25Z</time>
      </trkpt>
      <trkpt lat="42.57471" lon="1.91471">
        <ele>2394.3</ele>
        <time>2021-07-05T11:28:35Z</time>
      </trkpt>
      <trkpt lat="42.57471" lon="1.91471">
        <ele>2394.3</ele>
        <time>2021-07-05T11:28:48Z</time>
      </trkpt>
      <trkpt lat="42.57471" lon="1.91471">
        <ele>2394.3</ele>
        <time>2021-07-05T11:28:59Z</time>
      </trkpt>
      <trkpt lat="42.57471" lon="1.91471">
        <ele>2394.78</ele>
        <time>2021-07-05T11:29:09Z</time>
      </trkpt>
      <trkpt lat="42.57471" lon="1.91471">
        <ele>2394.3</ele>
        <time>2021-07-05T11:29:19Z</time>
      </trkpt>
      <trkpt lat="42.57471" lon="1.91471">
        <ele>2393.82</ele>
        <time>2021-07-05T11:29:29Z</time>
      </trkpt>
      <trkpt lat="42.57471" lon="1.91472">
        <ele>2393.82</ele>
        <time>2021-07-05T11:29:38Z</time>
      </trkpt>
      <trkpt lat="42.57471" lon="1.91473">
        <ele>2393.82</ele>
        <time>2021-07-05T11:29:53Z</time>
      </trkpt>
      <trkpt lat="42.5747" lon="1.91473">
        <ele>2393.82</ele>
        <time>2021-07-05T11:30:01Z</time>
      </trkpt>
      <trkpt lat="42.57471" lon="1.91472">
        <ele>2393.82</ele>
        <time>2021-07-05T11:30:13Z</time>
      </trkpt>
      <trkpt lat="42.57471" lon="1.91472">
        <ele>2394.3</ele>
        <time>2021-07-05T11:30:14Z</time>
      </trkpt>
      <trkpt lat="42.57473" lon="1.91471">
        <ele>2393.82</ele>
        <time>2021-07-05T11:30:16Z</time>
      </trkpt>
      <trkpt lat="42.5748" lon="1.91464">
        <ele>2391.9</ele>
        <time>2021-07-05T11:30:23Z</time>
      </trkpt>
      <trkpt lat="42.5749" lon="1.91459">
        <ele>2391.9</ele>
        <time>2021-07-05T11:30:30Z</time>
      </trkpt>
      <trkpt lat="42.57499" lon="1.91454">
        <ele>2390.46</ele>
        <time>2021-07-05T11:30:37Z</time>
      </trkpt>
      <trkpt lat="42.57505" lon="1.91452">
        <ele>2390.46</ele>
        <time>2021-07-05T11:30:42Z</time>
      </trkpt>
      <trkpt lat="42.57511" lon="1.91449">
        <ele>2382.28</ele>
        <time>2021-07-05T11:30:49Z</time>
      </trkpt>
      <trkpt lat="42.57512" lon="1.91449">
        <ele>2396.22</ele>
        <time>2021-07-05T11:30:50Z</time>
      </trkpt>
      <trkpt lat="42.57512" lon="1.91449">
        <ele>2389.97</ele>
        <time>2021-07-05T11:30:51Z</time>
      </trkpt>
      <trkpt lat="42.57511" lon="1.91449">
        <ele>2384.69</ele>
        <time>2021-07-05T11:30:57Z</time>
      </trkpt>
      <trkpt lat="42.57511" lon="1.91449">
        <ele>2394.78</ele>
        <time>2021-07-05T11:30:58Z</time>
      </trkpt>
      <trkpt lat="42.57511" lon="1.91449">
        <ele>2388.53</ele>
        <time>2021-07-05T11:30:59Z</time>
      </trkpt>
      <trkpt lat="42.57512" lon="1.91447">
        <ele>2387.57</ele>
        <time>2021-07-05T11:31:03Z</time>
      </trkpt>
      <trkpt lat="42.57516" lon="1.91442">
        <ele>2389.49</ele>
        <time>2021-07-05T11:31:07Z</time>
      </trkpt>
      <trkpt lat="42.57521" lon="1.91435">
        <ele>2389.49</ele>
        <time>2021-07-05T11:31:15Z</time>
      </trkpt>
      <trkpt lat="42.57521" lon="1.91434">
        <ele>2389.49</ele>
        <time>2021-07-05T11:31:25Z</time>
      </trkpt>
      <trkpt lat="42.57525" lon="1.91421">
        <ele>2389.49</ele>
        <time>2021-07-05T11:31:32Z</time>
      </trkpt>
      <trkpt lat="42.57528" lon="1.91412">
        <ele>2390.46</ele>
        <time>2021-07-05T11:31:38Z</time>
      </trkpt>
      <trkpt lat="42.57531" lon="1.91397">
        <ele>2391.9</ele>
        <time>2021-07-05T11:31:46Z</time>
      </trkpt>
      <trkpt lat="42.57536" lon="1.91382">
        <ele>2391.9</ele>
        <time>2021-07-05T11:31:54Z</time>
      </trkpt>
      <trkpt lat="42.57536" lon="1.91378">
        <ele>2391.9</ele>
        <time>2021-07-05T11:31:56Z</time>
      </trkpt>
      <trkpt lat="42.57541" lon="1.91366">
        <ele>2391.42</ele>
        <time>2021-07-05T11:32:03Z</time>
      </trkpt>
      <trkpt lat="42.57541" lon="1.91365">
        <ele>2391.42</ele>
        <time>2021-07-05T11:32:04Z</time>
      </trkpt>
      <trkpt lat="42.57545" lon="1.91353">
        <ele>2391.42</ele>
        <time>2021-07-05T11:32:11Z</time>
      </trkpt>
      <trkpt lat="42.57544" lon="1.91344">
        <ele>2392.38</ele>
        <time>2021-07-05T11:32:16Z</time>
      </trkpt>
      <trkpt lat="42.57542" lon="1.91342">
        <ele>2391.9</ele>
        <time>2021-07-05T11:32:18Z</time>
      </trkpt>
      <trkpt lat="42.57542" lon="1.91333">
        <ele>2390.46</ele>
        <time>2021-07-05T11:32:25Z</time>
      </trkpt>
      <trkpt lat="42.57543" lon="1.91331">
        <ele>2390.46</ele>
        <time>2021-07-05T11:32:26Z</time>
      </trkpt>
      <trkpt lat="42.57544" lon="1.91326">
        <ele>2390.46</ele>
        <time>2021-07-05T11:32:29Z</time>
      </trkpt>
      <trkpt lat="42.57549" lon="1.9132">
        <ele>2389.01</ele>
        <time>2021-07-05T11:32:35Z</time>
      </trkpt>
      <trkpt lat="42.57551" lon="1.9132">
        <ele>2387.57</ele>
        <time>2021-07-05T11:32:40Z</time>
      </trkpt>
      <trkpt lat="42.57551" lon="1.91316">
        <ele>2387.09</ele>
        <time>2021-07-05T11:32:46Z</time>
      </trkpt>
      <trkpt lat="42.57553" lon="1.91312">
        <ele>2387.57</ele>
        <time>2021-07-05T11:32:50Z</time>
      </trkpt>
      <trkpt lat="42.57557" lon="1.91308">
        <ele>2386.61</ele>
        <time>2021-07-05T11:32:53Z</time>
      </trkpt>
      <trkpt lat="42.57562" lon="1.91295">
        <ele>2385.65</ele>
        <time>2021-07-05T11:33:01Z</time>
      </trkpt>
      <trkpt lat="42.57565" lon="1.91284">
        <ele>2384.69</ele>
        <time>2021-07-05T11:33:08Z</time>
      </trkpt>
      <trkpt lat="42.57567" lon="1.9128">
        <ele>2383.73</ele>
        <time>2021-07-05T11:33:13Z</time>
      </trkpt>
      <trkpt lat="42.57572" lon="1.91273">
        <ele>2382.76</ele>
        <time>2021-07-05T11:33:19Z</time>
      </trkpt>
      <trkpt lat="42.57578" lon="1.91266">
        <ele>2380.84</ele>
        <time>2021-07-05T11:33:25Z</time>
      </trkpt>
      <trkpt lat="42.57582" lon="1.91258">
        <ele>2378.92</ele>
        <time>2021-07-05T11:33:32Z</time>
      </trkpt>
      <trkpt lat="42.57586" lon="1.91252">
        <ele>2377.48</ele>
        <time>2021-07-05T11:33:37Z</time>
      </trkpt>
      <trkpt lat="42.57587" lon="1.91241">
        <ele>2376.04</ele>
        <time>2021-07-05T11:33:43Z</time>
      </trkpt>
      <trkpt lat="42.57587" lon="1.91235">
        <ele>2374.59</ele>
        <time>2021-07-05T11:33:50Z</time>
      </trkpt>
      <trkpt lat="42.57588" lon="1.9123">
        <ele>2372.67</ele>
        <time>2021-07-05T11:33:56Z</time>
      </trkpt>
      <trkpt lat="42.57588" lon="1.9123">
        <ele>2372.67</ele>
        <time>2021-07-05T11:34:05Z</time>
      </trkpt>
      <trkpt lat="42.57589" lon="1.91228">
        <ele>2372.19</ele>
        <time>2021-07-05T11:34:14Z</time>
      </trkpt>
      <trkpt lat="42.57589" lon="1.91224">
        <ele>2369.79</ele>
        <time>2021-07-05T11:34:21Z</time>
      </trkpt>
      <trkpt lat="42.57592" lon="1.9122">
        <ele>2367.86</ele>
        <time>2021-07-05T11:34:27Z</time>
      </trkpt>
      <trkpt lat="42.57596" lon="1.91213">
        <ele>2366.42</ele>
        <time>2021-07-05T11:34:32Z</time>
      </trkpt>
      <trkpt lat="42.57601" lon="1.91205">
        <ele>2365.46</ele>
        <time>2021-07-05T11:34:38Z</time>
      </trkpt>
      <trkpt lat="42.57601" lon="1.91202">
        <ele>2364.98</ele>
        <time>2021-07-05T11:34:43Z</time>
      </trkpt>
      <trkpt lat="42.576" lon="1.91201">
        <ele>2364.5</ele>
        <time>2021-07-05T11:34:51Z</time>
      </trkpt>
      <trkpt lat="42.57596" lon="1.91197">
        <ele>2363.54</ele>
        <time>2021-07-05T11:34:57Z</time>
      </trkpt>
      <trkpt lat="42.57595" lon="1.91188">
        <ele>2362.58</ele>
        <time>2021-07-05T11:35:03Z</time>
      </trkpt>
      <trkpt lat="42.57595" lon="1.91184">
        <ele>2361.62</ele>
        <time>2021-07-05T11:35:05Z</time>
      </trkpt>
      <trkpt lat="42.57593" lon="1.91176">
        <ele>2361.14</ele>
        <time>2021-07-05T11:35:09Z</time>
      </trkpt>
      <trkpt lat="42.57593" lon="1.91171">
        <ele>2360.65</ele>
        <time>2021-07-05T11:35:12Z</time>
      </trkpt>
      <trkpt lat="42.57595" lon="1.9116">
        <ele>2359.21</ele>
        <time>2021-07-05T11:35:20Z</time>
      </trkpt>
      <trkpt lat="42.57595" lon="1.91157">
        <ele>2358.25</ele>
        <time>2021-07-05T11:35:23Z</time>
      </trkpt>
      <trkpt lat="42.57595" lon="1.91153">
        <ele>2357.77</ele>
        <time>2021-07-05T11:35:25Z</time>
      </trkpt>
      <trkpt lat="42.57593" lon="1.9114">
        <ele>2356.81</ele>
        <time>2021-07-05T11:35:33Z</time>
      </trkpt>
      <trkpt lat="42.57593" lon="1.91139">
        <ele>2356.81</ele>
        <time>2021-07-05T11:35:34Z</time>
      </trkpt>
      <trkpt lat="42.57597" lon="1.91126">
        <ele>2355.37</ele>
        <time>2021-07-05T11:35:41Z</time>
      </trkpt>
      <trkpt lat="42.576" lon="1.9112">
        <ele>2354.41</ele>
        <time>2021-07-05T11:35:45Z</time>
      </trkpt>
      <trkpt lat="42.57604" lon="1.91109">
        <ele>2354.41</ele>
        <time>2021-07-05T11:35:53Z</time>
      </trkpt>
      <trkpt lat="42.57608" lon="1.91101">
        <ele>2353.44</ele>
        <time>2021-07-05T11:36:00Z</time>
      </trkpt>
      <trkpt lat="42.57611" lon="1.91095">
        <ele>2352</ele>
        <time>2021-07-05T11:36:07Z</time>
      </trkpt>
      <trkpt lat="42.57617" lon="1.91083">
        <ele>2350.56</ele>
        <time>2021-07-05T11:36:15Z</time>
      </trkpt>
      <trkpt lat="42.57623" lon="1.91075">
        <ele>2350.08</ele>
        <time>2021-07-05T11:36:21Z</time>
      </trkpt>
      <trkpt lat="42.57624" lon="1.91069">
        <ele>2349.12</ele>
        <time>2021-07-05T11:36:28Z</time>
      </trkpt>
      <trkpt lat="42.57625" lon="1.91066">
        <ele>2348.64</ele>
        <time>2021-07-05T11:36:33Z</time>
      </trkpt>
      <trkpt lat="42.57628" lon="1.91054">
        <ele>2347.2</ele>
        <time>2021-07-05T11:36:41Z</time>
      </trkpt>
      <trkpt lat="42.57629" lon="1.9105">
        <ele>2345.75</ele>
        <time>2021-07-05T11:36:44Z</time>
      </trkpt>
      <trkpt lat="42.5763" lon="1.91044">
        <ele>2345.27</ele>
        <time>2021-07-05T11:36:48Z</time>
      </trkpt>
      <trkpt lat="42.5763" lon="1.91038">
        <ele>2344.79</ele>
        <time>2021-07-05T11:36:56Z</time>
      </trkpt>
      <trkpt lat="42.5763" lon="1.91038">
        <ele>2344.79</ele>
        <time>2021-07-05T11:36:58Z</time>
      </trkpt>
      <trkpt lat="42.57632" lon="1.9103">
        <ele>2343.35</ele>
        <time>2021-07-05T11:37:05Z</time>
      </trkpt>
      <trkpt lat="42.57633" lon="1.91025">
        <ele>2341.91</ele>
        <time>2021-07-05T11:37:10Z</time>
      </trkpt>
      <trkpt lat="42.57634" lon="1.91019">
        <ele>2340.95</ele>
        <time>2021-07-05T11:37:15Z</time>
      </trkpt>
      <trkpt lat="42.57635" lon="1.91013">
        <ele>2339.51</ele>
        <time>2021-07-05T11:37:21Z</time>
      </trkpt>
      <trkpt lat="42.57637" lon="1.91007">
        <ele>2338.54</ele>
        <time>2021-07-05T11:37:28Z</time>
      </trkpt>
      <trkpt lat="42.57637" lon="1.91007">
        <ele>2338.06</ele>
        <time>2021-07-05T11:37:30Z</time>
      </trkpt>
      <trkpt lat="42.57635" lon="1.91003">
        <ele>2336.62</ele>
        <time>2021-07-05T11:37:34Z</time>
      </trkpt>
      <trkpt lat="42.57634" lon="1.91">
        <ele>2336.14</ele>
        <time>2021-07-05T11:37:36Z</time>
      </trkpt>
      <trkpt lat="42.57633" lon="1.90993">
        <ele>2334.22</ele>
        <time>2021-07-05T11:37:41Z</time>
      </trkpt>
      <trkpt lat="42.57634" lon="1.90987">
        <ele>2332.78</ele>
        <time>2021-07-05T11:37:46Z</time>
      </trkpt>
      <trkpt lat="42.57634" lon="1.90983">
        <ele>2332.3</ele>
        <time>2021-07-05T11:37:49Z</time>
      </trkpt>
      <trkpt lat="42.57635" lon="1.90974">
        <ele>2330.85</ele>
        <time>2021-07-05T11:37:55Z</time>
      </trkpt>
      <trkpt lat="42.5764" lon="1.90962">
        <ele>2328.93</ele>
        <time>2021-07-05T11:38:02Z</time>
      </trkpt>
      <trkpt lat="42.57641" lon="1.90959">
        <ele>2327.97</ele>
        <time>2021-07-05T11:38:08Z</time>
      </trkpt>
      <trkpt lat="42.57641" lon="1.90959">
        <ele>2327.97</ele>
        <time>2021-07-05T11:38:19Z</time>
      </trkpt>
      <trkpt lat="42.57642" lon="1.90959">
        <ele>2327.49</ele>
        <time>2021-07-05T11:38:28Z</time>
      </trkpt>
      <trkpt lat="42.57645" lon="1.90954">
        <ele>2326.05</ele>
        <time>2021-07-05T11:38:35Z</time>
      </trkpt>
      <trkpt lat="42.57647" lon="1.90952">
        <ele>2324.12</ele>
        <time>2021-07-05T11:38:42Z</time>
      </trkpt>
      <trkpt lat="42.57652" lon="1.90948">
        <ele>2324.12</ele>
        <time>2021-07-05T11:38:48Z</time>
      </trkpt>
      <trkpt lat="42.57654" lon="1.90942">
        <ele>2324.61</ele>
        <time>2021-07-05T11:38:54Z</time>
      </trkpt>
      <trkpt lat="42.57658" lon="1.9094">
        <ele>2323.16</ele>
        <time>2021-07-05T11:38:57Z</time>
      </trkpt>
      <trkpt lat="42.57663" lon="1.90932">
        <ele>2321.24</ele>
        <time>2021-07-05T11:39:05Z</time>
      </trkpt>
      <trkpt lat="42.57664" lon="1.9093">
        <ele>2319.8</ele>
        <time>2021-07-05T11:39:08Z</time>
      </trkpt>
      <trkpt lat="42.57668" lon="1.90926">
        <ele>2319.32</ele>
        <time>2021-07-05T11:39:12Z</time>
      </trkpt>
      <trkpt lat="42.57675" lon="1.90915">
        <ele>2317.4</ele>
        <time>2021-07-05T11:39:21Z</time>
      </trkpt>
      <trkpt lat="42.57679" lon="1.90908">
        <ele>2316.91</ele>
        <time>2021-07-05T11:39:27Z</time>
      </trkpt>
      <trkpt lat="42.57684" lon="1.90899">
        <ele>2315.47</ele>
        <time>2021-07-05T11:39:33Z</time>
      </trkpt>
      <trkpt lat="42.57691" lon="1.90891">
        <ele>2314.51</ele>
        <time>2021-07-05T11:39:40Z</time>
      </trkpt>
      <trkpt lat="42.57697" lon="1.90885">
        <ele>2312.59</ele>
        <time>2021-07-05T11:39:46Z</time>
      </trkpt>
      <trkpt lat="42.577" lon="1.90884">
        <ele>2312.59</ele>
        <time>2021-07-05T11:39:49Z</time>
      </trkpt>
      <trkpt lat="42.57705" lon="1.90879">
        <ele>2311.63</ele>
        <time>2021-07-05T11:39:54Z</time>
      </trkpt>
      <trkpt lat="42.57708" lon="1.90871">
        <ele>2311.15</ele>
        <time>2021-07-05T11:40:00Z</time>
      </trkpt>
      <trkpt lat="42.5771" lon="1.90867">
        <ele>2310.67</ele>
        <time>2021-07-05T11:40:04Z</time>
      </trkpt>
      <trkpt lat="42.57713" lon="1.90859">
        <ele>2308.74</ele>
        <time>2021-07-05T11:40:11Z</time>
      </trkpt>
      <trkpt lat="42.57714" lon="1.90857">
        <ele>2308.26</ele>
        <time>2021-07-05T11:40:22Z</time>
      </trkpt>
      <trkpt lat="42.57718" lon="1.90856">
        <ele>2308.26</ele>
        <time>2021-07-05T11:40:30Z</time>
      </trkpt>
      <trkpt lat="42.5772" lon="1.90854">
        <ele>2308.26</ele>
        <time>2021-07-05T11:40:34Z</time>
      </trkpt>
      <trkpt lat="42.57724" lon="1.9085">
        <ele>2307.3</ele>
        <time>2021-07-05T11:40:40Z</time>
      </trkpt>
      <trkpt lat="42.57723" lon="1.90846">
        <ele>2305.86</ele>
        <time>2021-07-05T11:40:44Z</time>
      </trkpt>
      <trkpt lat="42.57722" lon="1.90842">
        <ele>2304.42</ele>
        <time>2021-07-05T11:40:50Z</time>
      </trkpt>
      <trkpt lat="42.57721" lon="1.90839">
        <ele>2302.98</ele>
        <time>2021-07-05T11:40:54Z</time>
      </trkpt>
      <trkpt lat="42.57718" lon="1.90828">
        <ele>2300.57</ele>
        <time>2021-07-05T11:41:00Z</time>
      </trkpt>
      <trkpt lat="42.57717" lon="1.90826">
        <ele>2300.57</ele>
        <time>2021-07-05T11:41:01Z</time>
      </trkpt>
      <trkpt lat="42.57719" lon="1.90812">
        <ele>2299.61</ele>
        <time>2021-07-05T11:41:07Z</time>
      </trkpt>
      <trkpt lat="42.57721" lon="1.90801">
        <ele>2298.65</ele>
        <time>2021-07-05T11:41:13Z</time>
      </trkpt>
      <trkpt lat="42.57724" lon="1.90795">
        <ele>2298.17</ele>
        <time>2021-07-05T11:41:16Z</time>
      </trkpt>
      <trkpt lat="42.57726" lon="1.90785">
        <ele>2298.17</ele>
        <time>2021-07-05T11:41:22Z</time>
      </trkpt>
      <trkpt lat="42.57726" lon="1.90773">
        <ele>2297.21</ele>
        <time>2021-07-05T11:41:28Z</time>
      </trkpt>
      <trkpt lat="42.57728" lon="1.9076">
        <ele>2296.73</ele>
        <time>2021-07-05T11:41:35Z</time>
      </trkpt>
      <trkpt lat="42.5773" lon="1.90752">
        <ele>2295.77</ele>
        <time>2021-07-05T11:41:40Z</time>
      </trkpt>
      <trkpt lat="42.57734" lon="1.90738">
        <ele>2295.28</ele>
        <time>2021-07-05T11:41:48Z</time>
      </trkpt>
      <trkpt lat="42.57735" lon="1.90731">
        <ele>2294.8</ele>
        <time>2021-07-05T11:41:53Z</time>
      </trkpt>
      <trkpt lat="42.57737" lon="1.9072">
        <ele>2294.8</ele>
        <time>2021-07-05T11:42:00Z</time>
      </trkpt>
      <trkpt lat="42.57739" lon="1.90717">
        <ele>2294.32</ele>
        <time>2021-07-05T11:42:05Z</time>
      </trkpt>
      <trkpt lat="42.57739" lon="1.90717">
        <ele>2294.8</ele>
        <time>2021-07-05T11:42:16Z</time>
      </trkpt>
      <trkpt lat="42.57739" lon="1.90713">
        <ele>2294.8</ele>
        <time>2021-07-05T11:42:21Z</time>
      </trkpt>
      <trkpt lat="42.57739" lon="1.90701">
        <ele>2294.8</ele>
        <time>2021-07-05T11:42:29Z</time>
      </trkpt>
      <trkpt lat="42.57737" lon="1.90698">
        <ele>2294.8</ele>
        <time>2021-07-05T11:42:32Z</time>
      </trkpt>
      <trkpt lat="42.57735" lon="1.90696">
        <ele>2294.32</ele>
        <time>2021-07-05T11:42:34Z</time>
      </trkpt>
      <trkpt lat="42.57734" lon="1.90687">
        <ele>2292.4</ele>
        <time>2021-07-05T11:42:42Z</time>
      </trkpt>
      <trkpt lat="42.57734" lon="1.90687">
        <ele>2293.84</ele>
        <time>2021-07-05T11:42:50Z</time>
      </trkpt>
      <trkpt lat="42.57734" lon="1.90686">
        <ele>2292.88</ele>
        <time>2021-07-05T11:43:06Z</time>
      </trkpt>
      <trkpt lat="42.57734" lon="1.90684">
        <ele>2292.88</ele>
        <time>2021-07-05T11:43:09Z</time>
      </trkpt>
      <trkpt lat="42.57735" lon="1.90681">
        <ele>2292.88</ele>
        <time>2021-07-05T11:43:11Z</time>
      </trkpt>
      <trkpt lat="42.57735" lon="1.90678">
        <ele>2292.4</ele>
        <time>2021-07-05T11:43:13Z</time>
      </trkpt>
      <trkpt lat="42.57733" lon="1.90673">
        <ele>2292.4</ele>
        <time>2021-07-05T11:43:16Z</time>
      </trkpt>
      <trkpt lat="42.57733" lon="1.90668">
        <ele>2292.4</ele>
        <time>2021-07-05T11:43:23Z</time>
      </trkpt>
      <trkpt lat="42.57734" lon="1.90668">
        <ele>2292.4</ele>
        <time>2021-07-05T11:43:34Z</time>
      </trkpt>
      <trkpt lat="42.57735" lon="1.90667">
        <ele>2290.48</ele>
        <time>2021-07-05T11:43:41Z</time>
      </trkpt>
      <trkpt lat="42.57735" lon="1.90666">
        <ele>2290.48</ele>
        <time>2021-07-05T11:43:42Z</time>
      </trkpt>
      <trkpt lat="42.57735" lon="1.90666">
        <ele>2290.96</ele>
        <time>2021-07-05T11:43:52Z</time>
      </trkpt>
      <trkpt lat="42.57735" lon="1.90666">
        <ele>2289.52</ele>
        <time>2021-07-05T11:44:06Z</time>
      </trkpt>
      <trkpt lat="42.57734" lon="1.90666">
        <ele>2290</ele>
        <time>2021-07-05T11:44:19Z</time>
      </trkpt>
      <trkpt lat="42.57732" lon="1.90666">
        <ele>2291.44</ele>
        <time>2021-07-05T11:44:22Z</time>
      </trkpt>
      <trkpt lat="42.57732" lon="1.90666">
        <ele>2290.96</ele>
        <time>2021-07-05T11:44:31Z</time>
      </trkpt>
      <trkpt lat="42.57731" lon="1.90666">
        <ele>2290.96</ele>
        <time>2021-07-05T11:44:46Z</time>
      </trkpt>
      <trkpt lat="42.57731" lon="1.90669">
        <ele>2291.44</ele>
        <time>2021-07-05T11:44:53Z</time>
      </trkpt>
      <trkpt lat="42.57732" lon="1.90669">
        <ele>2290.96</ele>
        <time>2021-07-05T11:45:05Z</time>
      </trkpt>
      <trkpt lat="42.57732" lon="1.90669">
        <ele>2291.44</ele>
        <time>2021-07-05T11:45:11Z</time>
      </trkpt>
      <trkpt lat="42.57731" lon="1.90668">
        <ele>2290.48</ele>
        <time>2021-07-05T11:45:29Z</time>
      </trkpt>
      <trkpt lat="42.57731" lon="1.90668">
        <ele>2289.52</ele>
        <time>2021-07-05T11:45:40Z</time>
      </trkpt>
      <trkpt lat="42.57731" lon="1.90667">
        <ele>2290</ele>
        <time>2021-07-05T11:45:51Z</time>
      </trkpt>
      <trkpt lat="42.57731" lon="1.90663">
        <ele>2289.52</ele>
        <time>2021-07-05T11:45:56Z</time>
      </trkpt>
      <trkpt lat="42.57731" lon="1.90663">
        <ele>2288.56</ele>
        <time>2021-07-05T11:46:03Z</time>
      </trkpt>
      <trkpt lat="42.57731" lon="1.90664">
        <ele>2289.04</ele>
        <time>2021-07-05T11:46:12Z</time>
      </trkpt>
      <trkpt lat="42.57732" lon="1.90663">
        <ele>2288.08</ele>
        <time>2021-07-05T11:46:18Z</time>
      </trkpt>
      <trkpt lat="42.57732" lon="1.90662">
        <ele>2289.04</ele>
        <time>2021-07-05T11:46:34Z</time>
      </trkpt>
      <trkpt lat="42.57732" lon="1.90661">
        <ele>2289.52</ele>
        <time>2021-07-05T11:46:41Z</time>
      </trkpt>
      <trkpt lat="42.57731" lon="1.90661">
        <ele>2290</ele>
        <time>2021-07-05T11:46:49Z</time>
      </trkpt>
      <trkpt lat="42.57732" lon="1.90662">
        <ele>2288.08</ele>
        <time>2021-07-05T11:46:58Z</time>
      </trkpt>
      <trkpt lat="42.57731" lon="1.90662">
        <ele>2288.56</ele>
        <time>2021-07-05T11:47:14Z</time>
      </trkpt>
      <trkpt lat="42.57731" lon="1.90663">
        <ele>2289.04</ele>
        <time>2021-07-05T11:47:22Z</time>
      </trkpt>
      <trkpt lat="42.57731" lon="1.90663">
        <ele>2288.56</ele>
        <time>2021-07-05T11:47:33Z</time>
      </trkpt>
      <trkpt lat="42.57731" lon="1.90661">
        <ele>2287.59</ele>
        <time>2021-07-05T11:47:41Z</time>
      </trkpt>
      <trkpt lat="42.57734" lon="1.90655">
        <ele>2287.59</ele>
        <time>2021-07-05T11:47:48Z</time>
      </trkpt>
      <trkpt lat="42.57733" lon="1.90655">
        <ele>2287.59</ele>
        <time>2021-07-05T11:47:49Z</time>
      </trkpt>
      <trkpt lat="42.57731" lon="1.90657">
        <ele>2289.04</ele>
        <time>2021-07-05T11:47:52Z</time>
      </trkpt>
      <trkpt lat="42.57731" lon="1.90661">
        <ele>2289.04</ele>
        <time>2021-07-05T11:47:59Z</time>
      </trkpt>
      <trkpt lat="42.57731" lon="1.90661">
        <ele>2288.08</ele>
        <time>2021-07-05T11:48:08Z</time>
      </trkpt>
      <trkpt lat="42.5773" lon="1.90662">
        <ele>2289.04</ele>
        <time>2021-07-05T11:48:22Z</time>
      </trkpt>
      <trkpt lat="42.57732" lon="1.90658">
        <ele>2288.56</ele>
        <time>2021-07-05T11:48:29Z</time>
      </trkpt>
      <trkpt lat="42.57734" lon="1.90654">
        <ele>2288.56</ele>
        <time>2021-07-05T11:48:36Z</time>
      </trkpt>
      <trkpt lat="42.57736" lon="1.90652">
        <ele>2286.63</ele>
        <time>2021-07-05T11:48:43Z</time>
      </trkpt>
      <trkpt lat="42.57741" lon="1.90646">
        <ele>2284.71</ele>
        <time>2021-07-05T11:48:50Z</time>
      </trkpt>
      <trkpt lat="42.57742" lon="1.90644">
        <ele>2283.75</ele>
        <time>2021-07-05T11:48:52Z</time>
      </trkpt>
      <trkpt lat="42.57745" lon="1.90641">
        <ele>2282.79</ele>
        <time>2021-07-05T11:48:56Z</time>
      </trkpt>
      <trkpt lat="42.57746" lon="1.90639">
        <ele>2283.27</ele>
        <time>2021-07-05T11:49:02Z</time>
      </trkpt>
      <trkpt lat="42.57745" lon="1.90638">
        <ele>2283.27</ele>
        <time>2021-07-05T11:49:12Z</time>
      </trkpt>
      <trkpt lat="42.57745" lon="1.90638">
        <ele>2282.79</ele>
        <time>2021-07-05T11:49:27Z</time>
      </trkpt>
      <trkpt lat="42.57745" lon="1.90638">
        <ele>2282.79</ele>
        <time>2021-07-05T11:49:37Z</time>
      </trkpt>
      <trkpt lat="42.57745" lon="1.90637">
        <ele>2282.79</ele>
        <time>2021-07-05T11:49:48Z</time>
      </trkpt>
      <trkpt lat="42.57744" lon="1.90638">
        <ele>2282.79</ele>
        <time>2021-07-05T11:49:58Z</time>
      </trkpt>
      <trkpt lat="42.57745" lon="1.90638">
        <ele>2283.27</ele>
        <time>2021-07-05T11:50:07Z</time>
      </trkpt>
      <trkpt lat="42.57745" lon="1.90638">
        <ele>2282.79</ele>
        <time>2021-07-05T11:50:23Z</time>
      </trkpt>
      <trkpt lat="42.57745" lon="1.90638">
        <ele>2281.83</ele>
        <time>2021-07-05T11:50:31Z</time>
      </trkpt>
      <trkpt lat="42.57744" lon="1.90638">
        <ele>2282.31</ele>
        <time>2021-07-05T11:50:48Z</time>
      </trkpt>
      <trkpt lat="42.57744" lon="1.90638">
        <ele>2281.83</ele>
        <time>2021-07-05T11:50:59Z</time>
      </trkpt>
      <trkpt lat="42.57745" lon="1.90637">
        <ele>2281.83</ele>
        <time>2021-07-05T11:51:01Z</time>
      </trkpt>
      <trkpt lat="42.5775" lon="1.9063">
        <ele>2280.87</ele>
        <time>2021-07-05T11:51:09Z</time>
      </trkpt>
      <trkpt lat="42.57752" lon="1.90626">
        <ele>2280.87</ele>
        <time>2021-07-05T11:51:15Z</time>
      </trkpt>
      <trkpt lat="42.57756" lon="1.90622">
        <ele>2279.42</ele>
        <time>2021-07-05T11:51:22Z</time>
      </trkpt>
      <trkpt lat="42.57759" lon="1.90618">
        <ele>2278.94</ele>
        <time>2021-07-05T11:51:28Z</time>
      </trkpt>
      <trkpt lat="42.57762" lon="1.90613">
        <ele>2277.5</ele>
        <time>2021-07-05T11:51:34Z</time>
      </trkpt>
      <trkpt lat="42.57766" lon="1.9061">
        <ele>2275.58</ele>
        <time>2021-07-05T11:51:41Z</time>
      </trkpt>
      <trkpt lat="42.57767" lon="1.9061">
        <ele>2276.06</ele>
        <time>2021-07-05T11:51:49Z</time>
      </trkpt>
      <trkpt lat="42.57767" lon="1.9061">
        <ele>2274.62</ele>
        <time>2021-07-05T11:52:00Z</time>
      </trkpt>
      <trkpt lat="42.57767" lon="1.9061">
        <ele>2275.58</ele>
        <time>2021-07-05T11:52:13Z</time>
      </trkpt>
      <trkpt lat="42.57768" lon="1.90609">
        <ele>2275.1</ele>
        <time>2021-07-05T11:52:23Z</time>
      </trkpt>
      <trkpt lat="42.57772" lon="1.90609">
        <ele>2274.14</ele>
        <time>2021-07-05T11:52:29Z</time>
      </trkpt>
      <trkpt lat="42.57775" lon="1.90609">
        <ele>2272.69</ele>
        <time>2021-07-05T11:52:34Z</time>
      </trkpt>
      <trkpt lat="42.57777" lon="1.90608">
        <ele>2272.21</ele>
        <time>2021-07-05T11:52:40Z</time>
      </trkpt>
      <trkpt lat="42.57777" lon="1.90607">
        <ele>2271.25</ele>
        <time>2021-07-05T11:52:50Z</time>
      </trkpt>
      <trkpt lat="42.57777" lon="1.90607">
        <ele>2270.77</ele>
        <time>2021-07-05T11:52:52Z</time>
      </trkpt>
      <trkpt lat="42.5778" lon="1.90605">
        <ele>2269.33</ele>
        <time>2021-07-05T11:52:58Z</time>
      </trkpt>
      <trkpt lat="42.5778" lon="1.90604">
        <ele>2267.89</ele>
        <time>2021-07-05T11:53:05Z</time>
      </trkpt>
      <trkpt lat="42.57782" lon="1.90602">
        <ele>2266.45</ele>
        <time>2021-07-05T11:53:13Z</time>
      </trkpt>
      <trkpt lat="42.57786" lon="1.90594">
        <ele>2265</ele>
        <time>2021-07-05T11:53:20Z</time>
      </trkpt>
      <trkpt lat="42.57788" lon="1.90594">
        <ele>2264.04</ele>
        <time>2021-07-05T11:53:29Z</time>
      </trkpt>
      <trkpt lat="42.57789" lon="1.90594">
        <ele>2263.56</ele>
        <time>2021-07-05T11:53:40Z</time>
      </trkpt>
      <trkpt lat="42.57791" lon="1.90592">
        <ele>2262.12</ele>
        <time>2021-07-05T11:53:46Z</time>
      </trkpt>
      <trkpt lat="42.57793" lon="1.9059">
        <ele>2261.16</ele>
        <time>2021-07-05T11:53:51Z</time>
      </trkpt>
      <trkpt lat="42.57795" lon="1.90587">
        <ele>2260.68</ele>
        <time>2021-07-05T11:53:54Z</time>
      </trkpt>
      <trkpt lat="42.57796" lon="1.90584">
        <ele>2258.75</ele>
        <time>2021-07-05T11:54:00Z</time>
      </trkpt>
      <trkpt lat="42.57797" lon="1.90577">
        <ele>2257.31</ele>
        <time>2021-07-05T11:54:07Z</time>
      </trkpt>
      <trkpt lat="42.57799" lon="1.90575">
        <ele>2255.87</ele>
        <time>2021-07-05T11:54:14Z</time>
      </trkpt>
      <trkpt lat="42.57799" lon="1.9057">
        <ele>2254.43</ele>
        <time>2021-07-05T11:54:22Z</time>
      </trkpt>
      <trkpt lat="42.57801" lon="1.90564">
        <ele>2252.03</ele>
        <time>2021-07-05T11:54:29Z</time>
      </trkpt>
      <trkpt lat="42.57802" lon="1.90562">
        <ele>2251.54</ele>
        <time>2021-07-05T11:54:32Z</time>
      </trkpt>
      <trkpt lat="42.57805" lon="1.90557">
        <ele>2250.1</ele>
        <time>2021-07-05T11:54:37Z</time>
      </trkpt>
      <trkpt lat="42.57804" lon="1.90549">
        <ele>2248.66</ele>
        <time>2021-07-05T11:54:44Z</time>
      </trkpt>
      <trkpt lat="42.57806" lon="1.90544">
        <ele>2248.18</ele>
        <time>2021-07-05T11:54:50Z</time>
      </trkpt>
      <trkpt lat="42.57807" lon="1.90544">
        <ele>2247.7</ele>
        <time>2021-07-05T11:54:56Z</time>
      </trkpt>
      <trkpt lat="42.57808" lon="1.90544">
        <ele>2248.18</ele>
        <time>2021-07-05T11:55:09Z</time>
      </trkpt>
      <trkpt lat="42.57807" lon="1.90543">
        <ele>2247.22</ele>
        <time>2021-07-05T11:55:15Z</time>
      </trkpt>
      <trkpt lat="42.57807" lon="1.90542">
        <ele>2247.22</ele>
        <time>2021-07-05T11:55:16Z</time>
      </trkpt>
      <trkpt lat="42.57806" lon="1.90539">
        <ele>2246.74</ele>
        <time>2021-07-05T11:55:18Z</time>
      </trkpt>
      <trkpt lat="42.57803" lon="1.90529">
        <ele>2244.33</ele>
        <time>2021-07-05T11:55:25Z</time>
      </trkpt>
      <trkpt lat="42.57801" lon="1.90518">
        <ele>2242.41</ele>
        <time>2021-07-05T11:55:33Z</time>
      </trkpt>
      <trkpt lat="42.57803" lon="1.90511">
        <ele>2240.97</ele>
        <time>2021-07-05T11:55:38Z</time>
      </trkpt>
      <trkpt lat="42.57804" lon="1.90496">
        <ele>2239.53</ele>
        <time>2021-07-05T11:55:46Z</time>
      </trkpt>
      <trkpt lat="42.57804" lon="1.9049">
        <ele>2239.05</ele>
        <time>2021-07-05T11:55:49Z</time>
      </trkpt>
      <trkpt lat="42.57803" lon="1.90484">
        <ele>2238.09</ele>
        <time>2021-07-05T11:55:53Z</time>
      </trkpt>
      <trkpt lat="42.57799" lon="1.90473">
        <ele>2237.13</ele>
        <time>2021-07-05T11:56:01Z</time>
      </trkpt>
      <trkpt lat="42.57796" lon="1.90455">
        <ele>2233.28</ele>
        <time>2021-07-05T11:56:11Z</time>
      </trkpt>
      <trkpt lat="42.57796" lon="1.90445">
        <ele>2233.28</ele>
        <time>2021-07-05T11:56:15Z</time>
      </trkpt>
      <trkpt lat="42.57796" lon="1.90439">
        <ele>2232.32</ele>
        <time>2021-07-05T11:56:18Z</time>
      </trkpt>
      <trkpt lat="42.57798" lon="1.90423">
        <ele>2229.92</ele>
        <time>2021-07-05T11:56:26Z</time>
      </trkpt>
      <trkpt lat="42.578" lon="1.90406">
        <ele>2228.95</ele>
        <time>2021-07-05T11:56:34Z</time>
      </trkpt>
      <trkpt lat="42.57804" lon="1.90394">
        <ele>2227.51</ele>
        <time>2021-07-05T11:56:40Z</time>
      </trkpt>
      <trkpt lat="42.57807" lon="1.90377">
        <ele>2226.07</ele>
        <time>2021-07-05T11:56:49Z</time>
      </trkpt>
      <trkpt lat="42.57808" lon="1.90364">
        <ele>2223.67</ele>
        <time>2021-07-05T11:56:56Z</time>
      </trkpt>
      <trkpt lat="42.57809" lon="1.90347">
        <ele>2223.67</ele>
        <time>2021-07-05T11:57:04Z</time>
      </trkpt>
      <trkpt lat="42.57811" lon="1.90338">
        <ele>2223.19</ele>
        <time>2021-07-05T11:57:09Z</time>
      </trkpt>
      <trkpt lat="42.57812" lon="1.90325">
        <ele>2221.26</ele>
        <time>2021-07-05T11:57:17Z</time>
      </trkpt>
      <trkpt lat="42.57811" lon="1.90316">
        <ele>2221.26</ele>
        <time>2021-07-05T11:57:22Z</time>
      </trkpt>
      <trkpt lat="42.57814" lon="1.90306">
        <ele>2220.3</ele>
        <time>2021-07-05T11:57:27Z</time>
      </trkpt>
      <trkpt lat="42.57819" lon="1.90298">
        <ele>2220.3</ele>
        <time>2021-07-05T11:57:33Z</time>
      </trkpt>
      <trkpt lat="42.57817" lon="1.90292">
        <ele>2219.82</ele>
        <time>2021-07-05T11:57:39Z</time>
      </trkpt>
      <trkpt lat="42.57817" lon="1.9029">
        <ele>2219.82</ele>
        <time>2021-07-05T11:57:40Z</time>
      </trkpt>
      <trkpt lat="42.57814" lon="1.9028">
        <ele>2218.86</ele>
        <time>2021-07-05T11:57:46Z</time>
      </trkpt>
      <trkpt lat="42.57812" lon="1.90274">
        <ele>2218.86</ele>
        <time>2021-07-05T11:57:50Z</time>
      </trkpt>
      <trkpt lat="42.57807" lon="1.90255">
        <ele>2217.9</ele>
        <time>2021-07-05T11:58:01Z</time>
      </trkpt>
      <trkpt lat="42.578" lon="1.90247">
        <ele>2217.9</ele>
        <time>2021-07-05T11:58:07Z</time>
      </trkpt>
      <trkpt lat="42.5779" lon="1.90228">
        <ele>2217.42</ele>
        <time>2021-07-05T11:58:17Z</time>
      </trkpt>
      <trkpt lat="42.57786" lon="1.90219">
        <ele>2215.98</ele>
        <time>2021-07-05T11:58:25Z</time>
      </trkpt>
      <trkpt lat="42.57783" lon="1.90211">
        <ele>2215.5</ele>
        <time>2021-07-05T11:58:29Z</time>
      </trkpt>
      <trkpt lat="42.57776" lon="1.90197">
        <ele>2214.53</ele>
        <time>2021-07-05T11:58:37Z</time>
      </trkpt>
      <trkpt lat="42.5777" lon="1.90181">
        <ele>2212.61</ele>
        <time>2021-07-05T11:58:46Z</time>
      </trkpt>
      <trkpt lat="42.57767" lon="1.90168">
        <ele>2211.65</ele>
        <time>2021-07-05T11:58:53Z</time>
      </trkpt>
      <trkpt lat="42.57766" lon="1.9016">
        <ele>2211.65</ele>
        <time>2021-07-05T11:58:58Z</time>
      </trkpt>
      <trkpt lat="42.57763" lon="1.90149">
        <ele>2209.73</ele>
        <time>2021-07-05T11:59:04Z</time>
      </trkpt>
      <trkpt lat="42.57762" lon="1.90133">
        <ele>2208.77</ele>
        <time>2021-07-05T11:59:12Z</time>
      </trkpt>
      <trkpt lat="42.5776" lon="1.90122">
        <ele>2208.77</ele>
        <time>2021-07-05T11:59:19Z</time>
      </trkpt>
      <trkpt lat="42.57757" lon="1.90111">
        <ele>2208.77</ele>
        <time>2021-07-05T11:59:26Z</time>
      </trkpt>
      <trkpt lat="42.57756" lon="1.90098">
        <ele>2209.25</ele>
        <time>2021-07-05T11:59:33Z</time>
      </trkpt>
      <trkpt lat="42.57754" lon="1.90081">
        <ele>2208.29</ele>
        <time>2021-07-05T11:59:41Z</time>
      </trkpt>
      <trkpt lat="42.5775" lon="1.90069">
        <ele>2208.77</ele>
        <time>2021-07-05T11:59:47Z</time>
      </trkpt>
      <trkpt lat="42.57748" lon="1.90058">
        <ele>2208.77</ele>
        <time>2021-07-05T11:59:52Z</time>
      </trkpt>
      <trkpt lat="42.57742" lon="1.90038">
        <ele>2210.21</ele>
        <time>2021-07-05T12:00:01Z</time>
      </trkpt>
      <trkpt lat="42.57735" lon="1.90023">
        <ele>2210.21</ele>
        <time>2021-07-05T12:00:10Z</time>
      </trkpt>
      <trkpt lat="42.57733" lon="1.90012">
        <ele>2209.25</ele>
        <time>2021-07-05T12:00:17Z</time>
      </trkpt>
      <trkpt lat="42.5773" lon="1.90008">
        <ele>2210.21</ele>
        <time>2021-07-05T12:00:24Z</time>
      </trkpt>
      <trkpt lat="42.57729" lon="1.90007">
        <ele>2210.21</ele>
        <time>2021-07-05T12:00:32Z</time>
      </trkpt>
      <trkpt lat="42.57729" lon="1.90006">
        <ele>2206.36</ele>
        <time>2021-07-05T12:00:37Z</time>
      </trkpt>
      <trkpt lat="42.57729" lon="1.90006">
        <ele>2213.57</ele>
        <time>2021-07-05T12:00:38Z</time>
      </trkpt>
      <trkpt lat="42.57729" lon="1.90006">
        <ele>2206.84</ele>
        <time>2021-07-05T12:00:39Z</time>
      </trkpt>
      <trkpt lat="42.57729" lon="1.90006">
        <ele>2212.61</ele>
        <time>2021-07-05T12:00:40Z</time>
      </trkpt>
      <trkpt lat="42.57729" lon="1.90005">
        <ele>2206.36</ele>
        <time>2021-07-05T12:00:43Z</time>
      </trkpt>
      <trkpt lat="42.57729" lon="1.90005">
        <ele>2213.57</ele>
        <time>2021-07-05T12:00:44Z</time>
      </trkpt>
      <trkpt lat="42.57729" lon="1.90005">
        <ele>2209.73</ele>
        <time>2021-07-05T12:00:45Z</time>
      </trkpt>
      <trkpt lat="42.57729" lon="1.90004">
        <ele>2213.09</ele>
        <time>2021-07-05T12:00:49Z</time>
      </trkpt>
      <trkpt lat="42.57729" lon="1.90004">
        <ele>2209.73</ele>
        <time>2021-07-05T12:00:50Z</time>
      </trkpt>
      <trkpt lat="42.57728" lon="1.90004">
        <ele>2208.77</ele>
        <time>2021-07-05T12:01:05Z</time>
      </trkpt>
      <trkpt lat="42.57728" lon="1.90002">
        <ele>2207.81</ele>
        <time>2021-07-05T12:01:13Z</time>
      </trkpt>
      <trkpt lat="42.57722" lon="1.8999">
        <ele>2207.81</ele>
        <time>2021-07-05T12:01:22Z</time>
      </trkpt>
      <trkpt lat="42.57721" lon="1.89984">
        <ele>2207.81</ele>
        <time>2021-07-05T12:01:26Z</time>
      </trkpt>
      <trkpt lat="42.57715" lon="1.89972">
        <ele>2206.84</ele>
        <time>2021-07-05T12:01:33Z</time>
      </trkpt>
      <trkpt lat="42.57715" lon="1.89955">
        <ele>2203.96</ele>
        <time>2021-07-05T12:01:41Z</time>
      </trkpt>
      <trkpt lat="42.57717" lon="1.89949">
        <ele>2202.52</ele>
        <time>2021-07-05T12:01:44Z</time>
      </trkpt>
      <trkpt lat="42.57721" lon="1.89931">
        <ele>2201.56</ele>
        <time>2021-07-05T12:01:53Z</time>
      </trkpt>
      <trkpt lat="42.57722" lon="1.89922">
        <ele>2199.15</ele>
        <time>2021-07-05T12:01:58Z</time>
      </trkpt>
      <trkpt lat="42.57722" lon="1.89901">
        <ele>2198.67</ele>
        <time>2021-07-05T12:02:08Z</time>
      </trkpt>
      <trkpt lat="42.5772" lon="1.89888">
        <ele>2198.19</ele>
        <time>2021-07-05T12:02:15Z</time>
      </trkpt>
      <trkpt lat="42.57713" lon="1.89878">
        <ele>2195.79</ele>
        <time>2021-07-05T12:02:24Z</time>
      </trkpt>
      <trkpt lat="42.57707" lon="1.8987">
        <ele>2194.35</ele>
        <time>2021-07-05T12:02:32Z</time>
      </trkpt>
      <trkpt lat="42.57699" lon="1.89863">
        <ele>2192.9</ele>
        <time>2021-07-05T12:02:38Z</time>
      </trkpt>
      <trkpt lat="42.57697" lon="1.8986">
        <ele>2192.9</ele>
        <time>2021-07-05T12:02:40Z</time>
      </trkpt>
      <trkpt lat="42.57691" lon="1.89848">
        <ele>2190.5</ele>
        <time>2021-07-05T12:02:46Z</time>
      </trkpt>
      <trkpt lat="42.5769" lon="1.89842">
        <ele>2190.02</ele>
        <time>2021-07-05T12:02:49Z</time>
      </trkpt>
      <trkpt lat="42.57685" lon="1.89825">
        <ele>2189.06</ele>
        <time>2021-07-05T12:02:57Z</time>
      </trkpt>
      <trkpt lat="42.57683" lon="1.89812">
        <ele>2188.58</ele>
        <time>2021-07-05T12:03:03Z</time>
      </trkpt>
      <trkpt lat="42.57684" lon="1.89805">
        <ele>2187.62</ele>
        <time>2021-07-05T12:03:07Z</time>
      </trkpt>
      <trkpt lat="42.57685" lon="1.89799">
        <ele>2186.66</ele>
        <time>2021-07-05T12:03:10Z</time>
      </trkpt>
      <trkpt lat="42.57685" lon="1.89798">
        <ele>2185.69</ele>
        <time>2021-07-05T12:03:11Z</time>
      </trkpt>
      <trkpt lat="42.57687" lon="1.89788">
        <ele>2184.25</ele>
        <time>2021-07-05T12:03:18Z</time>
      </trkpt>
      <trkpt lat="42.57685" lon="1.8978">
        <ele>2182.33</ele>
        <time>2021-07-05T12:03:25Z</time>
      </trkpt>
      <trkpt lat="42.57687" lon="1.89775">
        <ele>2182.81</ele>
        <time>2021-07-05T12:03:31Z</time>
      </trkpt>
      <trkpt lat="42.57686" lon="1.89773">
        <ele>2182.33</ele>
        <time>2021-07-05T12:03:38Z</time>
      </trkpt>
      <trkpt lat="42.57685" lon="1.89772">
        <ele>2182.33</ele>
        <time>2021-07-05T12:03:49Z</time>
      </trkpt>
      <trkpt lat="42.57684" lon="1.89771">
        <ele>2182.81</ele>
        <time>2021-07-05T12:04:01Z</time>
      </trkpt>
      <trkpt lat="42.57684" lon="1.89771">
        <ele>2182.33</ele>
        <time>2021-07-05T12:04:11Z</time>
      </trkpt>
      <trkpt lat="42.57684" lon="1.89771">
        <ele>2182.33</ele>
        <time>2021-07-05T12:04:26Z</time>
      </trkpt>
      <trkpt lat="42.57684" lon="1.89771">
        <ele>2181.85</ele>
        <time>2021-07-05T12:04:35Z</time>
      </trkpt>
      <trkpt lat="42.57683" lon="1.89771">
        <ele>2181.85</ele>
        <time>2021-07-05T12:04:44Z</time>
      </trkpt>
      <trkpt lat="42.57679" lon="1.89769">
        <ele>2179.93</ele>
        <time>2021-07-05T12:04:51Z</time>
      </trkpt>
      <trkpt lat="42.57671" lon="1.89763">
        <ele>2178</ele>
        <time>2021-07-05T12:04:59Z</time>
      </trkpt>
      <trkpt lat="42.57671" lon="1.89755">
        <ele>2177.04</ele>
        <time>2021-07-05T12:05:05Z</time>
      </trkpt>
      <trkpt lat="42.57666" lon="1.8975">
        <ele>2176.56</ele>
        <time>2021-07-05T12:05:12Z</time>
      </trkpt>
      <trkpt lat="42.57666" lon="1.89745">
        <ele>2175.12</ele>
        <time>2021-07-05T12:05:17Z</time>
      </trkpt>
      <trkpt lat="42.57666" lon="1.89742">
        <ele>2175.12</ele>
        <time>2021-07-05T12:05:21Z</time>
      </trkpt>
      <trkpt lat="42.57667" lon="1.89736">
        <ele>2174.64</ele>
        <time>2021-07-05T12:05:26Z</time>
      </trkpt>
      <trkpt lat="42.57666" lon="1.89732">
        <ele>2175.6</ele>
        <time>2021-07-05T12:05:29Z</time>
      </trkpt>
      <trkpt lat="42.57667" lon="1.8973">
        <ele>2175.12</ele>
        <time>2021-07-05T12:05:31Z</time>
      </trkpt>
      <trkpt lat="42.57666" lon="1.89722">
        <ele>2175.6</ele>
        <time>2021-07-05T12:05:36Z</time>
      </trkpt>
      <trkpt lat="42.57664" lon="1.89716">
        <ele>2174.64</ele>
        <time>2021-07-05T12:05:40Z</time>
      </trkpt>
      <trkpt lat="42.57667" lon="1.89711">
        <ele>2175.12</ele>
        <time>2021-07-05T12:05:47Z</time>
      </trkpt>
      <trkpt lat="42.57667" lon="1.8971">
        <ele>2175.12</ele>
        <time>2021-07-05T12:05:56Z</time>
      </trkpt>
      <trkpt lat="42.57667" lon="1.8971">
        <ele>2175.12</ele>
        <time>2021-07-05T12:06:09Z</time>
      </trkpt>
      <trkpt lat="42.57666" lon="1.8971">
        <ele>2175.12</ele>
        <time>2021-07-05T12:06:25Z</time>
      </trkpt>
      <trkpt lat="42.57666" lon="1.89709">
        <ele>2175.12</ele>
        <time>2021-07-05T12:06:43Z</time>
      </trkpt>
      <trkpt lat="42.57665" lon="1.89708">
        <ele>2175.12</ele>
        <time>2021-07-05T12:07:02Z</time>
      </trkpt>
      <trkpt lat="42.57665" lon="1.89708">
        <ele>2175.6</ele>
        <time>2021-07-05T12:07:15Z</time>
      </trkpt>
      <trkpt lat="42.57663" lon="1.89707">
        <ele>2175.12</ele>
        <time>2021-07-05T12:07:29Z</time>
      </trkpt>
      <trkpt lat="42.57659" lon="1.89705">
        <ele>2175.12</ele>
        <time>2021-07-05T12:07:45Z</time>
      </trkpt>
      <trkpt lat="42.57658" lon="1.89705">
        <ele>2176.08</ele>
        <time>2021-07-05T12:07:56Z</time>
      </trkpt>
      <trkpt lat="42.57658" lon="1.89705">
        <ele>2175.6</ele>
        <time>2021-07-05T12:08:08Z</time>
      </trkpt>
      <trkpt lat="42.57658" lon="1.89705">
        <ele>2175.12</ele>
        <time>2021-07-05T12:08:18Z</time>
      </trkpt>
      <trkpt lat="42.57658" lon="1.89705">
        <ele>2175.12</ele>
        <time>2021-07-05T12:08:20Z</time>
      </trkpt>
      <trkpt lat="42.57655" lon="1.89699">
        <ele>2175.6</ele>
        <time>2021-07-05T12:08:26Z</time>
      </trkpt>
      <trkpt lat="42.57654" lon="1.89693">
        <ele>2176.56</ele>
        <time>2021-07-05T12:08:31Z</time>
      </trkpt>
      <trkpt lat="42.57654" lon="1.89681">
        <ele>2177.04</ele>
        <time>2021-07-05T12:08:38Z</time>
      </trkpt>
      <trkpt lat="42.57653" lon="1.8967">
        <ele>2177.52</ele>
        <time>2021-07-05T12:08:46Z</time>
      </trkpt>
      <trkpt lat="42.5765" lon="1.89655">
        <ele>2177.04</ele>
        <time>2021-07-05T12:08:53Z</time>
      </trkpt>
      <trkpt lat="42.5765" lon="1.89651">
        <ele>2176.56</ele>
        <time>2021-07-05T12:08:55Z</time>
      </trkpt>
      <trkpt lat="42.57645" lon="1.8964">
        <ele>2176.56</ele>
        <time>2021-07-05T12:09:01Z</time>
      </trkpt>
      <trkpt lat="42.57645" lon="1.89628">
        <ele>2175.12</ele>
        <time>2021-07-05T12:09:08Z</time>
      </trkpt>
      <trkpt lat="42.57645" lon="1.89616">
        <ele>2174.64</ele>
        <time>2021-07-05T12:09:14Z</time>
      </trkpt>
      <trkpt lat="42.5764" lon="1.89608">
        <ele>2173.68</ele>
        <time>2021-07-05T12:09:19Z</time>
      </trkpt>
      <trkpt lat="42.57639" lon="1.89606">
        <ele>2173.2</ele>
        <time>2021-07-05T12:09:21Z</time>
      </trkpt>
      <trkpt lat="42.57638" lon="1.89602">
        <ele>2172.24</ele>
        <time>2021-07-05T12:09:23Z</time>
      </trkpt>
      <trkpt lat="42.5764" lon="1.89597">
        <ele>2172.24</ele>
        <time>2021-07-05T12:09:25Z</time>
      </trkpt>
      <trkpt lat="42.5764" lon="1.89578">
        <ele>2171.76</ele>
        <time>2021-07-05T12:09:33Z</time>
      </trkpt>
      <trkpt lat="42.57637" lon="1.89564">
        <ele>2171.27</ele>
        <time>2021-07-05T12:09:40Z</time>
      </trkpt>
      <trkpt lat="42.57638" lon="1.89554">
        <ele>2169.83</ele>
        <time>2021-07-05T12:09:45Z</time>
      </trkpt>
      <trkpt lat="42.57634" lon="1.8954">
        <ele>2170.31</ele>
        <time>2021-07-05T12:09:52Z</time>
      </trkpt>
      <trkpt lat="42.57631" lon="1.89533">
        <ele>2169.83</ele>
        <time>2021-07-05T12:09:55Z</time>
      </trkpt>
      <trkpt lat="42.57628" lon="1.89519">
        <ele>2169.35</ele>
        <time>2021-07-05T12:10:03Z</time>
      </trkpt>
      <trkpt lat="42.57621" lon="1.89506">
        <ele>2168.87</ele>
        <time>2021-07-05T12:10:10Z</time>
      </trkpt>
      <trkpt lat="42.57618" lon="1.89499">
        <ele>2169.35</ele>
        <time>2021-07-05T12:10:14Z</time>
      </trkpt>
      <trkpt lat="42.57617" lon="1.89497">
        <ele>2168.87</ele>
        <time>2021-07-05T12:10:17Z</time>
      </trkpt>
      <trkpt lat="42.57612" lon="1.89489">
        <ele>2168.39</ele>
        <time>2021-07-05T12:10:23Z</time>
      </trkpt>
      <trkpt lat="42.5761" lon="1.89486">
        <ele>2167.91</ele>
        <time>2021-07-05T12:10:25Z</time>
      </trkpt>
      <trkpt lat="42.57608" lon="1.8948">
        <ele>2167.91</ele>
        <time>2021-07-05T12:10:29Z</time>
      </trkpt>
      <trkpt lat="42.57604" lon="1.89472">
        <ele>2168.87</ele>
        <time>2021-07-05T12:10:37Z</time>
      </trkpt>
      <trkpt lat="42.57603" lon="1.89471">
        <ele>2169.35</ele>
        <time>2021-07-05T12:10:50Z</time>
      </trkpt>
      <trkpt lat="42.57603" lon="1.89471">
        <ele>2168.39</ele>
        <time>2021-07-05T12:11:04Z</time>
      </trkpt>
      <trkpt lat="42.57602" lon="1.89472">
        <ele>2168.87</ele>
        <time>2021-07-05T12:11:09Z</time>
      </trkpt>
      <trkpt lat="42.57592" lon="1.8947">
        <ele>2168.39</ele>
        <time>2021-07-05T12:11:16Z</time>
      </trkpt>
      <trkpt lat="42.57587" lon="1.89471">
        <ele>2171.27</ele>
        <time>2021-07-05T12:11:20Z</time>
      </trkpt>
      <trkpt lat="42.57585" lon="1.89471">
        <ele>2169.83</ele>
        <time>2021-07-05T12:11:21Z</time>
      </trkpt>
      <trkpt lat="42.57576" lon="1.89475">
        <ele>2169.83</ele>
        <time>2021-07-05T12:11:28Z</time>
      </trkpt>
      <trkpt lat="42.57565" lon="1.89473">
        <ele>2169.35</ele>
        <time>2021-07-05T12:11:35Z</time>
      </trkpt>
      <trkpt lat="42.57561" lon="1.89472">
        <ele>2165.99</ele>
        <time>2021-07-05T12:11:38Z</time>
      </trkpt>
      <trkpt lat="42.57559" lon="1.89471">
        <ele>2166.47</ele>
        <time>2021-07-05T12:11:39Z</time>
      </trkpt>
      <trkpt lat="42.57546" lon="1.89465">
        <ele>2165.03</ele>
        <time>2021-07-05T12:11:48Z</time>
      </trkpt>
      <trkpt lat="42.57535" lon="1.89465">
        <ele>2166.95</ele>
        <time>2021-07-05T12:11:56Z</time>
      </trkpt>
      <trkpt lat="42.57532" lon="1.89466">
        <ele>2164.55</ele>
        <time>2021-07-05T12:12:00Z</time>
      </trkpt>
      <trkpt lat="42.57533" lon="1.89466">
        <ele>2163.58</ele>
        <time>2021-07-05T12:12:04Z</time>
      </trkpt>
      <trkpt lat="42.57533" lon="1.89466">
        <ele>2165.51</ele>
        <time>2021-07-05T12:12:06Z</time>
      </trkpt>
      <trkpt lat="42.57532" lon="1.89466">
        <ele>2165.03</ele>
        <time>2021-07-05T12:12:17Z</time>
      </trkpt>
      <trkpt lat="42.57533" lon="1.89466">
        <ele>2164.55</ele>
        <time>2021-07-05T12:12:27Z</time>
      </trkpt>
      <trkpt lat="42.57533" lon="1.89467">
        <ele>2164.55</ele>
        <time>2021-07-05T12:12:28Z</time>
      </trkpt>
      <trkpt lat="42.5753" lon="1.89467">
        <ele>2163.58</ele>
        <time>2021-07-05T12:12:34Z</time>
      </trkpt>
      <trkpt lat="42.57529" lon="1.89465">
        <ele>2165.99</ele>
        <time>2021-07-05T12:12:37Z</time>
      </trkpt>
      <trkpt lat="42.57528" lon="1.89464">
        <ele>2166.47</ele>
        <time>2021-07-05T12:12:44Z</time>
      </trkpt>
      <trkpt lat="42.57528" lon="1.89463">
        <ele>2166.47</ele>
        <time>2021-07-05T12:13:00Z</time>
      </trkpt>
      <trkpt lat="42.57528" lon="1.89462">
        <ele>2165.99</ele>
        <time>2021-07-05T12:13:01Z</time>
      </trkpt>
      <trkpt lat="42.57527" lon="1.8946">
        <ele>2165.03</ele>
        <time>2021-07-05T12:13:03Z</time>
      </trkpt>
      <trkpt lat="42.57527" lon="1.89458">
        <ele>2164.06</ele>
        <time>2021-07-05T12:13:05Z</time>
      </trkpt>
      <trkpt lat="42.57527" lon="1.89455">
        <ele>2163.58</ele>
        <time>2021-07-05T12:13:07Z</time>
      </trkpt>
      <trkpt lat="42.57526" lon="1.89447">
        <ele>2161.66</ele>
        <time>2021-07-05T12:13:14Z</time>
      </trkpt>
      <trkpt lat="42.57527" lon="1.89443">
        <ele>2161.18</ele>
        <time>2021-07-05T12:13:21Z</time>
      </trkpt>
      <trkpt lat="42.57528" lon="1.89439">
        <ele>2160.22</ele>
        <time>2021-07-05T12:13:28Z</time>
      </trkpt>
      <trkpt lat="42.57529" lon="1.89439">
        <ele>2160.22</ele>
        <time>2021-07-05T12:13:36Z</time>
      </trkpt>
      <trkpt lat="42.57529" lon="1.8944">
        <ele>2160.22</ele>
        <time>2021-07-05T12:13:50Z</time>
      </trkpt>
      <trkpt lat="42.57529" lon="1.8944">
        <ele>2159.26</ele>
        <time>2021-07-05T12:14:05Z</time>
      </trkpt>
      <trkpt lat="42.57529" lon="1.8944">
        <ele>2159.26</ele>
        <time>2021-07-05T12:14:14Z</time>
      </trkpt>
      <trkpt lat="42.57529" lon="1.89436">
        <ele>2158.78</ele>
        <time>2021-07-05T12:14:23Z</time>
      </trkpt>
      <trkpt lat="42.57529" lon="1.89435">
        <ele>2158.78</ele>
        <time>2021-07-05T12:14:29Z</time>
      </trkpt>
      <trkpt lat="42.57533" lon="1.89424">
        <ele>2159.26</ele>
        <time>2021-07-05T12:14:37Z</time>
      </trkpt>
      <trkpt lat="42.5753" lon="1.89418">
        <ele>2161.18</ele>
        <time>2021-07-05T12:14:44Z</time>
      </trkpt>
      <trkpt lat="42.57527" lon="1.89417">
        <ele>2162.14</ele>
        <time>2021-07-05T12:14:48Z</time>
      </trkpt>
      <trkpt lat="42.57526" lon="1.89415">
        <ele>2162.62</ele>
        <time>2021-07-05T12:14:50Z</time>
      </trkpt>
      <trkpt lat="42.57523" lon="1.89413">
        <ele>2162.62</ele>
        <time>2021-07-05T12:14:56Z</time>
      </trkpt>
      <trkpt lat="42.57523" lon="1.89413">
        <ele>2166.47</ele>
        <time>2021-07-05T12:15:01Z</time>
      </trkpt>
      <trkpt lat="42.57523" lon="1.89413">
        <ele>2165.51</ele>
        <time>2021-07-05T12:15:09Z</time>
      </trkpt>
      <trkpt lat="42.57523" lon="1.89412">
        <ele>2163.1</ele>
        <time>2021-07-05T12:15:13Z</time>
      </trkpt>
      <trkpt lat="42.57521" lon="1.89414">
        <ele>2161.18</ele>
        <time>2021-07-05T12:15:17Z</time>
      </trkpt>
      <trkpt lat="42.57521" lon="1.89414">
        <ele>2165.03</ele>
        <time>2021-07-05T12:15:21Z</time>
      </trkpt>
      <trkpt lat="42.57521" lon="1.89414">
        <ele>2163.58</ele>
        <time>2021-07-05T12:15:22Z</time>
      </trkpt>
      <trkpt lat="42.57519" lon="1.89415">
        <ele>2161.18</ele>
        <time>2021-07-05T12:15:26Z</time>
      </trkpt>
      <trkpt lat="42.57519" lon="1.89414">
        <ele>2162.14</ele>
        <time>2021-07-05T12:15:28Z</time>
      </trkpt>
      <trkpt lat="42.57517" lon="1.89412">
        <ele>2160.22</ele>
        <time>2021-07-05T12:15:36Z</time>
      </trkpt>
      <trkpt lat="42.57516" lon="1.89411">
        <ele>2158.3</ele>
        <time>2021-07-05T12:15:42Z</time>
      </trkpt>
      <trkpt lat="42.57516" lon="1.89411">
        <ele>2158.3</ele>
        <time>2021-07-05T12:15:44Z</time>
      </trkpt>
      <trkpt lat="42.57511" lon="1.89419">
        <ele>2156.37</ele>
        <time>2021-07-05T12:15:51Z</time>
      </trkpt>
      <trkpt lat="42.57509" lon="1.89423">
        <ele>2155.89</ele>
        <time>2021-07-05T12:15:54Z</time>
      </trkpt>
      <trkpt lat="42.57507" lon="1.89425">
        <ele>2155.89</ele>
        <time>2021-07-05T12:16:01Z</time>
      </trkpt>
      <trkpt lat="42.57509" lon="1.89429">
        <ele>2154.45</ele>
        <time>2021-07-05T12:16:07Z</time>
      </trkpt>
      <trkpt lat="42.5751" lon="1.89428">
        <ele>2154.93</ele>
        <time>2021-07-05T12:16:15Z</time>
      </trkpt>
      <trkpt lat="42.57511" lon="1.89428">
        <ele>2154.93</ele>
        <time>2021-07-05T12:16:29Z</time>
      </trkpt>
      <trkpt lat="42.5751" lon="1.89428">
        <ele>2154.45</ele>
        <time>2021-07-05T12:16:37Z</time>
      </trkpt>
      <trkpt lat="42.57507" lon="1.89428">
        <ele>2154.93</ele>
        <time>2021-07-05T12:16:40Z</time>
      </trkpt>
      <trkpt lat="42.57499" lon="1.89427">
        <ele>2153.97</ele>
        <time>2021-07-05T12:16:46Z</time>
      </trkpt>
      <trkpt lat="42.57499" lon="1.89426">
        <ele>2154.45</ele>
        <time>2021-07-05T12:16:53Z</time>
      </trkpt>
      <trkpt lat="42.57499" lon="1.89426">
        <ele>2153.01</ele>
        <time>2021-07-05T12:16:55Z</time>
      </trkpt>
      <trkpt lat="42.57499" lon="1.89426">
        <ele>2153.49</ele>
        <time>2021-07-05T12:16:57Z</time>
      </trkpt>
      <trkpt lat="42.57494" lon="1.89424">
        <ele>2152.05</ele>
        <time>2021-07-05T12:17:02Z</time>
      </trkpt>
      <trkpt lat="42.57492" lon="1.89422">
        <ele>2151.09</ele>
        <time>2021-07-05T12:17:04Z</time>
      </trkpt>
      <trkpt lat="42.57486" lon="1.89421">
        <ele>2149.65</ele>
        <time>2021-07-05T12:17:09Z</time>
      </trkpt>
      <trkpt lat="42.57484" lon="1.8942">
        <ele>2149.16</ele>
        <time>2021-07-05T12:17:14Z</time>
      </trkpt>
      <trkpt lat="42.57483" lon="1.89418">
        <ele>2149.16</ele>
        <time>2021-07-05T12:17:23Z</time>
      </trkpt>
      <trkpt lat="42.5748" lon="1.89416">
        <ele>2147.24</ele>
        <time>2021-07-05T12:17:28Z</time>
      </trkpt>
      <trkpt lat="42.57477" lon="1.89412">
        <ele>2146.28</ele>
        <time>2021-07-05T12:17:34Z</time>
      </trkpt>
      <trkpt lat="42.57475" lon="1.89409">
        <ele>2144.84</ele>
        <time>2021-07-05T12:17:37Z</time>
      </trkpt>
      <trkpt lat="42.5747" lon="1.89404">
        <ele>2142.44</ele>
        <time>2021-07-05T12:17:42Z</time>
      </trkpt>
      <trkpt lat="42.57468" lon="1.89398">
        <ele>2145.8</ele>
        <time>2021-07-05T12:17:49Z</time>
      </trkpt>
      <trkpt lat="42.57468" lon="1.89394">
        <ele>2146.28</ele>
        <time>2021-07-05T12:17:52Z</time>
      </trkpt>
      <trkpt lat="42.57468" lon="1.89389">
        <ele>2147.24</ele>
        <time>2021-07-05T12:17:55Z</time>
      </trkpt>
      <trkpt lat="42.57466" lon="1.89383">
        <ele>2147.72</ele>
        <time>2021-07-05T12:18:01Z</time>
      </trkpt>
      <trkpt lat="42.57465" lon="1.89382">
        <ele>2147.72</ele>
        <time>2021-07-05T12:18:06Z</time>
      </trkpt>
      <trkpt lat="42.57452" lon="1.89378">
        <ele>2147.24</ele>
        <time>2021-07-05T12:18:15Z</time>
      </trkpt>
      <trkpt lat="42.57447" lon="1.8937">
        <ele>2147.24</ele>
        <time>2021-07-05T12:18:22Z</time>
      </trkpt>
      <trkpt lat="42.57447" lon="1.8937">
        <ele>2147.24</ele>
        <time>2021-07-05T12:18:30Z</time>
      </trkpt>
      <trkpt lat="42.57446" lon="1.8937">
        <ele>2147.72</ele>
        <time>2021-07-05T12:18:45Z</time>
      </trkpt>
      <trkpt lat="42.57446" lon="1.89369">
        <ele>2147.24</ele>
        <time>2021-07-05T12:18:59Z</time>
      </trkpt>
      <trkpt lat="42.57439" lon="1.89352">
        <ele>2146.76</ele>
        <time>2021-07-05T12:19:07Z</time>
      </trkpt>
      <trkpt lat="42.57438" lon="1.89345">
        <ele>2146.76</ele>
        <time>2021-07-05T12:19:11Z</time>
      </trkpt>
      <trkpt lat="42.57433" lon="1.89332">
        <ele>2146.28</ele>
        <time>2021-07-05T12:19:18Z</time>
      </trkpt>
      <trkpt lat="42.5743" lon="1.89327">
        <ele>2146.28</ele>
        <time>2021-07-05T12:19:21Z</time>
      </trkpt>
      <trkpt lat="42.57428" lon="1.89319">
        <ele>2146.76</ele>
        <time>2021-07-05T12:19:26Z</time>
      </trkpt>
      <trkpt lat="42.57422" lon="1.89305">
        <ele>2146.76</ele>
        <time>2021-07-05T12:19:34Z</time>
      </trkpt>
      <trkpt lat="42.57417" lon="1.89296">
        <ele>2146.28</ele>
        <time>2021-07-05T12:19:40Z</time>
      </trkpt>
      <trkpt lat="42.57412" lon="1.89284">
        <ele>2146.76</ele>
        <time>2021-07-05T12:19:47Z</time>
      </trkpt>
      <trkpt lat="42.57406" lon="1.89281">
        <ele>2146.28</ele>
        <time>2021-07-05T12:19:51Z</time>
      </trkpt>
      <trkpt lat="42.57404" lon="1.89273">
        <ele>2146.28</ele>
        <time>2021-07-05T12:19:55Z</time>
      </trkpt>
      <trkpt lat="42.57398" lon="1.89267">
        <ele>2145.8</ele>
        <time>2021-07-05T12:20:00Z</time>
      </trkpt>
      <trkpt lat="42.57394" lon="1.8926">
        <ele>2145.32</ele>
        <time>2021-07-05T12:20:04Z</time>
      </trkpt>
      <trkpt lat="42.57391" lon="1.89259">
        <ele>2145.8</ele>
        <time>2021-07-05T12:20:06Z</time>
      </trkpt>
      <trkpt lat="42.57384" lon="1.89244">
        <ele>2146.76</ele>
        <time>2021-07-05T12:20:14Z</time>
      </trkpt>
      <trkpt lat="42.57381" lon="1.89238">
        <ele>2146.76</ele>
        <time>2021-07-05T12:20:18Z</time>
      </trkpt>
      <trkpt lat="42.5738" lon="1.89232">
        <ele>2146.76</ele>
        <time>2021-07-05T12:20:22Z</time>
      </trkpt>
      <trkpt lat="42.57373" lon="1.89221">
        <ele>2147.72</ele>
        <time>2021-07-05T12:20:29Z</time>
      </trkpt>
      <trkpt lat="42.57372" lon="1.89213">
        <ele>2147.24</ele>
        <time>2021-07-05T12:20:35Z</time>
      </trkpt>
      <trkpt lat="42.57369" lon="1.89203">
        <ele>2148.68</ele>
        <time>2021-07-05T12:20:41Z</time>
      </trkpt>
      <trkpt lat="42.57364" lon="1.89198">
        <ele>2149.65</ele>
        <time>2021-07-05T12:20:46Z</time>
      </trkpt>
      <trkpt lat="42.5736" lon="1.89197">
        <ele>2148.68</ele>
        <time>2021-07-05T12:20:49Z</time>
      </trkpt>
      <trkpt lat="42.5735" lon="1.89192">
        <ele>2148.2</ele>
        <time>2021-07-05T12:20:57Z</time>
      </trkpt>
      <trkpt lat="42.57348" lon="1.89191">
        <ele>2148.68</ele>
        <time>2021-07-05T12:20:59Z</time>
      </trkpt>
      <trkpt lat="42.57344" lon="1.89191">
        <ele>2148.2</ele>
        <time>2021-07-05T12:21:02Z</time>
      </trkpt>
      <trkpt lat="42.57335" lon="1.8919">
        <ele>2148.2</ele>
        <time>2021-07-05T12:21:09Z</time>
      </trkpt>
      <trkpt lat="42.57331" lon="1.8919">
        <ele>2149.16</ele>
        <time>2021-07-05T12:21:12Z</time>
      </trkpt>
      <trkpt lat="42.57329" lon="1.8919">
        <ele>2148.68</ele>
        <time>2021-07-05T12:21:14Z</time>
      </trkpt>
      <trkpt lat="42.57322" lon="1.89187">
        <ele>2149.16</ele>
        <time>2021-07-05T12:21:19Z</time>
      </trkpt>
      <trkpt lat="42.57311" lon="1.89185">
        <ele>2148.68</ele>
        <time>2021-07-05T12:21:26Z</time>
      </trkpt>
      <trkpt lat="42.573" lon="1.89181">
        <ele>2148.2</ele>
        <time>2021-07-05T12:21:33Z</time>
      </trkpt>
      <trkpt lat="42.57291" lon="1.89181">
        <ele>2146.76</ele>
        <time>2021-07-05T12:21:40Z</time>
      </trkpt>
      <trkpt lat="42.5729" lon="1.89181">
        <ele>2146.76</ele>
        <time>2021-07-05T12:21:41Z</time>
      </trkpt>
      <trkpt lat="42.57283" lon="1.89186">
        <ele>2146.76</ele>
        <time>2021-07-05T12:21:47Z</time>
      </trkpt>
      <trkpt lat="42.57275" lon="1.8919">
        <ele>2146.76</ele>
        <time>2021-07-05T12:21:54Z</time>
      </trkpt>
      <trkpt lat="42.57265" lon="1.89191">
        <ele>2145.8</ele>
        <time>2021-07-05T12:22:02Z</time>
      </trkpt>
      <trkpt lat="42.57259" lon="1.89186">
        <ele>2144.84</ele>
        <time>2021-07-05T12:22:09Z</time>
      </trkpt>
      <trkpt lat="42.57257" lon="1.89183">
        <ele>2145.8</ele>
        <time>2021-07-05T12:22:11Z</time>
      </trkpt>
      <trkpt lat="42.57251" lon="1.89177">
        <ele>2145.32</ele>
        <time>2021-07-05T12:22:16Z</time>
      </trkpt>
      <trkpt lat="42.57245" lon="1.8917">
        <ele>2145.8</ele>
        <time>2021-07-05T12:22:21Z</time>
      </trkpt>
      <trkpt lat="42.5724" lon="1.89161">
        <ele>2145.8</ele>
        <time>2021-07-05T12:22:26Z</time>
      </trkpt>
      <trkpt lat="42.57237" lon="1.89152">
        <ele>2145.32</ele>
        <time>2021-07-05T12:22:31Z</time>
      </trkpt>
      <trkpt lat="42.57228" lon="1.89144">
        <ele>2145.32</ele>
        <time>2021-07-05T12:22:38Z</time>
      </trkpt>
      <trkpt lat="42.57226" lon="1.89143">
        <ele>2145.32</ele>
        <time>2021-07-05T12:22:41Z</time>
      </trkpt>
      <trkpt lat="42.57224" lon="1.89143">
        <ele>2145.32</ele>
        <time>2021-07-05T12:22:46Z</time>
      </trkpt>
      <trkpt lat="42.57223" lon="1.89142">
        <ele>2145.32</ele>
        <time>2021-07-05T12:22:48Z</time>
      </trkpt>
      <trkpt lat="42.57214" lon="1.89138">
        <ele>2145.8</ele>
        <time>2021-07-05T12:22:55Z</time>
      </trkpt>
      <trkpt lat="42.57211" lon="1.89138">
        <ele>2145.8</ele>
        <time>2021-07-05T12:22:57Z</time>
      </trkpt>
      <trkpt lat="42.57205" lon="1.89134">
        <ele>2145.32</ele>
        <time>2021-07-05T12:23:04Z</time>
      </trkpt>
      <trkpt lat="42.57202" lon="1.89133">
        <ele>2144.84</ele>
        <time>2021-07-05T12:23:06Z</time>
      </trkpt>
      <trkpt lat="42.57193" lon="1.89126">
        <ele>2144.36</ele>
        <time>2021-07-05T12:23:14Z</time>
      </trkpt>
      <trkpt lat="42.57184" lon="1.8912">
        <ele>2144.84</ele>
        <time>2021-07-05T12:23:21Z</time>
      </trkpt>
      <trkpt lat="42.5718" lon="1.89119">
        <ele>2145.32</ele>
        <time>2021-07-05T12:23:24Z</time>
      </trkpt>
      <trkpt lat="42.57179" lon="1.89116">
        <ele>2146.28</ele>
        <time>2021-07-05T12:23:27Z</time>
      </trkpt>
      <trkpt lat="42.57176" lon="1.89109">
        <ele>2147.72</ele>
        <time>2021-07-05T12:23:34Z</time>
      </trkpt>
      <trkpt lat="42.5717" lon="1.89101">
        <ele>2149.65</ele>
        <time>2021-07-05T12:23:42Z</time>
      </trkpt>
      <trkpt lat="42.57164" lon="1.89095">
        <ele>2150.61</ele>
        <time>2021-07-05T12:23:49Z</time>
      </trkpt>
      <trkpt lat="42.57156" lon="1.89091">
        <ele>2151.57</ele>
        <time>2021-07-05T12:23:56Z</time>
      </trkpt>
      <trkpt lat="42.57147" lon="1.89084">
        <ele>2151.09</ele>
        <time>2021-07-05T12:24:03Z</time>
      </trkpt>
      <trkpt lat="42.57146" lon="1.89083">
        <ele>2151.09</ele>
        <time>2021-07-05T12:24:04Z</time>
      </trkpt>
      <trkpt lat="42.57141" lon="1.89075">
        <ele>2150.61</ele>
        <time>2021-07-05T12:24:10Z</time>
      </trkpt>
      <trkpt lat="42.57137" lon="1.89068">
        <ele>2150.13</ele>
        <time>2021-07-05T12:24:15Z</time>
      </trkpt>
      <trkpt lat="42.57133" lon="1.89058">
        <ele>2151.09</ele>
        <time>2021-07-05T12:24:22Z</time>
      </trkpt>
      <trkpt lat="42.5713" lon="1.89054">
        <ele>2151.57</ele>
        <time>2021-07-05T12:24:25Z</time>
      </trkpt>
      <trkpt lat="42.57124" lon="1.89056">
        <ele>2151.09</ele>
        <time>2021-07-05T12:24:29Z</time>
      </trkpt>
      <trkpt lat="42.57117" lon="1.89055">
        <ele>2150.13</ele>
        <time>2021-07-05T12:24:36Z</time>
      </trkpt>
      <trkpt lat="42.57113" lon="1.8905">
        <ele>2150.61</ele>
        <time>2021-07-05T12:24:42Z</time>
      </trkpt>
      <trkpt lat="42.5711" lon="1.89047">
        <ele>2152.05</ele>
        <time>2021-07-05T12:24:46Z</time>
      </trkpt>
      <trkpt lat="42.57106" lon="1.89043">
        <ele>2153.01</ele>
        <time>2021-07-05T12:24:54Z</time>
      </trkpt>
      <trkpt lat="42.57101" lon="1.89037">
        <ele>2152.53</ele>
        <time>2021-07-05T12:25:02Z</time>
      </trkpt>
      <trkpt lat="42.57092" lon="1.89042">
        <ele>2150.61</ele>
        <time>2021-07-05T12:25:10Z</time>
      </trkpt>
      <trkpt lat="42.5709" lon="1.89045">
        <ele>2150.13</ele>
        <time>2021-07-05T12:25:13Z</time>
      </trkpt>
      <trkpt lat="42.57082" lon="1.89044">
        <ele>2148.68</ele>
        <time>2021-07-05T12:25:20Z</time>
      </trkpt>
      <trkpt lat="42.57079" lon="1.89042">
        <ele>2149.65</ele>
        <time>2021-07-05T12:25:27Z</time>
      </trkpt>
      <trkpt lat="42.57075" lon="1.89042">
        <ele>2150.61</ele>
        <time>2021-07-05T12:25:37Z</time>
      </trkpt>
      <trkpt lat="42.57071" lon="1.89044">
        <ele>2150.61</ele>
        <time>2021-07-05T12:25:42Z</time>
      </trkpt>
      <trkpt lat="42.57066" lon="1.89044">
        <ele>2150.13</ele>
        <time>2021-07-05T12:25:47Z</time>
      </trkpt>
      <trkpt lat="42.57065" lon="1.89044">
        <ele>2149.65</ele>
        <time>2021-07-05T12:25:48Z</time>
      </trkpt>
      <trkpt lat="42.57053" lon="1.89047">
        <ele>2147.24</ele>
        <time>2021-07-05T12:25:56Z</time>
      </trkpt>
      <trkpt lat="42.57048" lon="1.89044">
        <ele>2147.24</ele>
        <time>2021-07-05T12:26:00Z</time>
      </trkpt>
      <trkpt lat="42.57042" lon="1.89033">
        <ele>2146.76</ele>
        <time>2021-07-05T12:26:08Z</time>
      </trkpt>
      <trkpt lat="42.57041" lon="1.89032">
        <ele>2146.76</ele>
        <time>2021-07-05T12:26:09Z</time>
      </trkpt>
      <trkpt lat="42.57037" lon="1.89028">
        <ele>2146.28</ele>
        <time>2021-07-05T12:26:13Z</time>
      </trkpt>
      <trkpt lat="42.57035" lon="1.89025">
        <ele>2145.8</ele>
        <time>2021-07-05T12:26:16Z</time>
      </trkpt>
      <trkpt lat="42.57029" lon="1.89019">
        <ele>2145.32</ele>
        <time>2021-07-05T12:26:23Z</time>
      </trkpt>
      <trkpt lat="42.57022" lon="1.8902">
        <ele>2144.36</ele>
        <time>2021-07-05T12:26:27Z</time>
      </trkpt>
      <trkpt lat="42.57012" lon="1.89019">
        <ele>2145.32</ele>
        <time>2021-07-05T12:26:34Z</time>
      </trkpt>
      <trkpt lat="42.5701" lon="1.89019">
        <ele>2138.11</ele>
        <time>2021-07-05T12:26:42Z</time>
      </trkpt>
      <trkpt lat="42.5701" lon="1.89019">
        <ele>2152.05</ele>
        <time>2021-07-05T12:26:43Z</time>
      </trkpt>
      <trkpt lat="42.5701" lon="1.89019">
        <ele>2146.28</ele>
        <time>2021-07-05T12:26:44Z</time>
      </trkpt>
      <trkpt lat="42.5701" lon="1.89019">
        <ele>2144.84</ele>
        <time>2021-07-05T12:26:47Z</time>
      </trkpt>
      <trkpt lat="42.5701" lon="1.89019">
        <ele>2139.55</ele>
        <time>2021-07-05T12:26:48Z</time>
      </trkpt>
      <trkpt lat="42.5701" lon="1.89019">
        <ele>2145.8</ele>
        <time>2021-07-05T12:26:49Z</time>
      </trkpt>
      <trkpt lat="42.5701" lon="1.89019">
        <ele>2140.03</ele>
        <time>2021-07-05T12:26:52Z</time>
      </trkpt>
      <trkpt lat="42.5701" lon="1.89019">
        <ele>2148.68</ele>
        <time>2021-07-05T12:26:53Z</time>
      </trkpt>
      <trkpt lat="42.5701" lon="1.89019">
        <ele>2144.84</ele>
        <time>2021-07-05T12:26:54Z</time>
      </trkpt>
      <trkpt lat="42.5701" lon="1.89019">
        <ele>2144.84</ele>
        <time>2021-07-05T12:26:56Z</time>
      </trkpt>
      <trkpt lat="42.57002" lon="1.89019">
        <ele>2143.88</ele>
        <time>2021-07-05T12:27:03Z</time>
      </trkpt>
      <trkpt lat="42.56995" lon="1.89016">
        <ele>2143.4</ele>
        <time>2021-07-05T12:27:10Z</time>
      </trkpt>
      <trkpt lat="42.56995" lon="1.89017">
        <ele>2143.88</ele>
        <time>2021-07-05T12:27:18Z</time>
      </trkpt>
      <trkpt lat="42.56986" lon="1.89014">
        <ele>2141.95</ele>
        <time>2021-07-05T12:27:24Z</time>
      </trkpt>
      <trkpt lat="42.56981" lon="1.89012">
        <ele>2141.95</ele>
        <time>2021-07-05T12:27:28Z</time>
      </trkpt>
      <trkpt lat="42.56976" lon="1.89012">
        <ele>2140.03</ele>
        <time>2021-07-05T12:27:33Z</time>
      </trkpt>
      <trkpt lat="42.56974" lon="1.89011">
        <ele>2140.03</ele>
        <time>2021-07-05T12:27:35Z</time>
      </trkpt>
      <trkpt lat="42.56965" lon="1.89012">
        <ele>2139.55</ele>
        <time>2021-07-05T12:27:42Z</time>
      </trkpt>
      <trkpt lat="42.56961" lon="1.8901">
        <ele>2139.07</ele>
        <time>2021-07-05T12:27:45Z</time>
      </trkpt>
      <trkpt lat="42.56953" lon="1.89011">
        <ele>2139.55</ele>
        <time>2021-07-05T12:27:51Z</time>
      </trkpt>
      <trkpt lat="42.56944" lon="1.89008">
        <ele>2141.47</ele>
        <time>2021-07-05T12:27:59Z</time>
      </trkpt>
      <trkpt lat="42.56944" lon="1.89008">
        <ele>2141.95</ele>
        <time>2021-07-05T12:28:00Z</time>
      </trkpt>
      <trkpt lat="42.56932" lon="1.89011">
        <ele>2141.95</ele>
        <time>2021-07-05T12:28:09Z</time>
      </trkpt>
      <trkpt lat="42.56925" lon="1.89012">
        <ele>2141.47</ele>
        <time>2021-07-05T12:28:14Z</time>
      </trkpt>
      <trkpt lat="42.56917" lon="1.89013">
        <ele>2140.03</ele>
        <time>2021-07-05T12:28:20Z</time>
      </trkpt>
      <trkpt lat="42.56915" lon="1.89013">
        <ele>2139.55</ele>
        <time>2021-07-05T12:28:22Z</time>
      </trkpt>
      <trkpt lat="42.56906" lon="1.89013">
        <ele>2139.55</ele>
        <time>2021-07-05T12:28:29Z</time>
      </trkpt>
      <trkpt lat="42.56901" lon="1.89012">
        <ele>2139.07</ele>
        <time>2021-07-05T12:28:33Z</time>
      </trkpt>
      <trkpt lat="42.56895" lon="1.89011">
        <ele>2139.55</ele>
        <time>2021-07-05T12:28:38Z</time>
      </trkpt>
      <trkpt lat="42.56887" lon="1.89009">
        <ele>2140.03</ele>
        <time>2021-07-05T12:28:45Z</time>
      </trkpt>
      <trkpt lat="42.56883" lon="1.89005">
        <ele>2140.51</ele>
        <time>2021-07-05T12:28:48Z</time>
      </trkpt>
      <trkpt lat="42.56881" lon="1.89002">
        <ele>2140.51</ele>
        <time>2021-07-05T12:28:50Z</time>
      </trkpt>
      <trkpt lat="42.56876" lon="1.88989">
        <ele>2140.51</ele>
        <time>2021-07-05T12:28:58Z</time>
      </trkpt>
      <trkpt lat="42.56875" lon="1.88988">
        <ele>2140.99</ele>
        <time>2021-07-05T12:28:59Z</time>
      </trkpt>
      <trkpt lat="42.5687" lon="1.88984">
        <ele>2140.99</ele>
        <time>2021-07-05T12:29:04Z</time>
      </trkpt>
      <trkpt lat="42.56861" lon="1.88983">
        <ele>2141.47</ele>
        <time>2021-07-05T12:29:11Z</time>
      </trkpt>
      <trkpt lat="42.56856" lon="1.88982">
        <ele>2143.4</ele>
        <time>2021-07-05T12:29:17Z</time>
      </trkpt>
      <trkpt lat="42.56847" lon="1.88981">
        <ele>2144.84</ele>
        <time>2021-07-05T12:29:26Z</time>
      </trkpt>
      <trkpt lat="42.56844" lon="1.88981">
        <ele>2146.28</ele>
        <time>2021-07-05T12:29:33Z</time>
      </trkpt>
      <trkpt lat="42.56843" lon="1.88982">
        <ele>2145.8</ele>
        <time>2021-07-05T12:29:36Z</time>
      </trkpt>
      <trkpt lat="42.56839" lon="1.88984">
        <ele>2145.8</ele>
        <time>2021-07-05T12:29:40Z</time>
      </trkpt>
      <trkpt lat="42.56832" lon="1.88986">
        <ele>2145.32</ele>
        <time>2021-07-05T12:29:46Z</time>
      </trkpt>
      <trkpt lat="42.56831" lon="1.88987">
        <ele>2145.32</ele>
        <time>2021-07-05T12:29:47Z</time>
      </trkpt>
      <trkpt lat="42.56826" lon="1.8899">
        <ele>2144.84</ele>
        <time>2021-07-05T12:29:51Z</time>
      </trkpt>
      <trkpt lat="42.56819" lon="1.88993">
        <ele>2145.32</ele>
        <time>2021-07-05T12:29:57Z</time>
      </trkpt>
      <trkpt lat="42.56816" lon="1.88994">
        <ele>2145.32</ele>
        <time>2021-07-05T12:29:59Z</time>
      </trkpt>
      <trkpt lat="42.56809" lon="1.89">
        <ele>2145.32</ele>
        <time>2021-07-05T12:30:06Z</time>
      </trkpt>
      <trkpt lat="42.56805" lon="1.89003">
        <ele>2146.28</ele>
        <time>2021-07-05T12:30:10Z</time>
      </trkpt>
      <trkpt lat="42.56803" lon="1.89011">
        <ele>2146.76</ele>
        <time>2021-07-05T12:30:16Z</time>
      </trkpt>
      <trkpt lat="42.56801" lon="1.89012">
        <ele>2146.76</ele>
        <time>2021-07-05T12:30:22Z</time>
      </trkpt>
      <trkpt lat="42.56801" lon="1.89013">
        <ele>2147.24</ele>
        <time>2021-07-05T12:30:28Z</time>
      </trkpt>
      <trkpt lat="42.56801" lon="1.89014">
        <ele>2147.24</ele>
        <time>2021-07-05T12:30:41Z</time>
      </trkpt>
      <trkpt lat="42.56801" lon="1.89014">
        <ele>2147.24</ele>
        <time>2021-07-05T12:30:49Z</time>
      </trkpt>
      <trkpt lat="42.56797" lon="1.89017">
        <ele>2146.76</ele>
        <time>2021-07-05T12:30:57Z</time>
      </trkpt>
      <trkpt lat="42.56796" lon="1.89017">
        <ele>2147.24</ele>
        <time>2021-07-05T12:30:58Z</time>
      </trkpt>
      <trkpt lat="42.56793" lon="1.89018">
        <ele>2146.76</ele>
        <time>2021-07-05T12:31:00Z</time>
      </trkpt>
      <trkpt lat="42.5679" lon="1.89019">
        <ele>2146.28</ele>
        <time>2021-07-05T12:31:02Z</time>
      </trkpt>
      <trkpt lat="42.56781" lon="1.89023">
        <ele>2146.28</ele>
        <time>2021-07-05T12:31:08Z</time>
      </trkpt>
      <trkpt lat="42.56777" lon="1.89027">
        <ele>2145.8</ele>
        <time>2021-07-05T12:31:12Z</time>
      </trkpt>
      <trkpt lat="42.56772" lon="1.89028">
        <ele>2144.84</ele>
        <time>2021-07-05T12:31:20Z</time>
      </trkpt>
      <trkpt lat="42.5677" lon="1.89028">
        <ele>2144.84</ele>
        <time>2021-07-05T12:31:21Z</time>
      </trkpt>
      <trkpt lat="42.56766" lon="1.89028">
        <ele>2145.8</ele>
        <time>2021-07-05T12:31:24Z</time>
      </trkpt>
      <trkpt lat="42.56762" lon="1.8903">
        <ele>2145.8</ele>
        <time>2021-07-05T12:31:27Z</time>
      </trkpt>
      <trkpt lat="42.56754" lon="1.89028">
        <ele>2144.36</ele>
        <time>2021-07-05T12:31:34Z</time>
      </trkpt>
      <trkpt lat="42.56749" lon="1.89023">
        <ele>2145.8</ele>
        <time>2021-07-05T12:31:39Z</time>
      </trkpt>
      <trkpt lat="42.56747" lon="1.89022">
        <ele>2144.36</ele>
        <time>2021-07-05T12:31:41Z</time>
      </trkpt>
      <trkpt lat="42.56741" lon="1.89017">
        <ele>2143.88</ele>
        <time>2021-07-05T12:31:46Z</time>
      </trkpt>
      <trkpt lat="42.5673" lon="1.89013">
        <ele>2144.84</ele>
        <time>2021-07-05T12:31:54Z</time>
      </trkpt>
      <trkpt lat="42.56728" lon="1.8901">
        <ele>2145.8</ele>
        <time>2021-07-05T12:31:57Z</time>
      </trkpt>
      <trkpt lat="42.56725" lon="1.89006">
        <ele>2145.32</ele>
        <time>2021-07-05T12:32:01Z</time>
      </trkpt>
      <trkpt lat="42.56713" lon="1.88996">
        <ele>2145.8</ele>
        <time>2021-07-05T12:32:08Z</time>
      </trkpt>
      <trkpt lat="42.56705" lon="1.88989">
        <ele>2146.76</ele>
        <time>2021-07-05T12:32:14Z</time>
      </trkpt>
      <trkpt lat="42.56701" lon="1.88986">
        <ele>2145.8</ele>
        <time>2021-07-05T12:32:17Z</time>
      </trkpt>
      <trkpt lat="42.56689" lon="1.8898">
        <ele>2145.8</ele>
        <time>2021-07-05T12:32:26Z</time>
      </trkpt>
      <trkpt lat="42.56688" lon="1.8898">
        <ele>2145.8</ele>
        <time>2021-07-05T12:32:27Z</time>
      </trkpt>
      <trkpt lat="42.56674" lon="1.88987">
        <ele>2146.28</ele>
        <time>2021-07-05T12:32:34Z</time>
      </trkpt>
      <trkpt lat="42.56669" lon="1.88989">
        <ele>2145.8</ele>
        <time>2021-07-05T12:32:37Z</time>
      </trkpt>
      <trkpt lat="42.56663" lon="1.88991">
        <ele>2145.32</ele>
        <time>2021-07-05T12:32:41Z</time>
      </trkpt>
      <trkpt lat="42.56657" lon="1.88999">
        <ele>2145.32</ele>
        <time>2021-07-05T12:32:48Z</time>
      </trkpt>
      <trkpt lat="42.56654" lon="1.89005">
        <ele>2145.32</ele>
        <time>2021-07-05T12:32:51Z</time>
      </trkpt>
      <trkpt lat="42.56648" lon="1.89012">
        <ele>2145.32</ele>
        <time>2021-07-05T12:32:57Z</time>
      </trkpt>
      <trkpt lat="42.56641" lon="1.8902">
        <ele>2145.32</ele>
        <time>2021-07-05T12:33:03Z</time>
      </trkpt>
      <trkpt lat="42.56635" lon="1.89022">
        <ele>2144.84</ele>
        <time>2021-07-05T12:33:10Z</time>
      </trkpt>
      <trkpt lat="42.56633" lon="1.89022">
        <ele>2145.32</ele>
        <time>2021-07-05T12:33:12Z</time>
      </trkpt>
      <trkpt lat="42.56627" lon="1.89022">
        <ele>2145.32</ele>
        <time>2021-07-05T12:33:17Z</time>
      </trkpt>
      <trkpt lat="42.56618" lon="1.89021">
        <ele>2145.32</ele>
        <time>2021-07-05T12:33:23Z</time>
      </trkpt>
      <trkpt lat="42.56613" lon="1.89016">
        <ele>2145.32</ele>
        <time>2021-07-05T12:33:27Z</time>
      </trkpt>
      <trkpt lat="42.56607" lon="1.89012">
        <ele>2145.32</ele>
        <time>2021-07-05T12:33:31Z</time>
      </trkpt>
      <trkpt lat="42.56598" lon="1.89006">
        <ele>2144.36</ele>
        <time>2021-07-05T12:33:38Z</time>
      </trkpt>
      <trkpt lat="42.56596" lon="1.89005">
        <ele>2144.36</ele>
        <time>2021-07-05T12:33:39Z</time>
      </trkpt>
      <trkpt lat="42.56584" lon="1.89004">
        <ele>2145.32</ele>
        <time>2021-07-05T12:33:48Z</time>
      </trkpt>
      <trkpt lat="42.56583" lon="1.89004">
        <ele>2144.84</ele>
        <time>2021-07-05T12:33:49Z</time>
      </trkpt>
      <trkpt lat="42.56575" lon="1.89">
        <ele>2144.84</ele>
        <time>2021-07-05T12:33:55Z</time>
      </trkpt>
      <trkpt lat="42.56567" lon="1.89004">
        <ele>2145.32</ele>
        <time>2021-07-05T12:34:01Z</time>
      </trkpt>
      <trkpt lat="42.56562" lon="1.89003">
        <ele>2144.84</ele>
        <time>2021-07-05T12:34:06Z</time>
      </trkpt>
      <trkpt lat="42.56554" lon="1.89006">
        <ele>2144.84</ele>
        <time>2021-07-05T12:34:11Z</time>
      </trkpt>
      <trkpt lat="42.56544" lon="1.89011">
        <ele>2143.88</ele>
        <time>2021-07-05T12:34:18Z</time>
      </trkpt>
      <trkpt lat="42.56539" lon="1.89015">
        <ele>2143.88</ele>
        <time>2021-07-05T12:34:22Z</time>
      </trkpt>
      <trkpt lat="42.56536" lon="1.89017">
        <ele>2143.88</ele>
        <time>2021-07-05T12:34:24Z</time>
      </trkpt>
      <trkpt lat="42.56529" lon="1.89024">
        <ele>2144.36</ele>
        <time>2021-07-05T12:34:30Z</time>
      </trkpt>
      <trkpt lat="42.56522" lon="1.8903">
        <ele>2144.36</ele>
        <time>2021-07-05T12:34:36Z</time>
      </trkpt>
      <trkpt lat="42.56518" lon="1.89029">
        <ele>2144.84</ele>
        <time>2021-07-05T12:34:39Z</time>
      </trkpt>
      <trkpt lat="42.56513" lon="1.89031">
        <ele>2145.32</ele>
        <time>2021-07-05T12:34:44Z</time>
      </trkpt>
      <trkpt lat="42.56513" lon="1.89027">
        <ele>2145.32</ele>
        <time>2021-07-05T12:34:50Z</time>
      </trkpt>
      <trkpt lat="42.56501" lon="1.89032">
        <ele>2144.84</ele>
        <time>2021-07-05T12:34:57Z</time>
      </trkpt>
      <trkpt lat="42.56492" lon="1.89037">
        <ele>2144.84</ele>
        <time>2021-07-05T12:35:04Z</time>
      </trkpt>
      <trkpt lat="42.5649" lon="1.89039">
        <ele>2144.84</ele>
        <time>2021-07-05T12:35:06Z</time>
      </trkpt>
      <trkpt lat="42.56484" lon="1.8904">
        <ele>2144.36</ele>
        <time>2021-07-05T12:35:11Z</time>
      </trkpt>
      <trkpt lat="42.5648" lon="1.89041">
        <ele>2143.88</ele>
        <time>2021-07-05T12:35:16Z</time>
      </trkpt>
      <trkpt lat="42.56472" lon="1.89045">
        <ele>2144.84</ele>
        <time>2021-07-05T12:35:23Z</time>
      </trkpt>
      <trkpt lat="42.56467" lon="1.89051">
        <ele>2144.84</ele>
        <time>2021-07-05T12:35:28Z</time>
      </trkpt>
      <trkpt lat="42.56461" lon="1.89059">
        <ele>2143.88</ele>
        <time>2021-07-05T12:35:34Z</time>
      </trkpt>
      <trkpt lat="42.56458" lon="1.89064">
        <ele>2144.36</ele>
        <time>2021-07-05T12:35:38Z</time>
      </trkpt>
      <trkpt lat="42.56452" lon="1.89071">
        <ele>2144.36</ele>
        <time>2021-07-05T12:35:44Z</time>
      </trkpt>
      <trkpt lat="42.56442" lon="1.89076">
        <ele>2144.84</ele>
        <time>2021-07-05T12:35:52Z</time>
      </trkpt>
      <trkpt lat="42.56438" lon="1.89075">
        <ele>2144.84</ele>
        <time>2021-07-05T12:35:56Z</time>
      </trkpt>
      <trkpt lat="42.56429" lon="1.89074">
        <ele>2144.36</ele>
        <time>2021-07-05T12:36:03Z</time>
      </trkpt>
      <trkpt lat="42.56428" lon="1.89075">
        <ele>2144.36</ele>
        <time>2021-07-05T12:36:04Z</time>
      </trkpt>
      <trkpt lat="42.56425" lon="1.89084">
        <ele>2144.36</ele>
        <time>2021-07-05T12:36:10Z</time>
      </trkpt>
      <trkpt lat="42.56424" lon="1.89088">
        <ele>2144.84</ele>
        <time>2021-07-05T12:36:12Z</time>
      </trkpt>
      <trkpt lat="42.56416" lon="1.89095">
        <ele>2144.36</ele>
        <time>2021-07-05T12:36:18Z</time>
      </trkpt>
      <trkpt lat="42.56408" lon="1.89096">
        <ele>2143.88</ele>
        <time>2021-07-05T12:36:26Z</time>
      </trkpt>
      <trkpt lat="42.56396" lon="1.89095">
        <ele>2144.36</ele>
        <time>2021-07-05T12:36:35Z</time>
      </trkpt>
      <trkpt lat="42.56393" lon="1.89096">
        <ele>2144.36</ele>
        <time>2021-07-05T12:36:44Z</time>
      </trkpt>
      <trkpt lat="42.56376" lon="1.8909">
        <ele>2143.4</ele>
        <time>2021-07-05T12:36:57Z</time>
      </trkpt>
      <trkpt lat="42.56367" lon="1.89082">
        <ele>2143.4</ele>
        <time>2021-07-05T12:37:04Z</time>
      </trkpt>
      <trkpt lat="42.5636" lon="1.89076">
        <ele>2143.4</ele>
        <time>2021-07-05T12:37:09Z</time>
      </trkpt>
      <trkpt lat="42.56353" lon="1.89069">
        <ele>2146.28</ele>
        <time>2021-07-05T12:37:16Z</time>
      </trkpt>
      <trkpt lat="42.56347" lon="1.89057">
        <ele>2143.88</ele>
        <time>2021-07-05T12:37:24Z</time>
      </trkpt>
      <trkpt lat="42.56347" lon="1.89055">
        <ele>2143.88</ele>
        <time>2021-07-05T12:37:25Z</time>
      </trkpt>
      <trkpt lat="42.56346" lon="1.89046">
        <ele>2144.36</ele>
        <time>2021-07-05T12:37:32Z</time>
      </trkpt>
      <trkpt lat="42.56348" lon="1.89038">
        <ele>2144.84</ele>
        <time>2021-07-05T12:37:39Z</time>
      </trkpt>
      <trkpt lat="42.56347" lon="1.89035">
        <ele>2144.36</ele>
        <time>2021-07-05T12:37:41Z</time>
      </trkpt>
      <trkpt lat="42.56339" lon="1.89025">
        <ele>2145.8</ele>
        <time>2021-07-05T12:37:47Z</time>
      </trkpt>
      <trkpt lat="42.56333" lon="1.89025">
        <ele>2144.84</ele>
        <time>2021-07-05T12:37:52Z</time>
      </trkpt>
      <trkpt lat="42.56327" lon="1.8902">
        <ele>2144.84</ele>
        <time>2021-07-05T12:37:59Z</time>
      </trkpt>
      <trkpt lat="42.56318" lon="1.8901">
        <ele>2143.4</ele>
        <time>2021-07-05T12:38:08Z</time>
      </trkpt>
      <trkpt lat="42.56317" lon="1.89006">
        <ele>2143.4</ele>
        <time>2021-07-05T12:38:12Z</time>
      </trkpt>
      <trkpt lat="42.5631" lon="1.88996">
        <ele>2142.92</ele>
        <time>2021-07-05T12:38:20Z</time>
      </trkpt>
      <trkpt lat="42.56307" lon="1.88989">
        <ele>2142.92</ele>
        <time>2021-07-05T12:38:26Z</time>
      </trkpt>
      <trkpt lat="42.56302" lon="1.88983">
        <ele>2142.92</ele>
        <time>2021-07-05T12:38:31Z</time>
      </trkpt>
      <trkpt lat="42.563" lon="1.88977">
        <ele>2143.88</ele>
        <time>2021-07-05T12:38:37Z</time>
      </trkpt>
      <trkpt lat="42.56299" lon="1.88976">
        <ele>2144.36</ele>
        <time>2021-07-05T12:38:38Z</time>
      </trkpt>
      <trkpt lat="42.56292" lon="1.88974">
        <ele>2143.88</ele>
        <time>2021-07-05T12:38:43Z</time>
      </trkpt>
      <trkpt lat="42.56288" lon="1.88971">
        <ele>2143.88</ele>
        <time>2021-07-05T12:38:48Z</time>
      </trkpt>
      <trkpt lat="42.56282" lon="1.88966">
        <ele>2142.44</ele>
        <time>2021-07-05T12:38:53Z</time>
      </trkpt>
      <trkpt lat="42.56276" lon="1.8896">
        <ele>2142.44</ele>
        <time>2021-07-05T12:38:58Z</time>
      </trkpt>
      <trkpt lat="42.56274" lon="1.88958">
        <ele>2142.44</ele>
        <time>2021-07-05T12:39:00Z</time>
      </trkpt>
      <trkpt lat="42.56268" lon="1.88954">
        <ele>2141.47</ele>
        <time>2021-07-05T12:39:06Z</time>
      </trkpt>
      <trkpt lat="42.56267" lon="1.88954">
        <ele>2141.47</ele>
        <time>2021-07-05T12:39:07Z</time>
      </trkpt>
      <trkpt lat="42.56265" lon="1.88952">
        <ele>2141.95</ele>
        <time>2021-07-05T12:39:09Z</time>
      </trkpt>
      <trkpt lat="42.56254" lon="1.88944">
        <ele>2142.44</ele>
        <time>2021-07-05T12:39:18Z</time>
      </trkpt>
      <trkpt lat="42.5625" lon="1.88939">
        <ele>2141.95</ele>
        <time>2021-07-05T12:39:21Z</time>
      </trkpt>
      <trkpt lat="42.56248" lon="1.88933">
        <ele>2142.92</ele>
        <time>2021-07-05T12:39:25Z</time>
      </trkpt>
      <trkpt lat="42.56243" lon="1.88923">
        <ele>2142.92</ele>
        <time>2021-07-05T12:39:32Z</time>
      </trkpt>
      <trkpt lat="42.56241" lon="1.88921">
        <ele>2142.44</ele>
        <time>2021-07-05T12:39:34Z</time>
      </trkpt>
      <trkpt lat="42.56234" lon="1.88915">
        <ele>2141.95</ele>
        <time>2021-07-05T12:39:41Z</time>
      </trkpt>
      <trkpt lat="42.56228" lon="1.88909">
        <ele>2142.44</ele>
        <time>2021-07-05T12:39:47Z</time>
      </trkpt>
      <trkpt lat="42.56218" lon="1.88902">
        <ele>2142.44</ele>
        <time>2021-07-05T12:39:54Z</time>
      </trkpt>
      <trkpt lat="42.5621" lon="1.88897">
        <ele>2142.44</ele>
        <time>2021-07-05T12:40:01Z</time>
      </trkpt>
      <trkpt lat="42.56201" lon="1.88891">
        <ele>2142.92</ele>
        <time>2021-07-05T12:40:09Z</time>
      </trkpt>
      <trkpt lat="42.56196" lon="1.88887">
        <ele>2143.4</ele>
        <time>2021-07-05T12:40:14Z</time>
      </trkpt>
      <trkpt lat="42.56195" lon="1.88884">
        <ele>2142.92</ele>
        <time>2021-07-05T12:40:27Z</time>
      </trkpt>
      <trkpt lat="42.56194" lon="1.88881">
        <ele>2145.32</ele>
        <time>2021-07-05T12:40:29Z</time>
      </trkpt>
      <trkpt lat="42.56194" lon="1.88879">
        <ele>2142.44</ele>
        <time>2021-07-05T12:40:30Z</time>
      </trkpt>
      <trkpt lat="42.56192" lon="1.88874">
        <ele>2143.4</ele>
        <time>2021-07-05T12:40:36Z</time>
      </trkpt>
      <trkpt lat="42.5619" lon="1.88866">
        <ele>2141.95</ele>
        <time>2021-07-05T12:40:42Z</time>
      </trkpt>
      <trkpt lat="42.56185" lon="1.88853">
        <ele>2142.92</ele>
        <time>2021-07-05T12:40:52Z</time>
      </trkpt>
      <trkpt lat="42.56185" lon="1.88852">
        <ele>2141.95</ele>
        <time>2021-07-05T12:40:55Z</time>
      </trkpt>
      <trkpt lat="42.56184" lon="1.88857">
        <ele>2142.92</ele>
        <time>2021-07-05T12:41:02Z</time>
      </trkpt>
      <trkpt lat="42.56184" lon="1.88857">
        <ele>2142.92</ele>
        <time>2021-07-05T12:41:16Z</time>
      </trkpt>
      <trkpt lat="42.56184" lon="1.88858">
        <ele>2143.4</ele>
        <time>2021-07-05T12:41:34Z</time>
      </trkpt>
      <trkpt lat="42.56184" lon="1.88857">
        <ele>2142.92</ele>
        <time>2021-07-05T12:41:41Z</time>
      </trkpt>
      <trkpt lat="42.56183" lon="1.88847">
        <ele>2142.92</ele>
        <time>2021-07-05T12:41:47Z</time>
      </trkpt>
      <trkpt lat="42.56182" lon="1.88834">
        <ele>2142.44</ele>
        <time>2021-07-05T12:41:54Z</time>
      </trkpt>
      <trkpt lat="42.56183" lon="1.88829">
        <ele>2142.92</ele>
        <time>2021-07-05T12:41:57Z</time>
      </trkpt>
      <trkpt lat="42.56183" lon="1.88825">
        <ele>2142.92</ele>
        <time>2021-07-05T12:41:59Z</time>
      </trkpt>
      <trkpt lat="42.56183" lon="1.88821">
        <ele>2141.95</ele>
        <time>2021-07-05T12:42:01Z</time>
      </trkpt>
      <trkpt lat="42.5618" lon="1.88809">
        <ele>2140.51</ele>
        <time>2021-07-05T12:42:08Z</time>
      </trkpt>
      <trkpt lat="42.56178" lon="1.88804">
        <ele>2141.47</ele>
        <time>2021-07-05T12:42:11Z</time>
      </trkpt>
      <trkpt lat="42.5617" lon="1.8879">
        <ele>2140.99</ele>
        <time>2021-07-05T12:42:20Z</time>
      </trkpt>
      <trkpt lat="42.56168" lon="1.88777">
        <ele>2141.95</ele>
        <time>2021-07-05T12:42:27Z</time>
      </trkpt>
      <trkpt lat="42.56168" lon="1.88775">
        <ele>2141.95</ele>
        <time>2021-07-05T12:42:28Z</time>
      </trkpt>
      <trkpt lat="42.56165" lon="1.8877">
        <ele>2141.47</ele>
        <time>2021-07-05T12:42:31Z</time>
      </trkpt>
      <trkpt lat="42.56164" lon="1.88765">
        <ele>2141.47</ele>
        <time>2021-07-05T12:42:34Z</time>
      </trkpt>
      <trkpt lat="42.56164" lon="1.88762">
        <ele>2141.47</ele>
        <time>2021-07-05T12:42:36Z</time>
      </trkpt>
      <trkpt lat="42.56164" lon="1.88758">
        <ele>2141.47</ele>
        <time>2021-07-05T12:42:39Z</time>
      </trkpt>
      <trkpt lat="42.56165" lon="1.88753">
        <ele>2140.99</ele>
        <time>2021-07-05T12:42:42Z</time>
      </trkpt>
      <trkpt lat="42.56165" lon="1.88749">
        <ele>2140.99</ele>
        <time>2021-07-05T12:42:44Z</time>
      </trkpt>
      <trkpt lat="42.56163" lon="1.88741">
        <ele>2140.99</ele>
        <time>2021-07-05T12:42:48Z</time>
      </trkpt>
      <trkpt lat="42.56161" lon="1.88735">
        <ele>2141.47</ele>
        <time>2021-07-05T12:42:55Z</time>
      </trkpt>
      <trkpt lat="42.56161" lon="1.88734">
        <ele>2141.47</ele>
        <time>2021-07-05T12:43:08Z</time>
      </trkpt>
      <trkpt lat="42.56161" lon="1.8873">
        <ele>2141.47</ele>
        <time>2021-07-05T12:43:25Z</time>
      </trkpt>
      <trkpt lat="42.56159" lon="1.88719">
        <ele>2141.47</ele>
        <time>2021-07-05T12:43:31Z</time>
      </trkpt>
      <trkpt lat="42.56159" lon="1.88702">
        <ele>2141.47</ele>
        <time>2021-07-05T12:43:40Z</time>
      </trkpt>
      <trkpt lat="42.56158" lon="1.88688">
        <ele>2141.47</ele>
        <time>2021-07-05T12:43:47Z</time>
      </trkpt>
      <trkpt lat="42.56157" lon="1.88675">
        <ele>2140.51</ele>
        <time>2021-07-05T12:43:55Z</time>
      </trkpt>
      <trkpt lat="42.56158" lon="1.88674">
        <ele>2139.07</ele>
        <time>2021-07-05T12:44:02Z</time>
      </trkpt>
      <trkpt lat="42.56158" lon="1.88673">
        <ele>2140.03</ele>
        <time>2021-07-05T12:44:12Z</time>
      </trkpt>
      <trkpt lat="42.56156" lon="1.88669">
        <ele>2138.11</ele>
        <time>2021-07-05T12:44:19Z</time>
      </trkpt>
      <trkpt lat="42.56155" lon="1.88665">
        <ele>2136.19</ele>
        <time>2021-07-05T12:44:24Z</time>
      </trkpt>
      <trkpt lat="42.56152" lon="1.88658">
        <ele>2133.78</ele>
        <time>2021-07-05T12:44:29Z</time>
      </trkpt>
      <trkpt lat="42.56147" lon="1.8865">
        <ele>2131.38</ele>
        <time>2021-07-05T12:44:37Z</time>
      </trkpt>
      <trkpt lat="42.56143" lon="1.88644">
        <ele>2128.98</ele>
        <time>2021-07-05T12:44:43Z</time>
      </trkpt>
      <trkpt lat="42.56139" lon="1.88642">
        <ele>2127.05</ele>
        <time>2021-07-05T12:44:47Z</time>
      </trkpt>
      <trkpt lat="42.56137" lon="1.8864">
        <ele>2126.09</ele>
        <time>2021-07-05T12:44:49Z</time>
      </trkpt>
      <trkpt lat="42.56136" lon="1.88634">
        <ele>2125.13</ele>
        <time>2021-07-05T12:44:53Z</time>
      </trkpt>
      <trkpt lat="42.56137" lon="1.8863">
        <ele>2123.69</ele>
        <time>2021-07-05T12:44:56Z</time>
      </trkpt>
      <trkpt lat="42.56134" lon="1.88621">
        <ele>2121.77</ele>
        <time>2021-07-05T12:45:02Z</time>
      </trkpt>
      <trkpt lat="42.56134" lon="1.88616">
        <ele>2120.32</ele>
        <time>2021-07-05T12:45:06Z</time>
      </trkpt>
      <trkpt lat="42.56133" lon="1.88613">
        <ele>2119.36</ele>
        <time>2021-07-05T12:45:08Z</time>
      </trkpt>
      <trkpt lat="42.56132" lon="1.88605">
        <ele>2118.88</ele>
        <time>2021-07-05T12:45:13Z</time>
      </trkpt>
      <trkpt lat="42.56131" lon="1.886">
        <ele>2117.44</ele>
        <time>2021-07-05T12:45:19Z</time>
      </trkpt>
      <trkpt lat="42.5613" lon="1.88597">
        <ele>2116.96</ele>
        <time>2021-07-05T12:45:21Z</time>
      </trkpt>
      <trkpt lat="42.56124" lon="1.88583">
        <ele>2114.56</ele>
        <time>2021-07-05T12:45:30Z</time>
      </trkpt>
      <trkpt lat="42.56121" lon="1.88576">
        <ele>2112.63</ele>
        <time>2021-07-05T12:45:36Z</time>
      </trkpt>
      <trkpt lat="42.56118" lon="1.88563">
        <ele>2110.71</ele>
        <time>2021-07-05T12:45:44Z</time>
      </trkpt>
      <trkpt lat="42.56115" lon="1.88559">
        <ele>2110.23</ele>
        <time>2021-07-05T12:45:47Z</time>
      </trkpt>
      <trkpt lat="42.56114" lon="1.88547">
        <ele>2108.31</ele>
        <time>2021-07-05T12:45:55Z</time>
      </trkpt>
      <trkpt lat="42.56114" lon="1.88546">
        <ele>2108.79</ele>
        <time>2021-07-05T12:46:03Z</time>
      </trkpt>
      <trkpt lat="42.56113" lon="1.88546">
        <ele>2108.31</ele>
        <time>2021-07-05T12:46:19Z</time>
      </trkpt>
      <trkpt lat="42.56113" lon="1.88545">
        <ele>2107.83</ele>
        <time>2021-07-05T12:46:32Z</time>
      </trkpt>
      <trkpt lat="42.56112" lon="1.88542">
        <ele>2107.35</ele>
        <time>2021-07-05T12:46:34Z</time>
      </trkpt>
      <trkpt lat="42.56107" lon="1.88532">
        <ele>2105.42</ele>
        <time>2021-07-05T12:46:42Z</time>
      </trkpt>
      <trkpt lat="42.56106" lon="1.88529">
        <ele>2104.46</ele>
        <time>2021-07-05T12:46:44Z</time>
      </trkpt>
      <trkpt lat="42.56102" lon="1.88517">
        <ele>2103.02</ele>
        <time>2021-07-05T12:46:51Z</time>
      </trkpt>
      <trkpt lat="42.56099" lon="1.88506">
        <ele>2101.1</ele>
        <time>2021-07-05T12:46:57Z</time>
      </trkpt>
      <trkpt lat="42.56101" lon="1.88489">
        <ele>2101.1</ele>
        <time>2021-07-05T12:47:06Z</time>
      </trkpt>
      <trkpt lat="42.56099" lon="1.88484">
        <ele>2099.18</ele>
        <time>2021-07-05T12:47:09Z</time>
      </trkpt>
      <trkpt lat="42.561" lon="1.88472">
        <ele>2097.25</ele>
        <time>2021-07-05T12:47:17Z</time>
      </trkpt>
      <trkpt lat="42.56101" lon="1.88465">
        <ele>2096.29</ele>
        <time>2021-07-05T12:47:21Z</time>
      </trkpt>
      <trkpt lat="42.56104" lon="1.88456">
        <ele>2095.33</ele>
        <time>2021-07-05T12:47:26Z</time>
      </trkpt>
      <trkpt lat="42.56105" lon="1.88445">
        <ele>2092.45</ele>
        <time>2021-07-05T12:47:33Z</time>
      </trkpt>
      <trkpt lat="42.56103" lon="1.88442">
        <ele>2091.49</ele>
        <time>2021-07-05T12:47:36Z</time>
      </trkpt>
      <trkpt lat="42.56103" lon="1.88427">
        <ele>2089.08</ele>
        <time>2021-07-05T12:47:45Z</time>
      </trkpt>
      <trkpt lat="42.56104" lon="1.88419">
        <ele>2087.64</ele>
        <time>2021-07-05T12:47:50Z</time>
      </trkpt>
      <trkpt lat="42.56102" lon="1.88409">
        <ele>2086.2</ele>
        <time>2021-07-05T12:47:56Z</time>
      </trkpt>
      <trkpt lat="42.56101" lon="1.88401">
        <ele>2084.76</ele>
        <time>2021-07-05T12:48:01Z</time>
      </trkpt>
      <trkpt lat="42.561" lon="1.88396">
        <ele>2084.28</ele>
        <time>2021-07-05T12:48:04Z</time>
      </trkpt>
      <trkpt lat="42.56099" lon="1.88391">
        <ele>2083.31</ele>
        <time>2021-07-05T12:48:07Z</time>
      </trkpt>
      <trkpt lat="42.56094" lon="1.88377">
        <ele>2081.39</ele>
        <time>2021-07-05T12:48:16Z</time>
      </trkpt>
      <trkpt lat="42.56093" lon="1.88375">
        <ele>2081.39</ele>
        <time>2021-07-05T12:48:17Z</time>
      </trkpt>
      <trkpt lat="42.56092" lon="1.88364">
        <ele>2081.87</ele>
        <time>2021-07-05T12:48:24Z</time>
      </trkpt>
      <trkpt lat="42.56089" lon="1.88357">
        <ele>2081.39</ele>
        <time>2021-07-05T12:48:31Z</time>
      </trkpt>
      <trkpt lat="42.56088" lon="1.88356">
        <ele>2081.39</ele>
        <time>2021-07-05T12:48:39Z</time>
      </trkpt>
      <trkpt lat="42.56087" lon="1.88351">
        <ele>2080.91</ele>
        <time>2021-07-05T12:48:42Z</time>
      </trkpt>
      <trkpt lat="42.56085" lon="1.88347">
        <ele>2079.95</ele>
        <time>2021-07-05T12:48:45Z</time>
      </trkpt>
      <trkpt lat="42.56085" lon="1.88332">
        <ele>2078.03</ele>
        <time>2021-07-05T12:48:53Z</time>
      </trkpt>
      <trkpt lat="42.56084" lon="1.88323">
        <ele>2076.59</ele>
        <time>2021-07-05T12:48:58Z</time>
      </trkpt>
      <trkpt lat="42.56084" lon="1.88318">
        <ele>2075.62</ele>
        <time>2021-07-05T12:49:01Z</time>
      </trkpt>
      <trkpt lat="42.56082" lon="1.88314">
        <ele>2074.66</ele>
        <time>2021-07-05T12:49:04Z</time>
      </trkpt>
      <trkpt lat="42.5608" lon="1.88302">
        <ele>2072.26</ele>
        <time>2021-07-05T12:49:11Z</time>
      </trkpt>
      <trkpt lat="42.56079" lon="1.88296">
        <ele>2072.26</ele>
        <time>2021-07-05T12:49:14Z</time>
      </trkpt>
      <trkpt lat="42.56078" lon="1.88289">
        <ele>2070.82</ele>
        <time>2021-07-05T12:49:18Z</time>
      </trkpt>
      <trkpt lat="42.56077" lon="1.88286">
        <ele>2070.34</ele>
        <time>2021-07-05T12:49:20Z</time>
      </trkpt>
      <trkpt lat="42.56076" lon="1.8828">
        <ele>2069.86</ele>
        <time>2021-07-05T12:49:23Z</time>
      </trkpt>
      <trkpt lat="42.56071" lon="1.8827">
        <ele>2067.93</ele>
        <time>2021-07-05T12:49:31Z</time>
      </trkpt>
      <trkpt lat="42.56071" lon="1.88263">
        <ele>2067.93</ele>
        <time>2021-07-05T12:49:36Z</time>
      </trkpt>
      <trkpt lat="42.56068" lon="1.88248">
        <ele>2066.49</ele>
        <time>2021-07-05T12:49:45Z</time>
      </trkpt>
      <trkpt lat="42.56068" lon="1.88244">
        <ele>2066.49</ele>
        <time>2021-07-05T12:49:48Z</time>
      </trkpt>
      <trkpt lat="42.56065" lon="1.88235">
        <ele>2064.57</ele>
        <time>2021-07-05T12:49:54Z</time>
      </trkpt>
      <trkpt lat="42.56064" lon="1.88234">
        <ele>2068.41</ele>
        <time>2021-07-05T12:49:55Z</time>
      </trkpt>
      <trkpt lat="42.56064" lon="1.88233">
        <ele>2066.01</ele>
        <time>2021-07-05T12:49:56Z</time>
      </trkpt>
      <trkpt lat="42.5606" lon="1.88224">
        <ele>2064.09</ele>
        <time>2021-07-05T12:50:03Z</time>
      </trkpt>
      <trkpt lat="42.56056" lon="1.88211">
        <ele>2063.13</ele>
        <time>2021-07-05T12:50:11Z</time>
      </trkpt>
      <trkpt lat="42.56053" lon="1.88203">
        <ele>2061.68</ele>
        <time>2021-07-05T12:50:15Z</time>
      </trkpt>
      <trkpt lat="42.56053" lon="1.88194">
        <ele>2060.72</ele>
        <time>2021-07-05T12:50:21Z</time>
      </trkpt>
      <trkpt lat="42.5605" lon="1.88183">
        <ele>2058.8</ele>
        <time>2021-07-05T12:50:28Z</time>
      </trkpt>
      <trkpt lat="42.56049" lon="1.8818">
        <ele>2058.32</ele>
        <time>2021-07-05T12:50:30Z</time>
      </trkpt>
      <trkpt lat="42.56049" lon="1.88171">
        <ele>2057.36</ele>
        <time>2021-07-05T12:50:35Z</time>
      </trkpt>
      <trkpt lat="42.56049" lon="1.88165">
        <ele>2056.88</ele>
        <time>2021-07-05T12:50:39Z</time>
      </trkpt>
      <trkpt lat="42.56047" lon="1.88155">
        <ele>2053.51</ele>
        <time>2021-07-05T12:50:44Z</time>
      </trkpt>
      <trkpt lat="42.56047" lon="1.88154">
        <ele>2056.88</ele>
        <time>2021-07-05T12:50:45Z</time>
      </trkpt>
      <trkpt lat="42.56045" lon="1.88148">
        <ele>2055.44</ele>
        <time>2021-07-05T12:50:49Z</time>
      </trkpt>
      <trkpt lat="42.56039" lon="1.88136">
        <ele>2053.99</ele>
        <time>2021-07-05T12:50:56Z</time>
      </trkpt>
      <trkpt lat="42.56039" lon="1.88133">
        <ele>2053.51</ele>
        <time>2021-07-05T12:50:58Z</time>
      </trkpt>
      <trkpt lat="42.56037" lon="1.88126">
        <ele>2052.55</ele>
        <time>2021-07-05T12:51:02Z</time>
      </trkpt>
      <trkpt lat="42.56034" lon="1.88121">
        <ele>2050.63</ele>
        <time>2021-07-05T12:51:06Z</time>
      </trkpt>
      <trkpt lat="42.56033" lon="1.88117">
        <ele>2050.63</ele>
        <time>2021-07-05T12:51:09Z</time>
      </trkpt>
      <trkpt lat="42.56033" lon="1.88104">
        <ele>2049.19</ele>
        <time>2021-07-05T12:51:17Z</time>
      </trkpt>
      <trkpt lat="42.56031" lon="1.88097">
        <ele>2048.23</ele>
        <time>2021-07-05T12:51:20Z</time>
      </trkpt>
      <trkpt lat="42.56032" lon="1.88093">
        <ele>2047.75</ele>
        <time>2021-07-05T12:51:22Z</time>
      </trkpt>
      <trkpt lat="42.56034" lon="1.88083">
        <ele>2046.78</ele>
        <time>2021-07-05T12:51:28Z</time>
      </trkpt>
      <trkpt lat="42.56034" lon="1.88082">
        <ele>2050.63</ele>
        <time>2021-07-05T12:51:29Z</time>
      </trkpt>
      <trkpt lat="42.56034" lon="1.88083">
        <ele>2047.26</ele>
        <time>2021-07-05T12:51:31Z</time>
      </trkpt>
      <trkpt lat="42.56034" lon="1.88083">
        <ele>2048.71</ele>
        <time>2021-07-05T12:51:32Z</time>
      </trkpt>
      <trkpt lat="42.56034" lon="1.88082">
        <ele>2049.19</ele>
        <time>2021-07-05T12:51:34Z</time>
      </trkpt>
      <trkpt lat="42.56034" lon="1.88077">
        <ele>2046.78</ele>
        <time>2021-07-05T12:51:37Z</time>
      </trkpt>
      <trkpt lat="42.56036" lon="1.88063">
        <ele>2045.82</ele>
        <time>2021-07-05T12:51:44Z</time>
      </trkpt>
      <trkpt lat="42.56036" lon="1.8806">
        <ele>2045.34</ele>
        <time>2021-07-05T12:51:50Z</time>
      </trkpt>
      <trkpt lat="42.56036" lon="1.88059">
        <ele>2045.34</ele>
        <time>2021-07-05T12:51:51Z</time>
      </trkpt>
      <trkpt lat="42.56035" lon="1.88054">
        <ele>2044.38</ele>
        <time>2021-07-05T12:51:58Z</time>
      </trkpt>
      <trkpt lat="42.56034" lon="1.88054">
        <ele>2043.9</ele>
        <time>2021-07-05T12:52:05Z</time>
      </trkpt>
      <trkpt lat="42.56033" lon="1.88054">
        <ele>2043.9</ele>
        <time>2021-07-05T12:52:19Z</time>
      </trkpt>
      <trkpt lat="42.56033" lon="1.88053">
        <ele>2043.42</ele>
        <time>2021-07-05T12:52:20Z</time>
      </trkpt>
      <trkpt lat="42.56033" lon="1.88047">
        <ele>2042.46</ele>
        <time>2021-07-05T12:52:24Z</time>
      </trkpt>
      <trkpt lat="42.56031" lon="1.88039">
        <ele>2040.54</ele>
        <time>2021-07-05T12:52:32Z</time>
      </trkpt>
      <trkpt lat="42.56028" lon="1.88035">
        <ele>2038.61</ele>
        <time>2021-07-05T12:52:39Z</time>
      </trkpt>
      <trkpt lat="42.56027" lon="1.88033">
        <ele>2038.61</ele>
        <time>2021-07-05T12:52:46Z</time>
      </trkpt>
      <trkpt lat="42.56026" lon="1.88033">
        <ele>2037.65</ele>
        <time>2021-07-05T12:52:52Z</time>
      </trkpt>
      <trkpt lat="42.56022" lon="1.88035">
        <ele>2035.25</ele>
        <time>2021-07-05T12:52:59Z</time>
      </trkpt>
      <trkpt lat="42.56019" lon="1.88034">
        <ele>2032.84</ele>
        <time>2021-07-05T12:53:05Z</time>
      </trkpt>
      <trkpt lat="42.56016" lon="1.88033">
        <ele>2031.4</ele>
        <time>2021-07-05T12:53:11Z</time>
      </trkpt>
      <trkpt lat="42.56013" lon="1.88035">
        <ele>2029.48</ele>
        <time>2021-07-05T12:53:17Z</time>
      </trkpt>
      <trkpt lat="42.5601" lon="1.88036">
        <ele>2028.04</ele>
        <time>2021-07-05T12:53:21Z</time>
      </trkpt>
      <trkpt lat="42.56007" lon="1.88031">
        <ele>2026.12</ele>
        <time>2021-07-05T12:53:26Z</time>
      </trkpt>
      <trkpt lat="42.56005" lon="1.88033">
        <ele>2024.67</ele>
        <time>2021-07-05T12:53:31Z</time>
      </trkpt>
      <trkpt lat="42.56005" lon="1.88033">
        <ele>2024.67</ele>
        <time>2021-07-05T12:53:32Z</time>
      </trkpt>
      <trkpt lat="42.55998" lon="1.88036">
        <ele>2021.79</ele>
        <time>2021-07-05T12:53:40Z</time>
      </trkpt>
      <trkpt lat="42.55997" lon="1.88038">
        <ele>2020.35</ele>
        <time>2021-07-05T12:53:43Z</time>
      </trkpt>
      <trkpt lat="42.55992" lon="1.8804">
        <ele>2017.94</ele>
        <time>2021-07-05T12:53:50Z</time>
      </trkpt>
      <trkpt lat="42.5599" lon="1.8804">
        <ele>2016.5</ele>
        <time>2021-07-05T12:53:53Z</time>
      </trkpt>
      <trkpt lat="42.55988" lon="1.88039">
        <ele>2015.54</ele>
        <time>2021-07-05T12:53:56Z</time>
      </trkpt>
      <trkpt lat="42.55986" lon="1.88035">
        <ele>2013.14</ele>
        <time>2021-07-05T12:54:02Z</time>
      </trkpt>
      <trkpt lat="42.55982" lon="1.88032">
        <ele>2011.7</ele>
        <time>2021-07-05T12:54:09Z</time>
      </trkpt>
      <trkpt lat="42.55978" lon="1.88032">
        <ele>2010.25</ele>
        <time>2021-07-05T12:54:14Z</time>
      </trkpt>
      <trkpt lat="42.55976" lon="1.88031">
        <ele>2008.81</ele>
        <time>2021-07-05T12:54:17Z</time>
      </trkpt>
      <trkpt lat="42.55972" lon="1.88033">
        <ele>2007.85</ele>
        <time>2021-07-05T12:54:22Z</time>
      </trkpt>
      <trkpt lat="42.55967" lon="1.88033">
        <ele>2005.93</ele>
        <time>2021-07-05T12:54:28Z</time>
      </trkpt>
      <trkpt lat="42.55965" lon="1.88027">
        <ele>2004.01</ele>
        <time>2021-07-05T12:54:34Z</time>
      </trkpt>
      <trkpt lat="42.55964" lon="1.88027">
        <ele>2003.04</ele>
        <time>2021-07-05T12:54:35Z</time>
      </trkpt>
      <trkpt lat="42.55962" lon="1.88026">
        <ele>2002.56</ele>
        <time>2021-07-05T12:54:37Z</time>
      </trkpt>
      <trkpt lat="42.55959" lon="1.88023">
        <ele>2000.16</ele>
        <time>2021-07-05T12:54:43Z</time>
      </trkpt>
      <trkpt lat="42.55956" lon="1.88025">
        <ele>1998.72</ele>
        <time>2021-07-05T12:54:51Z</time>
      </trkpt>
      <trkpt lat="42.55954" lon="1.88029">
        <ele>1998.72</ele>
        <time>2021-07-05T12:54:55Z</time>
      </trkpt>
      <trkpt lat="42.5595" lon="1.88026">
        <ele>1995.83</ele>
        <time>2021-07-05T12:55:02Z</time>
      </trkpt>
      <trkpt lat="42.55949" lon="1.88022">
        <ele>1994.87</ele>
        <time>2021-07-05T12:55:07Z</time>
      </trkpt>
      <trkpt lat="42.55948" lon="1.88022">
        <ele>1987.18</ele>
        <time>2021-07-05T12:55:16Z</time>
      </trkpt>
      <trkpt lat="42.55948" lon="1.88022">
        <ele>2001.6</ele>
        <time>2021-07-05T12:55:17Z</time>
      </trkpt>
      <trkpt lat="42.55948" lon="1.88022">
        <ele>1994.87</ele>
        <time>2021-07-05T12:55:18Z</time>
      </trkpt>
      <trkpt lat="42.55948" lon="1.88019">
        <ele>1992.95</ele>
        <time>2021-07-05T12:55:32Z</time>
      </trkpt>
      <trkpt lat="42.55944" lon="1.88015">
        <ele>1992.95</ele>
        <time>2021-07-05T12:55:39Z</time>
      </trkpt>
      <trkpt lat="42.55943" lon="1.88016">
        <ele>1991.51</ele>
        <time>2021-07-05T12:55:40Z</time>
      </trkpt>
      <trkpt lat="42.55936" lon="1.88018">
        <ele>1989.1</ele>
        <time>2021-07-05T12:55:47Z</time>
      </trkpt>
      <trkpt lat="42.55935" lon="1.88019">
        <ele>1988.62</ele>
        <time>2021-07-05T12:55:48Z</time>
      </trkpt>
      <trkpt lat="42.55928" lon="1.88023">
        <ele>1986.7</ele>
        <time>2021-07-05T12:55:55Z</time>
      </trkpt>
      <trkpt lat="42.55923" lon="1.88021">
        <ele>1983.34</ele>
        <time>2021-07-05T12:56:02Z</time>
      </trkpt>
      <trkpt lat="42.55922" lon="1.88019">
        <ele>1983.34</ele>
        <time>2021-07-05T12:56:03Z</time>
      </trkpt>
      <trkpt lat="42.55917" lon="1.88016">
        <ele>1980.45</ele>
        <time>2021-07-05T12:56:10Z</time>
      </trkpt>
      <trkpt lat="42.55916" lon="1.88016">
        <ele>1979.97</ele>
        <time>2021-07-05T12:56:11Z</time>
      </trkpt>
      <trkpt lat="42.5591" lon="1.88013">
        <ele>1976.61</ele>
        <time>2021-07-05T12:56:18Z</time>
      </trkpt>
      <trkpt lat="42.55905" lon="1.88007">
        <ele>1974.2</ele>
        <time>2021-07-05T12:56:25Z</time>
      </trkpt>
      <trkpt lat="42.55904" lon="1.88006">
        <ele>1973.72</ele>
        <time>2021-07-05T12:56:26Z</time>
      </trkpt>
      <trkpt lat="42.55897" lon="1.88001">
        <ele>1971.8</ele>
        <time>2021-07-05T12:56:34Z</time>
      </trkpt>
      <trkpt lat="42.55896" lon="1.88001">
        <ele>1971.8</ele>
        <time>2021-07-05T12:56:35Z</time>
      </trkpt>
      <trkpt lat="42.55893" lon="1.88003">
        <ele>1970.84</ele>
        <time>2021-07-05T12:56:38Z</time>
      </trkpt>
      <trkpt lat="42.5589" lon="1.87999">
        <ele>1968.92</ele>
        <time>2021-07-05T12:56:43Z</time>
      </trkpt>
      <trkpt lat="42.55887" lon="1.87996">
        <ele>1967.96</ele>
        <time>2021-07-05T12:56:47Z</time>
      </trkpt>
      <trkpt lat="42.55885" lon="1.87997">
        <ele>1966.99</ele>
        <time>2021-07-05T12:56:49Z</time>
      </trkpt>
      <trkpt lat="42.55881" lon="1.87996">
        <ele>1966.03</ele>
        <time>2021-07-05T12:56:52Z</time>
      </trkpt>
      <trkpt lat="42.55879" lon="1.87993">
        <ele>1965.07</ele>
        <time>2021-07-05T12:56:55Z</time>
      </trkpt>
      <trkpt lat="42.55876" lon="1.87993">
        <ele>1963.63</ele>
        <time>2021-07-05T12:56:58Z</time>
      </trkpt>
      <trkpt lat="42.55868" lon="1.87991">
        <ele>1960.75</ele>
        <time>2021-07-05T12:57:06Z</time>
      </trkpt>
      <trkpt lat="42.55863" lon="1.87989">
        <ele>1959.3</ele>
        <time>2021-07-05T12:57:10Z</time>
      </trkpt>
      <trkpt lat="42.5586" lon="1.8799">
        <ele>1958.34</ele>
        <time>2021-07-05T12:57:12Z</time>
      </trkpt>
      <trkpt lat="42.55855" lon="1.87987">
        <ele>1956.9</ele>
        <time>2021-07-05T12:57:16Z</time>
      </trkpt>
      <trkpt lat="42.55847" lon="1.87988">
        <ele>1954.02</ele>
        <time>2021-07-05T12:57:23Z</time>
      </trkpt>
      <trkpt lat="42.55836" lon="1.87986">
        <ele>1952.09</ele>
        <time>2021-07-05T12:57:31Z</time>
      </trkpt>
      <trkpt lat="42.55833" lon="1.87986">
        <ele>1951.13</ele>
        <time>2021-07-05T12:57:33Z</time>
      </trkpt>
      <trkpt lat="42.5583" lon="1.87986">
        <ele>1949.69</ele>
        <time>2021-07-05T12:57:35Z</time>
      </trkpt>
      <trkpt lat="42.55829" lon="1.87986">
        <ele>1949.69</ele>
        <time>2021-07-05T12:57:36Z</time>
      </trkpt>
      <trkpt lat="42.55823" lon="1.87985">
        <ele>1948.25</ele>
        <time>2021-07-05T12:57:41Z</time>
      </trkpt>
      <trkpt lat="42.55817" lon="1.87988">
        <ele>1946.33</ele>
        <time>2021-07-05T12:57:45Z</time>
      </trkpt>
      <trkpt lat="42.55802" lon="1.87992">
        <ele>1942.96</ele>
        <time>2021-07-05T12:57:56Z</time>
      </trkpt>
      <trkpt lat="42.5579" lon="1.87997">
        <ele>1939.6</ele>
        <time>2021-07-05T12:58:04Z</time>
      </trkpt>
      <trkpt lat="42.55777" lon="1.88">
        <ele>1938.16</ele>
        <time>2021-07-05T12:58:13Z</time>
      </trkpt>
      <trkpt lat="42.55767" lon="1.88005">
        <ele>1936.71</ele>
        <time>2021-07-05T12:58:21Z</time>
      </trkpt>
      <trkpt lat="42.55755" lon="1.88016">
        <ele>1934.79</ele>
        <time>2021-07-05T12:58:31Z</time>
      </trkpt>
      <trkpt lat="42.55752" lon="1.8802">
        <ele>1933.83</ele>
        <time>2021-07-05T12:58:34Z</time>
      </trkpt>
      <trkpt lat="42.55744" lon="1.88027">
        <ele>1932.87</ele>
        <time>2021-07-05T12:58:41Z</time>
      </trkpt>
      <trkpt lat="42.55741" lon="1.88036">
        <ele>1931.91</ele>
        <time>2021-07-05T12:58:47Z</time>
      </trkpt>
      <trkpt lat="42.55735" lon="1.88042">
        <ele>1930.95</ele>
        <time>2021-07-05T12:58:53Z</time>
      </trkpt>
      <trkpt lat="42.55734" lon="1.88049">
        <ele>1929.98</ele>
        <time>2021-07-05T12:59:00Z</time>
      </trkpt>
      <trkpt lat="42.55734" lon="1.88052">
        <ele>1929.5</ele>
        <time>2021-07-05T12:59:03Z</time>
      </trkpt>
      <trkpt lat="42.55736" lon="1.88065">
        <ele>1927.58</ele>
        <time>2021-07-05T12:59:11Z</time>
      </trkpt>
      <trkpt lat="42.55735" lon="1.88066">
        <ele>1927.1</ele>
        <time>2021-07-05T12:59:16Z</time>
      </trkpt>
      <trkpt lat="42.55735" lon="1.88066">
        <ele>1927.58</ele>
        <time>2021-07-05T12:59:21Z</time>
      </trkpt>
      <trkpt lat="42.55736" lon="1.88073">
        <ele>1926.62</ele>
        <time>2021-07-05T12:59:26Z</time>
      </trkpt>
      <trkpt lat="42.55736" lon="1.88076">
        <ele>1926.14</ele>
        <time>2021-07-05T12:59:28Z</time>
      </trkpt>
      <trkpt lat="42.55736" lon="1.88084">
        <ele>1925.18</ele>
        <time>2021-07-05T12:59:34Z</time>
      </trkpt>
      <trkpt lat="42.55733" lon="1.88083">
        <ele>1921.33</ele>
        <time>2021-07-05T12:59:38Z</time>
      </trkpt>
      <trkpt lat="42.55733" lon="1.88083">
        <ele>1924.7</ele>
        <time>2021-07-05T12:59:39Z</time>
      </trkpt>
      <trkpt lat="42.55732" lon="1.88082">
        <ele>1917.49</ele>
        <time>2021-07-05T12:59:47Z</time>
      </trkpt>
      <trkpt lat="42.55732" lon="1.88082">
        <ele>1927.58</ele>
        <time>2021-07-05T12:59:48Z</time>
      </trkpt>
      <trkpt lat="42.55732" lon="1.88082">
        <ele>1922.77</ele>
        <time>2021-07-05T12:59:49Z</time>
      </trkpt>
      <trkpt lat="42.55732" lon="1.88082">
        <ele>1923.74</ele>
        <time>2021-07-05T13:00:03Z</time>
      </trkpt>
      <trkpt lat="42.55731" lon="1.88082">
        <ele>1920.85</ele>
        <time>2021-07-05T13:00:05Z</time>
      </trkpt>
      <trkpt lat="42.55731" lon="1.88082">
        <ele>1923.74</ele>
        <time>2021-07-05T13:00:06Z</time>
      </trkpt>
      <trkpt lat="42.55728" lon="1.88082">
        <ele>1921.81</ele>
        <time>2021-07-05T13:00:14Z</time>
      </trkpt>
      <trkpt lat="42.55728" lon="1.88081">
        <ele>1921.81</ele>
        <time>2021-07-05T13:00:15Z</time>
      </trkpt>
      <trkpt lat="42.55727" lon="1.88079">
        <ele>1920.85</ele>
        <time>2021-07-05T13:00:17Z</time>
      </trkpt>
      <trkpt lat="42.55725" lon="1.88078">
        <ele>1917.01</ele>
        <time>2021-07-05T13:00:19Z</time>
      </trkpt>
      <trkpt lat="42.55725" lon="1.88077">
        <ele>1924.22</ele>
        <time>2021-07-05T13:00:20Z</time>
      </trkpt>
      <trkpt lat="42.55725" lon="1.88077">
        <ele>1921.33</ele>
        <time>2021-07-05T13:00:21Z</time>
      </trkpt>
      <trkpt lat="42.55724" lon="1.88076">
        <ele>1920.37</ele>
        <time>2021-07-05T13:00:22Z</time>
      </trkpt>
      <trkpt lat="42.55721" lon="1.88075">
        <ele>1918.93</ele>
        <time>2021-07-05T13:00:26Z</time>
      </trkpt>
      <trkpt lat="42.55719" lon="1.88072">
        <ele>1917.97</ele>
        <time>2021-07-05T13:00:29Z</time>
      </trkpt>
      <trkpt lat="42.55718" lon="1.8807">
        <ele>1917.49</ele>
        <time>2021-07-05T13:00:31Z</time>
      </trkpt>
      <trkpt lat="42.55714" lon="1.88067">
        <ele>1916.04</ele>
        <time>2021-07-05T13:00:38Z</time>
      </trkpt>
      <trkpt lat="42.55712" lon="1.88064">
        <ele>1915.56</ele>
        <time>2021-07-05T13:00:45Z</time>
      </trkpt>
      <trkpt lat="42.55712" lon="1.88064">
        <ele>1916.04</ele>
        <time>2021-07-05T13:00:52Z</time>
      </trkpt>
      <trkpt lat="42.55712" lon="1.88061">
        <ele>1915.08</ele>
        <time>2021-07-05T13:00:54Z</time>
      </trkpt>
      <trkpt lat="42.55711" lon="1.88058">
        <ele>1913.64</ele>
        <time>2021-07-05T13:00:58Z</time>
      </trkpt>
      <trkpt lat="42.55708" lon="1.88057">
        <ele>1912.68</ele>
        <time>2021-07-05T13:01:04Z</time>
      </trkpt>
      <trkpt lat="42.55703" lon="1.88057">
        <ele>1912.2</ele>
        <time>2021-07-05T13:01:10Z</time>
      </trkpt>
      <trkpt lat="42.55699" lon="1.88055">
        <ele>1910.76</ele>
        <time>2021-07-05T13:01:15Z</time>
      </trkpt>
      <trkpt lat="42.55696" lon="1.8805">
        <ele>1909.8</ele>
        <time>2021-07-05T13:01:23Z</time>
      </trkpt>
      <trkpt lat="42.55697" lon="1.88044">
        <ele>1908.83</ele>
        <time>2021-07-05T13:01:28Z</time>
      </trkpt>
      <trkpt lat="42.55696" lon="1.88042">
        <ele>1907.87</ele>
        <time>2021-07-05T13:01:30Z</time>
      </trkpt>
      <trkpt lat="42.55693" lon="1.88039">
        <ele>1906.91</ele>
        <time>2021-07-05T13:01:34Z</time>
      </trkpt>
      <trkpt lat="42.55688" lon="1.88037">
        <ele>1905.95</ele>
        <time>2021-07-05T13:01:41Z</time>
      </trkpt>
      <trkpt lat="42.55686" lon="1.88034">
        <ele>1905.47</ele>
        <time>2021-07-05T13:01:46Z</time>
      </trkpt>
      <trkpt lat="42.55684" lon="1.88034">
        <ele>1904.03</ele>
        <time>2021-07-05T13:01:49Z</time>
      </trkpt>
      <trkpt lat="42.55683" lon="1.88034">
        <ele>1903.55</ele>
        <time>2021-07-05T13:01:50Z</time>
      </trkpt>
      <trkpt lat="42.5568" lon="1.88036">
        <ele>1902.11</ele>
        <time>2021-07-05T13:01:53Z</time>
      </trkpt>
      <trkpt lat="42.55678" lon="1.88038">
        <ele>1901.63</ele>
        <time>2021-07-05T13:01:55Z</time>
      </trkpt>
      <trkpt lat="42.55672" lon="1.8804">
        <ele>1898.74</ele>
        <time>2021-07-05T13:02:03Z</time>
      </trkpt>
      <trkpt lat="42.55671" lon="1.88039">
        <ele>1898.26</ele>
        <time>2021-07-05T13:02:05Z</time>
      </trkpt>
      <trkpt lat="42.55664" lon="1.88034">
        <ele>1895.86</ele>
        <time>2021-07-05T13:02:11Z</time>
      </trkpt>
      <trkpt lat="42.5566" lon="1.88035">
        <ele>1894.42</ele>
        <time>2021-07-05T13:02:14Z</time>
      </trkpt>
      <trkpt lat="42.55652" lon="1.88039">
        <ele>1893.45</ele>
        <time>2021-07-05T13:02:20Z</time>
      </trkpt>
      <trkpt lat="42.55646" lon="1.88048">
        <ele>1890.57</ele>
        <time>2021-07-05T13:02:27Z</time>
      </trkpt>
      <trkpt lat="42.55646" lon="1.88049">
        <ele>1890.09</ele>
        <time>2021-07-05T13:02:30Z</time>
      </trkpt>
      <trkpt lat="42.55644" lon="1.8805">
        <ele>1889.61</ele>
        <time>2021-07-05T13:02:33Z</time>
      </trkpt>
      <trkpt lat="42.55636" lon="1.88058">
        <ele>1887.21</ele>
        <time>2021-07-05T13:02:41Z</time>
      </trkpt>
      <trkpt lat="42.55633" lon="1.88061">
        <ele>1886.72</ele>
        <time>2021-07-05T13:02:43Z</time>
      </trkpt>
      <trkpt lat="42.55627" lon="1.8807">
        <ele>1884.8</ele>
        <time>2021-07-05T13:02:49Z</time>
      </trkpt>
      <trkpt lat="42.5562" lon="1.88076">
        <ele>1883.84</ele>
        <time>2021-07-05T13:02:55Z</time>
      </trkpt>
      <trkpt lat="42.55617" lon="1.88077">
        <ele>1882.88</ele>
        <time>2021-07-05T13:02:57Z</time>
      </trkpt>
      <trkpt lat="42.55608" lon="1.88083">
        <ele>1880.48</ele>
        <time>2021-07-05T13:03:05Z</time>
      </trkpt>
      <trkpt lat="42.55599" lon="1.8809">
        <ele>1877.59</ele>
        <time>2021-07-05T13:03:13Z</time>
      </trkpt>
      <trkpt lat="42.55598" lon="1.88093">
        <ele>1878.55</ele>
        <time>2021-07-05T13:03:19Z</time>
      </trkpt>
      <trkpt lat="42.55597" lon="1.88092">
        <ele>1879.03</ele>
        <time>2021-07-05T13:03:27Z</time>
      </trkpt>
      <trkpt lat="42.55598" lon="1.88095">
        <ele>1877.59</ele>
        <time>2021-07-05T13:03:32Z</time>
      </trkpt>
      <trkpt lat="42.55603" lon="1.88104">
        <ele>1877.11</ele>
        <time>2021-07-05T13:03:39Z</time>
      </trkpt>
      <trkpt lat="42.55603" lon="1.88109">
        <ele>1877.11</ele>
        <time>2021-07-05T13:03:41Z</time>
      </trkpt>
      <trkpt lat="42.55599" lon="1.88127">
        <ele>1876.63</ele>
        <time>2021-07-05T13:03:48Z</time>
      </trkpt>
      <trkpt lat="42.55597" lon="1.88132">
        <ele>1875.67</ele>
        <time>2021-07-05T13:03:51Z</time>
      </trkpt>
      <trkpt lat="42.55595" lon="1.88142">
        <ele>1873.75</ele>
        <time>2021-07-05T13:03:58Z</time>
      </trkpt>
      <trkpt lat="42.55592" lon="1.8815">
        <ele>1872.79</ele>
        <time>2021-07-05T13:04:05Z</time>
      </trkpt>
      <trkpt lat="42.55588" lon="1.88156">
        <ele>1872.3</ele>
        <time>2021-07-05T13:04:11Z</time>
      </trkpt>
      <trkpt lat="42.55587" lon="1.88159">
        <ele>1871.82</ele>
        <time>2021-07-05T13:04:17Z</time>
      </trkpt>
      <trkpt lat="42.55585" lon="1.88161">
        <ele>1871.82</ele>
        <time>2021-07-05T13:04:22Z</time>
      </trkpt>
      <trkpt lat="42.55584" lon="1.88159">
        <ele>1871.34</ele>
        <time>2021-07-05T13:04:27Z</time>
      </trkpt>
      <trkpt lat="42.55583" lon="1.8816">
        <ele>1871.82</ele>
        <time>2021-07-05T13:04:34Z</time>
      </trkpt>
      <trkpt lat="42.55579" lon="1.88158">
        <ele>1869.42</ele>
        <time>2021-07-05T13:04:41Z</time>
      </trkpt>
      <trkpt lat="42.5558" lon="1.88153">
        <ele>1868.46</ele>
        <time>2021-07-05T13:04:48Z</time>
      </trkpt>
      <trkpt lat="42.55578" lon="1.88147">
        <ele>1867.02</ele>
        <time>2021-07-05T13:04:54Z</time>
      </trkpt>
      <trkpt lat="42.55576" lon="1.88147">
        <ele>1866.06</ele>
        <time>2021-07-05T13:04:56Z</time>
      </trkpt>
      <trkpt lat="42.55568" lon="1.88143">
        <ele>1863.17</ele>
        <time>2021-07-05T13:05:04Z</time>
      </trkpt>
      <trkpt lat="42.55565" lon="1.88142">
        <ele>1862.21</ele>
        <time>2021-07-05T13:05:06Z</time>
      </trkpt>
      <trkpt lat="42.55556" lon="1.88139">
        <ele>1860.29</ele>
        <time>2021-07-05T13:05:12Z</time>
      </trkpt>
      <trkpt lat="42.55549" lon="1.88138">
        <ele>1860.29</ele>
        <time>2021-07-05T13:05:17Z</time>
      </trkpt>
      <trkpt lat="42.55542" lon="1.88132">
        <ele>1857.4</ele>
        <time>2021-07-05T13:05:23Z</time>
      </trkpt>
      <trkpt lat="42.55534" lon="1.8812">
        <ele>1857.89</ele>
        <time>2021-07-05T13:05:32Z</time>
      </trkpt>
      <trkpt lat="42.5553" lon="1.88116">
        <ele>1858.37</ele>
        <time>2021-07-05T13:05:35Z</time>
      </trkpt>
      <trkpt lat="42.55526" lon="1.88109">
        <ele>1856.92</ele>
        <time>2021-07-05T13:05:39Z</time>
      </trkpt>
      <trkpt lat="42.55524" lon="1.88107">
        <ele>1857.89</ele>
        <time>2021-07-05T13:05:41Z</time>
      </trkpt>
      <trkpt lat="42.55515" lon="1.88097">
        <ele>1855.48</ele>
        <time>2021-07-05T13:05:49Z</time>
      </trkpt>
      <trkpt lat="42.55512" lon="1.88091">
        <ele>1855.48</ele>
        <time>2021-07-05T13:05:52Z</time>
      </trkpt>
      <trkpt lat="42.55512" lon="1.88081">
        <ele>1855</ele>
        <time>2021-07-05T13:05:58Z</time>
      </trkpt>
      <trkpt lat="42.55512" lon="1.8807">
        <ele>1855.48</ele>
        <time>2021-07-05T13:06:05Z</time>
      </trkpt>
      <trkpt lat="42.55513" lon="1.88068">
        <ele>1855</ele>
        <time>2021-07-05T13:06:16Z</time>
      </trkpt>
      <trkpt lat="42.55514" lon="1.88069">
        <ele>1855</ele>
        <time>2021-07-05T13:06:25Z</time>
      </trkpt>
      <trkpt lat="42.55515" lon="1.8807">
        <ele>1855</ele>
        <time>2021-07-05T13:06:31Z</time>
      </trkpt>
      <trkpt lat="42.55514" lon="1.88071">
        <ele>1855.48</ele>
        <time>2021-07-05T13:06:38Z</time>
      </trkpt>
      <trkpt lat="42.55515" lon="1.88072">
        <ele>1855.48</ele>
        <time>2021-07-05T13:06:53Z</time>
      </trkpt>
      <trkpt lat="42.55514" lon="1.88073">
        <ele>1855.48</ele>
        <time>2021-07-05T13:07:10Z</time>
      </trkpt>
      <trkpt lat="42.55514" lon="1.88072">
        <ele>1855.96</ele>
        <time>2021-07-05T13:07:22Z</time>
      </trkpt>
      <trkpt lat="42.55513" lon="1.88072">
        <ele>1855.96</ele>
        <time>2021-07-05T13:07:26Z</time>
      </trkpt>
      <trkpt lat="42.55509" lon="1.88078">
        <ele>1854.04</ele>
        <time>2021-07-05T13:07:30Z</time>
      </trkpt>
      <trkpt lat="42.555" lon="1.88088">
        <ele>1853.56</ele>
        <time>2021-07-05T13:07:39Z</time>
      </trkpt>
      <trkpt lat="42.5549" lon="1.88099">
        <ele>1852.6</ele>
        <time>2021-07-05T13:07:48Z</time>
      </trkpt>
      <trkpt lat="42.55482" lon="1.88108">
        <ele>1853.08</ele>
        <time>2021-07-05T13:07:54Z</time>
      </trkpt>
      <trkpt lat="42.55479" lon="1.88114">
        <ele>1852.6</ele>
        <time>2021-07-05T13:08:00Z</time>
      </trkpt>
      <trkpt lat="42.55474" lon="1.88122">
        <ele>1850.68</ele>
        <time>2021-07-05T13:08:07Z</time>
      </trkpt>
      <trkpt lat="42.55472" lon="1.88135">
        <ele>1850.19</ele>
        <time>2021-07-05T13:08:14Z</time>
      </trkpt>
      <trkpt lat="42.55472" lon="1.88141">
        <ele>1849.71</ele>
        <time>2021-07-05T13:08:21Z</time>
      </trkpt>
      <trkpt lat="42.55472" lon="1.88143">
        <ele>1849.23</ele>
        <time>2021-07-05T13:08:29Z</time>
      </trkpt>
      <trkpt lat="42.55472" lon="1.88146">
        <ele>1848.27</ele>
        <time>2021-07-05T13:08:38Z</time>
      </trkpt>
      <trkpt lat="42.55469" lon="1.88152">
        <ele>1846.83</ele>
        <time>2021-07-05T13:08:44Z</time>
      </trkpt>
      <trkpt lat="42.55467" lon="1.88149">
        <ele>1846.35</ele>
        <time>2021-07-05T13:08:49Z</time>
      </trkpt>
      <trkpt lat="42.55464" lon="1.88145">
        <ele>1845.39</ele>
        <time>2021-07-05T13:08:55Z</time>
      </trkpt>
      <trkpt lat="42.55464" lon="1.88145">
        <ele>1844.91</ele>
        <time>2021-07-05T13:08:56Z</time>
      </trkpt>
      <trkpt lat="42.55462" lon="1.88146">
        <ele>1843.95</ele>
        <time>2021-07-05T13:08:58Z</time>
      </trkpt>
      <trkpt lat="42.55455" lon="1.88147">
        <ele>1843.47</ele>
        <time>2021-07-05T13:09:02Z</time>
      </trkpt>
      <trkpt lat="42.55452" lon="1.88145">
        <ele>1842.98</ele>
        <time>2021-07-05T13:09:04Z</time>
      </trkpt>
      <trkpt lat="42.55445" lon="1.88142">
        <ele>1842.98</ele>
        <time>2021-07-05T13:09:11Z</time>
      </trkpt>
      <trkpt lat="42.5544" lon="1.88139">
        <ele>1842.5</ele>
        <time>2021-07-05T13:09:17Z</time>
      </trkpt>
      <trkpt lat="42.55433" lon="1.88133">
        <ele>1841.06</ele>
        <time>2021-07-05T13:09:23Z</time>
      </trkpt>
      <trkpt lat="42.55428" lon="1.88132">
        <ele>1840.58</ele>
        <time>2021-07-05T13:09:29Z</time>
      </trkpt>
      <trkpt lat="42.55425" lon="1.88132">
        <ele>1840.58</ele>
        <time>2021-07-05T13:09:36Z</time>
      </trkpt>
      <trkpt lat="42.55418" lon="1.88133">
        <ele>1839.62</ele>
        <time>2021-07-05T13:09:43Z</time>
      </trkpt>
      <trkpt lat="42.55414" lon="1.88134">
        <ele>1838.66</ele>
        <time>2021-07-05T13:09:50Z</time>
      </trkpt>
      <trkpt lat="42.55407" lon="1.88139">
        <ele>1838.18</ele>
        <time>2021-07-05T13:09:56Z</time>
      </trkpt>
      <trkpt lat="42.55402" lon="1.88143">
        <ele>1837.7</ele>
        <time>2021-07-05T13:10:03Z</time>
      </trkpt>
      <trkpt lat="42.55398" lon="1.88145">
        <ele>1836.74</ele>
        <time>2021-07-05T13:10:08Z</time>
      </trkpt>
      <trkpt lat="42.55393" lon="1.88151">
        <ele>1834.33</ele>
        <time>2021-07-05T13:10:14Z</time>
      </trkpt>
      <trkpt lat="42.55391" lon="1.88153">
        <ele>1834.33</ele>
        <time>2021-07-05T13:10:16Z</time>
      </trkpt>
      <trkpt lat="42.55385" lon="1.88161">
        <ele>1832.41</ele>
        <time>2021-07-05T13:10:23Z</time>
      </trkpt>
      <trkpt lat="42.55382" lon="1.88165">
        <ele>1831.93</ele>
        <time>2021-07-05T13:10:31Z</time>
      </trkpt>
      <trkpt lat="42.55379" lon="1.88171">
        <ele>1829.53</ele>
        <time>2021-07-05T13:10:38Z</time>
      </trkpt>
      <trkpt lat="42.55376" lon="1.88173">
        <ele>1828.56</ele>
        <time>2021-07-05T13:10:44Z</time>
      </trkpt>
      <trkpt lat="42.55376" lon="1.88176">
        <ele>1827.6</ele>
        <time>2021-07-05T13:10:52Z</time>
      </trkpt>
      <trkpt lat="42.55372" lon="1.88179">
        <ele>1826.16</ele>
        <time>2021-07-05T13:10:59Z</time>
      </trkpt>
      <trkpt lat="42.55367" lon="1.88181">
        <ele>1824.72</ele>
        <time>2021-07-05T13:11:07Z</time>
      </trkpt>
      <trkpt lat="42.55367" lon="1.8818">
        <ele>1822.8</ele>
        <time>2021-07-05T13:11:15Z</time>
      </trkpt>
      <trkpt lat="42.55367" lon="1.88179">
        <ele>1822.32</ele>
        <time>2021-07-05T13:11:22Z</time>
      </trkpt>
      <trkpt lat="42.55363" lon="1.8818">
        <ele>1821.35</ele>
        <time>2021-07-05T13:11:26Z</time>
      </trkpt>
      <trkpt lat="42.5536" lon="1.88178">
        <ele>1821.35</ele>
        <time>2021-07-05T13:11:29Z</time>
      </trkpt>
      <trkpt lat="42.55353" lon="1.8817">
        <ele>1820.39</ele>
        <time>2021-07-05T13:11:37Z</time>
      </trkpt>
      <trkpt lat="42.55352" lon="1.88169">
        <ele>1819.91</ele>
        <time>2021-07-05T13:11:38Z</time>
      </trkpt>
      <trkpt lat="42.55346" lon="1.88164">
        <ele>1818.47</ele>
        <time>2021-07-05T13:11:43Z</time>
      </trkpt>
      <trkpt lat="42.5534" lon="1.88155">
        <ele>1816.55</ele>
        <time>2021-07-05T13:11:50Z</time>
      </trkpt>
      <trkpt lat="42.55339" lon="1.88151">
        <ele>1815.59</ele>
        <time>2021-07-05T13:11:56Z</time>
      </trkpt>
      <trkpt lat="42.55338" lon="1.8815">
        <ele>1814.15</ele>
        <time>2021-07-05T13:12:02Z</time>
      </trkpt>
      <trkpt lat="42.55335" lon="1.88154">
        <ele>1813.66</ele>
        <time>2021-07-05T13:12:09Z</time>
      </trkpt>
      <trkpt lat="42.55333" lon="1.88153">
        <ele>1812.22</ele>
        <time>2021-07-05T13:12:14Z</time>
      </trkpt>
      <trkpt lat="42.55328" lon="1.88151">
        <ele>1809.82</ele>
        <time>2021-07-05T13:12:21Z</time>
      </trkpt>
      <trkpt lat="42.55327" lon="1.88147">
        <ele>1808.38</ele>
        <time>2021-07-05T13:12:27Z</time>
      </trkpt>
      <trkpt lat="42.55325" lon="1.88143">
        <ele>1806.94</ele>
        <time>2021-07-05T13:12:34Z</time>
      </trkpt>
      <trkpt lat="42.55322" lon="1.88142">
        <ele>1804.53</ele>
        <time>2021-07-05T13:12:40Z</time>
      </trkpt>
      <trkpt lat="42.55317" lon="1.88145">
        <ele>1802.61</ele>
        <time>2021-07-05T13:12:48Z</time>
      </trkpt>
      <trkpt lat="42.55314" lon="1.88146">
        <ele>1801.65</ele>
        <time>2021-07-05T13:12:52Z</time>
      </trkpt>
      <trkpt lat="42.55308" lon="1.88148">
        <ele>1799.24</ele>
        <time>2021-07-05T13:12:58Z</time>
      </trkpt>
      <trkpt lat="42.55304" lon="1.8815">
        <ele>1797.8</ele>
        <time>2021-07-05T13:13:06Z</time>
      </trkpt>
      <trkpt lat="42.55299" lon="1.88154">
        <ele>1797.8</ele>
        <time>2021-07-05T13:13:11Z</time>
      </trkpt>
      <trkpt lat="42.55295" lon="1.8816">
        <ele>1795.88</ele>
        <time>2021-07-05T13:13:18Z</time>
      </trkpt>
      <trkpt lat="42.55293" lon="1.88165">
        <ele>1794.44</ele>
        <time>2021-07-05T13:13:25Z</time>
      </trkpt>
      <trkpt lat="42.55293" lon="1.88166">
        <ele>1793.96</ele>
        <time>2021-07-05T13:13:26Z</time>
      </trkpt>
      <trkpt lat="42.55291" lon="1.88171">
        <ele>1792.03</ele>
        <time>2021-07-05T13:13:33Z</time>
      </trkpt>
      <trkpt lat="42.5529" lon="1.88173">
        <ele>1790.11</ele>
        <time>2021-07-05T13:13:42Z</time>
      </trkpt>
      <trkpt lat="42.5529" lon="1.88174">
        <ele>1789.63</ele>
        <time>2021-07-05T13:13:50Z</time>
      </trkpt>
      <trkpt lat="42.55287" lon="1.88175">
        <ele>1788.67</ele>
        <time>2021-07-05T13:13:57Z</time>
      </trkpt>
      <trkpt lat="42.55285" lon="1.88174">
        <ele>1787.71</ele>
        <time>2021-07-05T13:14:04Z</time>
      </trkpt>
      <trkpt lat="42.55284" lon="1.88177">
        <ele>1785.79</ele>
        <time>2021-07-05T13:14:10Z</time>
      </trkpt>
      <trkpt lat="42.55282" lon="1.88177">
        <ele>1784.82</ele>
        <time>2021-07-05T13:14:17Z</time>
      </trkpt>
      <trkpt lat="42.5528" lon="1.88176">
        <ele>1782.9</ele>
        <time>2021-07-05T13:14:23Z</time>
      </trkpt>
      <trkpt lat="42.55277" lon="1.88173">
        <ele>1781.94</ele>
        <time>2021-07-05T13:14:30Z</time>
      </trkpt>
      <trkpt lat="42.55276" lon="1.88174">
        <ele>1780.98</ele>
        <time>2021-07-05T13:14:35Z</time>
      </trkpt>
      <trkpt lat="42.55272" lon="1.88171">
        <ele>1779.06</ele>
        <time>2021-07-05T13:14:44Z</time>
      </trkpt>
      <trkpt lat="42.5527" lon="1.88172">
        <ele>1777.13</ele>
        <time>2021-07-05T13:14:50Z</time>
      </trkpt>
      <trkpt lat="42.55267" lon="1.8817">
        <ele>1775.69</ele>
        <time>2021-07-05T13:14:55Z</time>
      </trkpt>
      <trkpt lat="42.55265" lon="1.88165">
        <ele>1775.21</ele>
        <time>2021-07-05T13:15:00Z</time>
      </trkpt>
      <trkpt lat="42.55265" lon="1.88165">
        <ele>1775.21</ele>
        <time>2021-07-05T13:15:01Z</time>
      </trkpt>
      <trkpt lat="42.55262" lon="1.88162">
        <ele>1773.77</ele>
        <time>2021-07-05T13:15:07Z</time>
      </trkpt>
      <trkpt lat="42.55261" lon="1.88157">
        <ele>1772.33</ele>
        <time>2021-07-05T13:15:13Z</time>
      </trkpt>
      <trkpt lat="42.5526" lon="1.88151">
        <ele>1770.89</ele>
        <time>2021-07-05T13:15:20Z</time>
      </trkpt>
      <trkpt lat="42.55258" lon="1.88141">
        <ele>1769.92</ele>
        <time>2021-07-05T13:15:27Z</time>
      </trkpt>
      <trkpt lat="42.55258" lon="1.88135">
        <ele>1768</ele>
        <time>2021-07-05T13:15:34Z</time>
      </trkpt>
      <trkpt lat="42.55254" lon="1.88126">
        <ele>1766.56</ele>
        <time>2021-07-05T13:15:42Z</time>
      </trkpt>
      <trkpt lat="42.55255" lon="1.88121">
        <ele>1765.12</ele>
        <time>2021-07-05T13:15:49Z</time>
      </trkpt>
      <trkpt lat="42.55253" lon="1.88117">
        <ele>1763.68</ele>
        <time>2021-07-05T13:15:56Z</time>
      </trkpt>
      <trkpt lat="42.55253" lon="1.88116">
        <ele>1763.2</ele>
        <time>2021-07-05T13:15:57Z</time>
      </trkpt>
      <trkpt lat="42.5525" lon="1.88108">
        <ele>1763.2</ele>
        <time>2021-07-05T13:16:03Z</time>
      </trkpt>
      <trkpt lat="42.55246" lon="1.88101">
        <ele>1762.23</ele>
        <time>2021-07-05T13:16:09Z</time>
      </trkpt>
      <trkpt lat="42.55245" lon="1.88096">
        <ele>1761.27</ele>
        <time>2021-07-05T13:16:16Z</time>
      </trkpt>
      <trkpt lat="42.55246" lon="1.88089">
        <ele>1759.83</ele>
        <time>2021-07-05T13:16:21Z</time>
      </trkpt>
      <trkpt lat="42.5524" lon="1.88083">
        <ele>1759.35</ele>
        <time>2021-07-05T13:16:27Z</time>
      </trkpt>
      <trkpt lat="42.55237" lon="1.88076">
        <ele>1758.39</ele>
        <time>2021-07-05T13:16:34Z</time>
      </trkpt>
      <trkpt lat="42.55236" lon="1.88071">
        <ele>1757.91</ele>
        <time>2021-07-05T13:16:41Z</time>
      </trkpt>
      <trkpt lat="42.55237" lon="1.88068">
        <ele>1757.91</ele>
        <time>2021-07-05T13:16:43Z</time>
      </trkpt>
      <trkpt lat="42.55236" lon="1.88062">
        <ele>1757.43</ele>
        <time>2021-07-05T13:16:49Z</time>
      </trkpt>
      <trkpt lat="42.55237" lon="1.88057">
        <ele>1755.99</ele>
        <time>2021-07-05T13:16:55Z</time>
      </trkpt>
      <trkpt lat="42.55236" lon="1.88053">
        <ele>1755.02</ele>
        <time>2021-07-05T13:17:00Z</time>
      </trkpt>
      <trkpt lat="42.55237" lon="1.88045">
        <ele>1753.1</ele>
        <time>2021-07-05T13:17:06Z</time>
      </trkpt>
      <trkpt lat="42.55237" lon="1.88034">
        <ele>1752.62</ele>
        <time>2021-07-05T13:17:12Z</time>
      </trkpt>
      <trkpt lat="42.55236" lon="1.88027">
        <ele>1752.62</ele>
        <time>2021-07-05T13:17:18Z</time>
      </trkpt>
      <trkpt lat="42.55234" lon="1.8802">
        <ele>1752.62</ele>
        <time>2021-07-05T13:17:24Z</time>
      </trkpt>
      <trkpt lat="42.55232" lon="1.88008">
        <ele>1752.14</ele>
        <time>2021-07-05T13:17:32Z</time>
      </trkpt>
      <trkpt lat="42.55234" lon="1.88001">
        <ele>1750.7</ele>
        <time>2021-07-05T13:17:39Z</time>
      </trkpt>
      <trkpt lat="42.55234" lon="1.88">
        <ele>1750.22</ele>
        <time>2021-07-05T13:17:47Z</time>
      </trkpt>
      <trkpt lat="42.55234" lon="1.87999">
        <ele>1749.74</ele>
        <time>2021-07-05T13:17:56Z</time>
      </trkpt>
      <trkpt lat="42.55229" lon="1.87996">
        <ele>1749.26</ele>
        <time>2021-07-05T13:18:03Z</time>
      </trkpt>
      <trkpt lat="42.55223" lon="1.87995">
        <ele>1746.85</ele>
        <time>2021-07-05T13:18:12Z</time>
      </trkpt>
      <trkpt lat="42.55216" lon="1.88002">
        <ele>1747.33</ele>
        <time>2021-07-05T13:18:20Z</time>
      </trkpt>
      <trkpt lat="42.55215" lon="1.88">
        <ele>1747.33</ele>
        <time>2021-07-05T13:18:31Z</time>
      </trkpt>
      <trkpt lat="42.55215" lon="1.87999">
        <ele>1747.33</ele>
        <time>2021-07-05T13:18:38Z</time>
      </trkpt>
      <trkpt lat="42.55213" lon="1.88">
        <ele>1747.81</ele>
        <time>2021-07-05T13:18:45Z</time>
      </trkpt>
      <trkpt lat="42.55213" lon="1.87999">
        <ele>1747.33</ele>
        <time>2021-07-05T13:18:57Z</time>
      </trkpt>
      <trkpt lat="42.55211" lon="1.88001">
        <ele>1747.33</ele>
        <time>2021-07-05T13:19:03Z</time>
      </trkpt>
      <trkpt lat="42.55206" lon="1.88013">
        <ele>1746.85</ele>
        <time>2021-07-05T13:19:11Z</time>
      </trkpt>
      <trkpt lat="42.55199" lon="1.88019">
        <ele>1746.85</ele>
        <time>2021-07-05T13:19:17Z</time>
      </trkpt>
      <trkpt lat="42.55193" lon="1.88021">
        <ele>1747.81</ele>
        <time>2021-07-05T13:19:26Z</time>
      </trkpt>
      <trkpt lat="42.55192" lon="1.88021">
        <ele>1746.85</ele>
        <time>2021-07-05T13:19:27Z</time>
      </trkpt>
      <trkpt lat="42.55184" lon="1.88028">
        <ele>1748.78</ele>
        <time>2021-07-05T13:19:36Z</time>
      </trkpt>
      <trkpt lat="42.55183" lon="1.8803">
        <ele>1747.81</ele>
        <time>2021-07-05T13:19:45Z</time>
      </trkpt>
    </trkseg>
  </trk>
</gpx>